<?xml version="1.0" encoding="UTF-8"?>
<TrainingCenterDatabase xmlns="http://www.garmin.com/xmlschemas/TrainingCenterDatabase/v2" xmlns:xsi="http://www.w3.org/2001/XMLSchema-instance" xsi:schemaLocation="http://www.garmin.com/xmlschemas/TrainingCenterDatabase/v2 http://www.garmin.com/xmlschemas/TrainingCenterDatabasev2.xsd">
  <Activities>
    <Activity Sport="Other">
      <Id>2021-03-21T11:03:51.000Z</Id>
      <Lap StartTime="2021-03-21T11:03:51.000Z">
        <TotalTimeSeconds>12341</TotalTimeSeconds>
        <DistanceMeters>4020</DistanceMeters>
        <Track>
          <Trackpoint>
            <Time>2021-03-21T11:03:51.000Z</Time>
            <Position>
              <LatitudeDegrees>36.7340552620589733123779296875</LatitudeDegrees>
              <LongitudeDegrees>-5.46734067611396312713623046875</LongitudeDegrees>
            </Position>
            <AltitudeMeters>48.59999847412109375</AltitudeMeters>
            <DistanceMeters>0</DistanceMeters>
          </Trackpoint>
          <Trackpoint>
            <Time>2021-03-21T11:03:53.000Z</Time>
            <Position>
              <LatitudeDegrees>36.7340317927300930023193359375</LatitudeDegrees>
              <LongitudeDegrees>-5.4673271812498569488525390625</LongitudeDegrees>
            </Position>
            <AltitudeMeters>49</AltitudeMeters>
            <DistanceMeters>2.8760302541285</DistanceMeters>
          </Trackpoint>
          <Trackpoint>
            <Time>2021-03-21T11:03:55.000Z</Time>
            <Position>
              <LatitudeDegrees>36.73400304280221462249755859375</LatitudeDegrees>
              <LongitudeDegrees>-5.46731620095670223236083984375</LongitudeDegrees>
            </Position>
            <AltitudeMeters>49.40000152587890625</AltitudeMeters>
            <DistanceMeters>6.2222661678834</DistanceMeters>
          </Trackpoint>
          <Trackpoint>
            <Time>2021-03-21T11:03:56.000Z</Time>
            <Position>
              <LatitudeDegrees>36.73399734310805797576904296875</LatitudeDegrees>
              <LongitudeDegrees>-5.4673097468912601470947265625</LongitudeDegrees>
            </Position>
            <AltitudeMeters>49.40000152587890625</AltitudeMeters>
            <DistanceMeters>7.0827696649154</DistanceMeters>
          </Trackpoint>
          <Trackpoint>
            <Time>2021-03-21T11:04:08.000Z</Time>
            <Position>
              <LatitudeDegrees>36.7340022884309291839599609375</LatitudeDegrees>
              <LongitudeDegrees>-5.467249564826488494873046875</LongitudeDegrees>
            </Position>
            <AltitudeMeters>48.59999847412109375</AltitudeMeters>
            <DistanceMeters>12.478412949577</DistanceMeters>
          </Trackpoint>
          <Trackpoint>
            <Time>2021-03-21T11:04:18.000Z</Time>
            <Position>
              <LatitudeDegrees>36.73401712439954280853271484375</LatitudeDegrees>
              <LongitudeDegrees>-5.46722852624952793121337890625</LongitudeDegrees>
            </Position>
            <AltitudeMeters>48</AltitudeMeters>
            <DistanceMeters>14.978175518145</DistanceMeters>
          </Trackpoint>
          <Trackpoint>
            <Time>2021-03-21T11:05:05.000Z</Time>
            <Position>
              <LatitudeDegrees>36.734055094420909881591796875</LatitudeDegrees>
              <LongitudeDegrees>-5.46715878881514072418212890625</LongitudeDegrees>
            </Position>
            <AltitudeMeters>47.40000152587890625</AltitudeMeters>
            <DistanceMeters>22.497905479523</DistanceMeters>
          </Trackpoint>
          <Trackpoint>
            <Time>2021-03-21T11:05:09.000Z</Time>
            <Position>
              <LatitudeDegrees>36.734049059450626373291015625</LatitudeDegrees>
              <LongitudeDegrees>-5.46715610660612583160400390625</LongitudeDegrees>
            </Position>
            <AltitudeMeters>47.59999847412109375</AltitudeMeters>
            <DistanceMeters>23.20902029505</DistanceMeters>
          </Trackpoint>
          <Trackpoint>
            <Time>2021-03-21T11:05:12.000Z</Time>
            <Position>
              <LatitudeDegrees>36.73403170891106128692626953125</LatitudeDegrees>
              <LongitudeDegrees>-5.4671471379697322845458984375</LongitudeDegrees>
            </Position>
            <AltitudeMeters>47.59999847412109375</AltitudeMeters>
            <DistanceMeters>25.29960801119</DistanceMeters>
          </Trackpoint>
          <Trackpoint>
            <Time>2021-03-21T11:05:20.000Z</Time>
            <Position>
              <LatitudeDegrees>36.73402684740722179412841796875</LatitudeDegrees>
              <LongitudeDegrees>-5.46713297255337238311767578125</LongitudeDegrees>
            </Position>
            <AltitudeMeters>47.59999847412109375</AltitudeMeters>
            <DistanceMeters>26.676675930078</DistanceMeters>
          </Trackpoint>
          <Trackpoint>
            <Time>2021-03-21T11:05:42.000Z</Time>
            <Position>
              <LatitudeDegrees>36.73405316658318042755126953125</LatitudeDegrees>
              <LongitudeDegrees>-5.46699483878910541534423828125</LongitudeDegrees>
            </Position>
            <AltitudeMeters>49.200000762939453125</AltitudeMeters>
            <DistanceMeters>39.34163735418</DistanceMeters>
          </Trackpoint>
          <Trackpoint>
            <Time>2021-03-21T11:06:01.000Z</Time>
            <Position>
              <LatitudeDegrees>36.73409976996481418609619140625</LatitudeDegrees>
              <LongitudeDegrees>-5.4669486545026302337646484375</LongitudeDegrees>
            </Position>
            <AltitudeMeters>50.200000762939453125</AltitudeMeters>
            <DistanceMeters>45.965619648932</DistanceMeters>
          </Trackpoint>
          <Trackpoint>
            <Time>2021-03-21T11:06:14.000Z</Time>
            <Position>
              <LatitudeDegrees>36.73414863646030426025390625</LatitudeDegrees>
              <LongitudeDegrees>-5.46690833754837512969970703125</LongitudeDegrees>
            </Position>
            <AltitudeMeters>51.200000762939453125</AltitudeMeters>
            <DistanceMeters>52.485865035276</DistanceMeters>
          </Trackpoint>
          <Trackpoint>
            <Time>2021-03-21T11:06:16.000Z</Time>
            <Position>
              <LatitudeDegrees>36.73415542580187320709228515625</LatitudeDegrees>
              <LongitudeDegrees>-5.46689249575138092041015625</LongitudeDegrees>
            </Position>
            <AltitudeMeters>51.200000762939453125</AltitudeMeters>
            <DistanceMeters>54.087283690744</DistanceMeters>
          </Trackpoint>
          <Trackpoint>
            <Time>2021-03-21T11:06:22.000Z</Time>
            <Position>
              <LatitudeDegrees>36.73416749574244022369384765625</LatitudeDegrees>
              <LongitudeDegrees>-5.4668641649186611175537109375</LongitudeDegrees>
            </Position>
            <AltitudeMeters>52.200000762939453125</AltitudeMeters>
            <DistanceMeters>56.947572008069</DistanceMeters>
          </Trackpoint>
          <Trackpoint>
            <Time>2021-03-21T11:06:29.000Z</Time>
            <Position>
              <LatitudeDegrees>36.73417353071272373199462890625</LatitudeDegrees>
              <LongitudeDegrees>-5.46682451851665973663330078125</LongitudeDegrees>
            </Position>
            <AltitudeMeters>53.200000762939453125</AltitudeMeters>
            <DistanceMeters>60.546061916437</DistanceMeters>
          </Trackpoint>
          <Trackpoint>
            <Time>2021-03-21T11:06:38.000Z</Time>
            <Position>
              <LatitudeDegrees>36.7341466248035430908203125</LatitudeDegrees>
              <LongitudeDegrees>-5.46678126789629459381103515625</LongitudeDegrees>
            </Position>
            <AltitudeMeters>54.40000152587890625</AltitudeMeters>
            <DistanceMeters>65.43047201029</DistanceMeters>
          </Trackpoint>
          <Trackpoint>
            <Time>2021-03-21T11:06:43.000Z</Time>
            <Position>
              <LatitudeDegrees>36.73414637334644794464111328125</LatitudeDegrees>
              <LongitudeDegrees>-5.46675913967192173004150390625</LongitudeDegrees>
            </Position>
            <AltitudeMeters>55.40000152587890625</AltitudeMeters>
            <DistanceMeters>67.405565178672</DistanceMeters>
          </Trackpoint>
          <Trackpoint>
            <Time>2021-03-21T11:06:53.000Z</Time>
            <Position>
              <LatitudeDegrees>36.7341146059334278106689453125</LatitudeDegrees>
              <LongitudeDegrees>-5.46672460623085498809814453125</LongitudeDegrees>
            </Position>
            <AltitudeMeters>56.59999847412109375</AltitudeMeters>
            <DistanceMeters>72.095689507245</DistanceMeters>
          </Trackpoint>
          <Trackpoint>
            <Time>2021-03-21T11:07:06.000Z</Time>
            <Position>
              <LatitudeDegrees>36.7341112531721591949462890625</LatitudeDegrees>
              <LongitudeDegrees>-5.4666988737881183624267578125</LongitudeDegrees>
            </Position>
            <AltitudeMeters>57.59999847412109375</AltitudeMeters>
            <DistanceMeters>74.419476440999</DistanceMeters>
          </Trackpoint>
          <Trackpoint>
            <Time>2021-03-21T11:07:26.000Z</Time>
            <Position>
              <LatitudeDegrees>36.73414218239486217498779296875</LatitudeDegrees>
              <LongitudeDegrees>-5.4666894860565662384033203125</LongitudeDegrees>
            </Position>
            <AltitudeMeters>57.40000152587890625</AltitudeMeters>
            <DistanceMeters>77.962329282579</DistanceMeters>
          </Trackpoint>
          <Trackpoint>
            <Time>2021-03-21T11:07:27.000Z</Time>
            <Position>
              <LatitudeDegrees>36.734139919281005859375</LatitudeDegrees>
              <LongitudeDegrees>-5.4666854627430438995361328125</LongitudeDegrees>
            </Position>
            <AltitudeMeters>57.40000152587890625</AltitudeMeters>
            <DistanceMeters>78.387301668599</DistanceMeters>
          </Trackpoint>
          <Trackpoint>
            <Time>2021-03-21T11:07:46.000Z</Time>
            <Position>
              <LatitudeDegrees>36.73413815908133983612060546875</LatitudeDegrees>
              <LongitudeDegrees>-5.46662402339279651641845703125</LongitudeDegrees>
            </Position>
            <AltitudeMeters>58.59999847412109375</AltitudeMeters>
            <DistanceMeters>83.870927709675</DistanceMeters>
          </Trackpoint>
          <Trackpoint>
            <Time>2021-03-21T11:07:53.000Z</Time>
            <Position>
              <LatitudeDegrees>36.73413656651973724365234375</LatitudeDegrees>
              <LongitudeDegrees>-5.466596446931362152099609375</LongitudeDegrees>
            </Position>
            <AltitudeMeters>59</AltitudeMeters>
            <DistanceMeters>86.336133876871</DistanceMeters>
          </Trackpoint>
          <Trackpoint>
            <Time>2021-03-21T11:07:54.000Z</Time>
            <Position>
              <LatitudeDegrees>36.73414402641355991363525390625</LatitudeDegrees>
              <LongitudeDegrees>-5.46658546663820743560791015625</LongitudeDegrees>
            </Position>
            <AltitudeMeters>59</AltitudeMeters>
            <DistanceMeters>87.618114341933</DistanceMeters>
          </Trackpoint>
          <Trackpoint>
            <Time>2021-03-21T11:07:59.000Z</Time>
            <Position>
              <LatitudeDegrees>36.73415626399219036102294921875</LatitudeDegrees>
              <LongitudeDegrees>-5.466538108885288238525390625</LongitudeDegrees>
            </Position>
            <AltitudeMeters>59.40000152587890625</AltitudeMeters>
            <DistanceMeters>92.056991091822</DistanceMeters>
          </Trackpoint>
          <Trackpoint>
            <Time>2021-03-21T11:08:00.000Z</Time>
            <Position>
              <LatitudeDegrees>36.73416380770504474639892578125</LatitudeDegrees>
              <LongitudeDegrees>-5.46652813442051410675048828125</LongitudeDegrees>
            </Position>
            <AltitudeMeters>59.59999847412109375</AltitudeMeters>
            <DistanceMeters>93.277631339091</DistanceMeters>
          </Trackpoint>
          <Trackpoint>
            <Time>2021-03-21T11:08:04.000Z</Time>
            <Position>
              <LatitudeDegrees>36.7341922223567962646484375</LatitudeDegrees>
              <LongitudeDegrees>-5.4664963670074939727783203125</LongitudeDegrees>
            </Position>
            <AltitudeMeters>60.40000152587890625</AltitudeMeters>
            <DistanceMeters>97.524166710259</DistanceMeters>
          </Trackpoint>
          <Trackpoint>
            <Time>2021-03-21T11:08:05.000Z</Time>
            <Position>
              <LatitudeDegrees>36.73419280909001827239990234375</LatitudeDegrees>
              <LongitudeDegrees>-5.46649142168462276458740234375</LongitudeDegrees>
            </Position>
            <AltitudeMeters>60.40000152587890625</AltitudeMeters>
            <DistanceMeters>97.969881508944</DistanceMeters>
          </Trackpoint>
          <Trackpoint>
            <Time>2021-03-21T11:08:08.000Z</Time>
            <Position>
              <LatitudeDegrees>36.73418660648167133331298828125</LatitudeDegrees>
              <LongitudeDegrees>-5.4664827883243560791015625</LongitudeDegrees>
            </Position>
            <AltitudeMeters>61</AltitudeMeters>
            <DistanceMeters>99.002135847945</DistanceMeters>
          </Trackpoint>
          <Trackpoint>
            <Time>2021-03-21T11:08:11.000Z</Time>
            <Position>
              <LatitudeDegrees>36.7341823317110538482666015625</LatitudeDegrees>
              <LongitudeDegrees>-5.46648270450532436370849609375</LongitudeDegrees>
            </Position>
            <AltitudeMeters>61.40000152587890625</AltitudeMeters>
            <DistanceMeters>99.48667891883</DistanceMeters>
          </Trackpoint>
          <Trackpoint>
            <Time>2021-03-21T11:08:18.000Z</Time>
            <Position>
              <LatitudeDegrees>36.73419700004160404205322265625</LatitudeDegrees>
              <LongitudeDegrees>-5.46647918410599231719970703125</LongitudeDegrees>
            </Position>
            <AltitudeMeters>62.200000762939453125</AltitudeMeters>
            <DistanceMeters>101.14896751948</DistanceMeters>
          </Trackpoint>
          <Trackpoint>
            <Time>2021-03-21T11:08:21.000Z</Time>
            <Position>
              <LatitudeDegrees>36.73421694897115230560302734375</LatitudeDegrees>
              <LongitudeDegrees>-5.4664802737534046173095703125</LongitudeDegrees>
            </Position>
            <AltitudeMeters>62.59999847412109375</AltitudeMeters>
            <DistanceMeters>103.37348586988</DistanceMeters>
          </Trackpoint>
          <Trackpoint>
            <Time>2021-03-21T11:08:25.000Z</Time>
            <Position>
              <LatitudeDegrees>36.73421879298985004425048828125</LatitudeDegrees>
              <LongitudeDegrees>-5.4664866439998149871826171875</LongitudeDegrees>
            </Position>
            <AltitudeMeters>62.59999847412109375</AltitudeMeters>
            <DistanceMeters>103.97448758183</DistanceMeters>
          </Trackpoint>
          <Trackpoint>
            <Time>2021-03-21T11:08:43.000Z</Time>
            <Position>
              <LatitudeDegrees>36.73416338860988616943359375</LatitudeDegrees>
              <LongitudeDegrees>-5.46650935895740985870361328125</LongitudeDegrees>
            </Position>
            <AltitudeMeters>60.40000152587890625</AltitudeMeters>
            <DistanceMeters>110.46558430638</DistanceMeters>
          </Trackpoint>
          <Trackpoint>
            <Time>2021-03-21T11:08:49.000Z</Time>
            <Position>
              <LatitudeDegrees>36.7341506481170654296875</LatitudeDegrees>
              <LongitudeDegrees>-5.46651790849864482879638671875</LongitudeDegrees>
            </Position>
            <AltitudeMeters>59</AltitudeMeters>
            <DistanceMeters>112.07263186727</DistanceMeters>
          </Trackpoint>
          <Trackpoint>
            <Time>2021-03-21T11:08:59.000Z</Time>
            <Position>
              <LatitudeDegrees>36.73416229896247386932373046875</LatitudeDegrees>
              <LongitudeDegrees>-5.466510616242885589599609375</LongitudeDegrees>
            </Position>
            <AltitudeMeters>60</AltitudeMeters>
            <DistanceMeters>113.52315170907</DistanceMeters>
          </Trackpoint>
          <Trackpoint>
            <Time>2021-03-21T11:09:02.000Z</Time>
            <Position>
              <LatitudeDegrees>36.73415777273476123809814453125</LatitudeDegrees>
              <LongitudeDegrees>-5.4665074311196804046630859375</LongitudeDegrees>
            </Position>
            <AltitudeMeters>59</AltitudeMeters>
            <DistanceMeters>114.09331199529</DistanceMeters>
          </Trackpoint>
          <Trackpoint>
            <Time>2021-03-21T11:09:22.000Z</Time>
            <Position>
              <LatitudeDegrees>36.73419423401355743408203125</LatitudeDegrees>
              <LongitudeDegrees>-5.466468371450901031494140625</LongitudeDegrees>
            </Position>
            <AltitudeMeters>59.200000762939453125</AltitudeMeters>
            <DistanceMeters>119.44188957951</DistanceMeters>
          </Trackpoint>
          <Trackpoint>
            <Time>2021-03-21T11:09:28.000Z</Time>
            <Position>
              <LatitudeDegrees>36.7341665737330913543701171875</LatitudeDegrees>
              <LongitudeDegrees>-5.46647801063954830169677734375</LongitudeDegrees>
            </Position>
            <AltitudeMeters>59.40000152587890625</AltitudeMeters>
            <DistanceMeters>122.63908311988</DistanceMeters>
          </Trackpoint>
          <Trackpoint>
            <Time>2021-03-21T11:09:31.000Z</Time>
            <Position>
              <LatitudeDegrees>36.734159700572490692138671875</LatitudeDegrees>
              <LongitudeDegrees>-5.4664666950702667236328125</LongitudeDegrees>
            </Position>
            <AltitudeMeters>59.200000762939453125</AltitudeMeters>
            <DistanceMeters>123.90689762012</DistanceMeters>
          </Trackpoint>
          <Trackpoint>
            <Time>2021-03-21T11:09:37.000Z</Time>
            <Position>
              <LatitudeDegrees>36.73411200754344463348388671875</LatitudeDegrees>
              <LongitudeDegrees>-5.46647935174405574798583984375</LongitudeDegrees>
            </Position>
            <AltitudeMeters>58.59999847412109375</AltitudeMeters>
            <DistanceMeters>129.33424590083</DistanceMeters>
          </Trackpoint>
          <Trackpoint>
            <Time>2021-03-21T11:09:38.000Z</Time>
            <Position>
              <LatitudeDegrees>36.73411167226731777191162109375</LatitudeDegrees>
              <LongitudeDegrees>-5.46648086048662662506103515625</LongitudeDegrees>
            </Position>
            <AltitudeMeters>59</AltitudeMeters>
            <DistanceMeters>129.46863396908</DistanceMeters>
          </Trackpoint>
          <Trackpoint>
            <Time>2021-03-21T11:09:39.000Z</Time>
            <Position>
              <LatitudeDegrees>36.73410999588668346405029296875</LatitudeDegrees>
              <LongitudeDegrees>-5.466483123600482940673828125</LongitudeDegrees>
            </Position>
            <AltitudeMeters>59.200000762939453125</AltitudeMeters>
            <DistanceMeters>129.73741010558</DistanceMeters>
          </Trackpoint>
          <Trackpoint>
            <Time>2021-03-21T11:09:40.000Z</Time>
            <Position>
              <LatitudeDegrees>36.73410882242023944854736328125</LatitudeDegrees>
              <LongitudeDegrees>-5.466483794152736663818359375</LongitudeDegrees>
            </Position>
            <AltitudeMeters>58.40000152587890625</AltitudeMeters>
            <DistanceMeters>129.87179817383</DistanceMeters>
          </Trackpoint>
          <Trackpoint>
            <Time>2021-03-21T11:09:41.000Z</Time>
            <Position>
              <LatitudeDegrees>36.7341095767915248870849609375</LatitudeDegrees>
              <LongitudeDegrees>-5.4664866439998149871826171875</LongitudeDegrees>
            </Position>
            <AltitudeMeters>58.40000152587890625</AltitudeMeters>
            <DistanceMeters>130.14057431033</DistanceMeters>
          </Trackpoint>
          <Trackpoint>
            <Time>2021-03-21T11:09:42.000Z</Time>
            <Position>
              <LatitudeDegrees>36.73410798422992229461669921875</LatitudeDegrees>
              <LongitudeDegrees>-5.46649008058011531829833984375</LongitudeDegrees>
            </Position>
            <AltitudeMeters>58.40000152587890625</AltitudeMeters>
            <DistanceMeters>130.49613171809</DistanceMeters>
          </Trackpoint>
          <Trackpoint>
            <Time>2021-03-21T11:09:43.000Z</Time>
            <Position>
              <LatitudeDegrees>36.73410865478217601776123046875</LatitudeDegrees>
              <LongitudeDegrees>-5.46649259515106678009033203125</LongitudeDegrees>
            </Position>
            <AltitudeMeters>58.40000152587890625</AltitudeMeters>
            <DistanceMeters>130.76490785459</DistanceMeters>
          </Trackpoint>
          <Trackpoint>
            <Time>2021-03-21T11:09:52.000Z</Time>
            <Position>
              <LatitudeDegrees>36.7341286875307559967041015625</LatitudeDegrees>
              <LongitudeDegrees>-5.46647599898278713226318359375</LongitudeDegrees>
            </Position>
            <AltitudeMeters>57.799999237060546875</AltitudeMeters>
            <DistanceMeters>133.44425680032</DistanceMeters>
          </Trackpoint>
          <Trackpoint>
            <Time>2021-03-21T11:10:06.000Z</Time>
            <Position>
              <LatitudeDegrees>36.73414922319352626800537109375</LatitudeDegrees>
              <LongitudeDegrees>-5.4664715565741062164306640625</LongitudeDegrees>
            </Position>
            <AltitudeMeters>59.200000762939453125</AltitudeMeters>
            <DistanceMeters>135.76415454819</DistanceMeters>
          </Trackpoint>
          <Trackpoint>
            <Time>2021-03-21T11:10:07.000Z</Time>
            <Position>
              <LatitudeDegrees>36.7341511510312557220458984375</LatitudeDegrees>
              <LongitudeDegrees>-5.46647004783153533935546875</LongitudeDegrees>
            </Position>
            <AltitudeMeters>58.799999237060546875</AltitudeMeters>
            <DistanceMeters>136.01557160232</DistanceMeters>
          </Trackpoint>
          <Trackpoint>
            <Time>2021-03-21T11:10:08.000Z</Time>
            <Position>
              <LatitudeDegrees>36.73415441997349262237548828125</LatitudeDegrees>
              <LongitudeDegrees>-5.4664682038128376007080078125</LongitudeDegrees>
            </Position>
            <AltitudeMeters>59.59999847412109375</AltitudeMeters>
            <DistanceMeters>136.4297834472</DistanceMeters>
          </Trackpoint>
          <Trackpoint>
            <Time>2021-03-21T11:10:09.000Z</Time>
            <Position>
              <LatitudeDegrees>36.7341588623821735382080078125</LatitudeDegrees>
              <LongitudeDegrees>-5.4664675332605838775634765625</LongitudeDegrees>
            </Position>
            <AltitudeMeters>59.200000762939453125</AltitudeMeters>
            <DistanceMeters>136.93261755546</DistanceMeters>
          </Trackpoint>
          <Trackpoint>
            <Time>2021-03-21T11:10:14.000Z</Time>
            <Position>
              <LatitudeDegrees>36.7341712675988674163818359375</LatitudeDegrees>
              <LongitudeDegrees>-5.4664588160812854766845703125</LongitudeDegrees>
            </Position>
            <AltitudeMeters>58</AltitudeMeters>
            <DistanceMeters>138.51131990186</DistanceMeters>
          </Trackpoint>
          <Trackpoint>
            <Time>2021-03-21T11:10:20.000Z</Time>
            <Position>
              <LatitudeDegrees>36.73414955846965312957763671875</LatitudeDegrees>
              <LongitudeDegrees>-5.46642285771667957305908203125</LongitudeDegrees>
            </Position>
            <AltitudeMeters>58.799999237060546875</AltitudeMeters>
            <DistanceMeters>142.52612829735</DistanceMeters>
          </Trackpoint>
          <Trackpoint>
            <Time>2021-03-21T11:10:29.000Z</Time>
            <Position>
              <LatitudeDegrees>36.734132207930088043212890625</LatitudeDegrees>
              <LongitudeDegrees>-5.4663647711277008056640625</LongitudeDegrees>
            </Position>
            <AltitudeMeters>58.200000762939453125</AltitudeMeters>
            <DistanceMeters>148.05567066894</DistanceMeters>
          </Trackpoint>
          <Trackpoint>
            <Time>2021-03-21T11:10:37.000Z</Time>
            <Position>
              <LatitudeDegrees>36.73412240110337734222412109375</LatitudeDegrees>
              <LongitudeDegrees>-5.4662831313908100128173828125</LongitudeDegrees>
            </Position>
            <AltitudeMeters>57.40000152587890625</AltitudeMeters>
            <DistanceMeters>155.41947464826</DistanceMeters>
          </Trackpoint>
          <Trackpoint>
            <Time>2021-03-21T11:10:53.000Z</Time>
            <Position>
              <LatitudeDegrees>36.73413463868200778961181640625</LatitudeDegrees>
              <LongitudeDegrees>-5.46620559878647327423095703125</LongitudeDegrees>
            </Position>
            <AltitudeMeters>57</AltitudeMeters>
            <DistanceMeters>162.46876614962</DistanceMeters>
          </Trackpoint>
          <Trackpoint>
            <Time>2021-03-21T11:11:23.000Z</Time>
            <Position>
              <LatitudeDegrees>36.7341323755681514739990234375</LatitudeDegrees>
              <LongitudeDegrees>-5.4660628549754619598388671875</LongitudeDegrees>
            </Position>
            <AltitudeMeters>57.59999847412109375</AltitudeMeters>
            <DistanceMeters>175.20411863826</DistanceMeters>
          </Trackpoint>
          <Trackpoint>
            <Time>2021-03-21T11:11:26.000Z</Time>
            <Position>
              <LatitudeDegrees>36.73412726260721683502197265625</LatitudeDegrees>
              <LongitudeDegrees>-5.466055311262607574462890625</LongitudeDegrees>
            </Position>
            <AltitudeMeters>58</AltitudeMeters>
            <DistanceMeters>176.08536013421</DistanceMeters>
          </Trackpoint>
          <Trackpoint>
            <Time>2021-03-21T11:11:44.000Z</Time>
            <Position>
              <LatitudeDegrees>36.73409742303192615509033203125</LatitudeDegrees>
              <LongitudeDegrees>-5.466007031500339508056640625</LongitudeDegrees>
            </Position>
            <AltitudeMeters>59</AltitudeMeters>
            <DistanceMeters>181.52434261537</DistanceMeters>
          </Trackpoint>
          <Trackpoint>
            <Time>2021-03-21T11:12:21.000Z</Time>
            <Position>
              <LatitudeDegrees>36.734024584293365478515625</LatitudeDegrees>
              <LongitudeDegrees>-5.465938635170459747314453125</LongitudeDegrees>
            </Position>
            <AltitudeMeters>57.200000762939453125</AltitudeMeters>
            <DistanceMeters>191.67041926899</DistanceMeters>
          </Trackpoint>
          <Trackpoint>
            <Time>2021-03-21T11:12:58.000Z</Time>
            <Position>
              <LatitudeDegrees>36.73392777331173419952392578125</LatitudeDegrees>
              <LongitudeDegrees>-5.4658482782542705535888671875</LongitudeDegrees>
            </Position>
            <AltitudeMeters>57.200000762939453125</AltitudeMeters>
            <DistanceMeters>205.12601411654</DistanceMeters>
          </Trackpoint>
          <Trackpoint>
            <Time>2021-03-21T11:13:09.000Z</Time>
            <Position>
              <LatitudeDegrees>36.733936406672000885009765625</LatitudeDegrees>
              <LongitudeDegrees>-5.465815253555774688720703125</LongitudeDegrees>
            </Position>
            <AltitudeMeters>57.200000762939453125</AltitudeMeters>
            <DistanceMeters>208.22569173467</DistanceMeters>
          </Trackpoint>
          <Trackpoint>
            <Time>2021-03-21T11:13:22.000Z</Time>
            <Position>
              <LatitudeDegrees>36.73389290459454059600830078125</LatitudeDegrees>
              <LongitudeDegrees>-5.46576102264225482940673828125</LongitudeDegrees>
            </Position>
            <AltitudeMeters>57.200000762939453125</AltitudeMeters>
            <DistanceMeters>215.07025429127</DistanceMeters>
          </Trackpoint>
          <Trackpoint>
            <Time>2021-03-21T11:13:27.000Z</Time>
            <Position>
              <LatitudeDegrees>36.73386541195213794708251953125</LatitudeDegrees>
              <LongitudeDegrees>-5.465727746486663818359375</LongitudeDegrees>
            </Position>
            <AltitudeMeters>57.200000762939453125</AltitudeMeters>
            <DistanceMeters>219.33270825645</DistanceMeters>
          </Trackpoint>
          <Trackpoint>
            <Time>2021-03-21T11:13:33.000Z</Time>
            <Position>
              <LatitudeDegrees>36.733855269849300384521484375</LatitudeDegrees>
              <LongitudeDegrees>-5.4657047800719738006591796875</LongitudeDegrees>
            </Position>
            <AltitudeMeters>57.200000762939453125</AltitudeMeters>
            <DistanceMeters>221.67198727466</DistanceMeters>
          </Trackpoint>
          <Trackpoint>
            <Time>2021-03-21T11:13:40.000Z</Time>
            <Position>
              <LatitudeDegrees>36.73383607529103755950927734375</LatitudeDegrees>
              <LongitudeDegrees>-5.465671755373477935791015625</LongitudeDegrees>
            </Position>
            <AltitudeMeters>57.200000762939453125</AltitudeMeters>
            <DistanceMeters>225.31040617122</DistanceMeters>
          </Trackpoint>
          <Trackpoint>
            <Time>2021-03-21T11:13:54.000Z</Time>
            <Position>
              <LatitudeDegrees>36.73382249660789966583251953125</LatitudeDegrees>
              <LongitudeDegrees>-5.4656620323657989501953125</LongitudeDegrees>
            </Position>
            <AltitudeMeters>57.200000762939453125</AltitudeMeters>
            <DistanceMeters>227.05227461779</DistanceMeters>
          </Trackpoint>
          <Trackpoint>
            <Time>2021-03-21T11:14:04.000Z</Time>
            <Position>
              <LatitudeDegrees>36.73383884131908416748046875</LatitudeDegrees>
              <LongitudeDegrees>-5.4656593501567840576171875</LongitudeDegrees>
            </Position>
            <AltitudeMeters>57.200000762939453125</AltitudeMeters>
            <DistanceMeters>228.88508351049</DistanceMeters>
          </Trackpoint>
          <Trackpoint>
            <Time>2021-03-21T11:15:29.000Z</Time>
            <Position>
              <LatitudeDegrees>36.73374873585999011993408203125</LatitudeDegrees>
              <LongitudeDegrees>-5.46557494439184665679931640625</LongitudeDegrees>
            </Position>
            <AltitudeMeters>57.200000762939453125</AltitudeMeters>
            <DistanceMeters>241.42536984181</DistanceMeters>
          </Trackpoint>
          <Trackpoint>
            <Time>2021-03-21T11:15:46.000Z</Time>
            <Position>
              <LatitudeDegrees>36.7337260209023952484130859375</LatitudeDegrees>
              <LongitudeDegrees>-5.4655518941581249237060546875</LongitudeDegrees>
            </Position>
            <AltitudeMeters>57.200000762939453125</AltitudeMeters>
            <DistanceMeters>244.68272149947</DistanceMeters>
          </Trackpoint>
          <Trackpoint>
            <Time>2021-03-21T11:16:09.000Z</Time>
            <Position>
              <LatitudeDegrees>36.7336785793304443359375</LatitudeDegrees>
              <LongitudeDegrees>-5.465511493384838104248046875</LongitudeDegrees>
            </Position>
            <AltitudeMeters>57.200000762939453125</AltitudeMeters>
            <DistanceMeters>251.07569623627</DistanceMeters>
          </Trackpoint>
          <Trackpoint>
            <Time>2021-03-21T11:16:15.000Z</Time>
            <Position>
              <LatitudeDegrees>36.733658127486705780029296875</LatitudeDegrees>
              <LongitudeDegrees>-5.465507805347442626953125</LongitudeDegrees>
            </Position>
            <AltitudeMeters>57.200000762939453125</AltitudeMeters>
            <DistanceMeters>253.3760494257</DistanceMeters>
          </Trackpoint>
          <Trackpoint>
            <Time>2021-03-21T11:16:16.000Z</Time>
            <Position>
              <LatitudeDegrees>36.73365351743996143341064453125</LatitudeDegrees>
              <LongitudeDegrees>-5.46550939790904521942138671875</LongitudeDegrees>
            </Position>
            <AltitudeMeters>57.200000762939453125</AltitudeMeters>
            <DistanceMeters>253.89653217596</DistanceMeters>
          </Trackpoint>
          <Trackpoint>
            <Time>2021-03-21T11:16:17.000Z</Time>
            <Position>
              <LatitudeDegrees>36.73364949412643909454345703125</LatitudeDegrees>
              <LongitudeDegrees>-5.4655106551945209503173828125</LongitudeDegrees>
            </Position>
            <AltitudeMeters>57.200000762939453125</AltitudeMeters>
            <DistanceMeters>254.36206610024</DistanceMeters>
          </Trackpoint>
          <Trackpoint>
            <Time>2021-03-21T11:16:19.000Z</Time>
            <Position>
              <LatitudeDegrees>36.73364329151809215545654296875</LatitudeDegrees>
              <LongitudeDegrees>-5.46551275067031383514404296875</LongitudeDegrees>
            </Position>
            <AltitudeMeters>57.200000762939453125</AltitudeMeters>
            <DistanceMeters>255.07318091577</DistanceMeters>
          </Trackpoint>
          <Trackpoint>
            <Time>2021-03-21T11:16:21.000Z</Time>
            <Position>
              <LatitudeDegrees>36.73364345915615558624267578125</LatitudeDegrees>
              <LongitudeDegrees>-5.46551057137548923492431640625</LongitudeDegrees>
            </Position>
            <AltitudeMeters>57.200000762939453125</AltitudeMeters>
            <DistanceMeters>255.26323434451</DistanceMeters>
          </Trackpoint>
          <Trackpoint>
            <Time>2021-03-21T11:16:24.000Z</Time>
            <Position>
              <LatitudeDegrees>36.7336542718112468719482421875</LatitudeDegrees>
              <LongitudeDegrees>-5.4654985852539539337158203125</LongitudeDegrees>
            </Position>
            <AltitudeMeters>57.200000762939453125</AltitudeMeters>
            <DistanceMeters>256.8702819054</DistanceMeters>
          </Trackpoint>
          <Trackpoint>
            <Time>2021-03-21T11:16:25.000Z</Time>
            <Position>
              <LatitudeDegrees>36.73365385271608829498291015625</LatitudeDegrees>
              <LongitudeDegrees>-5.465497076511383056640625</LongitudeDegrees>
            </Position>
            <AltitudeMeters>57.200000762939453125</AltitudeMeters>
            <DistanceMeters>257.00466997365</DistanceMeters>
          </Trackpoint>
          <Trackpoint>
            <Time>2021-03-21T11:16:26.000Z</Time>
            <Position>
              <LatitudeDegrees>36.73365368507802486419677734375</LatitudeDegrees>
              <LongitudeDegrees>-5.4654985852539539337158203125</LongitudeDegrees>
            </Position>
            <AltitudeMeters>57.200000762939453125</AltitudeMeters>
            <DistanceMeters>257.1390580419</DistanceMeters>
          </Trackpoint>
          <Trackpoint>
            <Time>2021-03-21T11:16:27.000Z</Time>
            <Position>
              <LatitudeDegrees>36.7336509190499782562255859375</LatitudeDegrees>
              <LongitudeDegrees>-5.46549816615879535675048828125</LongitudeDegrees>
            </Position>
            <AltitudeMeters>57.200000762939453125</AltitudeMeters>
            <DistanceMeters>257.45422599853</DistanceMeters>
          </Trackpoint>
          <Trackpoint>
            <Time>2021-03-21T11:16:28.000Z</Time>
            <Position>
              <LatitudeDegrees>36.7336509190499782562255859375</LatitudeDegrees>
              <LongitudeDegrees>-5.46549816615879535675048828125</LongitudeDegrees>
            </Position>
            <AltitudeMeters>57.200000762939453125</AltitudeMeters>
            <DistanceMeters>257.5492527129</DistanceMeters>
          </Trackpoint>
          <Trackpoint>
            <Time>2021-03-21T11:16:33.000Z</Time>
            <Position>
              <LatitudeDegrees>36.73364094458520412445068359375</LatitudeDegrees>
              <LongitudeDegrees>-5.46551291830837726593017578125</LongitudeDegrees>
            </Position>
            <AltitudeMeters>57.200000762939453125</AltitudeMeters>
            <DistanceMeters>259.27025970696</DistanceMeters>
          </Trackpoint>
          <Trackpoint>
            <Time>2021-03-21T11:16:46.000Z</Time>
            <Position>
              <LatitudeDegrees>36.7335754819214344024658203125</LatitudeDegrees>
              <LongitudeDegrees>-5.46550168655812740325927734375</LongitudeDegrees>
            </Position>
            <AltitudeMeters>57.200000762939453125</AltitudeMeters>
            <DistanceMeters>266.62486084498</DistanceMeters>
          </Trackpoint>
          <Trackpoint>
            <Time>2021-03-21T11:16:47.000Z</Time>
            <Position>
              <LatitudeDegrees>36.73356751911342144012451171875</LatitudeDegrees>
              <LongitudeDegrees>-5.46550252474844455718994140625</LongitudeDegrees>
            </Position>
            <AltitudeMeters>57.200000762939453125</AltitudeMeters>
            <DistanceMeters>267.51629044235</DistanceMeters>
          </Trackpoint>
          <Trackpoint>
            <Time>2021-03-21T11:16:48.000Z</Time>
            <Position>
              <LatitudeDegrees>36.7335546948015689849853515625</LatitudeDegrees>
              <LongitudeDegrees>-5.4655073024332523345947265625</LongitudeDegrees>
            </Position>
            <AltitudeMeters>57.200000762939453125</AltitudeMeters>
            <DistanceMeters>269.0067262193</DistanceMeters>
          </Trackpoint>
          <Trackpoint>
            <Time>2021-03-21T11:16:49.000Z</Time>
            <Position>
              <LatitudeDegrees>36.7335476540029048919677734375</LatitudeDegrees>
              <LongitudeDegrees>-5.4655079729855060577392578125</LongitudeDegrees>
            </Position>
            <AltitudeMeters>57.200000762939453125</AltitudeMeters>
            <DistanceMeters>269.7903365805</DistanceMeters>
          </Trackpoint>
          <Trackpoint>
            <Time>2021-03-21T11:16:50.000Z</Time>
            <Position>
              <LatitudeDegrees>36.73354907892644405364990234375</LatitudeDegrees>
              <LongitudeDegrees>-5.4655037820339202880859375</LongitudeDegrees>
            </Position>
            <AltitudeMeters>57.200000762939453125</AltitudeMeters>
            <DistanceMeters>270.19350078525</DistanceMeters>
          </Trackpoint>
          <Trackpoint>
            <Time>2021-03-21T11:16:51.000Z</Time>
            <Position>
              <LatitudeDegrees>36.7335498332977294921875</LatitudeDegrees>
              <LongitudeDegrees>-5.46550185419619083404541015625</LongitudeDegrees>
            </Position>
            <AltitudeMeters>57.200000762939453125</AltitudeMeters>
            <DistanceMeters>270.38355421399</DistanceMeters>
          </Trackpoint>
          <Trackpoint>
            <Time>2021-03-21T11:16:56.000Z</Time>
            <Position>
              <LatitudeDegrees>36.73354455269873142242431640625</LatitudeDegrees>
              <LongitudeDegrees>-5.46549774706363677978515625</LongitudeDegrees>
            </Position>
            <AltitudeMeters>57.200000762939453125</AltitudeMeters>
            <DistanceMeters>271.07535913702</DistanceMeters>
          </Trackpoint>
          <Trackpoint>
            <Time>2021-03-21T11:17:00.000Z</Time>
            <Position>
              <LatitudeDegrees>36.73354337923228740692138671875</LatitudeDegrees>
              <LongitudeDegrees>-5.46549766324460506439208984375</LongitudeDegrees>
            </Position>
            <AltitudeMeters>57.200000762939453125</AltitudeMeters>
            <DistanceMeters>271.20974720527</DistanceMeters>
          </Trackpoint>
          <Trackpoint>
            <Time>2021-03-21T11:17:21.000Z</Time>
            <Position>
              <LatitudeDegrees>36.73352477140724658966064453125</LatitudeDegrees>
              <LongitudeDegrees>-5.4654804803431034088134765625</LongitudeDegrees>
            </Position>
            <AltitudeMeters>57.200000762939453125</AltitudeMeters>
            <DistanceMeters>273.78425222758</DistanceMeters>
          </Trackpoint>
          <Trackpoint>
            <Time>2021-03-21T11:17:33.000Z</Time>
            <Position>
              <LatitudeDegrees>36.733516640961170196533203125</LatitudeDegrees>
              <LongitudeDegrees>-5.46546195633709430694580078125</LongitudeDegrees>
            </Position>
            <AltitudeMeters>57.200000762939453125</AltitudeMeters>
            <DistanceMeters>275.6704786506</DistanceMeters>
          </Trackpoint>
          <Trackpoint>
            <Time>2021-03-21T11:17:52.000Z</Time>
            <Position>
              <LatitudeDegrees>36.73354874365031719207763671875</LatitudeDegrees>
              <LongitudeDegrees>-5.4654375649988651275634765625</LongitudeDegrees>
            </Position>
            <AltitudeMeters>57.200000762939453125</AltitudeMeters>
            <DistanceMeters>279.85381322345</DistanceMeters>
          </Trackpoint>
          <Trackpoint>
            <Time>2021-03-21T11:17:57.000Z</Time>
            <Position>
              <LatitudeDegrees>36.73355377279222011566162109375</LatitudeDegrees>
              <LongitudeDegrees>-5.465428344905376434326171875</LongitudeDegrees>
            </Position>
            <AltitudeMeters>57.200000762939453125</AltitudeMeters>
            <DistanceMeters>280.85046181189</DistanceMeters>
          </Trackpoint>
          <Trackpoint>
            <Time>2021-03-21T11:18:01.000Z</Time>
            <Position>
              <LatitudeDegrees>36.73354513943195343017578125</LatitudeDegrees>
              <LongitudeDegrees>-5.46542155556380748748779296875</LongitudeDegrees>
            </Position>
            <AltitudeMeters>57.200000762939453125</AltitudeMeters>
            <DistanceMeters>281.99078238433</DistanceMeters>
          </Trackpoint>
          <Trackpoint>
            <Time>2021-03-21T11:18:02.000Z</Time>
            <Position>
              <LatitudeDegrees>36.7335426248610019683837890625</LatitudeDegrees>
              <LongitudeDegrees>-5.46542289666831493377685546875</LongitudeDegrees>
            </Position>
            <AltitudeMeters>57.200000762939453125</AltitudeMeters>
            <DistanceMeters>282.30595034095</DistanceMeters>
          </Trackpoint>
          <Trackpoint>
            <Time>2021-03-21T11:18:03.000Z</Time>
            <Position>
              <LatitudeDegrees>36.73353918828070163726806640625</LatitudeDegrees>
              <LongitudeDegrees>-5.46542440541088581085205078125</LongitudeDegrees>
            </Position>
            <AltitudeMeters>57.200000762939453125</AltitudeMeters>
            <DistanceMeters>282.7091145457</DistanceMeters>
          </Trackpoint>
          <Trackpoint>
            <Time>2021-03-21T11:18:13.000Z</Time>
            <Position>
              <LatitudeDegrees>36.7335070855915546417236328125</LatitudeDegrees>
              <LongitudeDegrees>-5.46541702933609485626220703125</LongitudeDegrees>
            </Position>
            <AltitudeMeters>57.200000762939453125</AltitudeMeters>
            <DistanceMeters>286.34256631517</DistanceMeters>
          </Trackpoint>
          <Trackpoint>
            <Time>2021-03-21T11:18:17.000Z</Time>
            <Position>
              <LatitudeDegrees>36.733507253229618072509765625</LatitudeDegrees>
              <LongitudeDegrees>-5.46541116200387477874755859375</LongitudeDegrees>
            </Position>
            <AltitudeMeters>57.200000762939453125</AltitudeMeters>
            <DistanceMeters>286.86304906543</DistanceMeters>
          </Trackpoint>
          <Trackpoint>
            <Time>2021-03-21T11:18:19.000Z</Time>
            <Position>
              <LatitudeDegrees>36.73350892961025238037109375</LatitudeDegrees>
              <LongitudeDegrees>-5.46540521085262298583984375</LongitudeDegrees>
            </Position>
            <AltitudeMeters>57.200000762939453125</AltitudeMeters>
            <DistanceMeters>287.41714526565</DistanceMeters>
          </Trackpoint>
          <Trackpoint>
            <Time>2021-03-21T11:18:20.000Z</Time>
            <Position>
              <LatitudeDegrees>36.7335094325244426727294921875</LatitudeDegrees>
              <LongitudeDegrees>-5.46539775095880031585693359375</LongitudeDegrees>
            </Position>
            <AltitudeMeters>57.200000762939453125</AltitudeMeters>
            <DistanceMeters>288.0890856069</DistanceMeters>
          </Trackpoint>
          <Trackpoint>
            <Time>2021-03-21T11:18:27.000Z</Time>
            <Position>
              <LatitudeDegrees>36.7335251905024051666259765625</LatitudeDegrees>
              <LongitudeDegrees>-5.46536053530871868133544921875</LongitudeDegrees>
            </Position>
            <AltitudeMeters>57.200000762939453125</AltitudeMeters>
            <DistanceMeters>291.84354286847</DistanceMeters>
          </Trackpoint>
          <Trackpoint>
            <Time>2021-03-21T11:18:29.000Z</Time>
            <Position>
              <LatitudeDegrees>36.7335265316069126129150390625</LatitudeDegrees>
              <LongitudeDegrees>-5.46535491943359375</LongitudeDegrees>
            </Position>
            <AltitudeMeters>57.200000762939453125</AltitudeMeters>
            <DistanceMeters>292.36402561873</DistanceMeters>
          </Trackpoint>
          <Trackpoint>
            <Time>2021-03-21T11:18:50.000Z</Time>
            <Position>
              <LatitudeDegrees>36.73344329930841922760009765625</LatitudeDegrees>
              <LongitudeDegrees>-5.4653557576239109039306640625</LongitudeDegrees>
            </Position>
            <AltitudeMeters>57.200000762939453125</AltitudeMeters>
            <DistanceMeters>301.62852110418</DistanceMeters>
          </Trackpoint>
          <Trackpoint>
            <Time>2021-03-21T11:19:16.000Z</Time>
            <Position>
              <LatitudeDegrees>36.73338848166167736053466796875</LatitudeDegrees>
              <LongitudeDegrees>-5.46537964604794979095458984375</LongitudeDegrees>
            </Position>
            <AltitudeMeters>57.200000762939453125</AltitudeMeters>
            <DistanceMeters>308.09173498194</DistanceMeters>
          </Trackpoint>
          <Trackpoint>
            <Time>2021-03-21T11:20:06.000Z</Time>
            <Position>
              <LatitudeDegrees>36.7332324944436550140380859375</LatitudeDegrees>
              <LongitudeDegrees>-5.4653399996459484100341796875</LongitudeDegrees>
            </Position>
            <AltitudeMeters>57.200000762939453125</AltitudeMeters>
            <DistanceMeters>325.80982199985</DistanceMeters>
          </Trackpoint>
          <Trackpoint>
            <Time>2021-03-21T11:20:25.000Z</Time>
            <Position>
              <LatitudeDegrees>36.7331882379949092864990234375</LatitudeDegrees>
              <LongitudeDegrees>-5.465295575559139251708984375</LongitudeDegrees>
            </Position>
            <AltitudeMeters>57.200000762939453125</AltitudeMeters>
            <DistanceMeters>332.13177726235</DistanceMeters>
          </Trackpoint>
          <Trackpoint>
            <Time>2021-03-21T11:20:40.000Z</Time>
            <Position>
              <LatitudeDegrees>36.73314825631678104400634765625</LatitudeDegrees>
              <LongitudeDegrees>-5.46527571044862270355224609375</LongitudeDegrees>
            </Position>
            <AltitudeMeters>57.200000762939453125</AltitudeMeters>
            <DistanceMeters>336.92191549042</DistanceMeters>
          </Trackpoint>
          <Trackpoint>
            <Time>2021-03-21T11:20:55.000Z</Time>
            <Position>
              <LatitudeDegrees>36.7331020720303058624267578125</LatitudeDegrees>
              <LongitudeDegrees>-5.46526950784027576446533203125</LongitudeDegrees>
            </Position>
            <AltitudeMeters>57.200000762939453125</AltitudeMeters>
            <DistanceMeters>342.0919277026</DistanceMeters>
          </Trackpoint>
          <Trackpoint>
            <Time>2021-03-21T11:21:01.000Z</Time>
            <Position>
              <LatitudeDegrees>36.7330883257091045379638671875</LatitudeDegrees>
              <LongitudeDegrees>-5.4652709327638149261474609375</LongitudeDegrees>
            </Position>
            <AltitudeMeters>57.200000762939453125</AltitudeMeters>
            <DistanceMeters>343.6300694478</DistanceMeters>
          </Trackpoint>
          <Trackpoint>
            <Time>2021-03-21T11:21:03.000Z</Time>
            <Position>
              <LatitudeDegrees>36.7330816201865673065185546875</LatitudeDegrees>
              <LongitudeDegrees>-5.46527110040187835693359375</LongitudeDegrees>
            </Position>
            <AltitudeMeters>57.200000762939453125</AltitudeMeters>
            <DistanceMeters>344.37831054499</DistanceMeters>
          </Trackpoint>
          <Trackpoint>
            <Time>2021-03-21T11:21:06.000Z</Time>
            <Position>
              <LatitudeDegrees>36.7330943606793880462646484375</LatitudeDegrees>
              <LongitudeDegrees>-5.46527755446732044219970703125</LongitudeDegrees>
            </Position>
            <AltitudeMeters>57.200000762939453125</AltitudeMeters>
            <DistanceMeters>345.91057027344</DistanceMeters>
          </Trackpoint>
          <Trackpoint>
            <Time>2021-03-21T11:21:09.000Z</Time>
            <Position>
              <LatitudeDegrees>36.7330923490226268768310546875</LatitudeDegrees>
              <LongitudeDegrees>-5.465271770954132080078125</LongitudeDegrees>
            </Position>
            <AltitudeMeters>57.200000762939453125</AltitudeMeters>
            <DistanceMeters>346.48073055966</DistanceMeters>
          </Trackpoint>
          <Trackpoint>
            <Time>2021-03-21T11:21:11.000Z</Time>
            <Position>
              <LatitudeDegrees>36.73309586942195892333984375</LatitudeDegrees>
              <LongitudeDegrees>-5.46527168713510036468505859375</LongitudeDegrees>
            </Position>
            <AltitudeMeters>57.200000762939453125</AltitudeMeters>
            <DistanceMeters>346.88389476441</DistanceMeters>
          </Trackpoint>
          <Trackpoint>
            <Time>2021-03-21T11:21:28.000Z</Time>
            <Position>
              <LatitudeDegrees>36.7330400459468364715576171875</LatitudeDegrees>
              <LongitudeDegrees>-5.4652623832225799560546875</LongitudeDegrees>
            </Position>
            <AltitudeMeters>57.200000762939453125</AltitudeMeters>
            <DistanceMeters>353.1513370283</DistanceMeters>
          </Trackpoint>
          <Trackpoint>
            <Time>2021-03-21T11:21:47.000Z</Time>
            <Position>
              <LatitudeDegrees>36.73295161686837673187255859375</LatitudeDegrees>
              <LongitudeDegrees>-5.4652052186429500579833984375</LongitudeDegrees>
            </Position>
            <AltitudeMeters>57.200000762939453125</AltitudeMeters>
            <DistanceMeters>364.23570530513</DistanceMeters>
          </Trackpoint>
          <Trackpoint>
            <Time>2021-03-21T11:21:49.000Z</Time>
            <Position>
              <LatitudeDegrees>36.73294440843164920806884765625</LatitudeDegrees>
              <LongitudeDegrees>-5.46520295552909374237060546875</LongitudeDegrees>
            </Position>
            <AltitudeMeters>57.200000762939453125</AltitudeMeters>
            <DistanceMeters>365.05866079196</DistanceMeters>
          </Trackpoint>
          <Trackpoint>
            <Time>2021-03-21T11:21:51.000Z</Time>
            <Position>
              <LatitudeDegrees>36.73293837346136569976806640625</LatitudeDegrees>
              <LongitudeDegrees>-5.46519943512976169586181640625</LongitudeDegrees>
            </Position>
            <AltitudeMeters>57.200000762939453125</AltitudeMeters>
            <DistanceMeters>365.80084315707</DistanceMeters>
          </Trackpoint>
          <Trackpoint>
            <Time>2021-03-21T11:21:52.000Z</Time>
            <Position>
              <LatitudeDegrees>36.732935607433319091796875</LatitudeDegrees>
              <LongitudeDegrees>-5.46519775874912738800048828125</LongitudeDegrees>
            </Position>
            <AltitudeMeters>57.200000762939453125</AltitudeMeters>
            <DistanceMeters>366.15640056483</DistanceMeters>
          </Trackpoint>
          <Trackpoint>
            <Time>2021-03-21T11:21:54.000Z</Time>
            <Position>
              <LatitudeDegrees>36.732925213873386383056640625</LatitudeDegrees>
              <LongitudeDegrees>-5.4651941545307636260986328125</LongitudeDegrees>
            </Position>
            <AltitudeMeters>57.200000762939453125</AltitudeMeters>
            <DistanceMeters>367.36215439853</DistanceMeters>
          </Trackpoint>
          <Trackpoint>
            <Time>2021-03-21T11:21:56.000Z</Time>
            <Position>
              <LatitudeDegrees>36.73290132544934749603271484375</LatitudeDegrees>
              <LongitudeDegrees>-5.4651941545307636260986328125</LongitudeDegrees>
            </Position>
            <AltitudeMeters>57.200000762939453125</AltitudeMeters>
            <DistanceMeters>370.01950642248</DistanceMeters>
          </Trackpoint>
          <Trackpoint>
            <Time>2021-03-21T11:21:58.000Z</Time>
            <Position>
              <LatitudeDegrees>36.73288808204233646392822265625</LatitudeDegrees>
              <LongitudeDegrees>-5.46520144678652286529541015625</LongitudeDegrees>
            </Position>
            <AltitudeMeters>57.200000762939453125</AltitudeMeters>
            <DistanceMeters>371.62936105549</DistanceMeters>
          </Trackpoint>
          <Trackpoint>
            <Time>2021-03-21T11:22:25.000Z</Time>
            <Position>
              <LatitudeDegrees>36.73280795104801654815673828125</LatitudeDegrees>
              <LongitudeDegrees>-5.4652193002402782440185546875</LongitudeDegrees>
            </Position>
            <AltitudeMeters>57.200000762939453125</AltitudeMeters>
            <DistanceMeters>380.68934973515</DistanceMeters>
          </Trackpoint>
          <Trackpoint>
            <Time>2021-03-21T11:22:31.000Z</Time>
            <Position>
              <LatitudeDegrees>36.7328006587922573089599609375</LatitudeDegrees>
              <LongitudeDegrees>-5.46522256918251514434814453125</LongitudeDegrees>
            </Position>
            <AltitudeMeters>53.200000762939453125</AltitudeMeters>
            <DistanceMeters>381.55508430466</DistanceMeters>
          </Trackpoint>
          <Trackpoint>
            <Time>2021-03-21T11:23:02.000Z</Time>
            <Position>
              <LatitudeDegrees>36.73267685808241367340087890625</LatitudeDegrees>
              <LongitudeDegrees>-5.465106479823589324951171875</LongitudeDegrees>
            </Position>
            <AltitudeMeters>53.200000762939453125</AltitudeMeters>
            <DistanceMeters>398.79189303363</DistanceMeters>
          </Trackpoint>
          <Trackpoint>
            <Time>2021-03-21T11:23:23.000Z</Time>
            <Position>
              <LatitudeDegrees>36.732610724866390228271484375</LatitudeDegrees>
              <LongitudeDegrees>-5.46497069299221038818359375</LongitudeDegrees>
            </Position>
            <AltitudeMeters>53.799999237060546875</AltitudeMeters>
            <DistanceMeters>412.96585298578</DistanceMeters>
          </Trackpoint>
          <Trackpoint>
            <Time>2021-03-21T11:23:38.000Z</Time>
            <Position>
              <LatitudeDegrees>36.7325475253164768218994140625</LatitudeDegrees>
              <LongitudeDegrees>-5.4648721218109130859375</LongitudeDegrees>
            </Position>
            <AltitudeMeters>54.200000762939453125</AltitudeMeters>
            <DistanceMeters>424.22641839903</DistanceMeters>
          </Trackpoint>
          <Trackpoint>
            <Time>2021-03-21T11:23:46.000Z</Time>
            <Position>
              <LatitudeDegrees>36.73252321779727935791015625</LatitudeDegrees>
              <LongitudeDegrees>-5.46483649872243404388427734375</LongitudeDegrees>
            </Position>
            <AltitudeMeters>54.59999847412109375</AltitudeMeters>
            <DistanceMeters>428.40002804302</DistanceMeters>
          </Trackpoint>
          <Trackpoint>
            <Time>2021-03-21T11:24:00.000Z</Time>
            <Position>
              <LatitudeDegrees>36.73245054669678211212158203125</LatitudeDegrees>
              <LongitudeDegrees>-5.46472736634314060211181640625</LongitudeDegrees>
            </Position>
            <AltitudeMeters>54.59999847412109375</AltitudeMeters>
            <DistanceMeters>441.05714407283</DistanceMeters>
          </Trackpoint>
          <Trackpoint>
            <Time>2021-03-21T11:24:26.000Z</Time>
            <Position>
              <LatitudeDegrees>36.73231601715087890625</LatitudeDegrees>
              <LongitudeDegrees>-5.464617647230625152587890625</LongitudeDegrees>
            </Position>
            <AltitudeMeters>55.200000762939453125</AltitudeMeters>
            <DistanceMeters>458.94540248074</DistanceMeters>
          </Trackpoint>
          <Trackpoint>
            <Time>2021-03-21T11:24:27.000Z</Time>
            <Position>
              <LatitudeDegrees>36.732316352427005767822265625</LatitudeDegrees>
              <LongitudeDegrees>-5.4646050743758678436279296875</LongitudeDegrees>
            </Position>
            <AltitudeMeters>55.200000762939453125</AltitudeMeters>
            <DistanceMeters>460.06171361536</DistanceMeters>
          </Trackpoint>
          <Trackpoint>
            <Time>2021-03-21T11:24:34.000Z</Time>
            <Position>
              <LatitudeDegrees>36.73227167688310146331787109375</LatitudeDegrees>
              <LongitudeDegrees>-5.46453357674181461334228515625</LongitudeDegrees>
            </Position>
            <AltitudeMeters>54.799999237060546875</AltitudeMeters>
            <DistanceMeters>468.148481425</DistanceMeters>
          </Trackpoint>
          <Trackpoint>
            <Time>2021-03-21T11:24:36.000Z</Time>
            <Position>
              <LatitudeDegrees>36.73225658945739269256591796875</LatitudeDegrees>
              <LongitudeDegrees>-5.464519746601581573486328125</LongitudeDegrees>
            </Position>
            <AltitudeMeters>54.799999237060546875</AltitudeMeters>
            <DistanceMeters>470.22824261722</DistanceMeters>
          </Trackpoint>
          <Trackpoint>
            <Time>2021-03-21T11:25:02.000Z</Time>
            <Position>
              <LatitudeDegrees>36.73218165524303913116455078125</LatitudeDegrees>
              <LongitudeDegrees>-5.46433308161795139312744140625</LongitudeDegrees>
            </Position>
            <AltitudeMeters>54.799999237060546875</AltitudeMeters>
            <DistanceMeters>488.85081187687</DistanceMeters>
          </Trackpoint>
          <Trackpoint>
            <Time>2021-03-21T11:25:29.000Z</Time>
            <Position>
              <LatitudeDegrees>36.7321180365979671478271484375</LatitudeDegrees>
              <LongitudeDegrees>-5.4641504399478435516357421875</LongitudeDegrees>
            </Position>
            <AltitudeMeters>56.200000762939453125</AltitudeMeters>
            <DistanceMeters>506.61496261397</DistanceMeters>
          </Trackpoint>
          <Trackpoint>
            <Time>2021-03-21T11:25:43.000Z</Time>
            <Position>
              <LatitudeDegrees>36.73218525946140289306640625</LatitudeDegrees>
              <LongitudeDegrees>-5.46401289291679859161376953125</LongitudeDegrees>
            </Position>
            <AltitudeMeters>57.59999847412109375</AltitudeMeters>
            <DistanceMeters>520.98569148461</DistanceMeters>
          </Trackpoint>
          <Trackpoint>
            <Time>2021-03-21T11:25:52.000Z</Time>
            <Position>
              <LatitudeDegrees>36.73219640739262104034423828125</LatitudeDegrees>
              <LongitudeDegrees>-5.46395405195653438568115234375</LongitudeDegrees>
            </Position>
            <AltitudeMeters>58.59999847412109375</AltitudeMeters>
            <DistanceMeters>526.37966092301</DistanceMeters>
          </Trackpoint>
          <Trackpoint>
            <Time>2021-03-21T11:26:00.000Z</Time>
            <Position>
              <LatitudeDegrees>36.73219054006040096282958984375</LatitudeDegrees>
              <LongitudeDegrees>-5.46389923430979251861572265625</LongitudeDegrees>
            </Position>
            <AltitudeMeters>59.59999847412109375</AltitudeMeters>
            <DistanceMeters>531.31190442268</DistanceMeters>
          </Trackpoint>
          <Trackpoint>
            <Time>2021-03-21T11:26:16.000Z</Time>
            <Position>
              <LatitudeDegrees>36.732238568365573883056640625</LatitudeDegrees>
              <LongitudeDegrees>-5.46375607140362262725830078125</LongitudeDegrees>
            </Position>
            <AltitudeMeters>60.59999847412109375</AltitudeMeters>
            <DistanceMeters>545.15583242186</DistanceMeters>
          </Trackpoint>
          <Trackpoint>
            <Time>2021-03-21T11:26:26.000Z</Time>
            <Position>
              <LatitudeDegrees>36.73224334605038166046142578125</LatitudeDegrees>
              <LongitudeDegrees>-5.46371810138225555419921875</LongitudeDegrees>
            </Position>
            <AltitudeMeters>61.40000152587890625</AltitudeMeters>
            <DistanceMeters>548.58206933386</DistanceMeters>
          </Trackpoint>
          <Trackpoint>
            <Time>2021-03-21T11:26:30.000Z</Time>
            <Position>
              <LatitudeDegrees>36.7322521470487117767333984375</LatitudeDegrees>
              <LongitudeDegrees>-5.46369303949177265167236328125</LongitudeDegrees>
            </Position>
            <AltitudeMeters>61.59999847412109375</AltitudeMeters>
            <DistanceMeters>551.0233498284</DistanceMeters>
          </Trackpoint>
          <Trackpoint>
            <Time>2021-03-21T11:26:40.000Z</Time>
            <Position>
              <LatitudeDegrees>36.73225910402834415435791015625</LatitudeDegrees>
              <LongitudeDegrees>-5.46362246386706829071044921875</LongitudeDegrees>
            </Position>
            <AltitudeMeters>62.799999237060546875</AltitudeMeters>
            <DistanceMeters>557.36527071102</DistanceMeters>
          </Trackpoint>
          <Trackpoint>
            <Time>2021-03-21T11:27:05.000Z</Time>
            <Position>
              <LatitudeDegrees>36.732245273888111114501953125</LatitudeDegrees>
              <LongitudeDegrees>-5.46351718716323375701904296875</LongitudeDegrees>
            </Position>
            <AltitudeMeters>63.799999237060546875</AltitudeMeters>
            <DistanceMeters>566.88076210682</DistanceMeters>
          </Trackpoint>
          <Trackpoint>
            <Time>2021-03-21T11:27:42.000Z</Time>
            <Position>
              <LatitudeDegrees>36.73221149481832981109619140625</LatitudeDegrees>
              <LongitudeDegrees>-5.46346153132617473602294921875</LongitudeDegrees>
            </Position>
            <AltitudeMeters>63.40000152587890625</AltitudeMeters>
            <DistanceMeters>573.10773153426</DistanceMeters>
          </Trackpoint>
          <Trackpoint>
            <Time>2021-03-21T11:27:50.000Z</Time>
            <Position>
              <LatitudeDegrees>36.73224820755422115325927734375</LatitudeDegrees>
              <LongitudeDegrees>-5.46341425739228725433349609375</LongitudeDegrees>
            </Position>
            <AltitudeMeters>63.59999847412109375</AltitudeMeters>
            <DistanceMeters>578.97942906249</DistanceMeters>
          </Trackpoint>
          <Trackpoint>
            <Time>2021-03-21T11:27:52.000Z</Time>
            <Position>
              <LatitudeDegrees>36.73225365579128265380859375</LatitudeDegrees>
              <LongitudeDegrees>-5.4634155146777629852294921875</LongitudeDegrees>
            </Position>
            <AltitudeMeters>63.799999237060546875</AltitudeMeters>
            <DistanceMeters>579.58789692048</DistanceMeters>
          </Trackpoint>
          <Trackpoint>
            <Time>2021-03-21T11:27:55.000Z</Time>
            <Position>
              <LatitudeDegrees>36.7322655580937862396240234375</LatitudeDegrees>
              <LongitudeDegrees>-5.463415682315826416015625</LongitudeDegrees>
            </Position>
            <AltitudeMeters>64</AltitudeMeters>
            <DistanceMeters>580.91146589493</DistanceMeters>
          </Trackpoint>
          <Trackpoint>
            <Time>2021-03-21T11:27:56.000Z</Time>
            <Position>
              <LatitudeDegrees>36.73226715065538883209228515625</LatitudeDegrees>
              <LongitudeDegrees>-5.46341408975422382354736328125</LongitudeDegrees>
            </Position>
            <AltitudeMeters>64</AltitudeMeters>
            <DistanceMeters>581.10151932367</DistanceMeters>
          </Trackpoint>
          <Trackpoint>
            <Time>2021-03-21T11:28:05.000Z</Time>
            <Position>
              <LatitudeDegrees>36.7322824895381927490234375</LatitudeDegrees>
              <LongitudeDegrees>-5.46340906061232089996337890625</LongitudeDegrees>
            </Position>
            <AltitudeMeters>65</AltitudeMeters>
            <DistanceMeters>582.86400231556</DistanceMeters>
          </Trackpoint>
          <Trackpoint>
            <Time>2021-03-21T11:28:09.000Z</Time>
            <Position>
              <LatitudeDegrees>36.73227913677692413330078125</LatitudeDegrees>
              <LongitudeDegrees>-5.46340000815689563751220703125</LongitudeDegrees>
            </Position>
            <AltitudeMeters>65.1999969482421875</AltitudeMeters>
            <DistanceMeters>583.75035250066</DistanceMeters>
          </Trackpoint>
          <Trackpoint>
            <Time>2021-03-21T11:28:12.000Z</Time>
            <Position>
              <LatitudeDegrees>36.73226983286440372467041015625</LatitudeDegrees>
              <LongitudeDegrees>-5.46339615248143672943115234375</LongitudeDegrees>
            </Position>
            <AltitudeMeters>65.1999969482421875</AltitudeMeters>
            <DistanceMeters>584.83798295912</DistanceMeters>
          </Trackpoint>
          <Trackpoint>
            <Time>2021-03-21T11:28:53.000Z</Time>
            <Position>
              <LatitudeDegrees>36.73224368132650852203369140625</LatitudeDegrees>
              <LongitudeDegrees>-5.46327595598995685577392578125</LongitudeDegrees>
            </Position>
            <AltitudeMeters>65.40000152587890625</AltitudeMeters>
            <DistanceMeters>595.94757722876</DistanceMeters>
          </Trackpoint>
          <Trackpoint>
            <Time>2021-03-21T11:29:36.000Z</Time>
            <Position>
              <LatitudeDegrees>36.73227737657725811004638671875</LatitudeDegrees>
              <LongitudeDegrees>-5.46313262544572353363037109375</LongitudeDegrees>
            </Position>
            <AltitudeMeters>64.40000152587890625</AltitudeMeters>
            <DistanceMeters>609.2716645479</DistanceMeters>
          </Trackpoint>
          <Trackpoint>
            <Time>2021-03-21T11:29:46.000Z</Time>
            <Position>
              <LatitudeDegrees>36.73221786506474018096923828125</LatitudeDegrees>
              <LongitudeDegrees>-5.4630963318049907684326171875</LongitudeDegrees>
            </Position>
            <AltitudeMeters>65</AltitudeMeters>
            <DistanceMeters>616.64465988173</DistanceMeters>
          </Trackpoint>
          <Trackpoint>
            <Time>2021-03-21T11:29:54.000Z</Time>
            <Position>
              <LatitudeDegrees>36.732228510081768035888671875</LatitudeDegrees>
              <LongitudeDegrees>-5.4630292765796184539794921875</LongitudeDegrees>
            </Position>
            <AltitudeMeters>65.1999969482421875</AltitudeMeters>
            <DistanceMeters>622.7426804455</DistanceMeters>
          </Trackpoint>
          <Trackpoint>
            <Time>2021-03-21T11:30:00.000Z</Time>
            <Position>
              <LatitudeDegrees>36.732231192290782928466796875</LatitudeDegrees>
              <LongitudeDegrees>-5.46299046836793422698974609375</LongitudeDegrees>
            </Position>
            <AltitudeMeters>65.40000152587890625</AltitudeMeters>
            <DistanceMeters>626.21863244201</DistanceMeters>
          </Trackpoint>
          <Trackpoint>
            <Time>2021-03-21T11:30:12.000Z</Time>
            <Position>
              <LatitudeDegrees>36.7322430945932865142822265625</LatitudeDegrees>
              <LongitudeDegrees>-5.4629488103091716766357421875</LongitudeDegrees>
            </Position>
            <AltitudeMeters>65.1999969482421875</AltitudeMeters>
            <DistanceMeters>630.16424415496</DistanceMeters>
          </Trackpoint>
          <Trackpoint>
            <Time>2021-03-21T11:30:19.000Z</Time>
            <Position>
              <LatitudeDegrees>36.732243932783603668212890625</LatitudeDegrees>
              <LongitudeDegrees>-5.4629266820847988128662109375</LongitudeDegrees>
            </Position>
            <AltitudeMeters>64.59999847412109375</AltitudeMeters>
            <DistanceMeters>632.14390401884</DistanceMeters>
          </Trackpoint>
          <Trackpoint>
            <Time>2021-03-21T11:30:21.000Z</Time>
            <Position>
              <LatitudeDegrees>36.73223915509879589080810546875</LatitudeDegrees>
              <LongitudeDegrees>-5.4629183001816272735595703125</LongitudeDegrees>
            </Position>
            <AltitudeMeters>64.59999847412109375</AltitudeMeters>
            <DistanceMeters>633.06522219718</DistanceMeters>
          </Trackpoint>
          <Trackpoint>
            <Time>2021-03-21T11:30:50.000Z</Time>
            <Position>
              <LatitudeDegrees>36.73220881260931491851806640625</LatitudeDegrees>
              <LongitudeDegrees>-5.4628673382103443145751953125</LongitudeDegrees>
            </Position>
            <AltitudeMeters>64.59999847412109375</AltitudeMeters>
            <DistanceMeters>638.72868681956</DistanceMeters>
          </Trackpoint>
          <Trackpoint>
            <Time>2021-03-21T11:31:08.000Z</Time>
            <Position>
              <LatitudeDegrees>36.73220939934253692626953125</LatitudeDegrees>
              <LongitudeDegrees>-5.46285468153655529022216796875</LongitudeDegrees>
            </Position>
            <AltitudeMeters>64.59999847412109375</AltitudeMeters>
            <DistanceMeters>639.86106081036</DistanceMeters>
          </Trackpoint>
          <Trackpoint>
            <Time>2021-03-21T11:31:13.000Z</Time>
            <Position>
              <LatitudeDegrees>36.73221786506474018096923828125</LatitudeDegrees>
              <LongitudeDegrees>-5.46284529380500316619873046875</LongitudeDegrees>
            </Position>
            <AltitudeMeters>64.59999847412109375</AltitudeMeters>
            <DistanceMeters>641.12530901802</DistanceMeters>
          </Trackpoint>
          <Trackpoint>
            <Time>2021-03-21T11:32:04.000Z</Time>
            <Position>
              <LatitudeDegrees>36.73214108683168888092041015625</LatitudeDegrees>
              <LongitudeDegrees>-5.46276616863906383514404296875</LongitudeDegrees>
            </Position>
            <AltitudeMeters>64.59999847412109375</AltitudeMeters>
            <DistanceMeters>652.20886259725</DistanceMeters>
          </Trackpoint>
          <Trackpoint>
            <Time>2021-03-21T11:32:23.000Z</Time>
            <Position>
              <LatitudeDegrees>36.732159443199634552001953125</LatitudeDegrees>
              <LongitudeDegrees>-5.462732054293155670166015625</LongitudeDegrees>
            </Position>
            <AltitudeMeters>64.59999847412109375</AltitudeMeters>
            <DistanceMeters>655.87448038264</DistanceMeters>
          </Trackpoint>
          <Trackpoint>
            <Time>2021-03-21T11:32:24.000Z</Time>
            <Position>
              <LatitudeDegrees>36.73215751536190509796142578125</LatitudeDegrees>
              <LongitudeDegrees>-5.46272811479866504669189453125</LongitudeDegrees>
            </Position>
            <AltitudeMeters>64.59999847412109375</AltitudeMeters>
            <DistanceMeters>656.26628556324</DistanceMeters>
          </Trackpoint>
          <Trackpoint>
            <Time>2021-03-21T11:32:25.000Z</Time>
            <Position>
              <LatitudeDegrees>36.73215567134320735931396484375</LatitudeDegrees>
              <LongitudeDegrees>-5.4627231694757938385009765625</LongitudeDegrees>
            </Position>
            <AltitudeMeters>64.59999847412109375</AltitudeMeters>
            <DistanceMeters>656.75082863413</DistanceMeters>
          </Trackpoint>
          <Trackpoint>
            <Time>2021-03-21T11:32:26.000Z</Time>
            <Position>
              <LatitudeDegrees>36.7321591079235076904296875</LatitudeDegrees>
              <LongitudeDegrees>-5.46271587722003459930419921875</LongitudeDegrees>
            </Position>
            <AltitudeMeters>64.59999847412109375</AltitudeMeters>
            <DistanceMeters>657.49906973132</DistanceMeters>
          </Trackpoint>
          <Trackpoint>
            <Time>2021-03-21T11:32:27.000Z</Time>
            <Position>
              <LatitudeDegrees>36.73215466551482677459716796875</LatitudeDegrees>
              <LongitudeDegrees>-5.4627110995352268218994140625</LongitudeDegrees>
            </Position>
            <AltitudeMeters>64.59999847412109375</AltitudeMeters>
            <DistanceMeters>658.15054006285</DistanceMeters>
          </Trackpoint>
          <Trackpoint>
            <Time>2021-03-21T11:32:54.000Z</Time>
            <Position>
              <LatitudeDegrees>36.73211158253252506256103515625</LatitudeDegrees>
              <LongitudeDegrees>-5.4626279510557651519775390625</LongitudeDegrees>
            </Position>
            <AltitudeMeters>64.59999847412109375</AltitudeMeters>
            <DistanceMeters>666.9824028518</DistanceMeters>
          </Trackpoint>
          <Trackpoint>
            <Time>2021-03-21T11:33:02.000Z</Time>
            <Position>
              <LatitudeDegrees>36.732123903930187225341796875</LatitudeDegrees>
              <LongitudeDegrees>-5.4626155458390712738037109375</LongitudeDegrees>
            </Position>
            <AltitudeMeters>64.59999847412109375</AltitudeMeters>
            <DistanceMeters>668.7448858437</DistanceMeters>
          </Trackpoint>
          <Trackpoint>
            <Time>2021-03-21T11:33:21.000Z</Time>
            <Position>
              <LatitudeDegrees>36.73207822255790233612060546875</LatitudeDegrees>
              <LongitudeDegrees>-5.46261831186711788177490234375</LongitudeDegrees>
            </Position>
            <AltitudeMeters>64.59999847412109375</AltitudeMeters>
            <DistanceMeters>673.83391907618</DistanceMeters>
          </Trackpoint>
          <Trackpoint>
            <Time>2021-03-21T11:33:38.000Z</Time>
            <Position>
              <LatitudeDegrees>36.73210336826741695404052734375</LatitudeDegrees>
              <LongitudeDegrees>-5.4626175574958324432373046875</LongitudeDegrees>
            </Position>
            <AltitudeMeters>64.59999847412109375</AltitudeMeters>
            <DistanceMeters>676.63358090457</DistanceMeters>
          </Trackpoint>
          <Trackpoint>
            <Time>2021-03-21T11:33:51.000Z</Time>
            <Position>
              <LatitudeDegrees>36.7320392467081546783447265625</LatitudeDegrees>
              <LongitudeDegrees>-5.46260842122137546539306640625</LongitudeDegrees>
            </Position>
            <AltitudeMeters>64.59999847412109375</AltitudeMeters>
            <DistanceMeters>683.81737425329</DistanceMeters>
          </Trackpoint>
          <Trackpoint>
            <Time>2021-03-21T11:34:00.000Z</Time>
            <Position>
              <LatitudeDegrees>36.7320154421031475067138671875</LatitudeDegrees>
              <LongitudeDegrees>-5.46260272152721881866455078125</LongitudeDegrees>
            </Position>
            <AltitudeMeters>64.59999847412109375</AltitudeMeters>
            <DistanceMeters>686.51686896347</DistanceMeters>
          </Trackpoint>
          <Trackpoint>
            <Time>2021-03-21T11:34:20.000Z</Time>
            <Position>
              <LatitudeDegrees>36.73199255950748920440673828125</LatitudeDegrees>
              <LongitudeDegrees>-5.4625957645475864410400390625</LongitudeDegrees>
            </Position>
            <AltitudeMeters>61</AltitudeMeters>
            <DistanceMeters>689.13829761477</DistanceMeters>
          </Trackpoint>
          <Trackpoint>
            <Time>2021-03-21T11:34:27.000Z</Time>
            <Position>
              <LatitudeDegrees>36.73200446180999279022216796875</LatitudeDegrees>
              <LongitudeDegrees>-5.4625971056520938873291015625</LongitudeDegrees>
            </Position>
            <AltitudeMeters>62.200000762939453125</AltitudeMeters>
            <DistanceMeters>690.4652734648</DistanceMeters>
          </Trackpoint>
          <Trackpoint>
            <Time>2021-03-21T11:34:38.000Z</Time>
            <Position>
              <LatitudeDegrees>36.732014603912830352783203125</LatitudeDegrees>
              <LongitudeDegrees>-5.46257992275059223175048828125</LongitudeDegrees>
            </Position>
            <AltitudeMeters>62.799999237060546875</AltitudeMeters>
            <DistanceMeters>692.36818193712</DistanceMeters>
          </Trackpoint>
          <Trackpoint>
            <Time>2021-03-21T11:34:42.000Z</Time>
            <Position>
              <LatitudeDegrees>36.73200982622802257537841796875</LatitudeDegrees>
              <LongitudeDegrees>-5.46257103793323040008544921875</LongitudeDegrees>
            </Position>
            <AltitudeMeters>62.799999237060546875</AltitudeMeters>
            <DistanceMeters>693.32318859722</DistanceMeters>
          </Trackpoint>
          <Trackpoint>
            <Time>2021-03-21T11:34:48.000Z</Time>
            <Position>
              <LatitudeDegrees>36.73201954923570156097412109375</LatitudeDegrees>
              <LongitudeDegrees>-5.46257573179900646209716796875</LongitudeDegrees>
            </Position>
            <AltitudeMeters>63.200000762939453125</AltitudeMeters>
            <DistanceMeters>694.48702340792</DistanceMeters>
          </Trackpoint>
          <Trackpoint>
            <Time>2021-03-21T11:34:49.000Z</Time>
            <Position>
              <LatitudeDegrees>36.7320223152637481689453125</LatitudeDegrees>
              <LongitudeDegrees>-5.46257774345576763153076171875</LongitudeDegrees>
            </Position>
            <AltitudeMeters>63.200000762939453125</AltitudeMeters>
            <DistanceMeters>694.84258081569</DistanceMeters>
          </Trackpoint>
          <Trackpoint>
            <Time>2021-03-21T11:34:50.000Z</Time>
            <Position>
              <LatitudeDegrees>36.73202298581600189208984375</LatitudeDegrees>
              <LongitudeDegrees>-5.4625793360173702239990234375</LongitudeDegrees>
            </Position>
            <AltitudeMeters>63.200000762939453125</AltitudeMeters>
            <DistanceMeters>694.97696888394</DistanceMeters>
          </Trackpoint>
          <Trackpoint>
            <Time>2021-03-21T11:34:59.000Z</Time>
            <Position>
              <LatitudeDegrees>36.73204670660197734832763671875</LatitudeDegrees>
              <LongitudeDegrees>-5.4625867120921611785888671875</LongitudeDegrees>
            </Position>
            <AltitudeMeters>64</AltitudeMeters>
            <DistanceMeters>697.6981198691</DistanceMeters>
          </Trackpoint>
          <Trackpoint>
            <Time>2021-03-21T11:35:13.000Z</Time>
            <Position>
              <LatitudeDegrees>36.7320171184837818145751953125</LatitudeDegrees>
              <LongitudeDegrees>-5.462536923587322235107421875</LongitudeDegrees>
            </Position>
            <AltitudeMeters>64.1999969482421875</AltitudeMeters>
            <DistanceMeters>703.22766224069</DistanceMeters>
          </Trackpoint>
          <Trackpoint>
            <Time>2021-03-21T11:35:25.000Z</Time>
            <Position>
              <LatitudeDegrees>36.73197277821600437164306640625</LatitudeDegrees>
              <LongitudeDegrees>-5.46251781284809112548828125</LongitudeDegrees>
            </Position>
            <AltitudeMeters>64.59999847412109375</AltitudeMeters>
            <DistanceMeters>708.44808087408</DistanceMeters>
          </Trackpoint>
          <Trackpoint>
            <Time>2021-03-21T11:35:27.000Z</Time>
            <Position>
              <LatitudeDegrees>36.73196858726441860198974609375</LatitudeDegrees>
              <LongitudeDegrees>-5.4625117778778076171875</LongitudeDegrees>
            </Position>
            <AltitudeMeters>64.59999847412109375</AltitudeMeters>
            <DistanceMeters>709.15919568961</DistanceMeters>
          </Trackpoint>
          <Trackpoint>
            <Time>2021-03-21T11:35:59.000Z</Time>
            <Position>
              <LatitudeDegrees>36.73186247237026691436767578125</LatitudeDegrees>
              <LongitudeDegrees>-5.4624894820153713226318359375</LongitudeDegrees>
            </Position>
            <AltitudeMeters>63.799999237060546875</AltitudeMeters>
            <DistanceMeters>721.13633200797</DistanceMeters>
          </Trackpoint>
          <Trackpoint>
            <Time>2021-03-21T11:36:15.000Z</Time>
            <Position>
              <LatitudeDegrees>36.73187253065407276153564453125</LatitudeDegrees>
              <LongitudeDegrees>-5.4624864645302295684814453125</LongitudeDegrees>
            </Position>
            <AltitudeMeters>63.200000762939453125</AltitudeMeters>
            <DistanceMeters>722.28454416642</DistanceMeters>
          </Trackpoint>
          <Trackpoint>
            <Time>2021-03-21T11:37:00.000Z</Time>
            <Position>
              <LatitudeDegrees>36.73183112405240535736083984375</LatitudeDegrees>
              <LongitudeDegrees>-5.462466515600681304931640625</LongitudeDegrees>
            </Position>
            <AltitudeMeters>63.40000152587890625</AltitudeMeters>
            <DistanceMeters>727.22501951076</DistanceMeters>
          </Trackpoint>
          <Trackpoint>
            <Time>2021-03-21T11:37:30.000Z</Time>
            <Position>
              <LatitudeDegrees>36.7317452095448970794677734375</LatitudeDegrees>
              <LongitudeDegrees>-5.46238236129283905029296875</LongitudeDegrees>
            </Position>
            <AltitudeMeters>64.1999969482421875</AltitudeMeters>
            <DistanceMeters>739.38212694461</DistanceMeters>
          </Trackpoint>
          <Trackpoint>
            <Time>2021-03-21T11:37:48.000Z</Time>
            <Position>
              <LatitudeDegrees>36.7317287810146808624267578125</LatitudeDegrees>
              <LongitudeDegrees>-5.46234623529016971588134765625</LongitudeDegrees>
            </Position>
            <AltitudeMeters>64.1999969482421875</AltitudeMeters>
            <DistanceMeters>743.08695031352</DistanceMeters>
          </Trackpoint>
          <Trackpoint>
            <Time>2021-03-21T11:38:24.000Z</Time>
            <Position>
              <LatitudeDegrees>36.7316982708871364593505859375</LatitudeDegrees>
              <LongitudeDegrees>-5.46232980675995349884033203125</LongitudeDegrees>
            </Position>
            <AltitudeMeters>64.1999969482421875</AltitudeMeters>
            <DistanceMeters>746.78567520362</DistanceMeters>
          </Trackpoint>
          <Trackpoint>
            <Time>2021-03-21T11:39:35.000Z</Time>
            <Position>
              <LatitudeDegrees>36.73154714517295360565185546875</LatitudeDegrees>
              <LongitudeDegrees>-5.46225629746913909912109375</LongitudeDegrees>
            </Position>
            <AltitudeMeters>64.1999969482421875</AltitudeMeters>
            <DistanceMeters>764.83925044976</DistanceMeters>
          </Trackpoint>
          <Trackpoint>
            <Time>2021-03-21T11:40:09.000Z</Time>
            <Position>
              <LatitudeDegrees>36.731481514871120452880859375</LatitudeDegrees>
              <LongitudeDegrees>-5.46219234354794025421142578125</LongitudeDegrees>
            </Position>
            <AltitudeMeters>64.1999969482421875</AltitudeMeters>
            <DistanceMeters>774.1076439034</DistanceMeters>
          </Trackpoint>
          <Trackpoint>
            <Time>2021-03-21T11:40:28.000Z</Time>
            <Position>
              <LatitudeDegrees>36.7314515076577663421630859375</LatitudeDegrees>
              <LongitudeDegrees>-5.46214540489017963409423828125</LongitudeDegrees>
            </Position>
            <AltitudeMeters>64.1999969482421875</AltitudeMeters>
            <DistanceMeters>779.46465640468</DistanceMeters>
          </Trackpoint>
          <Trackpoint>
            <Time>2021-03-21T11:40:30.000Z</Time>
            <Position>
              <LatitudeDegrees>36.73144807107746601104736328125</LatitudeDegrees>
              <LongitudeDegrees>-5.46213216148316860198974609375</LongitudeDegrees>
            </Position>
            <AltitudeMeters>64.1999969482421875</AltitudeMeters>
            <DistanceMeters>780.71092007997</DistanceMeters>
          </Trackpoint>
          <Trackpoint>
            <Time>2021-03-21T11:40:31.000Z</Time>
            <Position>
              <LatitudeDegrees>36.73144689761102199554443359375</LatitudeDegrees>
              <LongitudeDegrees>-5.46212998218834400177001953125</LongitudeDegrees>
            </Position>
            <AltitudeMeters>64.1999969482421875</AltitudeMeters>
            <DistanceMeters>780.92340627298</DistanceMeters>
          </Trackpoint>
          <Trackpoint>
            <Time>2021-03-21T11:40:37.000Z</Time>
            <Position>
              <LatitudeDegrees>36.7314273677766323089599609375</LatitudeDegrees>
              <LongitudeDegrees>-5.46211707405745983123779296875</LongitudeDegrees>
            </Position>
            <AltitudeMeters>64.1999969482421875</AltitudeMeters>
            <DistanceMeters>783.38494670407</DistanceMeters>
          </Trackpoint>
          <Trackpoint>
            <Time>2021-03-21T11:41:02.000Z</Time>
            <Position>
              <LatitudeDegrees>36.73140800558030605316162109375</LatitudeDegrees>
              <LongitudeDegrees>-5.46210475265979766845703125</LongitudeDegrees>
            </Position>
            <AltitudeMeters>64.1999969482421875</AltitudeMeters>
            <DistanceMeters>785.80393193257</DistanceMeters>
          </Trackpoint>
          <Trackpoint>
            <Time>2021-03-21T11:41:03.000Z</Time>
            <Position>
              <LatitudeDegrees>36.7314116097986698150634765625</LatitudeDegrees>
              <LongitudeDegrees>-5.46210483647882938385009765625</LongitudeDegrees>
            </Position>
            <AltitudeMeters>64.1999969482421875</AltitudeMeters>
            <DistanceMeters>786.18403879005</DistanceMeters>
          </Trackpoint>
          <Trackpoint>
            <Time>2021-03-21T11:41:09.000Z</Time>
            <Position>
              <LatitudeDegrees>36.7314213328063488006591796875</LatitudeDegrees>
              <LongitudeDegrees>-5.462115816771984100341796875</LongitudeDegrees>
            </Position>
            <AltitudeMeters>64.1999969482421875</AltitudeMeters>
            <DistanceMeters>787.64386687608</DistanceMeters>
          </Trackpoint>
          <Trackpoint>
            <Time>2021-03-21T11:41:12.000Z</Time>
            <Position>
              <LatitudeDegrees>36.73142015933990478515625</LatitudeDegrees>
              <LongitudeDegrees>-5.46211623586714267730712890625</LongitudeDegrees>
            </Position>
            <AltitudeMeters>64.1999969482421875</AltitudeMeters>
            <DistanceMeters>787.77825494433</DistanceMeters>
          </Trackpoint>
          <Trackpoint>
            <Time>2021-03-21T11:41:13.000Z</Time>
            <Position>
              <LatitudeDegrees>36.731421835720539093017578125</LatitudeDegrees>
              <LongitudeDegrees>-5.46211807988584041595458984375</LongitudeDegrees>
            </Position>
            <AltitudeMeters>64.1999969482421875</AltitudeMeters>
            <DistanceMeters>788.01102190647</DistanceMeters>
          </Trackpoint>
          <Trackpoint>
            <Time>2021-03-21T11:41:14.000Z</Time>
            <Position>
              <LatitudeDegrees>36.73142015933990478515625</LatitudeDegrees>
              <LongitudeDegrees>-5.46211816370487213134765625</LongitudeDegrees>
            </Position>
            <AltitudeMeters>64.1999969482421875</AltitudeMeters>
            <DistanceMeters>788.17561300384</DistanceMeters>
          </Trackpoint>
          <Trackpoint>
            <Time>2021-03-21T11:41:27.000Z</Time>
            <Position>
              <LatitudeDegrees>36.7314161360263824462890625</LatitudeDegrees>
              <LongitudeDegrees>-5.46211523003876209259033203125</LongitudeDegrees>
            </Position>
            <AltitudeMeters>68</AltitudeMeters>
            <DistanceMeters>788.6960957541</DistanceMeters>
          </Trackpoint>
          <Trackpoint>
            <Time>2021-03-21T11:41:30.000Z</Time>
            <Position>
              <LatitudeDegrees>36.73141320236027240753173828125</LatitudeDegrees>
              <LongitudeDegrees>-5.4621119610965251922607421875</LongitudeDegrees>
            </Position>
            <AltitudeMeters>69.59999847412109375</AltitudeMeters>
            <DistanceMeters>789.14181055278</DistanceMeters>
          </Trackpoint>
          <Trackpoint>
            <Time>2021-03-21T11:41:39.000Z</Time>
            <Position>
              <LatitudeDegrees>36.73140750266611576080322265625</LatitudeDegrees>
              <LongitudeDegrees>-5.4621173255145549774169921875</LongitudeDegrees>
            </Position>
            <AltitudeMeters>69.40000152587890625</AltitudeMeters>
            <DistanceMeters>789.93686108645</DistanceMeters>
          </Trackpoint>
          <Trackpoint>
            <Time>2021-03-21T11:42:20.000Z</Time>
            <Position>
              <LatitudeDegrees>36.73145796172320842742919921875</LatitudeDegrees>
              <LongitudeDegrees>-5.46214691363275051116943359375</LongitudeDegrees>
            </Position>
            <AltitudeMeters>68.59999847412109375</AltitudeMeters>
            <DistanceMeters>796.14204004898</DistanceMeters>
          </Trackpoint>
          <Trackpoint>
            <Time>2021-03-21T11:42:22.000Z</Time>
            <Position>
              <LatitudeDegrees>36.7314585484564304351806640625</LatitudeDegrees>
              <LongitudeDegrees>-5.46214775182306766510009765625</LongitudeDegrees>
            </Position>
            <AltitudeMeters>68.40000152587890625</AltitudeMeters>
            <DistanceMeters>796.27642811723</DistanceMeters>
          </Trackpoint>
          <Trackpoint>
            <Time>2021-03-21T11:42:43.000Z</Time>
            <Position>
              <LatitudeDegrees>36.73146131448447704315185546875</LatitudeDegrees>
              <LongitudeDegrees>-5.46217381954193115234375</LongitudeDegrees>
            </Position>
            <AltitudeMeters>68</AltitudeMeters>
            <DistanceMeters>798.62533780201</DistanceMeters>
          </Trackpoint>
          <Trackpoint>
            <Time>2021-03-21T11:42:55.000Z</Time>
            <Position>
              <LatitudeDegrees>36.731466762721538543701171875</LatitudeDegrees>
              <LongitudeDegrees>-5.4621813632547855377197265625</LongitudeDegrees>
            </Position>
            <AltitudeMeters>68</AltitudeMeters>
            <DistanceMeters>799.5318348822</DistanceMeters>
          </Trackpoint>
          <Trackpoint>
            <Time>2021-03-21T11:43:08.000Z</Time>
            <Position>
              <LatitudeDegrees>36.73145293258130550384521484375</LatitudeDegrees>
              <LongitudeDegrees>-5.4621770046651363372802734375</LongitudeDegrees>
            </Position>
            <AltitudeMeters>68</AltitudeMeters>
            <DistanceMeters>801.12193594953</DistanceMeters>
          </Trackpoint>
          <Trackpoint>
            <Time>2021-03-21T11:43:29.000Z</Time>
            <Position>
              <LatitudeDegrees>36.73137665726244449615478515625</LatitudeDegrees>
              <LongitudeDegrees>-5.46215244568884372711181640625</LongitudeDegrees>
            </Position>
            <AltitudeMeters>67.40000152587890625</AltitudeMeters>
            <DistanceMeters>809.89017812478</DistanceMeters>
          </Trackpoint>
          <Trackpoint>
            <Time>2021-03-21T11:43:37.000Z</Time>
            <Position>
              <LatitudeDegrees>36.73136492259800434112548828125</LatitudeDegrees>
              <LongitudeDegrees>-5.4621617496013641357421875</LongitudeDegrees>
            </Position>
            <AltitudeMeters>66.8000030517578125</AltitudeMeters>
            <DistanceMeters>811.43710095984</DistanceMeters>
          </Trackpoint>
          <Trackpoint>
            <Time>2021-03-21T11:44:05.000Z</Time>
            <Position>
              <LatitudeDegrees>36.73131898976862430572509765625</LatitudeDegrees>
              <LongitudeDegrees>-5.46217977069318294525146484375</LongitudeDegrees>
            </Position>
            <AltitudeMeters>66.1999969482421875</AltitudeMeters>
            <DistanceMeters>816.79579885129</DistanceMeters>
          </Trackpoint>
          <Trackpoint>
            <Time>2021-03-21T11:44:31.000Z</Time>
            <Position>
              <LatitudeDegrees>36.7312909103929996490478515625</LatitudeDegrees>
              <LongitudeDegrees>-5.462172813713550567626953125</LongitudeDegrees>
            </Position>
            <AltitudeMeters>65.1999969482421875</AltitudeMeters>
            <DistanceMeters>819.98167485688</DistanceMeters>
          </Trackpoint>
          <Trackpoint>
            <Time>2021-03-21T11:44:42.000Z</Time>
            <Position>
              <LatitudeDegrees>36.731273643672466278076171875</LatitudeDegrees>
              <LongitudeDegrees>-5.46219527721405029296875</LongitudeDegrees>
            </Position>
            <AltitudeMeters>64.1999969482421875</AltitudeMeters>
            <DistanceMeters>822.75866698563</DistanceMeters>
          </Trackpoint>
          <Trackpoint>
            <Time>2021-03-21T11:45:09.000Z</Time>
            <Position>
              <LatitudeDegrees>36.7312630824744701385498046875</LatitudeDegrees>
              <LongitudeDegrees>-5.46225487254559993743896484375</LongitudeDegrees>
            </Position>
            <AltitudeMeters>64.1999969482421875</AltitudeMeters>
            <DistanceMeters>828.2026279415</DistanceMeters>
          </Trackpoint>
          <Trackpoint>
            <Time>2021-03-21T11:45:26.000Z</Time>
            <Position>
              <LatitudeDegrees>36.731238774955272674560546875</LatitudeDegrees>
              <LongitudeDegrees>-5.46223877929151058197021484375</LongitudeDegrees>
            </Position>
            <AltitudeMeters>63.59999847412109375</AltitudeMeters>
            <DistanceMeters>831.26419932705</DistanceMeters>
          </Trackpoint>
          <Trackpoint>
            <Time>2021-03-21T11:46:07.000Z</Time>
            <Position>
              <LatitudeDegrees>36.73118672333657741546630859375</LatitudeDegrees>
              <LongitudeDegrees>-5.46221765689551830291748046875</LongitudeDegrees>
            </Position>
            <AltitudeMeters>64.1999969482421875</AltitudeMeters>
            <DistanceMeters>837.35629372755</DistanceMeters>
          </Trackpoint>
          <Trackpoint>
            <Time>2021-03-21T11:46:26.000Z</Time>
            <Position>
              <LatitudeDegrees>36.73118437640368938446044921875</LatitudeDegrees>
              <LongitudeDegrees>-5.462210364639759063720703125</LongitudeDegrees>
            </Position>
            <AltitudeMeters>65</AltitudeMeters>
            <DistanceMeters>838.05459461397</DistanceMeters>
          </Trackpoint>
          <Trackpoint>
            <Time>2021-03-21T11:46:36.000Z</Time>
            <Position>
              <LatitudeDegrees>36.73118772916495800018310546875</LatitudeDegrees>
              <LongitudeDegrees>-5.46221162192523479461669921875</LongitudeDegrees>
            </Position>
            <AltitudeMeters>65.1999969482421875</AltitudeMeters>
            <DistanceMeters>838.43470147145</DistanceMeters>
          </Trackpoint>
          <Trackpoint>
            <Time>2021-03-21T11:46:53.000Z</Time>
            <Position>
              <LatitudeDegrees>36.73119829036295413970947265625</LatitudeDegrees>
              <LongitudeDegrees>-5.46218253672122955322265625</LongitudeDegrees>
            </Position>
            <AltitudeMeters>65</AltitudeMeters>
            <DistanceMeters>841.2823335837</DistanceMeters>
          </Trackpoint>
          <Trackpoint>
            <Time>2021-03-21T11:46:55.000Z</Time>
            <Position>
              <LatitudeDegrees>36.7311913333833217620849609375</LatitudeDegrees>
              <LongitudeDegrees>-5.4621791839599609375</LongitudeDegrees>
            </Position>
            <AltitudeMeters>65</AltitudeMeters>
            <DistanceMeters>842.11075727345</DistanceMeters>
          </Trackpoint>
          <Trackpoint>
            <Time>2021-03-21T11:47:00.000Z</Time>
            <Position>
              <LatitudeDegrees>36.73118990845978260040283203125</LatitudeDegrees>
              <LongitudeDegrees>-5.4621827043592929840087890625</LongitudeDegrees>
            </Position>
            <AltitudeMeters>64.59999847412109375</AltitudeMeters>
            <DistanceMeters>842.45338096465</DistanceMeters>
          </Trackpoint>
          <Trackpoint>
            <Time>2021-03-21T11:47:05.000Z</Time>
            <Position>
              <LatitudeDegrees>36.73118437640368938446044921875</LatitudeDegrees>
              <LongitudeDegrees>-5.4621890746057033538818359375</LongitudeDegrees>
            </Position>
            <AltitudeMeters>64.1999969482421875</AltitudeMeters>
            <DistanceMeters>843.28723699909</DistanceMeters>
          </Trackpoint>
          <Trackpoint>
            <Time>2021-03-21T11:47:12.000Z</Time>
            <Position>
              <LatitudeDegrees>36.7311541177332401275634765625</LatitudeDegrees>
              <LongitudeDegrees>-5.46219133771955966949462890625</LongitudeDegrees>
            </Position>
            <AltitudeMeters>64</AltitudeMeters>
            <DistanceMeters>846.66035074153</DistanceMeters>
          </Trackpoint>
          <Trackpoint>
            <Time>2021-03-21T11:47:34.000Z</Time>
            <Position>
              <LatitudeDegrees>36.73117415048182010650634765625</LatitudeDegrees>
              <LongitudeDegrees>-5.4621880687773227691650390625</LongitudeDegrees>
            </Position>
            <AltitudeMeters>64.8000030517578125</AltitudeMeters>
            <DistanceMeters>848.91110014674</DistanceMeters>
          </Trackpoint>
          <Trackpoint>
            <Time>2021-03-21T11:47:39.000Z</Time>
            <Position>
              <LatitudeDegrees>36.73118471167981624603271484375</LatitudeDegrees>
              <LongitudeDegrees>-5.462180860340595245361328125</LongitudeDegrees>
            </Position>
            <AltitudeMeters>65.40000152587890625</AltitudeMeters>
            <DistanceMeters>850.25498082923</DistanceMeters>
          </Trackpoint>
          <Trackpoint>
            <Time>2021-03-21T11:48:09.000Z</Time>
            <Position>
              <LatitudeDegrees>36.73118119128048419952392578125</LatitudeDegrees>
              <LongitudeDegrees>-5.462219081819057464599609375</LongitudeDegrees>
            </Position>
            <AltitudeMeters>64.1999969482421875</AltitudeMeters>
            <DistanceMeters>853.68648482645</DistanceMeters>
          </Trackpoint>
          <Trackpoint>
            <Time>2021-03-21T11:48:25.000Z</Time>
            <Position>
              <LatitudeDegrees>36.731188483536243438720703125</LatitudeDegrees>
              <LongitudeDegrees>-5.4622179083526134490966796875</LongitudeDegrees>
            </Position>
            <AltitudeMeters>63</AltitudeMeters>
            <DistanceMeters>854.50393553252</DistanceMeters>
          </Trackpoint>
          <Trackpoint>
            <Time>2021-03-21T11:48:49.000Z</Time>
            <Position>
              <LatitudeDegrees>36.73118337057530879974365234375</LatitudeDegrees>
              <LongitudeDegrees>-5.46224246732890605926513671875</LongitudeDegrees>
            </Position>
            <AltitudeMeters>63.59999847412109375</AltitudeMeters>
            <DistanceMeters>856.76868351412</DistanceMeters>
          </Trackpoint>
          <Trackpoint>
            <Time>2021-03-21T11:48:50.000Z</Time>
            <Position>
              <LatitudeDegrees>36.731179095804691314697265625</LatitudeDegrees>
              <LongitudeDegrees>-5.4622474126517772674560546875</LongitudeDegrees>
            </Position>
            <AltitudeMeters>63.59999847412109375</AltitudeMeters>
            <DistanceMeters>857.42704790358</DistanceMeters>
          </Trackpoint>
          <Trackpoint>
            <Time>2021-03-21T11:48:53.000Z</Time>
            <Position>
              <LatitudeDegrees>36.73117632977664470672607421875</LatitudeDegrees>
              <LongitudeDegrees>-5.4622450657188892364501953125</LongitudeDegrees>
            </Position>
            <AltitudeMeters>63.59999847412109375</AltitudeMeters>
            <DistanceMeters>857.80715476106</DistanceMeters>
          </Trackpoint>
          <Trackpoint>
            <Time>2021-03-21T11:48:54.000Z</Time>
            <Position>
              <LatitudeDegrees>36.731176078319549560546875</LatitudeDegrees>
              <LongitudeDegrees>-5.4622427187860012054443359375</LongitudeDegrees>
            </Position>
            <AltitudeMeters>63.59999847412109375</AltitudeMeters>
            <DistanceMeters>857.9972081898</DistanceMeters>
          </Trackpoint>
          <Trackpoint>
            <Time>2021-03-21T11:49:08.000Z</Time>
            <Position>
              <LatitudeDegrees>36.7311725579202175140380859375</LatitudeDegrees>
              <LongitudeDegrees>-5.462221093475818634033203125</LongitudeDegrees>
            </Position>
            <AltitudeMeters>64.1999969482421875</AltitudeMeters>
            <DistanceMeters>859.96543144809</DistanceMeters>
          </Trackpoint>
          <Trackpoint>
            <Time>2021-03-21T11:49:18.000Z</Time>
            <Position>
              <LatitudeDegrees>36.73118085600435733795166015625</LatitudeDegrees>
              <LongitudeDegrees>-5.462206341326236724853515625</LongitudeDegrees>
            </Position>
            <AltitudeMeters>65.1999969482421875</AltitudeMeters>
            <DistanceMeters>861.57528608109</DistanceMeters>
          </Trackpoint>
          <Trackpoint>
            <Time>2021-03-21T11:49:22.000Z</Time>
            <Position>
              <LatitudeDegrees>36.7311795987188816070556640625</LatitudeDegrees>
              <LongitudeDegrees>-5.462203323841094970703125</LongitudeDegrees>
            </Position>
            <AltitudeMeters>66.40000152587890625</AltitudeMeters>
            <DistanceMeters>861.87578693707</DistanceMeters>
          </Trackpoint>
          <Trackpoint>
            <Time>2021-03-21T11:49:24.000Z</Time>
            <Position>
              <LatitudeDegrees>36.73118404112756252288818359375</LatitudeDegrees>
              <LongitudeDegrees>-5.4621987976133823394775390625</LongitudeDegrees>
            </Position>
            <AltitudeMeters>65.40000152587890625</AltitudeMeters>
            <DistanceMeters>862.5132455161</DistanceMeters>
          </Trackpoint>
          <Trackpoint>
            <Time>2021-03-21T11:49:27.000Z</Time>
            <Position>
              <LatitudeDegrees>36.73119041137397289276123046875</LatitudeDegrees>
              <LongitudeDegrees>-5.46219770796597003936767578125</LongitudeDegrees>
            </Position>
            <AltitudeMeters>66.8000030517578125</AltitudeMeters>
            <DistanceMeters>863.23694741173</DistanceMeters>
          </Trackpoint>
          <Trackpoint>
            <Time>2021-03-21T11:49:38.000Z</Time>
            <Position>
              <LatitudeDegrees>36.73118303529918193817138671875</LatitudeDegrees>
              <LongitudeDegrees>-5.46220642514526844024658203125</LongitudeDegrees>
            </Position>
            <AltitudeMeters>65.40000152587890625</AltitudeMeters>
            <DistanceMeters>864.36932140253</DistanceMeters>
          </Trackpoint>
          <Trackpoint>
            <Time>2021-03-21T11:49:48.000Z</Time>
            <Position>
              <LatitudeDegrees>36.7311708815395832061767578125</LatitudeDegrees>
              <LongitudeDegrees>-5.4622068442404270172119140625</LongitudeDegrees>
            </Position>
            <AltitudeMeters>64</AltitudeMeters>
            <DistanceMeters>865.71990477341</DistanceMeters>
          </Trackpoint>
          <Trackpoint>
            <Time>2021-03-21T11:50:26.000Z</Time>
            <Position>
              <LatitudeDegrees>36.73117532394826412200927734375</LatitudeDegrees>
              <LongitudeDegrees>-5.462212376296520233154296875</LongitudeDegrees>
            </Position>
            <AltitudeMeters>63</AltitudeMeters>
            <DistanceMeters>866.41820565983</DistanceMeters>
          </Trackpoint>
          <Trackpoint>
            <Time>2021-03-21T11:50:30.000Z</Time>
            <Position>
              <LatitudeDegrees>36.73116895370185375213623046875</LatitudeDegrees>
              <LongitudeDegrees>-5.4621984623372554779052734375</LongitudeDegrees>
            </Position>
            <AltitudeMeters>64</AltitudeMeters>
            <DistanceMeters>867.84677042081</DistanceMeters>
          </Trackpoint>
          <Trackpoint>
            <Time>2021-03-21T11:50:37.000Z</Time>
            <Position>
              <LatitudeDegrees>36.73116828314960002899169921875</LatitudeDegrees>
              <LongitudeDegrees>-5.46219527721405029296875</LongitudeDegrees>
            </Position>
            <AltitudeMeters>63</AltitudeMeters>
            <DistanceMeters>868.14727127678</DistanceMeters>
          </Trackpoint>
          <Trackpoint>
            <Time>2021-03-21T11:50:48.000Z</Time>
            <Position>
              <LatitudeDegrees>36.73117482103407382965087890625</LatitudeDegrees>
              <LongitudeDegrees>-5.4622091911733150482177734375</LongitudeDegrees>
            </Position>
            <AltitudeMeters>64.1999969482421875</AltitudeMeters>
            <DistanceMeters>869.58842275463</DistanceMeters>
          </Trackpoint>
          <Trackpoint>
            <Time>2021-03-21T11:51:01.000Z</Time>
            <Position>
              <LatitudeDegrees>36.73120558261871337890625</LatitudeDegrees>
              <LongitudeDegrees>-5.46221028082072734832763671875</LongitudeDegrees>
            </Position>
            <AltitudeMeters>65.40000152587890625</AltitudeMeters>
            <DistanceMeters>873.01334162969</DistanceMeters>
          </Trackpoint>
          <Trackpoint>
            <Time>2021-03-21T11:51:12.000Z</Time>
            <Position>
              <LatitudeDegrees>36.7311926744878292083740234375</LatitudeDegrees>
              <LongitudeDegrees>-5.46222545206546783447265625</LongitudeDegrees>
            </Position>
            <AltitudeMeters>64.1999969482421875</AltitudeMeters>
            <DistanceMeters>874.98843479807</DistanceMeters>
          </Trackpoint>
          <Trackpoint>
            <Time>2021-03-21T11:51:24.000Z</Time>
            <Position>
              <LatitudeDegrees>36.731181778013706207275390625</LatitudeDegrees>
              <LongitudeDegrees>-5.46222117729485034942626953125</LongitudeDegrees>
            </Position>
            <AltitudeMeters>65.40000152587890625</AltitudeMeters>
            <DistanceMeters>876.26335195613</DistanceMeters>
          </Trackpoint>
          <Trackpoint>
            <Time>2021-03-21T11:51:55.000Z</Time>
            <Position>
              <LatitudeDegrees>36.73118881881237030029296875</LatitudeDegrees>
              <LongitudeDegrees>-5.46220131218433380126953125</LongitudeDegrees>
            </Position>
            <AltitudeMeters>65</AltitudeMeters>
            <DistanceMeters>878.19919330403</DistanceMeters>
          </Trackpoint>
          <Trackpoint>
            <Time>2021-03-21T11:52:24.000Z</Time>
            <Position>
              <LatitudeDegrees>36.73113106749951839447021484375</LatitudeDegrees>
              <LongitudeDegrees>-5.46222318895161151885986328125</LongitudeDegrees>
            </Position>
            <AltitudeMeters>66.59999847412109375</AltitudeMeters>
            <DistanceMeters>884.91658059303</DistanceMeters>
          </Trackpoint>
          <Trackpoint>
            <Time>2021-03-21T11:53:08.000Z</Time>
            <Position>
              <LatitudeDegrees>36.7311624996364116668701171875</LatitudeDegrees>
              <LongitudeDegrees>-5.46223542653024196624755859375</LongitudeDegrees>
            </Position>
            <AltitudeMeters>65.59999847412109375</AltitudeMeters>
            <DistanceMeters>888.58096644501</DistanceMeters>
          </Trackpoint>
          <Trackpoint>
            <Time>2021-03-21T11:53:32.000Z</Time>
            <Position>
              <LatitudeDegrees>36.73118077218532562255859375</LatitudeDegrees>
              <LongitudeDegrees>-5.4622524417936801910400390625</LongitudeDegrees>
            </Position>
            <AltitudeMeters>63.59999847412109375</AltitudeMeters>
            <DistanceMeters>891.12015422479</DistanceMeters>
          </Trackpoint>
          <Trackpoint>
            <Time>2021-03-21T11:54:09.000Z</Time>
            <Position>
              <LatitudeDegrees>36.731189824640750885009765625</LatitudeDegrees>
              <LongitudeDegrees>-5.4623272083699703216552734375</LongitudeDegrees>
            </Position>
            <AltitudeMeters>63.200000762939453125</AltitudeMeters>
            <DistanceMeters>897.86571240785</DistanceMeters>
          </Trackpoint>
          <Trackpoint>
            <Time>2021-03-21T11:54:14.000Z</Time>
            <Position>
              <LatitudeDegrees>36.73119829036295413970947265625</LatitudeDegrees>
              <LongitudeDegrees>-5.46232393942773342132568359375</LongitudeDegrees>
            </Position>
            <AltitudeMeters>63.40000152587890625</AltitudeMeters>
            <DistanceMeters>898.85782043241</DistanceMeters>
          </Trackpoint>
          <Trackpoint>
            <Time>2021-03-21T11:54:15.000Z</Time>
            <Position>
              <LatitudeDegrees>36.731198541820049285888671875</LatitudeDegrees>
              <LongitudeDegrees>-5.46232393942773342132568359375</LongitudeDegrees>
            </Position>
            <AltitudeMeters>63.40000152587890625</AltitudeMeters>
            <DistanceMeters>898.85782043241</DistanceMeters>
          </Trackpoint>
          <Trackpoint>
            <Time>2021-03-21T11:54:21.000Z</Time>
            <Position>
              <LatitudeDegrees>36.73120164312422275543212890625</LatitudeDegrees>
              <LongitudeDegrees>-5.46232360415160655975341796875</LongitudeDegrees>
            </Position>
            <AltitudeMeters>63.59999847412109375</AltitudeMeters>
            <DistanceMeters>899.20044412361</DistanceMeters>
          </Trackpoint>
          <Trackpoint>
            <Time>2021-03-21T11:54:24.000Z</Time>
            <Position>
              <LatitudeDegrees>36.73120298422873020172119140625</LatitudeDegrees>
              <LongitudeDegrees>-5.46231974847614765167236328125</LongitudeDegrees>
            </Position>
            <AltitudeMeters>63.59999847412109375</AltitudeMeters>
            <DistanceMeters>899.58055098109</DistanceMeters>
          </Trackpoint>
          <Trackpoint>
            <Time>2021-03-21T11:54:45.000Z</Time>
            <Position>
              <LatitudeDegrees>36.73119686543941497802734375</LatitudeDegrees>
              <LongitudeDegrees>-5.46234874986112117767333984375</LongitudeDegrees>
            </Position>
            <AltitudeMeters>63.59999847412109375</AltitudeMeters>
            <DistanceMeters>902.25652755424</DistanceMeters>
          </Trackpoint>
          <Trackpoint>
            <Time>2021-03-21T11:54:51.000Z</Time>
            <Position>
              <LatitudeDegrees>36.7312040738761425018310546875</LatitudeDegrees>
              <LongitudeDegrees>-5.46235009096562862396240234375</LongitudeDegrees>
            </Position>
            <AltitudeMeters>63.59999847412109375</AltitudeMeters>
            <DistanceMeters>903.06285596374</DistanceMeters>
          </Trackpoint>
          <Trackpoint>
            <Time>2021-03-21T11:54:57.000Z</Time>
            <Position>
              <LatitudeDegrees>36.7312084324657917022705078125</LatitudeDegrees>
              <LongitudeDegrees>-5.46233450062572956085205078125</LongitudeDegrees>
            </Position>
            <AltitudeMeters>63.59999847412109375</AltitudeMeters>
            <DistanceMeters>904.53500349253</DistanceMeters>
          </Trackpoint>
          <Trackpoint>
            <Time>2021-03-21T11:56:03.000Z</Time>
            <Position>
              <LatitudeDegrees>36.731213629245758056640625</LatitudeDegrees>
              <LongitudeDegrees>-5.46235042624175548553466796875</LongitudeDegrees>
            </Position>
            <AltitudeMeters>63.59999847412109375</AltitudeMeters>
            <DistanceMeters>906.07314523773</DistanceMeters>
          </Trackpoint>
          <Trackpoint>
            <Time>2021-03-21T11:56:43.000Z</Time>
            <Position>
              <LatitudeDegrees>36.73119108192622661590576171875</LatitudeDegrees>
              <LongitudeDegrees>-5.46237523667514324188232421875</LongitudeDegrees>
            </Position>
            <AltitudeMeters>67.1999969482421875</AltitudeMeters>
            <DistanceMeters>909.41803159067</DistanceMeters>
          </Trackpoint>
          <Trackpoint>
            <Time>2021-03-21T11:56:48.000Z</Time>
            <Position>
              <LatitudeDegrees>36.73118940554559230804443359375</LatitudeDegrees>
              <LongitudeDegrees>-5.46237565577030181884765625</LongitudeDegrees>
            </Position>
            <AltitudeMeters>66</AltitudeMeters>
            <DistanceMeters>909.60808501941</DistanceMeters>
          </Trackpoint>
          <Trackpoint>
            <Time>2021-03-21T11:57:42.000Z</Time>
            <Position>
              <LatitudeDegrees>36.73114162869751453399658203125</LatitudeDegrees>
              <LongitudeDegrees>-5.4623986221849918365478515625</LongitudeDegrees>
            </Position>
            <AltitudeMeters>66.8000030517578125</AltitudeMeters>
            <DistanceMeters>915.30651944409</DistanceMeters>
          </Trackpoint>
          <Trackpoint>
            <Time>2021-03-21T11:57:44.000Z</Time>
            <Position>
              <LatitudeDegrees>36.7311407066881656646728515625</LatitudeDegrees>
              <LongitudeDegrees>-5.46239845454692840576171875</LongitudeDegrees>
            </Position>
            <AltitudeMeters>67.1999969482421875</AltitudeMeters>
            <DistanceMeters>915.44090751234</DistanceMeters>
          </Trackpoint>
          <Trackpoint>
            <Time>2021-03-21T11:58:45.000Z</Time>
            <Position>
              <LatitudeDegrees>36.73105881549417972564697265625</LatitudeDegrees>
              <LongitudeDegrees>-5.462527535855770111083984375</LongitudeDegrees>
            </Position>
            <AltitudeMeters>71</AltitudeMeters>
            <DistanceMeters>930.12614791333</DistanceMeters>
          </Trackpoint>
          <Trackpoint>
            <Time>2021-03-21T11:58:52.000Z</Time>
            <Position>
              <LatitudeDegrees>36.73101715743541717529296875</LatitudeDegrees>
              <LongitudeDegrees>-5.46253331936895847320556640625</LongitudeDegrees>
            </Position>
            <AltitudeMeters>72.1999969482421875</AltitudeMeters>
            <DistanceMeters>934.79214344551</DistanceMeters>
          </Trackpoint>
          <Trackpoint>
            <Time>2021-03-21T11:59:20.000Z</Time>
            <Position>
              <LatitudeDegrees>36.73094465397298336029052734375</LatitudeDegrees>
              <LongitudeDegrees>-5.46247045509517192840576171875</LongitudeDegrees>
            </Position>
            <AltitudeMeters>73.1999969482421875</AltitudeMeters>
            <DistanceMeters>944.61948629941</DistanceMeters>
          </Trackpoint>
          <Trackpoint>
            <Time>2021-03-21T11:59:46.000Z</Time>
            <Position>
              <LatitudeDegrees>36.7308828793466091156005859375</LatitudeDegrees>
              <LongitudeDegrees>-5.462417900562286376953125</LongitudeDegrees>
            </Position>
            <AltitudeMeters>74.40000152587890625</AltitudeMeters>
            <DistanceMeters>952.94178684224</DistanceMeters>
          </Trackpoint>
          <Trackpoint>
            <Time>2021-03-21T11:59:56.000Z</Time>
            <Position>
              <LatitudeDegrees>36.730886399745941162109375</LatitudeDegrees>
              <LongitudeDegrees>-5.462413541972637176513671875</LongitudeDegrees>
            </Position>
            <AltitudeMeters>74.40000152587890625</AltitudeMeters>
            <DistanceMeters>953.49588304246</DistanceMeters>
          </Trackpoint>
          <Trackpoint>
            <Time>2021-03-21T12:00:14.000Z</Time>
            <Position>
              <LatitudeDegrees>36.73084591515362262725830078125</LatitudeDegrees>
              <LongitudeDegrees>-5.46230885200202465057373046875</LongitudeDegrees>
            </Position>
            <AltitudeMeters>75.40000152587890625</AltitudeMeters>
            <DistanceMeters>963.86468674113</DistanceMeters>
          </Trackpoint>
          <Trackpoint>
            <Time>2021-03-21T12:00:26.000Z</Time>
            <Position>
              <LatitudeDegrees>36.73082211054861545562744140625</LatitudeDegrees>
              <LongitudeDegrees>-5.46230801381170749664306640625</LongitudeDegrees>
            </Position>
            <AltitudeMeters>76.40000152587890625</AltitudeMeters>
            <DistanceMeters>966.5186384412</DistanceMeters>
          </Trackpoint>
          <Trackpoint>
            <Time>2021-03-21T12:00:38.000Z</Time>
            <Position>
              <LatitudeDegrees>36.73078472726047039031982421875</LatitudeDegrees>
              <LongitudeDegrees>-5.46228135935962200164794921875</LongitudeDegrees>
            </Position>
            <AltitudeMeters>77.40000152587890625</AltitudeMeters>
            <DistanceMeters>971.31160354366</DistanceMeters>
          </Trackpoint>
          <Trackpoint>
            <Time>2021-03-21T12:00:39.000Z</Time>
            <Position>
              <LatitudeDegrees>36.73078137449920177459716796875</LatitudeDegrees>
              <LongitudeDegrees>-5.4622775875031948089599609375</LongitudeDegrees>
            </Position>
            <AltitudeMeters>77.59999847412109375</AltitudeMeters>
            <DistanceMeters>971.81443765192</DistanceMeters>
          </Trackpoint>
          <Trackpoint>
            <Time>2021-03-21T12:00:47.000Z</Time>
            <Position>
              <LatitudeDegrees>36.7307393811643123626708984375</LatitudeDegrees>
              <LongitudeDegrees>-5.4622507654130458831787109375</LongitudeDegrees>
            </Position>
            <AltitudeMeters>78.59999847412109375</AltitudeMeters>
            <DistanceMeters>977.06503984438</DistanceMeters>
          </Trackpoint>
          <Trackpoint>
            <Time>2021-03-21T12:00:51.000Z</Time>
            <Position>
              <LatitudeDegrees>36.7307269759476184844970703125</LatitudeDegrees>
              <LongitudeDegrees>-5.46222017146646976470947265625</LongitudeDegrees>
            </Position>
            <AltitudeMeters>78.59999847412109375</AltitudeMeters>
            <DistanceMeters>980.1251361292</DistanceMeters>
          </Trackpoint>
          <Trackpoint>
            <Time>2021-03-21T12:01:06.000Z</Time>
            <Position>
              <LatitudeDegrees>36.73069202341139316558837890625</LatitudeDegrees>
              <LongitudeDegrees>-5.4622180759906768798828125</LongitudeDegrees>
            </Position>
            <AltitudeMeters>79.59999847412109375</AltitudeMeters>
            <DistanceMeters>984.0200723836</DistanceMeters>
          </Trackpoint>
          <Trackpoint>
            <Time>2021-03-21T12:01:42.000Z</Time>
            <Position>
              <LatitudeDegrees>36.73067023046314716339111328125</LatitudeDegrees>
              <LongitudeDegrees>-5.462207011878490447998046875</LongitudeDegrees>
            </Position>
            <AltitudeMeters>79.8000030517578125</AltitudeMeters>
            <DistanceMeters>986.63977811085</DistanceMeters>
          </Trackpoint>
          <Trackpoint>
            <Time>2021-03-21T12:01:43.000Z</Time>
            <Position>
              <LatitudeDegrees>36.73067090101540088653564453125</LatitudeDegrees>
              <LongitudeDegrees>-5.46220759861171245574951171875</LongitudeDegrees>
            </Position>
            <AltitudeMeters>79.8000030517578125</AltitudeMeters>
            <DistanceMeters>986.63977811085</DistanceMeters>
          </Trackpoint>
          <Trackpoint>
            <Time>2021-03-21T12:01:45.000Z</Time>
            <Position>
              <LatitudeDegrees>36.7306683026254177093505859375</LatitudeDegrees>
              <LongitudeDegrees>-5.462205670773983001708984375</LongitudeDegrees>
            </Position>
            <AltitudeMeters>79.8000030517578125</AltitudeMeters>
            <DistanceMeters>986.98240180205</DistanceMeters>
          </Trackpoint>
          <Trackpoint>
            <Time>2021-03-21T12:01:55.000Z</Time>
            <Position>
              <LatitudeDegrees>36.73065237700939178466796875</LatitudeDegrees>
              <LongitudeDegrees>-5.46219435520470142364501953125</LongitudeDegrees>
            </Position>
            <AltitudeMeters>80.40000152587890625</AltitudeMeters>
            <DistanceMeters>989.02492360539</DistanceMeters>
          </Trackpoint>
          <Trackpoint>
            <Time>2021-03-21T12:02:01.000Z</Time>
            <Position>
              <LatitudeDegrees>36.7306471802294254302978515625</LatitudeDegrees>
              <LongitudeDegrees>-5.462197959423065185546875</LongitudeDegrees>
            </Position>
            <AltitudeMeters>80.40000152587890625</AltitudeMeters>
            <DistanceMeters>989.69686394664</DistanceMeters>
          </Trackpoint>
          <Trackpoint>
            <Time>2021-03-21T12:02:02.000Z</Time>
            <Position>
              <LatitudeDegrees>36.7306475155055522918701171875</LatitudeDegrees>
              <LongitudeDegrees>-5.4621964506804943084716796875</LongitudeDegrees>
            </Position>
            <AltitudeMeters>80.40000152587890625</AltitudeMeters>
            <DistanceMeters>989.83125201489</DistanceMeters>
          </Trackpoint>
          <Trackpoint>
            <Time>2021-03-21T12:02:07.000Z</Time>
            <Position>
              <LatitudeDegrees>36.73065061680972576141357421875</LatitudeDegrees>
              <LongitudeDegrees>-5.46220005489885807037353515625</LongitudeDegrees>
            </Position>
            <AltitudeMeters>80.40000152587890625</AltitudeMeters>
            <DistanceMeters>990.31579508577</DistanceMeters>
          </Trackpoint>
          <Trackpoint>
            <Time>2021-03-21T12:02:16.000Z</Time>
            <Position>
              <LatitudeDegrees>36.7306329309940338134765625</LatitudeDegrees>
              <LongitudeDegrees>-5.46215303242206573486328125</LongitudeDegrees>
            </Position>
            <AltitudeMeters>80.59999847412109375</AltitudeMeters>
            <DistanceMeters>994.94974823441</DistanceMeters>
          </Trackpoint>
          <Trackpoint>
            <Time>2021-03-21T12:02:38.000Z</Time>
            <Position>
              <LatitudeDegrees>36.73059177584946155548095703125</LatitudeDegrees>
              <LongitudeDegrees>-5.46214238740503787994384765625</LongitudeDegrees>
            </Position>
            <AltitudeMeters>81.59999847412109375</AltitudeMeters>
            <DistanceMeters>999.62830627083</DistanceMeters>
          </Trackpoint>
          <Trackpoint>
            <Time>2021-03-21T12:02:51.000Z</Time>
            <Position>
              <LatitudeDegrees>36.7305774427950382232666015625</LatitudeDegrees>
              <LongitudeDegrees>-5.462137944996356964111328125</LongitudeDegrees>
            </Position>
            <AltitudeMeters>82.1999969482421875</AltitudeMeters>
            <DistanceMeters>1001.2742172445</DistanceMeters>
          </Trackpoint>
          <Trackpoint>
            <Time>2021-03-21T12:03:12.000Z</Time>
            <Position>
              <LatitudeDegrees>36.7305610142648220062255859375</LatitudeDegrees>
              <LongitudeDegrees>-5.4621139727532863616943359375</LongitudeDegrees>
            </Position>
            <AltitudeMeters>82.59999847412109375</AltitudeMeters>
            <DistanceMeters>1004.0867511491</DistanceMeters>
          </Trackpoint>
          <Trackpoint>
            <Time>2021-03-21T12:03:19.000Z</Time>
            <Position>
              <LatitudeDegrees>36.730560846626758575439453125</LatitudeDegrees>
              <LongitudeDegrees>-5.46211145818233489990234375</LongitudeDegrees>
            </Position>
            <AltitudeMeters>82.59999847412109375</AltitudeMeters>
            <DistanceMeters>1004.3195181113</DistanceMeters>
          </Trackpoint>
          <Trackpoint>
            <Time>2021-03-21T12:03:20.000Z</Time>
            <Position>
              <LatitudeDegrees>36.7305600084364414215087890625</LatitudeDegrees>
              <LongitudeDegrees>-5.46211137436330318450927734375</LongitudeDegrees>
            </Position>
            <AltitudeMeters>82.59999847412109375</AltitudeMeters>
            <DistanceMeters>1004.4145448257</DistanceMeters>
          </Trackpoint>
          <Trackpoint>
            <Time>2021-03-21T12:03:26.000Z</Time>
            <Position>
              <LatitudeDegrees>36.73056344501674175262451171875</LatitudeDegrees>
              <LongitudeDegrees>-5.46210668049752712249755859375</LongitudeDegrees>
            </Position>
            <AltitudeMeters>82.40000152587890625</AltitudeMeters>
            <DistanceMeters>1004.9847051119</DistanceMeters>
          </Trackpoint>
          <Trackpoint>
            <Time>2021-03-21T12:03:27.000Z</Time>
            <Position>
              <LatitudeDegrees>36.73056252300739288330078125</LatitudeDegrees>
              <LongitudeDegrees>-5.46210668049752712249755859375</LongitudeDegrees>
            </Position>
            <AltitudeMeters>82.40000152587890625</AltitudeMeters>
            <DistanceMeters>1005.1190931801</DistanceMeters>
          </Trackpoint>
          <Trackpoint>
            <Time>2021-03-21T12:03:28.000Z</Time>
            <Position>
              <LatitudeDegrees>36.73056126572191715240478515625</LatitudeDegrees>
              <LongitudeDegrees>-5.462106764316558837890625</LongitudeDegrees>
            </Position>
            <AltitudeMeters>82.1999969482421875</AltitudeMeters>
            <DistanceMeters>1005.2534812484</DistanceMeters>
          </Trackpoint>
          <Trackpoint>
            <Time>2021-03-21T12:03:30.000Z</Time>
            <Position>
              <LatitudeDegrees>36.73055640421807765960693359375</LatitudeDegrees>
              <LongitudeDegrees>-5.462105087935924530029296875</LongitudeDegrees>
            </Position>
            <AltitudeMeters>82.1999969482421875</AltitudeMeters>
            <DistanceMeters>1005.8236415346</DistanceMeters>
          </Trackpoint>
          <Trackpoint>
            <Time>2021-03-21T12:03:34.000Z</Time>
            <Position>
              <LatitudeDegrees>36.73055221326649188995361328125</LatitudeDegrees>
              <LongitudeDegrees>-5.462095029652118682861328125</LongitudeDegrees>
            </Position>
            <AltitudeMeters>82.1999969482421875</AltitudeMeters>
            <DistanceMeters>1006.8382492</DistanceMeters>
          </Trackpoint>
          <Trackpoint>
            <Time>2021-03-21T12:03:36.000Z</Time>
            <Position>
              <LatitudeDegrees>36.7305499501526355743408203125</LatitudeDegrees>
              <LongitudeDegrees>-5.46208597719669342041015625</LongitudeDegrees>
            </Position>
            <AltitudeMeters>82.1999969482421875</AltitudeMeters>
            <DistanceMeters>1007.688193972</DistanceMeters>
          </Trackpoint>
          <Trackpoint>
            <Time>2021-03-21T12:03:37.000Z</Time>
            <Position>
              <LatitudeDegrees>36.7305471003055572509765625</LatitudeDegrees>
              <LongitudeDegrees>-5.462084300816059112548828125</LongitudeDegrees>
            </Position>
            <AltitudeMeters>82.1999969482421875</AltitudeMeters>
            <DistanceMeters>1008.0437513798</DistanceMeters>
          </Trackpoint>
          <Trackpoint>
            <Time>2021-03-21T12:03:39.000Z</Time>
            <Position>
              <LatitudeDegrees>36.7305445857346057891845703125</LatitudeDegrees>
              <LongitudeDegrees>-5.46208287589251995086669921875</LongitudeDegrees>
            </Position>
            <AltitudeMeters>82.1999969482421875</AltitudeMeters>
            <DistanceMeters>1008.3729335745</DistanceMeters>
          </Trackpoint>
          <Trackpoint>
            <Time>2021-03-21T12:03:48.000Z</Time>
            <Position>
              <LatitudeDegrees>36.73052757047116756439208984375</LatitudeDegrees>
              <LongitudeDegrees>-5.46208304353058338165283203125</LongitudeDegrees>
            </Position>
            <AltitudeMeters>82.8000030517578125</AltitudeMeters>
            <DistanceMeters>1010.2663274448</DistanceMeters>
          </Trackpoint>
          <Trackpoint>
            <Time>2021-03-21T12:03:54.000Z</Time>
            <Position>
              <LatitudeDegrees>36.73051231540739536285400390625</LatitudeDegrees>
              <LongitudeDegrees>-5.462084971368312835693359375</LongitudeDegrees>
            </Position>
            <AltitudeMeters>83.40000152587890625</AltitudeMeters>
            <DistanceMeters>1011.9715208693</DistanceMeters>
          </Trackpoint>
          <Trackpoint>
            <Time>2021-03-21T12:03:56.000Z</Time>
            <Position>
              <LatitudeDegrees>36.73050946556031703948974609375</LatitudeDegrees>
              <LongitudeDegrees>-5.462085306644439697265625</LongitudeDegrees>
            </Position>
            <AltitudeMeters>83.59999847412109375</AltitudeMeters>
            <DistanceMeters>1012.3007030641</DistanceMeters>
          </Trackpoint>
          <Trackpoint>
            <Time>2021-03-21T12:04:10.000Z</Time>
            <Position>
              <LatitudeDegrees>36.730491779744625091552734375</LatitudeDegrees>
              <LongitudeDegrees>-5.46208069659769535064697265625</LongitudeDegrees>
            </Position>
            <AltitudeMeters>84</AltitudeMeters>
            <DistanceMeters>1014.3120394971</DistanceMeters>
          </Trackpoint>
          <Trackpoint>
            <Time>2021-03-21T12:04:28.000Z</Time>
            <Position>
              <LatitudeDegrees>36.730484068393707275390625</LatitudeDegrees>
              <LongitudeDegrees>-5.46207818202674388885498046875</LongitudeDegrees>
            </Position>
            <AltitudeMeters>84.8000030517578125</AltitudeMeters>
            <DistanceMeters>1015.1983896822</DistanceMeters>
          </Trackpoint>
          <Trackpoint>
            <Time>2021-03-21T12:04:32.000Z</Time>
            <Position>
              <LatitudeDegrees>36.7304798774421215057373046875</LatitudeDegrees>
              <LongitudeDegrees>-5.46207382343709468841552734375</LongitudeDegrees>
            </Position>
            <AltitudeMeters>84.8000030517578125</AltitudeMeters>
            <DistanceMeters>1015.8142331775</DistanceMeters>
          </Trackpoint>
          <Trackpoint>
            <Time>2021-03-21T12:04:34.000Z</Time>
            <Position>
              <LatitudeDegrees>36.73047493211925029754638671875</LatitudeDegrees>
              <LongitudeDegrees>-5.46207214705646038055419921875</LongitudeDegrees>
            </Position>
            <AltitudeMeters>85</AltitudeMeters>
            <DistanceMeters>1016.3843934637</DistanceMeters>
          </Trackpoint>
          <Trackpoint>
            <Time>2021-03-21T12:04:36.000Z</Time>
            <Position>
              <LatitudeDegrees>36.7304798774421215057373046875</LatitudeDegrees>
              <LongitudeDegrees>-5.46207047067582607269287109375</LongitudeDegrees>
            </Position>
            <AltitudeMeters>85</AltitudeMeters>
            <DistanceMeters>1016.9545537499</DistanceMeters>
          </Trackpoint>
          <Trackpoint>
            <Time>2021-03-21T12:04:37.000Z</Time>
            <Position>
              <LatitudeDegrees>36.73047794960439205169677734375</LatitudeDegrees>
              <LongitudeDegrees>-5.4620705544948577880859375</LongitudeDegrees>
            </Position>
            <AltitudeMeters>85</AltitudeMeters>
            <DistanceMeters>1017.1670399429</DistanceMeters>
          </Trackpoint>
          <Trackpoint>
            <Time>2021-03-21T12:04:40.000Z</Time>
            <Position>
              <LatitudeDegrees>36.73047141171991825103759765625</LatitudeDegrees>
              <LongitudeDegrees>-5.46206896193325519561767578125</LongitudeDegrees>
            </Position>
            <AltitudeMeters>85.1999969482421875</AltitudeMeters>
            <DistanceMeters>1017.9031137073</DistanceMeters>
          </Trackpoint>
          <Trackpoint>
            <Time>2021-03-21T12:04:49.000Z</Time>
            <Position>
              <LatitudeDegrees>36.7304570786654949188232421875</LatitudeDegrees>
              <LongitudeDegrees>-5.46204281039535999298095703125</LongitudeDegrees>
            </Position>
            <AltitudeMeters>85.59999847412109375</AltitudeMeters>
            <DistanceMeters>1020.7316553332</DistanceMeters>
          </Trackpoint>
          <Trackpoint>
            <Time>2021-03-21T12:04:50.000Z</Time>
            <Position>
              <LatitudeDegrees>36.7304574139416217803955078125</LatitudeDegrees>
              <LongitudeDegrees>-5.4620388709008693695068359375</LongitudeDegrees>
            </Position>
            <AltitudeMeters>85.8000030517578125</AltitudeMeters>
            <DistanceMeters>1021.0872127409</DistanceMeters>
          </Trackpoint>
          <Trackpoint>
            <Time>2021-03-21T12:04:51.000Z</Time>
            <Position>
              <LatitudeDegrees>36.7304574139416217803955078125</LatitudeDegrees>
              <LongitudeDegrees>-5.4620330035686492919921875</LongitudeDegrees>
            </Position>
            <AltitudeMeters>85.8000030517578125</AltitudeMeters>
            <DistanceMeters>1021.6076954912</DistanceMeters>
          </Trackpoint>
          <Trackpoint>
            <Time>2021-03-21T12:04:52.000Z</Time>
            <Position>
              <LatitudeDegrees>36.7304510436952114105224609375</LatitudeDegrees>
              <LongitudeDegrees>-5.46203124336898326873779296875</LongitudeDegrees>
            </Position>
            <AltitudeMeters>86</AltitudeMeters>
            <DistanceMeters>1022.3376095342</DistanceMeters>
          </Trackpoint>
          <Trackpoint>
            <Time>2021-03-21T12:04:56.000Z</Time>
            <Position>
              <LatitudeDegrees>36.73044274561107158660888671875</LatitudeDegrees>
              <LongitudeDegrees>-5.46201699413359165191650390625</LongitudeDegrees>
            </Position>
            <AltitudeMeters>87</AltitudeMeters>
            <DistanceMeters>1023.9105815447</DistanceMeters>
          </Trackpoint>
          <Trackpoint>
            <Time>2021-03-21T12:05:02.000Z</Time>
            <Position>
              <LatitudeDegrees>36.73041659407317638397216796875</LatitudeDegrees>
              <LongitudeDegrees>-5.46202755533158779144287109375</LongitudeDegrees>
            </Position>
            <AltitudeMeters>87.40000152587890625</AltitudeMeters>
            <DistanceMeters>1026.9692020174</DistanceMeters>
          </Trackpoint>
          <Trackpoint>
            <Time>2021-03-21T12:05:10.000Z</Time>
            <Position>
              <LatitudeDegrees>36.73038558103144168853759765625</LatitudeDegrees>
              <LongitudeDegrees>-5.46205018647015094757080078125</LongitudeDegrees>
            </Position>
            <AltitudeMeters>88</AltitudeMeters>
            <DistanceMeters>1030.9682350733</DistanceMeters>
          </Trackpoint>
          <Trackpoint>
            <Time>2021-03-21T12:05:24.000Z</Time>
            <Position>
              <LatitudeDegrees>36.7303591780364513397216796875</LatitudeDegrees>
              <LongitudeDegrees>-5.4621166549623012542724609375</LongitudeDegrees>
            </Position>
            <AltitudeMeters>89</AltitudeMeters>
            <DistanceMeters>1037.5860799455</DistanceMeters>
          </Trackpoint>
          <Trackpoint>
            <Time>2021-03-21T12:05:31.000Z</Time>
            <Position>
              <LatitudeDegrees>36.7303397320210933685302734375</LatitudeDegrees>
              <LongitudeDegrees>-5.46212160028517246246337890625</LongitudeDegrees>
            </Position>
            <AltitudeMeters>89.59999847412109375</AltitudeMeters>
            <DistanceMeters>1039.798386758</DistanceMeters>
          </Trackpoint>
          <Trackpoint>
            <Time>2021-03-21T12:05:36.000Z</Time>
            <Position>
              <LatitudeDegrees>36.73033344559371471405029296875</LatitudeDegrees>
              <LongitudeDegrees>-5.462112128734588623046875</LongitudeDegrees>
            </Position>
            <AltitudeMeters>90</AltitudeMeters>
            <DistanceMeters>1040.898400505</DistanceMeters>
          </Trackpoint>
          <Trackpoint>
            <Time>2021-03-21T12:06:09.000Z</Time>
            <Position>
              <LatitudeDegrees>36.73028918914496898651123046875</LatitudeDegrees>
              <LongitudeDegrees>-5.462128221988677978515625</LongitudeDegrees>
            </Position>
            <AltitudeMeters>90.59999847412109375</AltitudeMeters>
            <DistanceMeters>1046.0289631285</DistanceMeters>
          </Trackpoint>
          <Trackpoint>
            <Time>2021-03-21T12:06:21.000Z</Time>
            <Position>
              <LatitudeDegrees>36.73029002733528614044189453125</LatitudeDegrees>
              <LongitudeDegrees>-5.462127216160297393798828125</LongitudeDegrees>
            </Position>
            <AltitudeMeters>91</AltitudeMeters>
            <DistanceMeters>1046.1633511968</DistanceMeters>
          </Trackpoint>
          <Trackpoint>
            <Time>2021-03-21T12:06:22.000Z</Time>
            <Position>
              <LatitudeDegrees>36.730290949344635009765625</LatitudeDegrees>
              <LongitudeDegrees>-5.46212662942707538604736328125</LongitudeDegrees>
            </Position>
            <AltitudeMeters>91.1999969482421875</AltitudeMeters>
            <DistanceMeters>1046.2583779111</DistanceMeters>
          </Trackpoint>
          <Trackpoint>
            <Time>2021-03-21T12:06:36.000Z</Time>
            <Position>
              <LatitudeDegrees>36.73026471398770809173583984375</LatitudeDegrees>
              <LongitudeDegrees>-5.46213618479669094085693359375</LongitudeDegrees>
            </Position>
            <AltitudeMeters>91.8000030517578125</AltitudeMeters>
            <DistanceMeters>1049.299232771</DistanceMeters>
          </Trackpoint>
          <Trackpoint>
            <Time>2021-03-21T12:06:43.000Z</Time>
            <Position>
              <LatitudeDegrees>36.730249039828777313232421875</LatitudeDegrees>
              <LongitudeDegrees>-5.4621495120227336883544921875</LongitudeDegrees>
            </Position>
            <AltitudeMeters>92.1999969482421875</AltitudeMeters>
            <DistanceMeters>1051.4113070508</DistanceMeters>
          </Trackpoint>
          <Trackpoint>
            <Time>2021-03-21T12:07:03.000Z</Time>
            <Position>
              <LatitudeDegrees>36.7302170209586620330810546875</LatitudeDegrees>
              <LongitudeDegrees>-5.46218815259635448455810546875</LongitudeDegrees>
            </Position>
            <AltitudeMeters>92.8000030517578125</AltitudeMeters>
            <DistanceMeters>1056.3691158491</DistanceMeters>
          </Trackpoint>
          <Trackpoint>
            <Time>2021-03-21T12:07:13.000Z</Time>
            <Position>
              <LatitudeDegrees>36.73021106980741024017333984375</LatitudeDegrees>
              <LongitudeDegrees>-5.46217457391321659088134765625</LongitudeDegrees>
            </Position>
            <AltitudeMeters>93</AltitudeMeters>
            <DistanceMeters>1057.7527256951</DistanceMeters>
          </Trackpoint>
          <Trackpoint>
            <Time>2021-03-21T12:07:14.000Z</Time>
            <Position>
              <LatitudeDegrees>36.730210818350315093994140625</LatitudeDegrees>
              <LongitudeDegrees>-5.46217440627515316009521484375</LongitudeDegrees>
            </Position>
            <AltitudeMeters>93</AltitudeMeters>
            <DistanceMeters>1057.7527256951</DistanceMeters>
          </Trackpoint>
          <Trackpoint>
            <Time>2021-03-21T12:07:15.000Z</Time>
            <Position>
              <LatitudeDegrees>36.73021039925515651702880859375</LatitudeDegrees>
              <LongitudeDegrees>-5.46217457391321659088134765625</LongitudeDegrees>
            </Position>
            <AltitudeMeters>93</AltitudeMeters>
            <DistanceMeters>1057.7527256951</DistanceMeters>
          </Trackpoint>
          <Trackpoint>
            <Time>2021-03-21T12:07:17.000Z</Time>
            <Position>
              <LatitudeDegrees>36.7302103154361248016357421875</LatitudeDegrees>
              <LongitudeDegrees>-5.46217507682740688323974609375</LongitudeDegrees>
            </Position>
            <AltitudeMeters>93.1999969482421875</AltitudeMeters>
            <DistanceMeters>1057.7527256951</DistanceMeters>
          </Trackpoint>
          <Trackpoint>
            <Time>2021-03-21T12:07:35.000Z</Time>
            <Position>
              <LatitudeDegrees>36.73017485998570919036865234375</LatitudeDegrees>
              <LongitudeDegrees>-5.46221011318266391754150390625</LongitudeDegrees>
            </Position>
            <AltitudeMeters>94.1999969482421875</AltitudeMeters>
            <DistanceMeters>1062.7864514029</DistanceMeters>
          </Trackpoint>
          <Trackpoint>
            <Time>2021-03-21T12:07:40.000Z</Time>
            <Position>
              <LatitudeDegrees>36.7301613651216030120849609375</LatitudeDegrees>
              <LongitudeDegrees>-5.46221195720136165618896484375</LongitudeDegrees>
            </Position>
            <AltitudeMeters>95.40000152587890625</AltitudeMeters>
            <DistanceMeters>1064.3009280177</DistanceMeters>
          </Trackpoint>
          <Trackpoint>
            <Time>2021-03-21T12:08:02.000Z</Time>
            <Position>
              <LatitudeDegrees>36.73014837317168712615966796875</LatitudeDegrees>
              <LongitudeDegrees>-5.46225554309785366058349609375</LongitudeDegrees>
            </Position>
            <AltitudeMeters>96.40000152587890625</AltitudeMeters>
            <DistanceMeters>1068.4495814984</DistanceMeters>
          </Trackpoint>
          <Trackpoint>
            <Time>2021-03-21T12:08:17.000Z</Time>
            <Position>
              <LatitudeDegrees>36.73013739287853240966796875</LatitudeDegrees>
              <LongitudeDegrees>-5.462270043790340423583984375</LongitudeDegrees>
            </Position>
            <AltitudeMeters>97.40000152587890625</AltitudeMeters>
            <DistanceMeters>1070.2273685372</DistanceMeters>
          </Trackpoint>
          <Trackpoint>
            <Time>2021-03-21T12:08:19.000Z</Time>
            <Position>
              <LatitudeDegrees>36.7301305197179317474365234375</LatitudeDegrees>
              <LongitudeDegrees>-5.46226845122873783111572265625</LongitudeDegrees>
            </Position>
            <AltitudeMeters>97.40000152587890625</AltitudeMeters>
            <DistanceMeters>1070.9993692142</DistanceMeters>
          </Trackpoint>
          <Trackpoint>
            <Time>2021-03-21T12:08:33.000Z</Time>
            <Position>
              <LatitudeDegrees>36.73006765544414520263671875</LatitudeDegrees>
              <LongitudeDegrees>-5.4622360132634639739990234375</LongitudeDegrees>
            </Position>
            <AltitudeMeters>98</AltitudeMeters>
            <DistanceMeters>1078.571156014</DistanceMeters>
          </Trackpoint>
          <Trackpoint>
            <Time>2021-03-21T12:08:39.000Z</Time>
            <Position>
              <LatitudeDegrees>36.73002935014665126800537109375</LatitudeDegrees>
              <LongitudeDegrees>-5.46223525889217853546142578125</LongitudeDegrees>
            </Position>
            <AltitudeMeters>98.59999847412109375</AltitudeMeters>
            <DistanceMeters>1082.8357279689</DistanceMeters>
          </Trackpoint>
          <Trackpoint>
            <Time>2021-03-21T12:08:48.000Z</Time>
            <Position>
              <LatitudeDegrees>36.729988865554332733154296875</LatitudeDegrees>
              <LongitudeDegrees>-5.46221447177231311798095703125</LongitudeDegrees>
            </Position>
            <AltitudeMeters>99.8000030517578125</AltitudeMeters>
            <DistanceMeters>1087.7090329099</DistanceMeters>
          </Trackpoint>
          <Trackpoint>
            <Time>2021-03-21T12:09:19.000Z</Time>
            <Position>
              <LatitudeDegrees>36.729964725673198699951171875</LatitudeDegrees>
              <LongitudeDegrees>-5.46219586394727230072021484375</LongitudeDegrees>
            </Position>
            <AltitudeMeters>100.8000030517578125</AltitudeMeters>
            <DistanceMeters>1090.8664376027</DistanceMeters>
          </Trackpoint>
          <Trackpoint>
            <Time>2021-03-21T12:09:46.000Z</Time>
            <Position>
              <LatitudeDegrees>36.72993354499340057373046875</LatitudeDegrees>
              <LongitudeDegrees>-5.46214909292757511138916015625</LongitudeDegrees>
            </Position>
            <AltitudeMeters>101.8000030517578125</AltitudeMeters>
            <DistanceMeters>1096.2937858834</DistanceMeters>
          </Trackpoint>
          <Trackpoint>
            <Time>2021-03-21T12:10:22.000Z</Time>
            <Position>
              <LatitudeDegrees>36.72990714199841022491455078125</LatitudeDegrees>
              <LongitudeDegrees>-5.4621081054210662841796875</LongitudeDegrees>
            </Position>
            <AltitudeMeters>102.1999969482421875</AltitudeMeters>
            <DistanceMeters>1100.9858351553</DistanceMeters>
          </Trackpoint>
          <Trackpoint>
            <Time>2021-03-21T12:10:36.000Z</Time>
            <Position>
              <LatitudeDegrees>36.729894317686557769775390625</LatitudeDegrees>
              <LongitudeDegrees>-5.46210332773625850677490234375</LongitudeDegrees>
            </Position>
            <AltitudeMeters>103</AltitudeMeters>
            <DistanceMeters>1102.4762709323</DistanceMeters>
          </Trackpoint>
          <Trackpoint>
            <Time>2021-03-21T12:10:48.000Z</Time>
            <Position>
              <LatitudeDegrees>36.7298738658428192138671875</LatitudeDegrees>
              <LongitudeDegrees>-5.46211740933358669281005859375</LongitudeDegrees>
            </Position>
            <AltitudeMeters>104</AltitudeMeters>
            <DistanceMeters>1105.0769491624</DistanceMeters>
          </Trackpoint>
          <Trackpoint>
            <Time>2021-03-21T12:11:11.000Z</Time>
            <Position>
              <LatitudeDegrees>36.72983086667954921722412109375</LatitudeDegrees>
              <LongitudeDegrees>-5.462172813713550567626953125</LongitudeDegrees>
            </Position>
            <AltitudeMeters>105.1999969482421875</AltitudeMeters>
            <DistanceMeters>1111.9563845057</DistanceMeters>
          </Trackpoint>
          <Trackpoint>
            <Time>2021-03-21T12:11:36.000Z</Time>
            <Position>
              <LatitudeDegrees>36.72980739735066890716552734375</LatitudeDegrees>
              <LongitudeDegrees>-5.46214364469051361083984375</LongitudeDegrees>
            </Position>
            <AltitudeMeters>106.1999969482421875</AltitudeMeters>
            <DistanceMeters>1115.6441067193</DistanceMeters>
          </Trackpoint>
          <Trackpoint>
            <Time>2021-03-21T12:11:47.000Z</Time>
            <Position>
              <LatitudeDegrees>36.7297680862247943878173828125</LatitudeDegrees>
              <LongitudeDegrees>-5.46214791946113109588623046875</LongitudeDegrees>
            </Position>
            <AltitudeMeters>107</AltitudeMeters>
            <DistanceMeters>1120.0359449773</DistanceMeters>
          </Trackpoint>
          <Trackpoint>
            <Time>2021-03-21T12:11:50.000Z</Time>
            <Position>
              <LatitudeDegrees>36.729763559997081756591796875</LatitudeDegrees>
              <LongitudeDegrees>-5.46215437352657318115234375</LongitudeDegrees>
            </Position>
            <AltitudeMeters>107.1999969482421875</AltitudeMeters>
            <DistanceMeters>1120.8020748415</DistanceMeters>
          </Trackpoint>
          <Trackpoint>
            <Time>2021-03-21T12:12:07.000Z</Time>
            <Position>
              <LatitudeDegrees>36.72972701489925384521484375</LatitudeDegrees>
              <LongitudeDegrees>-5.4621438123285770416259765625</LongitudeDegrees>
            </Position>
            <AltitudeMeters>107.59999847412109375</AltitudeMeters>
            <DistanceMeters>1124.9767661518</DistanceMeters>
          </Trackpoint>
          <Trackpoint>
            <Time>2021-03-21T12:12:20.000Z</Time>
            <Position>
              <LatitudeDegrees>36.7297134362161159515380859375</LatitudeDegrees>
              <LongitudeDegrees>-5.4621377773582935333251953125</LongitudeDegrees>
            </Position>
            <AltitudeMeters>108.40000152587890625</AltitudeMeters>
            <DistanceMeters>1126.5838137127</DistanceMeters>
          </Trackpoint>
          <Trackpoint>
            <Time>2021-03-21T12:13:09.000Z</Time>
            <Position>
              <LatitudeDegrees>36.7296675033867359161376953125</LatitudeDegrees>
              <LongitudeDegrees>-5.46215169131755828857421875</LongitudeDegrees>
            </Position>
            <AltitudeMeters>109</AltitudeMeters>
            <DistanceMeters>1131.8455828427</DistanceMeters>
          </Trackpoint>
          <Trackpoint>
            <Time>2021-03-21T12:13:15.000Z</Time>
            <Position>
              <LatitudeDegrees>36.7296540923416614532470703125</LatitudeDegrees>
              <LongitudeDegrees>-5.46215596608817577362060546875</LongitudeDegrees>
            </Position>
            <AltitudeMeters>109.40000152587890625</AltitudeMeters>
            <DistanceMeters>1133.3837245879</DistanceMeters>
          </Trackpoint>
          <Trackpoint>
            <Time>2021-03-21T12:13:19.000Z</Time>
            <Position>
              <LatitudeDegrees>36.72964780591428279876708984375</LatitudeDegrees>
              <LongitudeDegrees>-5.4621548764407634735107421875</LongitudeDegrees>
            </Position>
            <AltitudeMeters>109.40000152587890625</AltitudeMeters>
            <DistanceMeters>1134.0884615633</DistanceMeters>
          </Trackpoint>
          <Trackpoint>
            <Time>2021-03-21T12:13:24.000Z</Time>
            <Position>
              <LatitudeDegrees>36.7296326346695423126220703125</LatitudeDegrees>
              <LongitudeDegrees>-5.46215579845011234283447265625</LongitudeDegrees>
            </Position>
            <AltitudeMeters>109.59999847412109375</AltitudeMeters>
            <DistanceMeters>1135.7803641115</DistanceMeters>
          </Trackpoint>
          <Trackpoint>
            <Time>2021-03-21T12:13:31.000Z</Time>
            <Position>
              <LatitudeDegrees>36.72962282784283161163330078125</LatitudeDegrees>
              <LongitudeDegrees>-5.4621563851833343505859375</LongitudeDegrees>
            </Position>
            <AltitudeMeters>110</AltitudeMeters>
            <DistanceMeters>1136.8721379391</DistanceMeters>
          </Trackpoint>
          <Trackpoint>
            <Time>2021-03-21T12:13:40.000Z</Time>
            <Position>
              <LatitudeDegrees>36.72961947508156299591064453125</LatitudeDegrees>
              <LongitudeDegrees>-5.462156049907207489013671875</LongitudeDegrees>
            </Position>
            <AltitudeMeters>110.40000152587890625</AltitudeMeters>
            <DistanceMeters>1137.2276953468</DistanceMeters>
          </Trackpoint>
          <Trackpoint>
            <Time>2021-03-21T12:14:17.000Z</Time>
            <Position>
              <LatitudeDegrees>36.7296217381954193115234375</LatitudeDegrees>
              <LongitudeDegrees>-5.462160408496856689453125</LongitudeDegrees>
            </Position>
            <AltitudeMeters>110.8000030517578125</AltitudeMeters>
            <DistanceMeters>1137.6834274592</DistanceMeters>
          </Trackpoint>
          <Trackpoint>
            <Time>2021-03-21T12:14:18.000Z</Time>
            <Position>
              <LatitudeDegrees>36.72962374985218048095703125</LatitudeDegrees>
              <LongitudeDegrees>-5.462161414325237274169921875</LongitudeDegrees>
            </Position>
            <AltitudeMeters>110.8000030517578125</AltitudeMeters>
            <DistanceMeters>1137.9161944213</DistanceMeters>
          </Trackpoint>
          <Trackpoint>
            <Time>2021-03-21T12:14:19.000Z</Time>
            <Position>
              <LatitudeDegrees>36.72962483949959278106689453125</LatitudeDegrees>
              <LongitudeDegrees>-5.46216552145779132843017578125</LongitudeDegrees>
            </Position>
            <AltitudeMeters>110.8000030517578125</AltitudeMeters>
            <DistanceMeters>1138.3079996019</DistanceMeters>
          </Trackpoint>
          <Trackpoint>
            <Time>2021-03-21T12:14:24.000Z</Time>
            <Position>
              <LatitudeDegrees>36.729628108441829681396484375</LatitudeDegrees>
              <LongitudeDegrees>-5.4621679522097110748291015625</LongitudeDegrees>
            </Position>
            <AltitudeMeters>111</AltitudeMeters>
            <DistanceMeters>1138.7329719879</DistanceMeters>
          </Trackpoint>
          <Trackpoint>
            <Time>2021-03-21T12:14:27.000Z</Time>
            <Position>
              <LatitudeDegrees>36.7296230792999267578125</LatitudeDegrees>
              <LongitudeDegrees>-5.46216485090553760528564453125</LongitudeDegrees>
            </Position>
            <AltitudeMeters>111</AltitudeMeters>
            <DistanceMeters>1139.3488154832</DistanceMeters>
          </Trackpoint>
          <Trackpoint>
            <Time>2021-03-21T12:14:29.000Z</Time>
            <Position>
              <LatitudeDegrees>36.72962584532797336578369140625</LatitudeDegrees>
              <LongitudeDegrees>-5.46216376125812530517578125</LongitudeDegrees>
            </Position>
            <AltitudeMeters>111</AltitudeMeters>
            <DistanceMeters>1139.6779976779</DistanceMeters>
          </Trackpoint>
          <Trackpoint>
            <Time>2021-03-21T12:14:30.000Z</Time>
            <Position>
              <LatitudeDegrees>36.72962618060410022735595703125</LatitudeDegrees>
              <LongitudeDegrees>-5.4621649347245693206787109375</LongitudeDegrees>
            </Position>
            <AltitudeMeters>111</AltitudeMeters>
            <DistanceMeters>1139.8123857462</DistanceMeters>
          </Trackpoint>
          <Trackpoint>
            <Time>2021-03-21T12:14:31.000Z</Time>
            <Position>
              <LatitudeDegrees>36.729626767337322235107421875</LatitudeDegrees>
              <LongitudeDegrees>-5.4621652700006961822509765625</LongitudeDegrees>
            </Position>
            <AltitudeMeters>111</AltitudeMeters>
            <DistanceMeters>1139.8123857462</DistanceMeters>
          </Trackpoint>
          <Trackpoint>
            <Time>2021-03-21T12:14:34.000Z</Time>
            <Position>
              <LatitudeDegrees>36.729624755680561065673828125</LatitudeDegrees>
              <LongitudeDegrees>-5.46216552145779132843017578125</LongitudeDegrees>
            </Position>
            <AltitudeMeters>111</AltitudeMeters>
            <DistanceMeters>1140.0451527083</DistanceMeters>
          </Trackpoint>
          <Trackpoint>
            <Time>2021-03-21T12:14:35.000Z</Time>
            <Position>
              <LatitudeDegrees>36.7296249233186244964599609375</LatitudeDegrees>
              <LongitudeDegrees>-5.462167449295520782470703125</LongitudeDegrees>
            </Position>
            <AltitudeMeters>111</AltitudeMeters>
            <DistanceMeters>1140.2097438057</DistanceMeters>
          </Trackpoint>
          <Trackpoint>
            <Time>2021-03-21T12:14:41.000Z</Time>
            <Position>
              <LatitudeDegrees>36.72961981035768985748291015625</LatitudeDegrees>
              <LongitudeDegrees>-5.4621873982250690460205078125</LongitudeDegrees>
            </Position>
            <AltitudeMeters>111</AltitudeMeters>
            <DistanceMeters>1142.0767225167</DistanceMeters>
          </Trackpoint>
          <Trackpoint>
            <Time>2021-03-21T12:14:47.000Z</Time>
            <Position>
              <LatitudeDegrees>36.729618050158023834228515625</LatitudeDegrees>
              <LongitudeDegrees>-5.46220533549785614013671875</LongitudeDegrees>
            </Position>
            <AltitudeMeters>111.40000152587890625</AltitudeMeters>
            <DistanceMeters>1143.6837700776</DistanceMeters>
          </Trackpoint>
          <Trackpoint>
            <Time>2021-03-21T12:14:58.000Z</Time>
            <Position>
              <LatitudeDegrees>36.72960975207388401031494140625</LatitudeDegrees>
              <LongitudeDegrees>-5.4622236080467700958251953125</LongitudeDegrees>
            </Position>
            <AltitudeMeters>111.59999847412109375</AltitudeMeters>
            <DistanceMeters>1145.555579272</DistanceMeters>
          </Trackpoint>
          <Trackpoint>
            <Time>2021-03-21T12:15:08.000Z</Time>
            <Position>
              <LatitudeDegrees>36.72960606403648853302001953125</LatitudeDegrees>
              <LongitudeDegrees>-5.4622185789048671722412109375</LongitudeDegrees>
            </Position>
            <AltitudeMeters>111.40000152587890625</AltitudeMeters>
            <DistanceMeters>1146.16404713</DistanceMeters>
          </Trackpoint>
          <Trackpoint>
            <Time>2021-03-21T12:15:16.000Z</Time>
            <Position>
              <LatitudeDegrees>36.72959784977138042449951171875</LatitudeDegrees>
              <LongitudeDegrees>-5.46222050674259662628173828125</LongitudeDegrees>
            </Position>
            <AltitudeMeters>111.40000152587890625</AltitudeMeters>
            <DistanceMeters>1147.0951149785</DistanceMeters>
          </Trackpoint>
          <Trackpoint>
            <Time>2021-03-21T12:15:22.000Z</Time>
            <Position>
              <LatitudeDegrees>36.72958024777472019195556640625</LatitudeDegrees>
              <LongitudeDegrees>-5.4622272960841655731201171875</LongitudeDegrees>
            </Position>
            <AltitudeMeters>111.59999847412109375</AltitudeMeters>
            <DistanceMeters>1149.1464598113</DistanceMeters>
          </Trackpoint>
          <Trackpoint>
            <Time>2021-03-21T12:15:29.000Z</Time>
            <Position>
              <LatitudeDegrees>36.72957454808056354522705078125</LatitudeDegrees>
              <LongitudeDegrees>-5.4622440598905086517333984375</LongitudeDegrees>
            </Position>
            <AltitudeMeters>111.59999847412109375</AltitudeMeters>
            <DistanceMeters>1150.7730551507</DistanceMeters>
          </Trackpoint>
          <Trackpoint>
            <Time>2021-03-21T12:15:36.000Z</Time>
            <Position>
              <LatitudeDegrees>36.729595251381397247314453125</LatitudeDegrees>
              <LongitudeDegrees>-5.4622537828981876373291015625</LongitudeDegrees>
            </Position>
            <AltitudeMeters>112.40000152587890625</AltitudeMeters>
            <DistanceMeters>1153.2364291317</DistanceMeters>
          </Trackpoint>
          <Trackpoint>
            <Time>2021-03-21T12:15:43.000Z</Time>
            <Position>
              <LatitudeDegrees>36.729590892791748046875</LatitudeDegrees>
              <LongitudeDegrees>-5.462259314954280853271484375</LongitudeDegrees>
            </Position>
            <AltitudeMeters>113</AltitudeMeters>
            <DistanceMeters>1153.9216765141</DistanceMeters>
          </Trackpoint>
          <Trackpoint>
            <Time>2021-03-21T12:15:51.000Z</Time>
            <Position>
              <LatitudeDegrees>36.729585863649845123291015625</LatitudeDegrees>
              <LongitudeDegrees>-5.46225135214626789093017578125</LongitudeDegrees>
            </Position>
            <AltitudeMeters>113.40000152587890625</AltitudeMeters>
            <DistanceMeters>1154.823179082</DistanceMeters>
          </Trackpoint>
          <Trackpoint>
            <Time>2021-03-21T12:15:52.000Z</Time>
            <Position>
              <LatitudeDegrees>36.7295863665640354156494140625</LatitudeDegrees>
              <LongitudeDegrees>-5.46225084923207759857177734375</LongitudeDegrees>
            </Position>
            <AltitudeMeters>113.40000152587890625</AltitudeMeters>
            <DistanceMeters>1154.823179082</DistanceMeters>
          </Trackpoint>
          <Trackpoint>
            <Time>2021-03-21T12:15:53.000Z</Time>
            <Position>
              <LatitudeDegrees>36.729586534202098846435546875</LatitudeDegrees>
              <LongitudeDegrees>-5.462251603603363037109375</LongitudeDegrees>
            </Position>
            <AltitudeMeters>113.40000152587890625</AltitudeMeters>
            <DistanceMeters>1154.823179082</DistanceMeters>
          </Trackpoint>
          <Trackpoint>
            <Time>2021-03-21T12:15:55.000Z</Time>
            <Position>
              <LatitudeDegrees>36.729583851993083953857421875</LatitudeDegrees>
              <LongitudeDegrees>-5.46225101687014102935791015625</LongitudeDegrees>
            </Position>
            <AltitudeMeters>113.40000152587890625</AltitudeMeters>
            <DistanceMeters>1155.123679938</DistanceMeters>
          </Trackpoint>
          <Trackpoint>
            <Time>2021-03-21T12:16:05.000Z</Time>
            <Position>
              <LatitudeDegrees>36.7295763082802295684814453125</LatitudeDegrees>
              <LongitudeDegrees>-5.46225168742239475250244140625</LongitudeDegrees>
            </Position>
            <AltitudeMeters>114</AltitudeMeters>
            <DistanceMeters>1155.9682958501</DistanceMeters>
          </Trackpoint>
          <Trackpoint>
            <Time>2021-03-21T12:16:07.000Z</Time>
            <Position>
              <LatitudeDegrees>36.72957387752830982208251953125</LatitudeDegrees>
              <LongitudeDegrees>-5.4622537828981876373291015625</LongitudeDegrees>
            </Position>
            <AltitudeMeters>113.8000030517578125</AltitudeMeters>
            <DistanceMeters>1156.2974780449</DistanceMeters>
          </Trackpoint>
          <Trackpoint>
            <Time>2021-03-21T12:16:08.000Z</Time>
            <Position>
              <LatitudeDegrees>36.7295736260712146759033203125</LatitudeDegrees>
              <LongitudeDegrees>-5.462253279983997344970703125</LongitudeDegrees>
            </Position>
            <AltitudeMeters>113.8000030517578125</AltitudeMeters>
            <DistanceMeters>1156.2974780449</DistanceMeters>
          </Trackpoint>
          <Trackpoint>
            <Time>2021-03-21T12:16:11.000Z</Time>
            <Position>
              <LatitudeDegrees>36.72957002185285091400146484375</LatitudeDegrees>
              <LongitudeDegrees>-5.46225721947848796844482421875</LongitudeDegrees>
            </Position>
            <AltitudeMeters>114</AltitudeMeters>
            <DistanceMeters>1156.8179607951</DistanceMeters>
          </Trackpoint>
          <Trackpoint>
            <Time>2021-03-21T12:16:19.000Z</Time>
            <Position>
              <LatitudeDegrees>36.72956666909158229827880859375</LatitudeDegrees>
              <LongitudeDegrees>-5.4622571356594562530517578125</LongitudeDegrees>
            </Position>
            <AltitudeMeters>114.1999969482421875</AltitudeMeters>
            <DistanceMeters>1157.1980676526</DistanceMeters>
          </Trackpoint>
          <Trackpoint>
            <Time>2021-03-21T12:16:21.000Z</Time>
            <Position>
              <LatitudeDegrees>36.72956566326320171356201171875</LatitudeDegrees>
              <LongitudeDegrees>-5.46225369907915592193603515625</LongitudeDegrees>
            </Position>
            <AltitudeMeters>114.1999969482421875</AltitudeMeters>
            <DistanceMeters>1157.5272498473</DistanceMeters>
          </Trackpoint>
          <Trackpoint>
            <Time>2021-03-21T12:16:44.000Z</Time>
            <Position>
              <LatitudeDegrees>36.72954596579074859619140625</LatitudeDegrees>
              <LongitudeDegrees>-5.4622598178684711456298828125</LongitudeDegrees>
            </Position>
            <AltitudeMeters>114.40000152587890625</AltitudeMeters>
            <DistanceMeters>1159.7880070805</DistanceMeters>
          </Trackpoint>
          <Trackpoint>
            <Time>2021-03-21T12:16:55.000Z</Time>
            <Position>
              <LatitudeDegrees>36.72953532077372074127197265625</LatitudeDegrees>
              <LongitudeDegrees>-5.4622856341302394866943359375</LongitudeDegrees>
            </Position>
            <AltitudeMeters>115.59999847412109375</AltitudeMeters>
            <DistanceMeters>1162.3765040809</DistanceMeters>
          </Trackpoint>
          <Trackpoint>
            <Time>2021-03-21T12:17:05.000Z</Time>
            <Position>
              <LatitudeDegrees>36.72952492721378803253173828125</LatitudeDegrees>
              <LongitudeDegrees>-5.46230181120336055755615234375</LongitudeDegrees>
            </Position>
            <AltitudeMeters>116.59999847412109375</AltitudeMeters>
            <DistanceMeters>1164.2289157654</DistanceMeters>
          </Trackpoint>
          <Trackpoint>
            <Time>2021-03-21T12:17:54.000Z</Time>
            <Position>
              <LatitudeDegrees>36.72950933687388896942138671875</LatitudeDegrees>
              <LongitudeDegrees>-5.4623302258551120758056640625</LongitudeDegrees>
            </Position>
            <AltitudeMeters>117</AltitudeMeters>
            <DistanceMeters>1167.302262469</DistanceMeters>
          </Trackpoint>
          <Trackpoint>
            <Time>2021-03-21T12:18:04.000Z</Time>
            <Position>
              <LatitudeDegrees>36.72951067797839641571044921875</LatitudeDegrees>
              <LongitudeDegrees>-5.46235042624175548553466796875</LongitudeDegrees>
            </Position>
            <AltitudeMeters>117.59999847412109375</AltitudeMeters>
            <DistanceMeters>1169.1102690156</DistanceMeters>
          </Trackpoint>
          <Trackpoint>
            <Time>2021-03-21T12:18:18.000Z</Time>
            <Position>
              <LatitudeDegrees>36.72951470129191875457763671875</LatitudeDegrees>
              <LongitudeDegrees>-5.46233986504375934600830078125</LongitudeDegrees>
            </Position>
            <AltitudeMeters>118.40000152587890625</AltitudeMeters>
            <DistanceMeters>1170.1512345161</DistanceMeters>
          </Trackpoint>
          <Trackpoint>
            <Time>2021-03-21T12:18:59.000Z</Time>
            <Position>
              <LatitudeDegrees>36.72955074347555637359619140625</LatitudeDegrees>
              <LongitudeDegrees>-5.46232310123741626739501953125</LongitudeDegrees>
            </Position>
            <AltitudeMeters>117.40000152587890625</AltitudeMeters>
            <DistanceMeters>1174.4327126699</DistanceMeters>
          </Trackpoint>
          <Trackpoint>
            <Time>2021-03-21T12:19:21.000Z</Time>
            <Position>
              <LatitudeDegrees>36.7295112647116184234619140625</LatitudeDegrees>
              <LongitudeDegrees>-5.46234204433858394622802734375</LongitudeDegrees>
            </Position>
            <AltitudeMeters>117.59999847412109375</AltitudeMeters>
            <DistanceMeters>1179.1401331518</DistanceMeters>
          </Trackpoint>
          <Trackpoint>
            <Time>2021-03-21T12:19:23.000Z</Time>
            <Position>
              <LatitudeDegrees>36.729506738483905792236328125</LatitudeDegrees>
              <LongitudeDegrees>-5.46235151588916778564453125</LongitudeDegrees>
            </Position>
            <AltitudeMeters>118.8000030517578125</AltitudeMeters>
            <DistanceMeters>1180.1184930565</DistanceMeters>
          </Trackpoint>
          <Trackpoint>
            <Time>2021-03-21T12:19:40.000Z</Time>
            <Position>
              <LatitudeDegrees>36.72950548119843006134033203125</LatitudeDegrees>
              <LongitudeDegrees>-5.46234774403274059295654296875</LongitudeDegrees>
            </Position>
            <AltitudeMeters>118.59999847412109375</AltitudeMeters>
            <DistanceMeters>1180.4865299387</DistanceMeters>
          </Trackpoint>
          <Trackpoint>
            <Time>2021-03-21T12:19:48.000Z</Time>
            <Position>
              <LatitudeDegrees>36.7295105941593647003173828125</LatitudeDegrees>
              <LongitudeDegrees>-5.4623495042324066162109375</LongitudeDegrees>
            </Position>
            <AltitudeMeters>118.40000152587890625</AltitudeMeters>
            <DistanceMeters>1181.0799715797</DistanceMeters>
          </Trackpoint>
          <Trackpoint>
            <Time>2021-03-21T12:20:22.000Z</Time>
            <Position>
              <LatitudeDegrees>36.7295099236071109771728515625</LatitudeDegrees>
              <LongitudeDegrees>-5.46233533881604671478271484375</LongitudeDegrees>
            </Position>
            <AltitudeMeters>118.1999969482421875</AltitudeMeters>
            <DistanceMeters>1182.34778608</DistanceMeters>
          </Trackpoint>
          <Trackpoint>
            <Time>2021-03-21T12:20:24.000Z</Time>
            <Position>
              <LatitudeDegrees>36.72950841486454010009765625</LatitudeDegrees>
              <LongitudeDegrees>-5.4623406194150447845458984375</LongitudeDegrees>
            </Position>
            <AltitudeMeters>118.1999969482421875</AltitudeMeters>
            <DistanceMeters>1182.8415593721</DistanceMeters>
          </Trackpoint>
          <Trackpoint>
            <Time>2021-03-21T12:20:28.000Z</Time>
            <Position>
              <LatitudeDegrees>36.72951034270226955413818359375</LatitudeDegrees>
              <LongitudeDegrees>-5.46234757639467716217041015625</LongitudeDegrees>
            </Position>
            <AltitudeMeters>118.1999969482421875</AltitudeMeters>
            <DistanceMeters>1183.4999237615</DistanceMeters>
          </Trackpoint>
          <Trackpoint>
            <Time>2021-03-21T12:21:01.000Z</Time>
            <Position>
              <LatitudeDegrees>36.72944270074367523193359375</LatitudeDegrees>
              <LongitudeDegrees>-5.46240373514592647552490234375</LongitudeDegrees>
            </Position>
            <AltitudeMeters>118.1999969482421875</AltitudeMeters>
            <DistanceMeters>1192.5429526942</DistanceMeters>
          </Trackpoint>
          <Trackpoint>
            <Time>2021-03-21T12:21:07.000Z</Time>
            <Position>
              <LatitudeDegrees>36.72941981814801692962646484375</LatitudeDegrees>
              <LongitudeDegrees>-5.46241546981036663055419921875</LongitudeDegrees>
            </Position>
            <AltitudeMeters>121.1999969482421875</AltitudeMeters>
            <DistanceMeters>1195.2970885319</DistanceMeters>
          </Trackpoint>
          <Trackpoint>
            <Time>2021-03-21T12:21:10.000Z</Time>
            <Position>
              <LatitudeDegrees>36.72941981814801692962646484375</LatitudeDegrees>
              <LongitudeDegrees>-5.4624318145215511322021484375</LongitudeDegrees>
            </Position>
            <AltitudeMeters>122.40000152587890625</AltitudeMeters>
            <DistanceMeters>1196.7507177446</DistanceMeters>
          </Trackpoint>
          <Trackpoint>
            <Time>2021-03-21T12:21:11.000Z</Time>
            <Position>
              <LatitudeDegrees>36.7294178903102874755859375</LatitudeDegrees>
              <LongitudeDegrees>-5.4624391905963420867919921875</LongitudeDegrees>
            </Position>
            <AltitudeMeters>122.1999969482421875</AltitudeMeters>
            <DistanceMeters>1197.4425226676</DistanceMeters>
          </Trackpoint>
          <Trackpoint>
            <Time>2021-03-21T12:21:16.000Z</Time>
            <Position>
              <LatitudeDegrees>36.72940204851329326629638671875</LatitudeDegrees>
              <LongitudeDegrees>-5.4624579660594463348388671875</LongitudeDegrees>
            </Position>
            <AltitudeMeters>123.59999847412109375</AltitudeMeters>
            <DistanceMeters>1199.8763940996</DistanceMeters>
          </Trackpoint>
          <Trackpoint>
            <Time>2021-03-21T12:21:24.000Z</Time>
            <Position>
              <LatitudeDegrees>36.72939576208591461181640625</LatitudeDegrees>
              <LongitudeDegrees>-5.462441034615039825439453125</LongitudeDegrees>
            </Position>
            <AltitudeMeters>123.59999847412109375</AltitudeMeters>
            <DistanceMeters>1201.5386827002</DistanceMeters>
          </Trackpoint>
          <Trackpoint>
            <Time>2021-03-21T12:21:26.000Z</Time>
            <Position>
              <LatitudeDegrees>36.72939416952431201934814453125</LatitudeDegrees>
              <LongitudeDegrees>-5.46243977732956409454345703125</LongitudeDegrees>
            </Position>
            <AltitudeMeters>123.40000152587890625</AltitudeMeters>
            <DistanceMeters>1201.7287361289</DistanceMeters>
          </Trackpoint>
          <Trackpoint>
            <Time>2021-03-21T12:21:32.000Z</Time>
            <Position>
              <LatitudeDegrees>36.7293969355523586273193359375</LatitudeDegrees>
              <LongitudeDegrees>-5.46243525110185146331787109375</LongitudeDegrees>
            </Position>
            <AltitudeMeters>123.59999847412109375</AltitudeMeters>
            <DistanceMeters>1202.2404706469</DistanceMeters>
          </Trackpoint>
          <Trackpoint>
            <Time>2021-03-21T12:21:40.000Z</Time>
            <Position>
              <LatitudeDegrees>36.7293858714401721954345703125</LatitudeDegrees>
              <LongitudeDegrees>-5.4624514281749725341796875</LongitudeDegrees>
            </Position>
            <AltitudeMeters>123.8000030517578125</AltitudeMeters>
            <DistanceMeters>1204.1386277798</DistanceMeters>
          </Trackpoint>
          <Trackpoint>
            <Time>2021-03-21T12:21:49.000Z</Time>
            <Position>
              <LatitudeDegrees>36.72933566384017467498779296875</LatitudeDegrees>
              <LongitudeDegrees>-5.4624702036380767822265625</LongitudeDegrees>
            </Position>
            <AltitudeMeters>124.59999847412109375</AltitudeMeters>
            <DistanceMeters>1209.9732989954</DistanceMeters>
          </Trackpoint>
          <Trackpoint>
            <Time>2021-03-21T12:21:55.000Z</Time>
            <Position>
              <LatitudeDegrees>36.72930364497005939483642578125</LatitudeDegrees>
              <LongitudeDegrees>-5.46246324665844440460205078125</LongitudeDegrees>
            </Position>
            <AltitudeMeters>125.59999847412109375</AltitudeMeters>
            <DistanceMeters>1213.5905604965</DistanceMeters>
          </Trackpoint>
          <Trackpoint>
            <Time>2021-03-21T12:22:01.000Z</Time>
            <Position>
              <LatitudeDegrees>36.72926391474902629852294921875</LatitudeDegrees>
              <LongitudeDegrees>-5.46246073208749294281005859375</LongitudeDegrees>
            </Position>
            <AltitudeMeters>126.59999847412109375</AltitudeMeters>
            <DistanceMeters>1218.0192539873</DistanceMeters>
          </Trackpoint>
          <Trackpoint>
            <Time>2021-03-21T12:22:09.000Z</Time>
            <Position>
              <LatitudeDegrees>36.7292018048465251922607421875</LatitudeDegrees>
              <LongitudeDegrees>-5.462471880018711090087890625</LongitudeDegrees>
            </Position>
            <AltitudeMeters>127.8000030517578125</AltitudeMeters>
            <DistanceMeters>1225.0029093965</DistanceMeters>
          </Trackpoint>
          <Trackpoint>
            <Time>2021-03-21T12:22:19.000Z</Time>
            <Position>
              <LatitudeDegrees>36.72919459640979766845703125</LatitudeDegrees>
              <LongitudeDegrees>-5.462471544742584228515625</LongitudeDegrees>
            </Position>
            <AltitudeMeters>128.399993896484375</AltitudeMeters>
            <DistanceMeters>1225.809237806</DistanceMeters>
          </Trackpoint>
          <Trackpoint>
            <Time>2021-03-21T12:22:22.000Z</Time>
            <Position>
              <LatitudeDegrees>36.7291997931897640228271484375</LatitudeDegrees>
              <LongitudeDegrees>-5.46247296966612339019775390625</LongitudeDegrees>
            </Position>
            <AltitudeMeters>128.8000030517578125</AltitudeMeters>
            <DistanceMeters>1226.4102395179</DistanceMeters>
          </Trackpoint>
          <Trackpoint>
            <Time>2021-03-21T12:22:45.000Z</Time>
            <Position>
              <LatitudeDegrees>36.729238517582416534423828125</LatitudeDegrees>
              <LongitudeDegrees>-5.46245235018432140350341796875</LongitudeDegrees>
            </Position>
            <AltitudeMeters>129</AltitudeMeters>
            <DistanceMeters>1231.0965115877</DistanceMeters>
          </Trackpoint>
          <Trackpoint>
            <Time>2021-03-21T12:22:50.000Z</Time>
            <Position>
              <LatitudeDegrees>36.7292373441159725189208984375</LatitudeDegrees>
              <LongitudeDegrees>-5.46245100907981395721435546875</LongitudeDegrees>
            </Position>
            <AltitudeMeters>129</AltitudeMeters>
            <DistanceMeters>1231.2611026851</DistanceMeters>
          </Trackpoint>
          <Trackpoint>
            <Time>2021-03-21T12:24:52.000Z</Time>
            <Position>
              <LatitudeDegrees>36.7292282916605472564697265625</LatitudeDegrees>
              <LongitudeDegrees>-5.46244698576629161834716796875</LongitudeDegrees>
            </Position>
            <AltitudeMeters>127.8000030517578125</AltitudeMeters>
            <DistanceMeters>1232.3277749083</DistanceMeters>
          </Trackpoint>
          <Trackpoint>
            <Time>2021-03-21T12:24:53.000Z</Time>
            <Position>
              <LatitudeDegrees>36.72923055477440357208251953125</LatitudeDegrees>
              <LongitudeDegrees>-5.46244681812822818756103515625</LongitudeDegrees>
            </Position>
            <AltitudeMeters>127.8000030517578125</AltitudeMeters>
            <DistanceMeters>1232.5605418705</DistanceMeters>
          </Trackpoint>
          <Trackpoint>
            <Time>2021-03-21T12:27:05.000Z</Time>
            <Position>
              <LatitudeDegrees>36.7291686125099658966064453125</LatitudeDegrees>
              <LongitudeDegrees>-5.46246844343841075897216796875</LongitudeDegrees>
            </Position>
            <AltitudeMeters>130</AltitudeMeters>
            <DistanceMeters>1239.7197816273</DistanceMeters>
          </Trackpoint>
          <Trackpoint>
            <Time>2021-03-21T12:27:11.000Z</Time>
            <Position>
              <LatitudeDegrees>36.72914807684719562530517578125</LatitudeDegrees>
              <LongitudeDegrees>-5.4624878056347370147705078125</LongitudeDegrees>
            </Position>
            <AltitudeMeters>130</AltitudeMeters>
            <DistanceMeters>1242.5848016076</DistanceMeters>
          </Trackpoint>
          <Trackpoint>
            <Time>2021-03-21T12:27:15.000Z</Time>
            <Position>
              <LatitudeDegrees>36.72914740629494190216064453125</LatitudeDegrees>
              <LongitudeDegrees>-5.4625253565609455108642578125</LongitudeDegrees>
            </Position>
            <AltitudeMeters>130</AltitudeMeters>
            <DistanceMeters>1245.9350829421</DistanceMeters>
          </Trackpoint>
          <Trackpoint>
            <Time>2021-03-21T12:27:21.000Z</Time>
            <Position>
              <LatitudeDegrees>36.729131899774074554443359375</LatitudeDegrees>
              <LongitudeDegrees>-5.46256466768682003021240234375</LongitudeDegrees>
            </Position>
            <AltitudeMeters>130.8000030517578125</AltitudeMeters>
            <DistanceMeters>1249.8439049312</DistanceMeters>
          </Trackpoint>
          <Trackpoint>
            <Time>2021-03-21T12:27:22.000Z</Time>
            <Position>
              <LatitudeDegrees>36.72913013957440853118896484375</LatitudeDegrees>
              <LongitudeDegrees>-5.46256885863840579986572265625</LongitudeDegrees>
            </Position>
            <AltitudeMeters>131</AltitudeMeters>
            <DistanceMeters>1250.247069136</DistanceMeters>
          </Trackpoint>
          <Trackpoint>
            <Time>2021-03-21T12:27:24.000Z</Time>
            <Position>
              <LatitudeDegrees>36.72912217676639556884765625</LatitudeDegrees>
              <LongitudeDegrees>-5.46257824636995792388916015625</LongitudeDegrees>
            </Position>
            <AltitudeMeters>131.600006103515625</AltitudeMeters>
            <DistanceMeters>1251.464004852</DistanceMeters>
          </Trackpoint>
          <Trackpoint>
            <Time>2021-03-21T12:27:25.000Z</Time>
            <Position>
              <LatitudeDegrees>36.7291173152625560760498046875</LatitudeDegrees>
              <LongitudeDegrees>-5.46258361078798770904541015625</LongitudeDegrees>
            </Position>
            <AltitudeMeters>131.600006103515625</AltitudeMeters>
            <DistanceMeters>1252.1877067476</DistanceMeters>
          </Trackpoint>
          <Trackpoint>
            <Time>2021-03-21T12:27:26.000Z</Time>
            <Position>
              <LatitudeDegrees>36.72911169938743114471435546875</LatitudeDegrees>
              <LongitudeDegrees>-5.4625907354056835174560546875</LongitudeDegrees>
            </Position>
            <AltitudeMeters>131.8000030517578125</AltitudeMeters>
            <DistanceMeters>1253.079136345</DistanceMeters>
          </Trackpoint>
          <Trackpoint>
            <Time>2021-03-21T12:27:27.000Z</Time>
            <Position>
              <LatitudeDegrees>36.7291075922548770904541015625</LatitudeDegrees>
              <LongitudeDegrees>-5.4625940881669521331787109375</LongitudeDegrees>
            </Position>
            <AltitudeMeters>132.1999969482421875</AltitudeMeters>
            <DistanceMeters>1253.616688618</DistanceMeters>
          </Trackpoint>
          <Trackpoint>
            <Time>2021-03-21T12:27:28.000Z</Time>
            <Position>
              <LatitudeDegrees>36.7291039042174816131591796875</LatitudeDegrees>
              <LongitudeDegrees>-5.4625991173088550567626953125</LongitudeDegrees>
            </Position>
            <AltitudeMeters>132.399993896484375</AltitudeMeters>
            <DistanceMeters>1254.2176903299</DistanceMeters>
          </Trackpoint>
          <Trackpoint>
            <Time>2021-03-21T12:27:33.000Z</Time>
            <Position>
              <LatitudeDegrees>36.729087643325328826904296875</LatitudeDegrees>
              <LongitudeDegrees>-5.46260791830718517303466796875</LongitudeDegrees>
            </Position>
            <AltitudeMeters>132.8000030517578125</AltitudeMeters>
            <DistanceMeters>1256.1904961864</DistanceMeters>
          </Trackpoint>
          <Trackpoint>
            <Time>2021-03-21T12:27:35.000Z</Time>
            <Position>
              <LatitudeDegrees>36.72908462584018707275390625</LatitudeDegrees>
              <LongitudeDegrees>-5.4626043140888214111328125</LongitudeDegrees>
            </Position>
            <AltitudeMeters>133</AltitudeMeters>
            <DistanceMeters>1256.6750392573</DistanceMeters>
          </Trackpoint>
          <Trackpoint>
            <Time>2021-03-21T12:27:36.000Z</Time>
            <Position>
              <LatitudeDegrees>36.729084961116313934326171875</LatitudeDegrees>
              <LongitudeDegrees>-5.46260607428848743438720703125</LongitudeDegrees>
            </Position>
            <AltitudeMeters>133</AltitudeMeters>
            <DistanceMeters>1256.865092686</DistanceMeters>
          </Trackpoint>
          <Trackpoint>
            <Time>2021-03-21T12:27:42.000Z</Time>
            <Position>
              <LatitudeDegrees>36.72907867468893527984619140625</LatitudeDegrees>
              <LongitudeDegrees>-5.46264253556728363037109375</LongitudeDegrees>
            </Position>
            <AltitudeMeters>133.1999969482421875</AltitudeMeters>
            <DistanceMeters>1260.1937416307</DistanceMeters>
          </Trackpoint>
          <Trackpoint>
            <Time>2021-03-21T12:27:58.000Z</Time>
            <Position>
              <LatitudeDegrees>36.72905654646456241607666015625</LatitudeDegrees>
              <LongitudeDegrees>-5.4626681841909885406494140625</LongitudeDegrees>
            </Position>
            <AltitudeMeters>134.1999969482421875</AltitudeMeters>
            <DistanceMeters>1263.5534433369</DistanceMeters>
          </Trackpoint>
          <Trackpoint>
            <Time>2021-03-21T12:29:17.000Z</Time>
            <Position>
              <LatitudeDegrees>36.72905872575938701629638671875</LatitudeDegrees>
              <LongitudeDegrees>-5.462724007666110992431640625</LongitudeDegrees>
            </Position>
            <AltitudeMeters>135</AltitudeMeters>
            <DistanceMeters>1268.5384980381</DistanceMeters>
          </Trackpoint>
          <Trackpoint>
            <Time>2021-03-21T12:29:19.000Z</Time>
            <Position>
              <LatitudeDegrees>36.72905436716973781585693359375</LatitudeDegrees>
              <LongitudeDegrees>-5.46271721832454204559326171875</LongitudeDegrees>
            </Position>
            <AltitudeMeters>135</AltitudeMeters>
            <DistanceMeters>1269.3104987151</DistanceMeters>
          </Trackpoint>
          <Trackpoint>
            <Time>2021-03-21T12:29:26.000Z</Time>
            <Position>
              <LatitudeDegrees>36.7290381900966167449951171875</LatitudeDegrees>
              <LongitudeDegrees>-5.46270112507045269012451171875</LongitudeDegrees>
            </Position>
            <AltitudeMeters>134.1999969482421875</AltitudeMeters>
            <DistanceMeters>1271.6128138266</DistanceMeters>
          </Trackpoint>
          <Trackpoint>
            <Time>2021-03-21T12:30:11.000Z</Time>
            <Position>
              <LatitudeDegrees>36.7290182411670684814453125</LatitudeDegrees>
              <LongitudeDegrees>-5.4627650789916515350341796875</LongitudeDegrees>
            </Position>
            <AltitudeMeters>135</AltitudeMeters>
            <DistanceMeters>1277.7344816747</DistanceMeters>
          </Trackpoint>
          <Trackpoint>
            <Time>2021-03-21T12:30:17.000Z</Time>
            <Position>
              <LatitudeDegrees>36.72901229001581668853759765625</LatitudeDegrees>
              <LongitudeDegrees>-5.4627905599772930145263671875</LongitudeDegrees>
            </Position>
            <AltitudeMeters>135.1999969482421875</AltitudeMeters>
            <DistanceMeters>1280.1006277808</DistanceMeters>
          </Trackpoint>
          <Trackpoint>
            <Time>2021-03-21T12:30:18.000Z</Time>
            <Position>
              <LatitudeDegrees>36.72900952398777008056640625</LatitudeDegrees>
              <LongitudeDegrees>-5.46279734931886196136474609375</LongitudeDegrees>
            </Position>
            <AltitudeMeters>135.1999969482421875</AltitudeMeters>
            <DistanceMeters>1280.772568122</DistanceMeters>
          </Trackpoint>
          <Trackpoint>
            <Time>2021-03-21T12:30:19.000Z</Time>
            <Position>
              <LatitudeDegrees>36.72900659032166004180908203125</LatitudeDegrees>
              <LongitudeDegrees>-5.46280212700366973876953125</LongitudeDegrees>
            </Position>
            <AltitudeMeters>135.1999969482421875</AltitudeMeters>
            <DistanceMeters>1281.310120395</DistanceMeters>
          </Trackpoint>
          <Trackpoint>
            <Time>2021-03-21T12:30:21.000Z</Time>
            <Position>
              <LatitudeDegrees>36.72900323756039142608642578125</LatitudeDegrees>
              <LongitudeDegrees>-5.4628069885075092315673828125</LongitudeDegrees>
            </Position>
            <AltitudeMeters>135.399993896484375</AltitudeMeters>
            <DistanceMeters>1281.8802806812</DistanceMeters>
          </Trackpoint>
          <Trackpoint>
            <Time>2021-03-21T12:30:23.000Z</Time>
            <Position>
              <LatitudeDegrees>36.7290013097226619720458984375</LatitudeDegrees>
              <LongitudeDegrees>-5.46280807815492153167724609375</LongitudeDegrees>
            </Position>
            <AltitudeMeters>135.399993896484375</AltitudeMeters>
            <DistanceMeters>1282.1130476434</DistanceMeters>
          </Trackpoint>
          <Trackpoint>
            <Time>2021-03-21T12:30:25.000Z</Time>
            <Position>
              <LatitudeDegrees>36.728998459875583648681640625</LatitudeDegrees>
              <LongitudeDegrees>-5.46281327493488788604736328125</LongitudeDegrees>
            </Position>
            <AltitudeMeters>135.399993896484375</AltitudeMeters>
            <DistanceMeters>1282.6752332671</DistanceMeters>
          </Trackpoint>
          <Trackpoint>
            <Time>2021-03-21T12:30:27.000Z</Time>
            <Position>
              <LatitudeDegrees>36.728995777666568756103515625</LatitudeDegrees>
              <LongitudeDegrees>-5.46282115392386913299560546875</LongitudeDegrees>
            </Position>
            <AltitudeMeters>135.399993896484375</AltitudeMeters>
            <DistanceMeters>1283.4354469821</DistanceMeters>
          </Trackpoint>
          <Trackpoint>
            <Time>2021-03-21T12:30:29.000Z</Time>
            <Position>
              <LatitudeDegrees>36.72899250872433185577392578125</LatitudeDegrees>
              <LongitudeDegrees>-5.4628348164260387420654296875</LongitudeDegrees>
            </Position>
            <AltitudeMeters>135.399993896484375</AltitudeMeters>
            <DistanceMeters>1284.7032614823</DistanceMeters>
          </Trackpoint>
          <Trackpoint>
            <Time>2021-03-21T12:30:30.000Z</Time>
            <Position>
              <LatitudeDegrees>36.72899183817207813262939453125</LatitudeDegrees>
              <LongitudeDegrees>-5.46284101903438568115234375</LongitudeDegrees>
            </Position>
            <AltitudeMeters>135.399993896484375</AltitudeMeters>
            <DistanceMeters>1285.2573576825</DistanceMeters>
          </Trackpoint>
          <Trackpoint>
            <Time>2021-03-21T12:30:43.000Z</Time>
            <Position>
              <LatitudeDegrees>36.72898714430630207061767578125</LatitudeDegrees>
              <LongitudeDegrees>-5.4629042185842990875244140625</LongitudeDegrees>
            </Position>
            <AltitudeMeters>136.1999969482421875</AltitudeMeters>
            <DistanceMeters>1290.9200250268</DistanceMeters>
          </Trackpoint>
          <Trackpoint>
            <Time>2021-03-21T12:30:44.000Z</Time>
            <Position>
              <LatitudeDegrees>36.728987731039524078369140625</LatitudeDegrees>
              <LongitudeDegrees>-5.46290983445942401885986328125</LongitudeDegrees>
            </Position>
            <AltitudeMeters>136.399993896484375</AltitudeMeters>
            <DistanceMeters>1291.4228591351</DistanceMeters>
          </Trackpoint>
          <Trackpoint>
            <Time>2021-03-21T12:30:58.000Z</Time>
            <Position>
              <LatitudeDegrees>36.72895579598844051361083984375</LatitudeDegrees>
              <LongitudeDegrees>-5.4629985988140106201171875</LongitudeDegrees>
            </Position>
            <AltitudeMeters>137.399993896484375</AltitudeMeters>
            <DistanceMeters>1300.1020813177</DistanceMeters>
          </Trackpoint>
          <Trackpoint>
            <Time>2021-03-21T12:31:06.000Z</Time>
            <Position>
              <LatitudeDegrees>36.72894691117107868194580078125</LatitudeDegrees>
              <LongitudeDegrees>-5.46302609145641326904296875</LongitudeDegrees>
            </Position>
            <AltitudeMeters>138.399993896484375</AltitudeMeters>
            <DistanceMeters>1302.7475130867</DistanceMeters>
          </Trackpoint>
          <Trackpoint>
            <Time>2021-03-21T12:31:15.000Z</Time>
            <Position>
              <LatitudeDegrees>36.72893266193568706512451171875</LatitudeDegrees>
              <LongitudeDegrees>-5.4630924761295318603515625</LongitudeDegrees>
            </Position>
            <AltitudeMeters>139.600006103515625</AltitudeMeters>
            <DistanceMeters>1308.8787615922</DistanceMeters>
          </Trackpoint>
          <Trackpoint>
            <Time>2021-03-21T12:31:32.000Z</Time>
            <Position>
              <LatitudeDegrees>36.728924699127674102783203125</LatitudeDegrees>
              <LongitudeDegrees>-5.463190041482448577880859375</LongitudeDegrees>
            </Position>
            <AltitudeMeters>140.600006103515625</AltitudeMeters>
            <DistanceMeters>1317.6274145136</DistanceMeters>
          </Trackpoint>
          <Trackpoint>
            <Time>2021-03-21T12:31:39.000Z</Time>
            <Position>
              <LatitudeDegrees>36.728923358023166656494140625</LatitudeDegrees>
              <LongitudeDegrees>-5.4632297717034816741943359375</LongitudeDegrees>
            </Position>
            <AltitudeMeters>141.600006103515625</AltitudeMeters>
            <DistanceMeters>1321.175361323</DistanceMeters>
          </Trackpoint>
          <Trackpoint>
            <Time>2021-03-21T12:31:47.000Z</Time>
            <Position>
              <LatitudeDegrees>36.7289275489747524261474609375</LatitudeDegrees>
              <LongitudeDegrees>-5.4632750339806079864501953125</LongitudeDegrees>
            </Position>
            <AltitudeMeters>142.8000030517578125</AltitudeMeters>
            <DistanceMeters>1325.2404615546</DistanceMeters>
          </Trackpoint>
          <Trackpoint>
            <Time>2021-03-21T12:31:54.000Z</Time>
            <Position>
              <LatitudeDegrees>36.72892595641314983367919921875</LatitudeDegrees>
              <LongitudeDegrees>-5.463315434753894805908203125</LongitudeDegrees>
            </Position>
            <AltitudeMeters>144</AltitudeMeters>
            <DistanceMeters>1328.8489751311</DistanceMeters>
          </Trackpoint>
          <Trackpoint>
            <Time>2021-03-21T12:32:02.000Z</Time>
            <Position>
              <LatitudeDegrees>36.72892344184219837188720703125</LatitudeDegrees>
              <LongitudeDegrees>-5.463344268500804901123046875</LongitudeDegrees>
            </Position>
            <AltitudeMeters>144.8000030517578125</AltitudeMeters>
            <DistanceMeters>1331.4357272733</DistanceMeters>
          </Trackpoint>
          <Trackpoint>
            <Time>2021-03-21T12:32:04.000Z</Time>
            <Position>
              <LatitudeDegrees>36.72891958616673946380615234375</LatitudeDegrees>
              <LongitudeDegrees>-5.46334602870047092437744140625</LongitudeDegrees>
            </Position>
            <AltitudeMeters>145</AltitudeMeters>
            <DistanceMeters>1331.8914593856</DistanceMeters>
          </Trackpoint>
          <Trackpoint>
            <Time>2021-03-21T12:32:08.000Z</Time>
            <Position>
              <LatitudeDegrees>36.72891589812934398651123046875</LatitudeDegrees>
              <LongitudeDegrees>-5.46336312778294086456298828125</LongitudeDegrees>
            </Position>
            <AltitudeMeters>145.600006103515625</AltitudeMeters>
            <DistanceMeters>1333.4730191142</DistanceMeters>
          </Trackpoint>
          <Trackpoint>
            <Time>2021-03-21T12:32:15.000Z</Time>
            <Position>
              <LatitudeDegrees>36.7289114557206630706787109375</LatitudeDegrees>
              <LongitudeDegrees>-5.46338324435055255889892578125</LongitudeDegrees>
            </Position>
            <AltitudeMeters>145.8000030517578125</AltitudeMeters>
            <DistanceMeters>1335.3351548113</DistanceMeters>
          </Trackpoint>
          <Trackpoint>
            <Time>2021-03-21T12:32:20.000Z</Time>
            <Position>
              <LatitudeDegrees>36.72891422174870967864990234375</LatitudeDegrees>
              <LongitudeDegrees>-5.46339145861566066741943359375</LongitudeDegrees>
            </Position>
            <AltitudeMeters>146.1999969482421875</AltitudeMeters>
            <DistanceMeters>1336.130205345</DistanceMeters>
          </Trackpoint>
          <Trackpoint>
            <Time>2021-03-21T12:32:31.000Z</Time>
            <Position>
              <LatitudeDegrees>36.7289087735116481781005859375</LatitudeDegrees>
              <LongitudeDegrees>-5.463435463607311248779296875</LongitudeDegrees>
            </Position>
            <AltitudeMeters>147.399993896484375</AltitudeMeters>
            <DistanceMeters>1340.1009122683</DistanceMeters>
          </Trackpoint>
          <Trackpoint>
            <Time>2021-03-21T12:32:51.000Z</Time>
            <Position>
              <LatitudeDegrees>36.72888102941215038299560546875</LatitudeDegrees>
              <LongitudeDegrees>-5.46356387436389923095703125</LongitudeDegrees>
            </Position>
            <AltitudeMeters>148.600006103515625</AltitudeMeters>
            <DistanceMeters>1351.9647987113</DistanceMeters>
          </Trackpoint>
          <Trackpoint>
            <Time>2021-03-21T12:32:56.000Z</Time>
            <Position>
              <LatitudeDegrees>36.728879772126674652099609375</LatitudeDegrees>
              <LongitudeDegrees>-5.46358357183635234832763671875</LongitudeDegrees>
            </Position>
            <AltitudeMeters>149.8000030517578125</AltitudeMeters>
            <DistanceMeters>1353.7272817032</DistanceMeters>
          </Trackpoint>
          <Trackpoint>
            <Time>2021-03-21T12:33:07.000Z</Time>
            <Position>
              <LatitudeDegrees>36.728878431022167205810546875</LatitudeDegrees>
              <LongitudeDegrees>-5.46359539031982421875</LongitudeDegrees>
            </Position>
            <AltitudeMeters>150.8000030517578125</AltitudeMeters>
            <DistanceMeters>1354.7897126682</DistanceMeters>
          </Trackpoint>
          <Trackpoint>
            <Time>2021-03-21T12:33:27.000Z</Time>
            <Position>
              <LatitudeDegrees>36.728873737156391143798828125</LatitudeDegrees>
              <LongitudeDegrees>-5.46363637782633304595947265625</LongitudeDegrees>
            </Position>
            <AltitudeMeters>151.600006103515625</AltitudeMeters>
            <DistanceMeters>1358.483551526</DistanceMeters>
          </Trackpoint>
          <Trackpoint>
            <Time>2021-03-21T12:33:29.000Z</Time>
            <Position>
              <LatitudeDegrees>36.7288749106228351593017578125</LatitudeDegrees>
              <LongitudeDegrees>-5.4636396467685699462890625</LongitudeDegrees>
            </Position>
            <AltitudeMeters>152</AltitudeMeters>
            <DistanceMeters>1358.8127337207</DistanceMeters>
          </Trackpoint>
          <Trackpoint>
            <Time>2021-03-21T12:33:42.000Z</Time>
            <Position>
              <LatitudeDegrees>36.72887063585221767425537109375</LatitudeDegrees>
              <LongitudeDegrees>-5.46369974501430988311767578125</LongitudeDegrees>
            </Position>
            <AltitudeMeters>153</AltitudeMeters>
            <DistanceMeters>1364.1949716597</DistanceMeters>
          </Trackpoint>
          <Trackpoint>
            <Time>2021-03-21T12:33:48.000Z</Time>
            <Position>
              <LatitudeDegrees>36.72883576713502407073974609375</LatitudeDegrees>
              <LongitudeDegrees>-5.46374282799661159515380859375</LongitudeDegrees>
            </Position>
            <AltitudeMeters>153.8000030517578125</AltitudeMeters>
            <DistanceMeters>1369.6554947498</DistanceMeters>
          </Trackpoint>
          <Trackpoint>
            <Time>2021-03-21T12:33:49.000Z</Time>
            <Position>
              <LatitudeDegrees>36.72883115708827972412109375</LatitudeDegrees>
              <LongitudeDegrees>-5.463746599853038787841796875</LongitudeDegrees>
            </Position>
            <AltitudeMeters>154.1999969482421875</AltitudeMeters>
            <DistanceMeters>1370.2713382451</DistanceMeters>
          </Trackpoint>
          <Trackpoint>
            <Time>2021-03-21T12:33:51.000Z</Time>
            <Position>
              <LatitudeDegrees>36.72882922925055027008056640625</LatitudeDegrees>
              <LongitudeDegrees>-5.4637591727077960968017578125</LongitudeDegrees>
            </Position>
            <AltitudeMeters>154.399993896484375</AltitudeMeters>
            <DistanceMeters>1371.4116588175</DistanceMeters>
          </Trackpoint>
          <Trackpoint>
            <Time>2021-03-21T12:33:53.000Z</Time>
            <Position>
              <LatitudeDegrees>36.72882704995572566986083984375</LatitudeDegrees>
              <LongitudeDegrees>-5.4637745954096317291259765625</LongitudeDegrees>
            </Position>
            <AltitudeMeters>154.600006103515625</AltitudeMeters>
            <DistanceMeters>1372.8050239655</DistanceMeters>
          </Trackpoint>
          <Trackpoint>
            <Time>2021-03-21T12:33:55.000Z</Time>
            <Position>
              <LatitudeDegrees>36.72882688231766223907470703125</LatitudeDegrees>
              <LongitudeDegrees>-5.4637893475592136383056640625</LongitudeDegrees>
            </Position>
            <AltitudeMeters>154.8000030517578125</AltitudeMeters>
            <DistanceMeters>1374.1217527444</DistanceMeters>
          </Trackpoint>
          <Trackpoint>
            <Time>2021-03-21T12:33:57.000Z</Time>
            <Position>
              <LatitudeDegrees>36.72882470302283763885498046875</LatitudeDegrees>
              <LongitudeDegrees>-5.46381021849811077117919921875</LongitudeDegrees>
            </Position>
            <AltitudeMeters>155.399993896484375</AltitudeMeters>
            <DistanceMeters>1375.9983799884</DistanceMeters>
          </Trackpoint>
          <Trackpoint>
            <Time>2021-03-21T12:33:58.000Z</Time>
            <Position>
              <LatitudeDegrees>36.72881933860480785369873046875</LatitudeDegrees>
              <LongitudeDegrees>-5.46381809748709201812744140625</LongitudeDegrees>
            </Position>
            <AltitudeMeters>155.600006103515625</AltitudeMeters>
            <DistanceMeters>1376.9196981668</DistanceMeters>
          </Trackpoint>
          <Trackpoint>
            <Time>2021-03-21T12:34:03.000Z</Time>
            <Position>
              <LatitudeDegrees>36.72881481237709522247314453125</LatitudeDegrees>
              <LongitudeDegrees>-5.46385866589844226837158203125</LongitudeDegrees>
            </Position>
            <AltitudeMeters>156.399993896484375</AltitudeMeters>
            <DistanceMeters>1380.5717418286</DistanceMeters>
          </Trackpoint>
          <Trackpoint>
            <Time>2021-03-21T12:34:09.000Z</Time>
            <Position>
              <LatitudeDegrees>36.72881330363452434539794921875</LatitudeDegrees>
              <LongitudeDegrees>-5.4639087058603763580322265625</LongitudeDegrees>
            </Position>
            <AltitudeMeters>157.600006103515625</AltitudeMeters>
            <DistanceMeters>1385.0390082121</DistanceMeters>
          </Trackpoint>
          <Trackpoint>
            <Time>2021-03-21T12:34:15.000Z</Time>
            <Position>
              <LatitudeDegrees>36.7287894152104854583740234375</LatitudeDegrees>
              <LongitudeDegrees>-5.46396411024034023284912109375</LongitudeDegrees>
            </Position>
            <AltitudeMeters>158.1999969482421875</AltitudeMeters>
            <DistanceMeters>1390.6512187067</DistanceMeters>
          </Trackpoint>
          <Trackpoint>
            <Time>2021-03-21T12:34:18.000Z</Time>
            <Position>
              <LatitudeDegrees>36.72877877019345760345458984375</LatitudeDegrees>
              <LongitudeDegrees>-5.46398271806538105010986328125</LongitudeDegrees>
            </Position>
            <AltitudeMeters>158.8000030517578125</AltitudeMeters>
            <DistanceMeters>1392.6915287912</DistanceMeters>
          </Trackpoint>
          <Trackpoint>
            <Time>2021-03-21T12:34:25.000Z</Time>
            <Position>
              <LatitudeDegrees>36.72875815071165561676025390625</LatitudeDegrees>
              <LongitudeDegrees>-5.464003421366214752197265625</LongitudeDegrees>
            </Position>
            <AltitudeMeters>159.8000030517578125</AltitudeMeters>
            <DistanceMeters>1395.6388892271</DistanceMeters>
          </Trackpoint>
          <Trackpoint>
            <Time>2021-03-21T12:34:28.000Z</Time>
            <Position>
              <LatitudeDegrees>36.72875060699880123138427734375</LatitudeDegrees>
              <LongitudeDegrees>-5.46401314437389373779296875</LongitudeDegrees>
            </Position>
            <AltitudeMeters>159.8000030517578125</AltitudeMeters>
            <DistanceMeters>1396.8483818413</DistanceMeters>
          </Trackpoint>
          <Trackpoint>
            <Time>2021-03-21T12:34:35.000Z</Time>
            <Position>
              <LatitudeDegrees>36.7287257127463817596435546875</LatitudeDegrees>
              <LongitudeDegrees>-5.46404390595853328704833984375</LongitudeDegrees>
            </Position>
            <AltitudeMeters>161</AltitudeMeters>
            <DistanceMeters>1400.7479521679</DistanceMeters>
          </Trackpoint>
          <Trackpoint>
            <Time>2021-03-21T12:34:45.000Z</Time>
            <Position>
              <LatitudeDegrees>36.72870802693068981170654296875</LatitudeDegrees>
              <LongitudeDegrees>-5.46410475857555866241455078125</LongitudeDegrees>
            </Position>
            <AltitudeMeters>162</AltitudeMeters>
            <DistanceMeters>1406.5219492436</DistanceMeters>
          </Trackpoint>
          <Trackpoint>
            <Time>2021-03-21T12:34:55.000Z</Time>
            <Position>
              <LatitudeDegrees>36.7286881618201732635498046875</LatitudeDegrees>
              <LongitudeDegrees>-5.4641685448586940765380859375</LongitudeDegrees>
            </Position>
            <AltitudeMeters>163.1999969482421875</AltitudeMeters>
            <DistanceMeters>1412.6273694225</DistanceMeters>
          </Trackpoint>
          <Trackpoint>
            <Time>2021-03-21T12:35:05.000Z</Time>
            <Position>
              <LatitudeDegrees>36.7286683805286884307861328125</LatitudeDegrees>
              <LongitudeDegrees>-5.46419042162597179412841796875</LongitudeDegrees>
            </Position>
            <AltitudeMeters>164.399993896484375</AltitudeMeters>
            <DistanceMeters>1415.5701305936</DistanceMeters>
          </Trackpoint>
          <Trackpoint>
            <Time>2021-03-21T12:35:13.000Z</Time>
            <Position>
              <LatitudeDegrees>36.7286615073680877685546875</LatitudeDegrees>
              <LongitudeDegrees>-5.46420701779425144195556640625</LongitudeDegrees>
            </Position>
            <AltitudeMeters>165.1999969482421875</AltitudeMeters>
            <DistanceMeters>1417.2378426625</DistanceMeters>
          </Trackpoint>
          <Trackpoint>
            <Time>2021-03-21T12:35:19.000Z</Time>
            <Position>
              <LatitudeDegrees>36.728658489882946014404296875</LatitudeDegrees>
              <LongitudeDegrees>-5.46422579325735569000244140625</LongitudeDegrees>
            </Position>
            <AltitudeMeters>165.399993896484375</AltitudeMeters>
            <DistanceMeters>1418.9483235211</DistanceMeters>
          </Trackpoint>
          <Trackpoint>
            <Time>2021-03-21T12:35:28.000Z</Time>
            <Position>
              <LatitudeDegrees>36.72866494394838809967041015625</LatitudeDegrees>
              <LongitudeDegrees>-5.4642141424119472503662109375</LongitudeDegrees>
            </Position>
            <AltitudeMeters>165.8000030517578125</AltitudeMeters>
            <DistanceMeters>1420.2089953476</DistanceMeters>
          </Trackpoint>
          <Trackpoint>
            <Time>2021-03-21T12:35:35.000Z</Time>
            <Position>
              <LatitudeDegrees>36.72868137247860431671142578125</LatitudeDegrees>
              <LongitudeDegrees>-5.4642362706363201141357421875</LongitudeDegrees>
            </Position>
            <AltitudeMeters>166</AltitudeMeters>
            <DistanceMeters>1422.9001143171</DistanceMeters>
          </Trackpoint>
          <Trackpoint>
            <Time>2021-03-21T12:35:41.000Z</Time>
            <Position>
              <LatitudeDegrees>36.7286764271557331085205078125</LatitudeDegrees>
              <LongitudeDegrees>-5.46423534862697124481201171875</LongitudeDegrees>
            </Position>
            <AltitudeMeters>166.1999969482421875</AltitudeMeters>
            <DistanceMeters>1423.4542105173</DistanceMeters>
          </Trackpoint>
          <Trackpoint>
            <Time>2021-03-21T12:35:42.000Z</Time>
            <Position>
              <LatitudeDegrees>36.72867424786090850830078125</LatitudeDegrees>
              <LongitudeDegrees>-5.46423819847404956817626953125</LongitudeDegrees>
            </Position>
            <AltitudeMeters>166.600006103515625</AltitudeMeters>
            <DistanceMeters>1423.8097679251</DistanceMeters>
          </Trackpoint>
          <Trackpoint>
            <Time>2021-03-21T12:35:52.000Z</Time>
            <Position>
              <LatitudeDegrees>36.728649437427520751953125</LatitudeDegrees>
              <LongitudeDegrees>-5.46424440108239650726318359375</LongitudeDegrees>
            </Position>
            <AltitudeMeters>167</AltitudeMeters>
            <DistanceMeters>1426.6255106544</DistanceMeters>
          </Trackpoint>
          <Trackpoint>
            <Time>2021-03-21T12:35:56.000Z</Time>
            <Position>
              <LatitudeDegrees>36.728646419942378997802734375</LatitudeDegrees>
              <LongitudeDegrees>-5.46426116488873958587646484375</LongitudeDegrees>
            </Position>
            <AltitudeMeters>167</AltitudeMeters>
            <DistanceMeters>1428.1607142083</DistanceMeters>
          </Trackpoint>
          <Trackpoint>
            <Time>2021-03-21T12:36:01.000Z</Time>
            <Position>
              <LatitudeDegrees>36.72861817292869091033935546875</LatitudeDegrees>
              <LongitudeDegrees>-5.4642905853688716888427734375</LongitudeDegrees>
            </Position>
            <AltitudeMeters>167.600006103515625</AltitudeMeters>
            <DistanceMeters>1432.2556930796</DistanceMeters>
          </Trackpoint>
          <Trackpoint>
            <Time>2021-03-21T12:36:09.000Z</Time>
            <Position>
              <LatitudeDegrees>36.728590764105319976806640625</LatitudeDegrees>
              <LongitudeDegrees>-5.4643368534743785858154296875</LongitudeDegrees>
            </Position>
            <AltitudeMeters>168.600006103515625</AltitudeMeters>
            <DistanceMeters>1437.3888951079</DistanceMeters>
          </Trackpoint>
          <Trackpoint>
            <Time>2021-03-21T12:36:10.000Z</Time>
            <Position>
              <LatitudeDegrees>36.72858632169663906097412109375</LatitudeDegrees>
              <LongitudeDegrees>-5.46434179879724979400634765625</LongitudeDegrees>
            </Position>
            <AltitudeMeters>168.8000030517578125</AltitudeMeters>
            <DistanceMeters>1438.0540821085</DistanceMeters>
          </Trackpoint>
          <Trackpoint>
            <Time>2021-03-21T12:36:20.000Z</Time>
            <Position>
              <LatitudeDegrees>36.72854893840849399566650390625</LatitudeDegrees>
              <LongitudeDegrees>-5.46440768055617809295654296875</LongitudeDegrees>
            </Position>
            <AltitudeMeters>170.1999969482421875</AltitudeMeters>
            <DistanceMeters>1445.2548250522</DistanceMeters>
          </Trackpoint>
          <Trackpoint>
            <Time>2021-03-21T12:36:27.000Z</Time>
            <Position>
              <LatitudeDegrees>36.7285185120999813079833984375</LatitudeDegrees>
              <LongitudeDegrees>-5.4644518531858921051025390625</LongitudeDegrees>
            </Position>
            <AltitudeMeters>170.600006103515625</AltitudeMeters>
            <DistanceMeters>1450.4509706013</DistanceMeters>
          </Trackpoint>
          <Trackpoint>
            <Time>2021-03-21T12:36:42.000Z</Time>
            <Position>
              <LatitudeDegrees>36.728429831564426422119140625</LatitudeDegrees>
              <LongitudeDegrees>-5.46455570496618747711181640625</LongitudeDegrees>
            </Position>
            <AltitudeMeters>171.1999969482421875</AltitudeMeters>
            <DistanceMeters>1463.9875252295</DistanceMeters>
          </Trackpoint>
          <Trackpoint>
            <Time>2021-03-21T12:36:49.000Z</Time>
            <Position>
              <LatitudeDegrees>36.72843712382018566131591796875</LatitudeDegrees>
              <LongitudeDegrees>-5.4646050743758678436279296875</LongitudeDegrees>
            </Position>
            <AltitudeMeters>172.399993896484375</AltitudeMeters>
            <DistanceMeters>1468.4669035188</DistanceMeters>
          </Trackpoint>
          <Trackpoint>
            <Time>2021-03-21T12:36:55.000Z</Time>
            <Position>
              <LatitudeDegrees>36.728427149355411529541015625</LatitudeDegrees>
              <LongitudeDegrees>-5.46463499777019023895263671875</LongitudeDegrees>
            </Position>
            <AltitudeMeters>173.399993896484375</AltitudeMeters>
            <DistanceMeters>1471.3585900141</DistanceMeters>
          </Trackpoint>
          <Trackpoint>
            <Time>2021-03-21T12:37:01.000Z</Time>
            <Position>
              <LatitudeDegrees>36.72841885127127170562744140625</LatitudeDegrees>
              <LongitudeDegrees>-5.46468294225633144378662109375</LongitudeDegrees>
            </Position>
            <AltitudeMeters>174.399993896484375</AltitudeMeters>
            <DistanceMeters>1475.7339485206</DistanceMeters>
          </Trackpoint>
          <Trackpoint>
            <Time>2021-03-21T12:37:04.000Z</Time>
            <Position>
              <LatitudeDegrees>36.72840460203588008880615234375</LatitudeDegrees>
              <LongitudeDegrees>-5.46470842324197292327880859375</LongitudeDegrees>
            </Position>
            <AltitudeMeters>174.600006103515625</AltitudeMeters>
            <DistanceMeters>1478.5044295217</DistanceMeters>
          </Trackpoint>
          <Trackpoint>
            <Time>2021-03-21T12:37:10.000Z</Time>
            <Position>
              <LatitudeDegrees>36.72837425954639911651611328125</LatitudeDegrees>
              <LongitudeDegrees>-5.46475754119455814361572265625</LongitudeDegrees>
            </Position>
            <AltitudeMeters>175.600006103515625</AltitudeMeters>
            <DistanceMeters>1484.0364209415</DistanceMeters>
          </Trackpoint>
          <Trackpoint>
            <Time>2021-03-21T12:37:26.000Z</Time>
            <Position>
              <LatitudeDegrees>36.72831608913838863372802734375</LatitudeDegrees>
              <LongitudeDegrees>-5.4648132808506488800048828125</LongitudeDegrees>
            </Position>
            <AltitudeMeters>176.600006103515625</AltitudeMeters>
            <DistanceMeters>1492.199873897</DistanceMeters>
          </Trackpoint>
          <Trackpoint>
            <Time>2021-03-21T12:37:37.000Z</Time>
            <Position>
              <LatitudeDegrees>36.72828423790633678436279296875</LatitudeDegrees>
              <LongitudeDegrees>-5.4648675955832004547119140625</LongitudeDegrees>
            </Position>
            <AltitudeMeters>177.8000030517578125</AltitudeMeters>
            <DistanceMeters>1498.2031259397</DistanceMeters>
          </Trackpoint>
          <Trackpoint>
            <Time>2021-03-21T12:37:42.000Z</Time>
            <Position>
              <LatitudeDegrees>36.72826512716710567474365234375</LatitudeDegrees>
              <LongitudeDegrees>-5.464899279177188873291015625</LongitudeDegrees>
            </Position>
            <AltitudeMeters>179</AltitudeMeters>
            <DistanceMeters>1501.7408774786</DistanceMeters>
          </Trackpoint>
          <Trackpoint>
            <Time>2021-03-21T12:37:50.000Z</Time>
            <Position>
              <LatitudeDegrees>36.72825925983488559722900390625</LatitudeDegrees>
              <LongitudeDegrees>-5.4649520851671695709228515625</LongitudeDegrees>
            </Position>
            <AltitudeMeters>180.1999969482421875</AltitudeMeters>
            <DistanceMeters>1506.4960127465</DistanceMeters>
          </Trackpoint>
          <Trackpoint>
            <Time>2021-03-21T12:37:54.000Z</Time>
            <Position>
              <LatitudeDegrees>36.72825406305491924285888671875</LatitudeDegrees>
              <LongitudeDegrees>-5.46496759168803691864013671875</LongitudeDegrees>
            </Position>
            <AltitudeMeters>181.399993896484375</AltitudeMeters>
            <DistanceMeters>1507.9924949409</DistanceMeters>
          </Trackpoint>
          <Trackpoint>
            <Time>2021-03-21T12:38:09.000Z</Time>
            <Position>
              <LatitudeDegrees>36.7282298393547534942626953125</LatitudeDegrees>
              <LongitudeDegrees>-5.46496960334479808807373046875</LongitudeDegrees>
            </Position>
            <AltitudeMeters>182.600006103515625</AltitudeMeters>
            <DistanceMeters>1510.6936616826</DistanceMeters>
          </Trackpoint>
          <Trackpoint>
            <Time>2021-03-21T12:38:25.000Z</Time>
            <Position>
              <LatitudeDegrees>36.72822120599448680877685546875</LatitudeDegrees>
              <LongitudeDegrees>-5.46494663693010807037353515625</LongitudeDegrees>
            </Position>
            <AltitudeMeters>183.600006103515625</AltitudeMeters>
            <DistanceMeters>1512.9544189158</DistanceMeters>
          </Trackpoint>
          <Trackpoint>
            <Time>2021-03-21T12:38:40.000Z</Time>
            <Position>
              <LatitudeDegrees>36.72822556458413600921630859375</LatitudeDegrees>
              <LongitudeDegrees>-5.46494328416883945465087890625</LongitudeDegrees>
            </Position>
            <AltitudeMeters>182.600006103515625</AltitudeMeters>
            <DistanceMeters>1513.524579202</DistanceMeters>
          </Trackpoint>
          <Trackpoint>
            <Time>2021-03-21T12:38:41.000Z</Time>
            <Position>
              <LatitudeDegrees>36.72822372056543827056884765625</LatitudeDegrees>
              <LongitudeDegrees>-5.46494110487401485443115234375</LongitudeDegrees>
            </Position>
            <AltitudeMeters>182.600006103515625</AltitudeMeters>
            <DistanceMeters>1513.8250800579</DistanceMeters>
          </Trackpoint>
          <Trackpoint>
            <Time>2021-03-21T12:38:44.000Z</Time>
            <Position>
              <LatitudeDegrees>36.72821433283388614654541015625</LatitudeDegrees>
              <LongitudeDegrees>-5.46492836438119411468505859375</LongitudeDegrees>
            </Position>
            <AltitudeMeters>182.399993896484375</AltitudeMeters>
            <DistanceMeters>1515.369081412</DistanceMeters>
          </Trackpoint>
          <Trackpoint>
            <Time>2021-03-21T12:38:46.000Z</Time>
            <Position>
              <LatitudeDegrees>36.72821366228163242340087890625</LatitudeDegrees>
              <LongitudeDegrees>-5.46492517925798892974853515625</LongitudeDegrees>
            </Position>
            <AltitudeMeters>182.600006103515625</AltitudeMeters>
            <DistanceMeters>1515.6695822679</DistanceMeters>
          </Trackpoint>
          <Trackpoint>
            <Time>2021-03-21T12:38:48.000Z</Time>
            <Position>
              <LatitudeDegrees>36.72821081243455410003662109375</LatitudeDegrees>
              <LongitudeDegrees>-5.4649282805621623992919921875</LongitudeDegrees>
            </Position>
            <AltitudeMeters>182.600006103515625</AltitudeMeters>
            <DistanceMeters>1516.094554654</DistanceMeters>
          </Trackpoint>
          <Trackpoint>
            <Time>2021-03-21T12:38:50.000Z</Time>
            <Position>
              <LatitudeDegrees>36.72821098007261753082275390625</LatitudeDegrees>
              <LongitudeDegrees>-5.46492836438119411468505859375</LongitudeDegrees>
            </Position>
            <AltitudeMeters>182.399993896484375</AltitudeMeters>
            <DistanceMeters>1516.094554654</DistanceMeters>
          </Trackpoint>
          <Trackpoint>
            <Time>2021-03-21T12:38:54.000Z</Time>
            <Position>
              <LatitudeDegrees>36.72821718268096446990966796875</LatitudeDegrees>
              <LongitudeDegrees>-5.46492920257151126861572265625</LongitudeDegrees>
            </Position>
            <AltitudeMeters>182.8000030517578125</AltitudeMeters>
            <DistanceMeters>1516.786359577</DistanceMeters>
          </Trackpoint>
          <Trackpoint>
            <Time>2021-03-21T12:39:04.000Z</Time>
            <Position>
              <LatitudeDegrees>36.72823092900216579437255859375</LatitudeDegrees>
              <LongitudeDegrees>-5.46495384536683559417724609375</LongitudeDegrees>
            </Position>
            <AltitudeMeters>183</AltitudeMeters>
            <DistanceMeters>1519.4640228673</DistanceMeters>
          </Trackpoint>
          <Trackpoint>
            <Time>2021-03-21T12:39:11.000Z</Time>
            <Position>
              <LatitudeDegrees>36.72822841443121433258056640625</LatitudeDegrees>
              <LongitudeDegrees>-5.46496071852743625640869140625</LongitudeDegrees>
            </Position>
            <AltitudeMeters>183</AltitudeMeters>
            <DistanceMeters>1520.1359632086</DistanceMeters>
          </Trackpoint>
          <Trackpoint>
            <Time>2021-03-21T12:39:13.000Z</Time>
            <Position>
              <LatitudeDegrees>36.7282284982502460479736328125</LatitudeDegrees>
              <LongitudeDegrees>-5.46496306546032428741455078125</LongitudeDegrees>
            </Position>
            <AltitudeMeters>183</AltitudeMeters>
            <DistanceMeters>1520.3484494016</DistanceMeters>
          </Trackpoint>
          <Trackpoint>
            <Time>2021-03-21T12:39:14.000Z</Time>
            <Position>
              <LatitudeDegrees>36.72822657041251659393310546875</LatitudeDegrees>
              <LongitudeDegrees>-5.46496398746967315673828125</LongitudeDegrees>
            </Position>
            <AltitudeMeters>183</AltitudeMeters>
            <DistanceMeters>1520.5812163637</DistanceMeters>
          </Trackpoint>
          <Trackpoint>
            <Time>2021-03-21T12:39:25.000Z</Time>
            <Position>
              <LatitudeDegrees>36.7282214574515819549560546875</LatitudeDegrees>
              <LongitudeDegrees>-5.46496742404997348785400390625</LongitudeDegrees>
            </Position>
            <AltitudeMeters>183.600006103515625</AltitudeMeters>
            <DistanceMeters>1521.2257188978</DistanceMeters>
          </Trackpoint>
          <Trackpoint>
            <Time>2021-03-21T12:39:43.000Z</Time>
            <Position>
              <LatitudeDegrees>36.72817845828831195831298828125</LatitudeDegrees>
              <LongitudeDegrees>-5.46499022282660007476806640625</LongitudeDegrees>
            </Position>
            <AltitudeMeters>184.1999969482421875</AltitudeMeters>
            <DistanceMeters>1526.4262072354</DistanceMeters>
          </Trackpoint>
          <Trackpoint>
            <Time>2021-03-21T12:40:07.000Z</Time>
            <Position>
              <LatitudeDegrees>36.728202514350414276123046875</LatitudeDegrees>
              <LongitudeDegrees>-5.464950241148471832275390625</LongitudeDegrees>
            </Position>
            <AltitudeMeters>183.8000030517578125</AltitudeMeters>
            <DistanceMeters>1530.8853807384</DistanceMeters>
          </Trackpoint>
          <Trackpoint>
            <Time>2021-03-21T12:40:21.000Z</Time>
            <Position>
              <LatitudeDegrees>36.72820209525525569915771484375</LatitudeDegrees>
              <LongitudeDegrees>-5.464983768761157989501953125</LongitudeDegrees>
            </Position>
            <AltitudeMeters>183.600006103515625</AltitudeMeters>
            <DistanceMeters>1533.8783451272</DistanceMeters>
          </Trackpoint>
          <Trackpoint>
            <Time>2021-03-21T12:40:22.000Z</Time>
            <Position>
              <LatitudeDegrees>36.728205867111682891845703125</LatitudeDegrees>
              <LongitudeDegrees>-5.46498066745698451995849609375</LongitudeDegrees>
            </Position>
            <AltitudeMeters>183.600006103515625</AltitudeMeters>
            <DistanceMeters>1534.3811792354</DistanceMeters>
          </Trackpoint>
          <Trackpoint>
            <Time>2021-03-21T12:40:23.000Z</Time>
            <Position>
              <LatitudeDegrees>36.728210560977458953857421875</LatitudeDegrees>
              <LongitudeDegrees>-5.46497739851474761962890625</LongitudeDegrees>
            </Position>
            <AltitudeMeters>183.600006103515625</AltitudeMeters>
            <DistanceMeters>1534.9821809474</DistanceMeters>
          </Trackpoint>
          <Trackpoint>
            <Time>2021-03-21T12:40:27.000Z</Time>
            <Position>
              <LatitudeDegrees>36.72822807915508747100830078125</LatitudeDegrees>
              <LongitudeDegrees>-5.4649792425334453582763671875</LongitudeDegrees>
            </Position>
            <AltitudeMeters>183.600006103515625</AltitudeMeters>
            <DistanceMeters>1536.9389007567</DistanceMeters>
          </Trackpoint>
          <Trackpoint>
            <Time>2021-03-21T12:40:32.000Z</Time>
            <Position>
              <LatitudeDegrees>36.7282325215637683868408203125</LatitudeDegrees>
              <LongitudeDegrees>-5.464986450970172882080078125</LongitudeDegrees>
            </Position>
            <AltitudeMeters>184</AltitudeMeters>
            <DistanceMeters>1537.7508093602</DistanceMeters>
          </Trackpoint>
          <Trackpoint>
            <Time>2021-03-21T12:40:38.000Z</Time>
            <Position>
              <LatitudeDegrees>36.72822422347962856292724609375</LatitudeDegrees>
              <LongitudeDegrees>-5.46498351730406284332275390625</LongitudeDegrees>
            </Position>
            <AltitudeMeters>184</AltitudeMeters>
            <DistanceMeters>1538.7198955019</DistanceMeters>
          </Trackpoint>
          <Trackpoint>
            <Time>2021-03-21T12:40:41.000Z</Time>
            <Position>
              <LatitudeDegrees>36.72822539694607257843017578125</LatitudeDegrees>
              <LongitudeDegrees>-5.46498267911374568939208984375</LongitudeDegrees>
            </Position>
            <AltitudeMeters>184</AltitudeMeters>
            <DistanceMeters>1538.9099489307</DistanceMeters>
          </Trackpoint>
          <Trackpoint>
            <Time>2021-03-21T12:40:42.000Z</Time>
            <Position>
              <LatitudeDegrees>36.72822305001318454742431640625</LatitudeDegrees>
              <LongitudeDegrees>-5.46498217619955539703369140625</LongitudeDegrees>
            </Position>
            <AltitudeMeters>184.1999969482421875</AltitudeMeters>
            <DistanceMeters>1539.1613659848</DistanceMeters>
          </Trackpoint>
          <Trackpoint>
            <Time>2021-03-21T12:40:46.000Z</Time>
            <Position>
              <LatitudeDegrees>36.728202514350414276123046875</LatitudeDegrees>
              <LongitudeDegrees>-5.464989803731441497802734375</LongitudeDegrees>
            </Position>
            <AltitudeMeters>184.1999969482421875</AltitudeMeters>
            <DistanceMeters>1541.5465175858</DistanceMeters>
          </Trackpoint>
          <Trackpoint>
            <Time>2021-03-21T12:40:47.000Z</Time>
            <Position>
              <LatitudeDegrees>36.72819907777011394500732421875</LatitudeDegrees>
              <LongitudeDegrees>-5.46499039046466350555419921875</LongitudeDegrees>
            </Position>
            <AltitudeMeters>184.1999969482421875</AltitudeMeters>
            <DistanceMeters>1541.9266244433</DistanceMeters>
          </Trackpoint>
          <Trackpoint>
            <Time>2021-03-21T12:40:48.000Z</Time>
            <Position>
              <LatitudeDegrees>36.72819522209465503692626953125</LatitudeDegrees>
              <LongitudeDegrees>-5.46498871408402919769287109375</LongitudeDegrees>
            </Position>
            <AltitudeMeters>184.1999969482421875</AltitudeMeters>
            <DistanceMeters>1542.3921583676</DistanceMeters>
          </Trackpoint>
          <Trackpoint>
            <Time>2021-03-21T12:40:50.000Z</Time>
            <Position>
              <LatitudeDegrees>36.72818700782954692840576171875</LatitudeDegrees>
              <LongitudeDegrees>-5.464999191462993621826171875</LongitudeDegrees>
            </Position>
            <AltitudeMeters>184.1999969482421875</AltitudeMeters>
            <DistanceMeters>1543.7020112312</DistanceMeters>
          </Trackpoint>
          <Trackpoint>
            <Time>2021-03-21T12:40:56.000Z</Time>
            <Position>
              <LatitudeDegrees>36.72816571779549121856689453125</LatitudeDegrees>
              <LongitudeDegrees>-5.465005226433277130126953125</LongitudeDegrees>
            </Position>
            <AltitudeMeters>184.600006103515625</AltitudeMeters>
            <DistanceMeters>1546.130311031</DistanceMeters>
          </Trackpoint>
          <Trackpoint>
            <Time>2021-03-21T12:41:09.000Z</Time>
            <Position>
              <LatitudeDegrees>36.72812028788030147552490234375</LatitudeDegrees>
              <LongitudeDegrees>-5.465066917240619659423828125</LongitudeDegrees>
            </Position>
            <AltitudeMeters>185.8000030517578125</AltitudeMeters>
            <DistanceMeters>1553.6030610422</DistanceMeters>
          </Trackpoint>
          <Trackpoint>
            <Time>2021-03-21T12:41:13.000Z</Time>
            <Position>
              <LatitudeDegrees>36.72810637392103672027587890625</LatitudeDegrees>
              <LongitudeDegrees>-5.465091727674007415771484375</LongitudeDegrees>
            </Position>
            <AltitudeMeters>186.8000030517578125</AltitudeMeters>
            <DistanceMeters>1556.3042277839</DistanceMeters>
          </Trackpoint>
          <Trackpoint>
            <Time>2021-03-21T12:41:23.000Z</Time>
            <Position>
              <LatitudeDegrees>36.72809162177145481109619140625</LatitudeDegrees>
              <LongitudeDegrees>-5.46516112983226776123046875</LongitudeDegrees>
            </Position>
            <AltitudeMeters>187.8000030517578125</AltitudeMeters>
            <DistanceMeters>1562.7099024058</DistanceMeters>
          </Trackpoint>
          <Trackpoint>
            <Time>2021-03-21T12:41:33.000Z</Time>
            <Position>
              <LatitudeDegrees>36.72805172391235828399658203125</LatitudeDegrees>
              <LongitudeDegrees>-5.4652082361280918121337890625</LongitudeDegrees>
            </Position>
            <AltitudeMeters>188.8000030517578125</AltitudeMeters>
            <DistanceMeters>1568.8234518169</DistanceMeters>
          </Trackpoint>
          <Trackpoint>
            <Time>2021-03-21T12:41:42.000Z</Time>
            <Position>
              <LatitudeDegrees>36.7279901169240474700927734375</LatitudeDegrees>
              <LongitudeDegrees>-5.46521452255547046661376953125</LongitudeDegrees>
            </Position>
            <AltitudeMeters>189.8000030517578125</AltitudeMeters>
            <DistanceMeters>1575.7035434383</DistanceMeters>
          </Trackpoint>
          <Trackpoint>
            <Time>2021-03-21T12:41:48.000Z</Time>
            <Position>
              <LatitudeDegrees>36.7279368080198764801025390625</LatitudeDegrees>
              <LongitudeDegrees>-5.4652253352105617523193359375</LongitudeDegrees>
            </Position>
            <AltitudeMeters>189.8000030517578125</AltitudeMeters>
            <DistanceMeters>1581.7150628742</DistanceMeters>
          </Trackpoint>
          <Trackpoint>
            <Time>2021-03-21T12:42:26.000Z</Time>
            <Position>
              <LatitudeDegrees>36.7277809046208858489990234375</LatitudeDegrees>
              <LongitudeDegrees>-5.46520899049937725067138671875</LongitudeDegrees>
            </Position>
            <AltitudeMeters>190</AltitudeMeters>
            <DistanceMeters>1599.128562436</DistanceMeters>
          </Trackpoint>
          <Trackpoint>
            <Time>2021-03-21T13:53:36.000Z</Time>
            <Position>
              <LatitudeDegrees>36.72814291901886463165283203125</LatitudeDegrees>
              <LongitudeDegrees>-5.46536606736481189727783203125</LongitudeDegrees>
            </Position>
            <AltitudeMeters>469.600006103515625</AltitudeMeters>
            <DistanceMeters>1641.7883607945</DistanceMeters>
          </Trackpoint>
          <Trackpoint>
            <Time>2021-03-21T13:53:42.000Z</Time>
            <Position>
              <LatitudeDegrees>36.72816605307161808013916015625</LatitudeDegrees>
              <LongitudeDegrees>-5.46539909206330776214599609375</LongitudeDegrees>
            </Position>
            <AltitudeMeters>470.20001220703125</AltitudeMeters>
            <DistanceMeters>1645.7006465168</DistanceMeters>
          </Trackpoint>
          <Trackpoint>
            <Time>2021-03-21T13:54:00.000Z</Time>
            <Position>
              <LatitudeDegrees>36.7280658893287181854248046875</LatitudeDegrees>
              <LongitudeDegrees>-5.46551442705094814300537109375</LongitudeDegrees>
            </Position>
            <AltitudeMeters>471.20001220703125</AltitudeMeters>
            <DistanceMeters>1660.8713273956</DistanceMeters>
          </Trackpoint>
          <Trackpoint>
            <Time>2021-03-21T13:54:02.000Z</Time>
            <Position>
              <LatitudeDegrees>36.72806597314774990081787109375</LatitudeDegrees>
              <LongitudeDegrees>-5.46553186140954494476318359375</LongitudeDegrees>
            </Position>
            <AltitudeMeters>471.399993896484375</AltitudeMeters>
            <DistanceMeters>1662.4269817553</DistanceMeters>
          </Trackpoint>
          <Trackpoint>
            <Time>2021-03-21T13:54:04.000Z</Time>
            <Position>
              <LatitudeDegrees>36.7280655540525913238525390625</LatitudeDegrees>
              <LongitudeDegrees>-5.46554124914109706878662109375</LongitudeDegrees>
            </Position>
            <AltitudeMeters>471.600006103515625</AltitudeMeters>
            <DistanceMeters>1663.2662349726</DistanceMeters>
          </Trackpoint>
          <Trackpoint>
            <Time>2021-03-21T13:54:10.000Z</Time>
            <Position>
              <LatitudeDegrees>36.72805868089199066162109375</LatitudeDegrees>
              <LongitudeDegrees>-5.46557896770536899566650390625</LongitudeDegrees>
            </Position>
            <AltitudeMeters>472</AltitudeMeters>
            <DistanceMeters>1666.7161104418</DistanceMeters>
          </Trackpoint>
          <Trackpoint>
            <Time>2021-03-21T13:54:12.000Z</Time>
            <Position>
              <LatitudeDegrees>36.72805541194975376129150390625</LatitudeDegrees>
              <LongitudeDegrees>-5.46559304930269718170166015625</LongitudeDegrees>
            </Position>
            <AltitudeMeters>472.20001220703125</AltitudeMeters>
            <DistanceMeters>1668.0259633054</DistanceMeters>
          </Trackpoint>
          <Trackpoint>
            <Time>2021-03-21T13:54:15.000Z</Time>
            <Position>
              <LatitudeDegrees>36.7280477844178676605224609375</LatitudeDegrees>
              <LongitudeDegrees>-5.46562104485929012298583984375</LongitudeDegrees>
            </Position>
            <AltitudeMeters>472.399993896484375</AltitudeMeters>
            <DistanceMeters>1670.6628476149</DistanceMeters>
          </Trackpoint>
          <Trackpoint>
            <Time>2021-03-21T13:54:17.000Z</Time>
            <Position>
              <LatitudeDegrees>36.72804099507629871368408203125</LatitudeDegrees>
              <LongitudeDegrees>-5.46564124524593353271484375</LongitudeDegrees>
            </Position>
            <AltitudeMeters>472.399993896484375</AltitudeMeters>
            <DistanceMeters>1672.6172586095</DistanceMeters>
          </Trackpoint>
          <Trackpoint>
            <Time>2021-03-21T13:54:18.000Z</Time>
            <Position>
              <LatitudeDegrees>36.72803948633372783660888671875</LatitudeDegrees>
              <LongitudeDegrees>-5.46565155498683452606201171875</LongitudeDegrees>
            </Position>
            <AltitudeMeters>472.600006103515625</AltitudeMeters>
            <DistanceMeters>1673.5579750873</DistanceMeters>
          </Trackpoint>
          <Trackpoint>
            <Time>2021-03-21T13:54:22.000Z</Time>
            <Position>
              <LatitudeDegrees>36.728034876286983489990234375</LatitudeDegrees>
              <LongitudeDegrees>-5.4656937159597873687744140625</LongitudeDegrees>
            </Position>
            <AltitudeMeters>472.79998779296875</AltitudeMeters>
            <DistanceMeters>1677.3542893531</DistanceMeters>
          </Trackpoint>
          <Trackpoint>
            <Time>2021-03-21T13:54:23.000Z</Time>
            <Position>
              <LatitudeDegrees>36.72803915105760097503662109375</LatitudeDegrees>
              <LongitudeDegrees>-5.46570285223424434661865234375</LongitudeDegrees>
            </Position>
            <AltitudeMeters>472.79998779296875</AltitudeMeters>
            <DistanceMeters>1678.3045564968</DistanceMeters>
          </Trackpoint>
          <Trackpoint>
            <Time>2021-03-21T13:54:24.000Z</Time>
            <Position>
              <LatitudeDegrees>36.728039570152759552001953125</LatitudeDegrees>
              <LongitudeDegrees>-5.4657077975571155548095703125</LongitudeDegrees>
            </Position>
            <AltitudeMeters>472.79998779296875</AltitudeMeters>
            <DistanceMeters>1678.7502712954</DistanceMeters>
          </Trackpoint>
          <Trackpoint>
            <Time>2021-03-21T13:54:27.000Z</Time>
            <Position>
              <LatitudeDegrees>36.72804082743823528289794921875</LatitudeDegrees>
              <LongitudeDegrees>-5.46571542508900165557861328125</LongitudeDegrees>
            </Position>
            <AltitudeMeters>472.79998779296875</AltitudeMeters>
            <DistanceMeters>1679.4485721819</DistanceMeters>
          </Trackpoint>
          <Trackpoint>
            <Time>2021-03-21T13:54:28.000Z</Time>
            <Position>
              <LatitudeDegrees>36.72804116271436214447021484375</LatitudeDegrees>
              <LongitudeDegrees>-5.46571726910769939422607421875</LongitudeDegrees>
            </Position>
            <AltitudeMeters>472.79998779296875</AltitudeMeters>
            <DistanceMeters>1679.6386256106</DistanceMeters>
          </Trackpoint>
          <Trackpoint>
            <Time>2021-03-21T13:54:34.000Z</Time>
            <Position>
              <LatitudeDegrees>36.72803764231503009796142578125</LatitudeDegrees>
              <LongitudeDegrees>-5.46573118306696414947509765625</LongitudeDegrees>
            </Position>
            <AltitudeMeters>472.600006103515625</AltitudeMeters>
            <DistanceMeters>1680.9415662737</DistanceMeters>
          </Trackpoint>
          <Trackpoint>
            <Time>2021-03-21T13:54:35.000Z</Time>
            <Position>
              <LatitudeDegrees>36.7280380614101886749267578125</LatitudeDegrees>
              <LongitudeDegrees>-5.46573503874242305755615234375</LongitudeDegrees>
            </Position>
            <AltitudeMeters>472.79998779296875</AltitudeMeters>
            <DistanceMeters>1681.2707484684</DistanceMeters>
          </Trackpoint>
          <Trackpoint>
            <Time>2021-03-21T13:54:36.000Z</Time>
            <Position>
              <LatitudeDegrees>36.72803780995309352874755859375</LatitudeDegrees>
              <LongitudeDegrees>-5.46573570929467678070068359375</LongitudeDegrees>
            </Position>
            <AltitudeMeters>472.79998779296875</AltitudeMeters>
            <DistanceMeters>1681.2707484684</DistanceMeters>
          </Trackpoint>
          <Trackpoint>
            <Time>2021-03-21T13:54:37.000Z</Time>
            <Position>
              <LatitudeDegrees>36.7280367203056812286376953125</LatitudeDegrees>
              <LongitudeDegrees>-5.46573738567531108856201171875</LongitudeDegrees>
            </Position>
            <AltitudeMeters>472.79998779296875</AltitudeMeters>
            <DistanceMeters>1681.4608018971</DistanceMeters>
          </Trackpoint>
          <Trackpoint>
            <Time>2021-03-21T13:54:39.000Z</Time>
            <Position>
              <LatitudeDegrees>36.7280338704586029052734375</LatitudeDegrees>
              <LongitudeDegrees>-5.4657398164272308349609375</LongitudeDegrees>
            </Position>
            <AltitudeMeters>472.79998779296875</AltitudeMeters>
            <DistanceMeters>1681.8409087546</DistanceMeters>
          </Trackpoint>
          <Trackpoint>
            <Time>2021-03-21T13:54:55.000Z</Time>
            <Position>
              <LatitudeDegrees>36.72804233618080615997314453125</LatitudeDegrees>
              <LongitudeDegrees>-5.46575280837714672088623046875</LongitudeDegrees>
            </Position>
            <AltitudeMeters>473</AltitudeMeters>
            <DistanceMeters>1683.337390949</DistanceMeters>
          </Trackpoint>
          <Trackpoint>
            <Time>2021-03-21T13:55:03.000Z</Time>
            <Position>
              <LatitudeDegrees>36.72803143970668315887451171875</LatitudeDegrees>
              <LongitudeDegrees>-5.46577611006796360015869140625</LongitudeDegrees>
            </Position>
            <AltitudeMeters>472.79998779296875</AltitudeMeters>
            <DistanceMeters>1685.7451511275</DistanceMeters>
          </Trackpoint>
          <Trackpoint>
            <Time>2021-03-21T13:55:13.000Z</Time>
            <Position>
              <LatitudeDegrees>36.72799640335142612457275390625</LatitudeDegrees>
              <LongitudeDegrees>-5.46584031544625759124755859375</LongitudeDegrees>
            </Position>
            <AltitudeMeters>472</AltitudeMeters>
            <DistanceMeters>1692.674938031</DistanceMeters>
          </Trackpoint>
          <Trackpoint>
            <Time>2021-03-21T13:55:16.000Z</Time>
            <Position>
              <LatitudeDegrees>36.72799740917980670928955078125</LatitudeDegrees>
              <LongitudeDegrees>-5.46584299765527248382568359375</LongitudeDegrees>
            </Position>
            <AltitudeMeters>472</AltitudeMeters>
            <DistanceMeters>1692.9437141675</DistanceMeters>
          </Trackpoint>
          <Trackpoint>
            <Time>2021-03-21T13:55:17.000Z</Time>
            <Position>
              <LatitudeDegrees>36.7279968224465847015380859375</LatitudeDegrees>
              <LongitudeDegrees>-5.46584215946495532989501953125</LongitudeDegrees>
            </Position>
            <AltitudeMeters>472</AltitudeMeters>
            <DistanceMeters>1693.0781022358</DistanceMeters>
          </Trackpoint>
          <Trackpoint>
            <Time>2021-03-21T13:55:18.000Z</Time>
            <Position>
              <LatitudeDegrees>36.727995984256267547607421875</LatitudeDegrees>
              <LongitudeDegrees>-5.46584132127463817596435546875</LongitudeDegrees>
            </Position>
            <AltitudeMeters>472</AltitudeMeters>
            <DistanceMeters>1693.212490304</DistanceMeters>
          </Trackpoint>
          <Trackpoint>
            <Time>2021-03-21T13:55:25.000Z</Time>
            <Position>
              <LatitudeDegrees>36.72798299230635166168212890625</LatitudeDegrees>
              <LongitudeDegrees>-5.46587149612605571746826171875</LongitudeDegrees>
            </Position>
            <AltitudeMeters>471.600006103515625</AltitudeMeters>
            <DistanceMeters>1696.2666790616</DistanceMeters>
          </Trackpoint>
          <Trackpoint>
            <Time>2021-03-21T13:55:31.000Z</Time>
            <Position>
              <LatitudeDegrees>36.727977208793163299560546875</LatitudeDegrees>
              <LongitudeDegrees>-5.4659176804125308990478515625</LongitudeDegrees>
            </Position>
            <AltitudeMeters>471.600006103515625</AltitudeMeters>
            <DistanceMeters>1700.4370420231</DistanceMeters>
          </Trackpoint>
          <Trackpoint>
            <Time>2021-03-21T13:55:32.000Z</Time>
            <Position>
              <LatitudeDegrees>36.7279767058789730072021484375</LatitudeDegrees>
              <LongitudeDegrees>-5.465925224125385284423828125</LongitudeDegrees>
            </Position>
            <AltitudeMeters>471.600006103515625</AltitudeMeters>
            <DistanceMeters>1701.1089823644</DistanceMeters>
          </Trackpoint>
          <Trackpoint>
            <Time>2021-03-21T13:55:34.000Z</Time>
            <Position>
              <LatitudeDegrees>36.72798014245927333831787109375</LatitudeDegrees>
              <LongitudeDegrees>-5.46594441868364810943603515625</LongitudeDegrees>
            </Position>
            <AltitudeMeters>471.600006103515625</AltitudeMeters>
            <DistanceMeters>1702.8611883999</DistanceMeters>
          </Trackpoint>
          <Trackpoint>
            <Time>2021-03-21T13:55:35.000Z</Time>
            <Position>
              <LatitudeDegrees>36.72798098064959049224853515625</LatitudeDegrees>
              <LongitudeDegrees>-5.4659542255103588104248046875</LongitudeDegrees>
            </Position>
            <AltitudeMeters>471.600006103515625</AltitudeMeters>
            <DistanceMeters>1703.7424298958</DistanceMeters>
          </Trackpoint>
          <Trackpoint>
            <Time>2021-03-21T13:55:37.000Z</Time>
            <Position>
              <LatitudeDegrees>36.727983914315700531005859375</LatitudeDegrees>
              <LongitudeDegrees>-5.465972833335399627685546875</LongitudeDegrees>
            </Position>
            <AltitudeMeters>471.600006103515625</AltitudeMeters>
            <DistanceMeters>1705.4316617202</DistanceMeters>
          </Trackpoint>
          <Trackpoint>
            <Time>2021-03-21T13:55:40.000Z</Time>
            <Position>
              <LatitudeDegrees>36.72798902727663516998291015625</LatitudeDegrees>
              <LongitudeDegrees>-5.465994961559772491455078125</LongitudeDegrees>
            </Position>
            <AltitudeMeters>471.399993896484375</AltitudeMeters>
            <DistanceMeters>1707.4830065529</DistanceMeters>
          </Trackpoint>
          <Trackpoint>
            <Time>2021-03-21T13:55:41.000Z</Time>
            <Position>
              <LatitudeDegrees>36.72798785381019115447998046875</LatitudeDegrees>
              <LongitudeDegrees>-5.46600074507296085357666015625</LongitudeDegrees>
            </Position>
            <AltitudeMeters>471.399993896484375</AltitudeMeters>
            <DistanceMeters>1708.0205588259</DistanceMeters>
          </Trackpoint>
          <Trackpoint>
            <Time>2021-03-21T13:56:08.000Z</Time>
            <Position>
              <LatitudeDegrees>36.727942340075969696044921875</LatitudeDegrees>
              <LongitudeDegrees>-5.46621431596577167510986328125</LongitudeDegrees>
            </Position>
            <AltitudeMeters>471.600006103515625</AltitudeMeters>
            <DistanceMeters>1727.7346517564</DistanceMeters>
          </Trackpoint>
          <Trackpoint>
            <Time>2021-03-21T13:56:26.000Z</Time>
            <Position>
              <LatitudeDegrees>36.7279723472893238067626953125</LatitudeDegrees>
              <LongitudeDegrees>-5.4663538746535778045654296875</LongitudeDegrees>
            </Position>
            <AltitudeMeters>471.399993896484375</AltitudeMeters>
            <DistanceMeters>1740.6250527061</DistanceMeters>
          </Trackpoint>
          <Trackpoint>
            <Time>2021-03-21T13:56:42.000Z</Time>
            <Position>
              <LatitudeDegrees>36.7280176095664501190185546875</LatitudeDegrees>
              <LongitudeDegrees>-5.466438867151737213134765625</LongitudeDegrees>
            </Position>
            <AltitudeMeters>472.399993896484375</AltitudeMeters>
            <DistanceMeters>1749.7282945202</DistanceMeters>
          </Trackpoint>
          <Trackpoint>
            <Time>2021-03-21T13:56:48.000Z</Time>
            <Position>
              <LatitudeDegrees>36.72801165841519832611083984375</LatitudeDegrees>
              <LongitudeDegrees>-5.466478765010833740234375</LongitudeDegrees>
            </Position>
            <AltitudeMeters>473.20001220703125</AltitudeMeters>
            <DistanceMeters>1753.3468039984</DistanceMeters>
          </Trackpoint>
          <Trackpoint>
            <Time>2021-03-21T13:56:55.000Z</Time>
            <Position>
              <LatitudeDegrees>36.72800193540751934051513671875</LatitudeDegrees>
              <LongitudeDegrees>-5.466509945690631866455078125</LongitudeDegrees>
            </Position>
            <AltitudeMeters>473.79998779296875</AltitudeMeters>
            <DistanceMeters>1756.3322161057</DistanceMeters>
          </Trackpoint>
          <Trackpoint>
            <Time>2021-03-21T13:57:01.000Z</Time>
            <Position>
              <LatitudeDegrees>36.7279998399317264556884765625</LatitudeDegrees>
              <LongitudeDegrees>-5.46651287935674190521240234375</LongitudeDegrees>
            </Position>
            <AltitudeMeters>474.20001220703125</AltitudeMeters>
            <DistanceMeters>1756.6877735135</DistanceMeters>
          </Trackpoint>
          <Trackpoint>
            <Time>2021-03-21T13:57:18.000Z</Time>
            <Position>
              <LatitudeDegrees>36.7280499637126922607421875</LatitudeDegrees>
              <LongitudeDegrees>-5.466512627899646759033203125</LongitudeDegrees>
            </Position>
            <AltitudeMeters>474.79998779296875</AltitudeMeters>
            <DistanceMeters>1762.2669018954</DistanceMeters>
          </Trackpoint>
          <Trackpoint>
            <Time>2021-03-21T13:57:22.000Z</Time>
            <Position>
              <LatitudeDegrees>36.72805826179683208465576171875</LatitudeDegrees>
              <LongitudeDegrees>-5.4665054194629192352294921875</LongitudeDegrees>
            </Position>
            <AltitudeMeters>475.399993896484375</AltitudeMeters>
            <DistanceMeters>1763.3912731429</DistanceMeters>
          </Trackpoint>
          <Trackpoint>
            <Time>2021-03-21T13:57:29.000Z</Time>
            <Position>
              <LatitudeDegrees>36.72809011302888393402099609375</LatitudeDegrees>
              <LongitudeDegrees>-5.46649309806525707244873046875</LongitudeDegrees>
            </Position>
            <AltitudeMeters>476.399993896484375</AltitudeMeters>
            <DistanceMeters>1767.1021849684</DistanceMeters>
          </Trackpoint>
          <Trackpoint>
            <Time>2021-03-21T13:57:35.000Z</Time>
            <Position>
              <LatitudeDegrees>36.72811358235776424407958984375</LatitudeDegrees>
              <LongitudeDegrees>-5.46648672781884670257568359375</LongitudeDegrees>
            </Position>
            <AltitudeMeters>477</AltitudeMeters>
            <DistanceMeters>1769.7747849137</DistanceMeters>
          </Trackpoint>
          <Trackpoint>
            <Time>2021-03-21T13:57:38.000Z</Time>
            <Position>
              <LatitudeDegrees>36.7281277477741241455078125</LatitudeDegrees>
              <LongitudeDegrees>-5.46647298149764537811279296875</LongitudeDegrees>
            </Position>
            <AltitudeMeters>477.20001220703125</AltitudeMeters>
            <DistanceMeters>1771.7703459154</DistanceMeters>
          </Trackpoint>
          <Trackpoint>
            <Time>2021-03-21T13:57:40.000Z</Time>
            <Position>
              <LatitudeDegrees>36.72813378274440765380859375</LatitudeDegrees>
              <LongitudeDegrees>-5.46646392904222011566162109375</LongitudeDegrees>
            </Position>
            <AltitudeMeters>477.600006103515625</AltitudeMeters>
            <DistanceMeters>1772.8199502819</DistanceMeters>
          </Trackpoint>
          <Trackpoint>
            <Time>2021-03-21T13:57:43.000Z</Time>
            <Position>
              <LatitudeDegrees>36.72814710997045040130615234375</LatitudeDegrees>
              <LongitudeDegrees>-5.46645118854939937591552734375</LongitudeDegrees>
            </Position>
            <AltitudeMeters>478.20001220703125</AltitudeMeters>
            <DistanceMeters>1774.6869289929</DistanceMeters>
          </Trackpoint>
          <Trackpoint>
            <Time>2021-03-21T13:57:48.000Z</Time>
            <Position>
              <LatitudeDegrees>36.72816856764256954193115234375</LatitudeDegrees>
              <LongitudeDegrees>-5.46642185188829898834228515625</LongitudeDegrees>
            </Position>
            <AltitudeMeters>478.600006103515625</AltitudeMeters>
            <DistanceMeters>1778.2297818345</DistanceMeters>
          </Trackpoint>
          <Trackpoint>
            <Time>2021-03-21T13:57:50.000Z</Time>
            <Position>
              <LatitudeDegrees>36.728178374469280242919921875</LatitudeDegrees>
              <LongitudeDegrees>-5.46640626154839992523193359375</LongitudeDegrees>
            </Position>
            <AltitudeMeters>479</AltitudeMeters>
            <DistanceMeters>1779.9973808981</DistanceMeters>
          </Trackpoint>
          <Trackpoint>
            <Time>2021-03-21T13:57:52.000Z</Time>
            <Position>
              <LatitudeDegrees>36.72818231396377086639404296875</LatitudeDegrees>
              <LongitudeDegrees>-5.46639184467494487762451171875</LongitudeDegrees>
            </Position>
            <AltitudeMeters>479.20001220703125</AltitudeMeters>
            <DistanceMeters>1781.3546338571</DistanceMeters>
          </Trackpoint>
          <Trackpoint>
            <Time>2021-03-21T13:57:53.000Z</Time>
            <Position>
              <LatitudeDegrees>36.728185079991817474365234375</LatitudeDegrees>
              <LongitudeDegrees>-5.4663823731243610382080078125</LongitudeDegrees>
            </Position>
            <AltitudeMeters>479.20001220703125</AltitudeMeters>
            <DistanceMeters>1782.2511140875</DistanceMeters>
          </Trackpoint>
          <Trackpoint>
            <Time>2021-03-21T13:57:54.000Z</Time>
            <Position>
              <LatitudeDegrees>36.7281865887343883514404296875</LatitudeDegrees>
              <LongitudeDegrees>-5.46637424267828464508056640625</LongitudeDegrees>
            </Position>
            <AltitudeMeters>479.20001220703125</AltitudeMeters>
            <DistanceMeters>1782.9932964526</DistanceMeters>
          </Trackpoint>
          <Trackpoint>
            <Time>2021-03-21T13:57:55.000Z</Time>
            <Position>
              <LatitudeDegrees>36.72819019295275211334228515625</LatitudeDegrees>
              <LongitudeDegrees>-5.4663652740418910980224609375</LongitudeDegrees>
            </Position>
            <AltitudeMeters>479.399993896484375</AltitudeMeters>
            <DistanceMeters>1783.889776683</DistanceMeters>
          </Trackpoint>
          <Trackpoint>
            <Time>2021-03-21T13:57:58.000Z</Time>
            <Position>
              <LatitudeDegrees>36.72819756902754306793212890625</LatitudeDegrees>
              <LongitudeDegrees>-5.46634742058813571929931640625</LongitudeDegrees>
            </Position>
            <AltitudeMeters>479.79998779296875</AltitudeMeters>
            <DistanceMeters>1785.6827371438</DistanceMeters>
          </Trackpoint>
          <Trackpoint>
            <Time>2021-03-21T13:58:11.000Z</Time>
            <Position>
              <LatitudeDegrees>36.72820813022553920745849609375</LatitudeDegrees>
              <LongitudeDegrees>-5.46627885662019252777099609375</LongitudeDegrees>
            </Position>
            <AltitudeMeters>480.79998779296875</AltitudeMeters>
            <DistanceMeters>1791.9111565583</DistanceMeters>
          </Trackpoint>
          <Trackpoint>
            <Time>2021-03-21T13:58:18.000Z</Time>
            <Position>
              <LatitudeDegrees>36.72816890291869640350341796875</LatitudeDegrees>
              <LongitudeDegrees>-5.46623342670500278472900390625</LongitudeDegrees>
            </Position>
            <AltitudeMeters>481.399993896484375</AltitudeMeters>
            <DistanceMeters>1797.8683539216</DistanceMeters>
          </Trackpoint>
          <Trackpoint>
            <Time>2021-03-21T13:58:25.000Z</Time>
            <Position>
              <LatitudeDegrees>36.728156246244907379150390625</LatitudeDegrees>
              <LongitudeDegrees>-5.46621012501418590545654296875</LongitudeDegrees>
            </Position>
            <AltitudeMeters>481.79998779296875</AltitudeMeters>
            <DistanceMeters>1800.3789302215</DistanceMeters>
          </Trackpoint>
          <Trackpoint>
            <Time>2021-03-21T13:58:44.000Z</Time>
            <Position>
              <LatitudeDegrees>36.72815524041652679443359375</LatitudeDegrees>
              <LongitudeDegrees>-5.466197468340396881103515625</LongitudeDegrees>
            </Position>
            <AltitudeMeters>481.79998779296875</AltitudeMeters>
            <DistanceMeters>1801.5113042123</DistanceMeters>
          </Trackpoint>
          <Trackpoint>
            <Time>2021-03-21T13:59:09.000Z</Time>
            <Position>
              <LatitudeDegrees>36.728145182132720947265625</LatitudeDegrees>
              <LongitudeDegrees>-5.46617760322988033294677734375</LongitudeDegrees>
            </Position>
            <AltitudeMeters>482.20001220703125</AltitudeMeters>
            <DistanceMeters>1803.6062068716</DistanceMeters>
          </Trackpoint>
          <Trackpoint>
            <Time>2021-03-21T13:59:20.000Z</Time>
            <Position>
              <LatitudeDegrees>36.7281631194055080413818359375</LatitudeDegrees>
              <LongitudeDegrees>-5.46619243919849395751953125</LongitudeDegrees>
            </Position>
            <AltitudeMeters>481.399993896484375</AltitudeMeters>
            <DistanceMeters>1806.0008046545</DistanceMeters>
          </Trackpoint>
          <Trackpoint>
            <Time>2021-03-21T13:59:22.000Z</Time>
            <Position>
              <LatitudeDegrees>36.72816370613873004913330078125</LatitudeDegrees>
              <LongitudeDegrees>-5.4661962948739528656005859375</LongitudeDegrees>
            </Position>
            <AltitudeMeters>480.79998779296875</AltitudeMeters>
            <DistanceMeters>1806.3563620623</DistanceMeters>
          </Trackpoint>
          <Trackpoint>
            <Time>2021-03-21T13:59:35.000Z</Time>
            <Position>
              <LatitudeDegrees>36.72818231396377086639404296875</LatitudeDegrees>
              <LongitudeDegrees>-5.4662335105240345001220703125</LongitudeDegrees>
            </Position>
            <AltitudeMeters>480.79998779296875</AltitudeMeters>
            <DistanceMeters>1810.2698016809</DistanceMeters>
          </Trackpoint>
          <Trackpoint>
            <Time>2021-03-21T13:59:44.000Z</Time>
            <Position>
              <LatitudeDegrees>36.7281959764659404754638671875</LatitudeDegrees>
              <LongitudeDegrees>-5.46620409004390239715576171875</LongitudeDegrees>
            </Position>
            <AltitudeMeters>481.79998779296875</AltitudeMeters>
            <DistanceMeters>1813.301734698</DistanceMeters>
          </Trackpoint>
          <Trackpoint>
            <Time>2021-03-21T13:59:52.000Z</Time>
            <Position>
              <LatitudeDegrees>36.72821399755775928497314453125</LatitudeDegrees>
              <LongitudeDegrees>-5.466141141951084136962890625</LongitudeDegrees>
            </Position>
            <AltitudeMeters>481.79998779296875</AltitudeMeters>
            <DistanceMeters>1819.2649922839</DistanceMeters>
          </Trackpoint>
          <Trackpoint>
            <Time>2021-03-21T13:59:54.000Z</Time>
            <Position>
              <LatitudeDegrees>36.72822774387896060943603515625</LatitudeDegrees>
              <LongitudeDegrees>-5.46613317914307117462158203125</LongitudeDegrees>
            </Position>
            <AltitudeMeters>481.79998779296875</AltitudeMeters>
            <DistanceMeters>1820.9515491551</DistanceMeters>
          </Trackpoint>
          <Trackpoint>
            <Time>2021-03-21T13:59:55.000Z</Time>
            <Position>
              <LatitudeDegrees>36.728232689201831817626953125</LatitudeDegrees>
              <LongitudeDegrees>-5.466129072010517120361328125</LongitudeDegrees>
            </Position>
            <AltitudeMeters>481.79998779296875</AltitudeMeters>
            <DistanceMeters>1821.6099135446</DistanceMeters>
          </Trackpoint>
          <Trackpoint>
            <Time>2021-03-21T14:00:01.000Z</Time>
            <Position>
              <LatitudeDegrees>36.7282737605273723602294921875</LatitudeDegrees>
              <LongitudeDegrees>-5.46611239202320575714111328125</LongitudeDegrees>
            </Position>
            <AltitudeMeters>482.399993896484375</AltitudeMeters>
            <DistanceMeters>1826.4160487428</DistanceMeters>
          </Trackpoint>
          <Trackpoint>
            <Time>2021-03-21T14:00:05.000Z</Time>
            <Position>
              <LatitudeDegrees>36.7282918654382228851318359375</LatitudeDegrees>
              <LongitudeDegrees>-5.466091521084308624267578125</LongitudeDegrees>
            </Position>
            <AltitudeMeters>483</AltitudeMeters>
            <DistanceMeters>1829.1603307535</DistanceMeters>
          </Trackpoint>
          <Trackpoint>
            <Time>2021-03-21T14:00:07.000Z</Time>
            <Position>
              <LatitudeDegrees>36.72829546965658664703369140625</LatitudeDegrees>
              <LongitudeDegrees>-5.46608724631369113922119140625</LongitudeDegrees>
            </Position>
            <AltitudeMeters>483.20001220703125</AltitudeMeters>
            <DistanceMeters>1829.7144269537</DistanceMeters>
          </Trackpoint>
          <Trackpoint>
            <Time>2021-03-21T14:00:09.000Z</Time>
            <Position>
              <LatitudeDegrees>36.7282999120652675628662109375</LatitudeDegrees>
              <LongitudeDegrees>-5.46609026379883289337158203125</LongitudeDegrees>
            </Position>
            <AltitudeMeters>483.399993896484375</AltitudeMeters>
            <DistanceMeters>1830.28458724</DistanceMeters>
          </Trackpoint>
          <Trackpoint>
            <Time>2021-03-21T14:00:10.000Z</Time>
            <Position>
              <LatitudeDegrees>36.7283047735691070556640625</LatitudeDegrees>
              <LongitudeDegrees>-5.46609529294073581695556640625</LongitudeDegrees>
            </Position>
            <AltitudeMeters>483.600006103515625</AltitudeMeters>
            <DistanceMeters>1830.9828881264</DistanceMeters>
          </Trackpoint>
          <Trackpoint>
            <Time>2021-03-21T14:00:11.000Z</Time>
            <Position>
              <LatitudeDegrees>36.7283106409013271331787109375</LatitudeDegrees>
              <LongitudeDegrees>-5.4660970531404018402099609375</LongitudeDegrees>
            </Position>
            <AltitudeMeters>483.79998779296875</AltitudeMeters>
            <DistanceMeters>1831.6548284676</DistanceMeters>
          </Trackpoint>
          <Trackpoint>
            <Time>2021-03-21T14:00:12.000Z</Time>
            <Position>
              <LatitudeDegrees>36.72831508331000804901123046875</LatitudeDegrees>
              <LongitudeDegrees>-5.466098226606845855712890625</LongitudeDegrees>
            </Position>
            <AltitudeMeters>484</AltitudeMeters>
            <DistanceMeters>1832.1576625759</DistanceMeters>
          </Trackpoint>
          <Trackpoint>
            <Time>2021-03-21T14:00:13.000Z</Time>
            <Position>
              <LatitudeDegrees>36.72831642441451549530029296875</LatitudeDegrees>
              <LongitudeDegrees>-5.46609780751168727874755859375</LongitudeDegrees>
            </Position>
            <AltitudeMeters>484</AltitudeMeters>
            <DistanceMeters>1832.2920506441</DistanceMeters>
          </Trackpoint>
          <Trackpoint>
            <Time>2021-03-21T14:00:14.000Z</Time>
            <Position>
              <LatitudeDegrees>36.7283146642148494720458984375</LatitudeDegrees>
              <LongitudeDegrees>-5.466098897159099578857421875</LongitudeDegrees>
            </Position>
            <AltitudeMeters>484.20001220703125</AltitudeMeters>
            <DistanceMeters>1832.5248176063</DistanceMeters>
          </Trackpoint>
          <Trackpoint>
            <Time>2021-03-21T14:00:15.000Z</Time>
            <Position>
              <LatitudeDegrees>36.72831608913838863372802734375</LatitudeDegrees>
              <LongitudeDegrees>-5.466100238263607025146484375</LongitudeDegrees>
            </Position>
            <AltitudeMeters>484.20001220703125</AltitudeMeters>
            <DistanceMeters>1832.714871035</DistanceMeters>
          </Trackpoint>
          <Trackpoint>
            <Time>2021-03-21T14:00:16.000Z</Time>
            <Position>
              <LatitudeDegrees>36.7283183522522449493408203125</LatitudeDegrees>
              <LongitudeDegrees>-5.466105937957763671875</LongitudeDegrees>
            </Position>
            <AltitudeMeters>484.20001220703125</AltitudeMeters>
            <DistanceMeters>1833.2928959726</DistanceMeters>
          </Trackpoint>
          <Trackpoint>
            <Time>2021-03-21T14:00:18.000Z</Time>
            <Position>
              <LatitudeDegrees>36.72832547686994075775146484375</LatitudeDegrees>
              <LongitudeDegrees>-5.46611272729933261871337890625</LongitudeDegrees>
            </Position>
            <AltitudeMeters>484.399993896484375</AltitudeMeters>
            <DistanceMeters>1834.289544561</DistanceMeters>
          </Trackpoint>
          <Trackpoint>
            <Time>2021-03-21T14:00:19.000Z</Time>
            <Position>
              <LatitudeDegrees>36.7283290810883045196533203125</LatitudeDegrees>
              <LongitudeDegrees>-5.4661154933273792266845703125</LongitudeDegrees>
            </Position>
            <AltitudeMeters>484.600006103515625</AltitudeMeters>
            <DistanceMeters>1834.7550784853</DistanceMeters>
          </Trackpoint>
          <Trackpoint>
            <Time>2021-03-21T14:00:20.000Z</Time>
            <Position>
              <LatitudeDegrees>36.72833360731601715087890625</LatitudeDegrees>
              <LongitudeDegrees>-5.4661178402602672576904296875</LongitudeDegrees>
            </Position>
            <AltitudeMeters>484.600006103515625</AltitudeMeters>
            <DistanceMeters>1835.3091746855</DistanceMeters>
          </Trackpoint>
          <Trackpoint>
            <Time>2021-03-21T14:00:22.000Z</Time>
            <Position>
              <LatitudeDegrees>36.72834609635174274444580078125</LatitudeDegrees>
              <LongitudeDegrees>-5.46612203121185302734375</LongitudeDegrees>
            </Position>
            <AltitudeMeters>484.600006103515625</AltitudeMeters>
            <DistanceMeters>1836.7471898126</DistanceMeters>
          </Trackpoint>
          <Trackpoint>
            <Time>2021-03-21T14:00:24.000Z</Time>
            <Position>
              <LatitudeDegrees>36.72835716046392917633056640625</LatitudeDegrees>
              <LongitudeDegrees>-5.4661287367343902587890625</LongitudeDegrees>
            </Position>
            <AltitudeMeters>484.79998779296875</AltitudeMeters>
            <DistanceMeters>1838.1176845774</DistanceMeters>
          </Trackpoint>
          <Trackpoint>
            <Time>2021-03-21T14:00:35.000Z</Time>
            <Position>
              <LatitudeDegrees>36.72841533087193965911865234375</LatitudeDegrees>
              <LongitudeDegrees>-5.46617743559181690216064453125</LongitudeDegrees>
            </Position>
            <AltitudeMeters>485.20001220703125</AltitudeMeters>
            <DistanceMeters>1845.9145092272</DistanceMeters>
          </Trackpoint>
          <Trackpoint>
            <Time>2021-03-21T14:00:38.000Z</Time>
            <Position>
              <LatitudeDegrees>36.72843284904956817626953125</LatitudeDegrees>
              <LongitudeDegrees>-5.46619017608463764190673828125</LongitudeDegrees>
            </Position>
            <AltitudeMeters>485.399993896484375</AltitudeMeters>
            <DistanceMeters>1848.1732684421</DistanceMeters>
          </Trackpoint>
          <Trackpoint>
            <Time>2021-03-21T14:00:43.000Z</Time>
            <Position>
              <LatitudeDegrees>36.72846511937677860260009765625</LatitudeDegrees>
              <LongitudeDegrees>-5.46619989909231662750244140625</LongitudeDegrees>
            </Position>
            <AltitudeMeters>486.20001220703125</AltitudeMeters>
            <DistanceMeters>1851.8695511234</DistanceMeters>
          </Trackpoint>
          <Trackpoint>
            <Time>2021-03-21T14:00:47.000Z</Time>
            <Position>
              <LatitudeDegrees>36.72849060036242008209228515625</LatitudeDegrees>
              <LongitudeDegrees>-5.46619956381618976593017578125</LongitudeDegrees>
            </Position>
            <AltitudeMeters>487.20001220703125</AltitudeMeters>
            <DistanceMeters>1854.7044705288</DistanceMeters>
          </Trackpoint>
          <Trackpoint>
            <Time>2021-03-21T14:00:53.000Z</Time>
            <Position>
              <LatitudeDegrees>36.72853435389697551727294921875</LatitudeDegrees>
              <LongitudeDegrees>-5.4662127234041690826416015625</LongitudeDegrees>
            </Position>
            <AltitudeMeters>488.399993896484375</AltitudeMeters>
            <DistanceMeters>1859.7139198436</DistanceMeters>
          </Trackpoint>
          <Trackpoint>
            <Time>2021-03-21T14:01:03.000Z</Time>
            <Position>
              <LatitudeDegrees>36.72855966724455356597900390625</LatitudeDegrees>
              <LongitudeDegrees>-5.46619503758847713470458984375</LongitudeDegrees>
            </Position>
            <AltitudeMeters>489.399993896484375</AltitudeMeters>
            <DistanceMeters>1862.9448281322</DistanceMeters>
          </Trackpoint>
          <Trackpoint>
            <Time>2021-03-21T14:01:13.000Z</Time>
            <Position>
              <LatitudeDegrees>36.728558577597141265869140625</LatitudeDegrees>
              <LongitudeDegrees>-5.4661905951797962188720703125</LongitudeDegrees>
            </Position>
            <AltitudeMeters>490.600006103515625</AltitudeMeters>
            <DistanceMeters>1863.3479923369</DistanceMeters>
          </Trackpoint>
          <Trackpoint>
            <Time>2021-03-21T14:01:34.000Z</Time>
            <Position>
              <LatitudeDegrees>36.72860140912234783172607421875</LatitudeDegrees>
              <LongitudeDegrees>-5.466214902698993682861328125</LongitudeDegrees>
            </Position>
            <AltitudeMeters>491.600006103515625</AltitudeMeters>
            <DistanceMeters>1868.5856800173</DistanceMeters>
          </Trackpoint>
          <Trackpoint>
            <Time>2021-03-21T14:01:46.000Z</Time>
            <Position>
              <LatitudeDegrees>36.7286251299083232879638671875</LatitudeDegrees>
              <LongitudeDegrees>-5.46625572256743907928466796875</LongitudeDegrees>
            </Position>
            <AltitudeMeters>492.600006103515625</AltitudeMeters>
            <DistanceMeters>1873.0831650072</DistanceMeters>
          </Trackpoint>
          <Trackpoint>
            <Time>2021-03-21T14:02:00.000Z</Time>
            <Position>
              <LatitudeDegrees>36.72866058535873889923095703125</LatitudeDegrees>
              <LongitudeDegrees>-5.46625077724456787109375</LongitudeDegrees>
            </Position>
            <AltitudeMeters>493.79998779296875</AltitudeMeters>
            <DistanceMeters>1877.0538719305</DistanceMeters>
          </Trackpoint>
          <Trackpoint>
            <Time>2021-03-21T14:02:07.000Z</Time>
            <Position>
              <LatitudeDegrees>36.7286754213273525238037109375</LatitudeDegrees>
              <LongitudeDegrees>-5.4662683792412281036376953125</LongitudeDegrees>
            </Position>
            <AltitudeMeters>494.79998779296875</AltitudeMeters>
            <DistanceMeters>1879.330550186</DistanceMeters>
          </Trackpoint>
          <Trackpoint>
            <Time>2021-03-21T14:02:18.000Z</Time>
            <Position>
              <LatitudeDegrees>36.72868623398244380950927734375</LatitudeDegrees>
              <LongitudeDegrees>-5.4662975482642650604248046875</LongitudeDegrees>
            </Position>
            <AltitudeMeters>495.79998779296875</AltitudeMeters>
            <DistanceMeters>1882.1971456517</DistanceMeters>
          </Trackpoint>
          <Trackpoint>
            <Time>2021-03-21T14:02:34.000Z</Time>
            <Position>
              <LatitudeDegrees>36.72869034111499786376953125</LatitudeDegrees>
              <LongitudeDegrees>-5.4662975482642650604248046875</LongitudeDegrees>
            </Position>
            <AltitudeMeters>496.79998779296875</AltitudeMeters>
            <DistanceMeters>1882.6428604503</DistanceMeters>
          </Trackpoint>
          <Trackpoint>
            <Time>2021-03-21T14:02:45.000Z</Time>
            <Position>
              <LatitudeDegrees>36.72872965224087238311767578125</LatitudeDegrees>
              <LongitudeDegrees>-5.466327555477619171142578125</LongitudeDegrees>
            </Position>
            <AltitudeMeters>497.79998779296875</AltitudeMeters>
            <DistanceMeters>1887.7716627161</DistanceMeters>
          </Trackpoint>
          <Trackpoint>
            <Time>2021-03-21T14:02:55.000Z</Time>
            <Position>
              <LatitudeDegrees>36.72875295393168926239013671875</LatitudeDegrees>
              <LongitudeDegrees>-5.46635798178613185882568359375</LongitudeDegrees>
            </Position>
            <AltitudeMeters>499</AltitudeMeters>
            <DistanceMeters>1891.5249172042</DistanceMeters>
          </Trackpoint>
          <Trackpoint>
            <Time>2021-03-21T14:03:03.000Z</Time>
            <Position>
              <LatitudeDegrees>36.7287659458816051483154296875</LatitudeDegrees>
              <LongitudeDegrees>-5.46636166982352733612060546875</LongitudeDegrees>
            </Position>
            <AltitudeMeters>500.20001220703125</AltitudeMeters>
            <DistanceMeters>1893.0062370805</DistanceMeters>
          </Trackpoint>
          <Trackpoint>
            <Time>2021-03-21T14:03:11.000Z</Time>
            <Position>
              <LatitudeDegrees>36.72877759672701358795166015625</LatitudeDegrees>
              <LongitudeDegrees>-5.4663810320198535919189453125</LongitudeDegrees>
            </Position>
            <AltitudeMeters>501.20001220703125</AltitudeMeters>
            <DistanceMeters>1895.1648290857</DistanceMeters>
          </Trackpoint>
          <Trackpoint>
            <Time>2021-03-21T14:03:23.000Z</Time>
            <Position>
              <LatitudeDegrees>36.728791259229183197021484375</LatitudeDegrees>
              <LongitudeDegrees>-5.46639502979815006256103515625</LongitudeDegrees>
            </Position>
            <AltitudeMeters>502.399993896484375</AltitudeMeters>
            <DistanceMeters>1897.1307570392</DistanceMeters>
          </Trackpoint>
          <Trackpoint>
            <Time>2021-03-21T14:03:29.000Z</Time>
            <Position>
              <LatitudeDegrees>36.72879771329462528228759765625</LatitudeDegrees>
              <LongitudeDegrees>-5.466395951807498931884765625</LongitudeDegrees>
            </Position>
            <AltitudeMeters>503.399993896484375</AltitudeMeters>
            <DistanceMeters>1897.8544589348</DistanceMeters>
          </Trackpoint>
          <Trackpoint>
            <Time>2021-03-21T14:03:39.000Z</Time>
            <Position>
              <LatitudeDegrees>36.72882981598377227783203125</LatitudeDegrees>
              <LongitudeDegrees>-5.4664269648492336273193359375</LongitudeDegrees>
            </Position>
            <AltitudeMeters>504.600006103515625</AltitudeMeters>
            <DistanceMeters>1902.3719773646</DistanceMeters>
          </Trackpoint>
          <Trackpoint>
            <Time>2021-03-21T14:03:48.000Z</Time>
            <Position>
              <LatitudeDegrees>36.72883274964988231658935546875</LatitudeDegrees>
              <LongitudeDegrees>-5.4664578102529048919677734375</LongitudeDegrees>
            </Position>
            <AltitudeMeters>505.600006103515625</AltitudeMeters>
            <DistanceMeters>1905.1424583657</DistanceMeters>
          </Trackpoint>
          <Trackpoint>
            <Time>2021-03-21T14:04:06.000Z</Time>
            <Position>
              <LatitudeDegrees>36.7288393713533878326416015625</LatitudeDegrees>
              <LongitudeDegrees>-5.46651271171867847442626953125</LongitudeDegrees>
            </Position>
            <AltitudeMeters>506.79998779296875</AltitudeMeters>
            <DistanceMeters>1910.0947999958</DistanceMeters>
          </Trackpoint>
          <Trackpoint>
            <Time>2021-03-21T14:04:11.000Z</Time>
            <Position>
              <LatitudeDegrees>36.72884917818009853363037109375</LatitudeDegrees>
              <LongitudeDegrees>-5.46653601340949535369873046875</LongitudeDegrees>
            </Position>
            <AltitudeMeters>507.20001220703125</AltitudeMeters>
            <DistanceMeters>1912.4417867088</DistanceMeters>
          </Trackpoint>
          <Trackpoint>
            <Time>2021-03-21T14:04:14.000Z</Time>
            <Position>
              <LatitudeDegrees>36.7288531176745891571044921875</LatitudeDegrees>
              <LongitudeDegrees>-5.46655328013002872467041015625</LongitudeDegrees>
            </Position>
            <AltitudeMeters>507.79998779296875</AltitudeMeters>
            <DistanceMeters>1914.0432053642</DistanceMeters>
          </Trackpoint>
          <Trackpoint>
            <Time>2021-03-21T14:04:19.000Z</Time>
            <Position>
              <LatitudeDegrees>36.7288665287196636199951171875</LatitudeDegrees>
              <LongitudeDegrees>-5.4665686190128326416015625</LongitudeDegrees>
            </Position>
            <AltitudeMeters>509</AltitudeMeters>
            <DistanceMeters>1916.070194457</DistanceMeters>
          </Trackpoint>
          <Trackpoint>
            <Time>2021-03-21T14:04:24.000Z</Time>
            <Position>
              <LatitudeDegrees>36.72887214459478855133056640625</LatitudeDegrees>
              <LongitudeDegrees>-5.4665768332779407501220703125</LongitudeDegrees>
            </Position>
            <AltitudeMeters>510</AltitudeMeters>
            <DistanceMeters>1917.0392805987</DistanceMeters>
          </Trackpoint>
          <Trackpoint>
            <Time>2021-03-21T14:04:31.000Z</Time>
            <Position>
              <LatitudeDegrees>36.72886669635772705078125</LatitudeDegrees>
              <LongitudeDegrees>-5.4665761627256870269775390625</LongitudeDegrees>
            </Position>
            <AltitudeMeters>511.20001220703125</AltitudeMeters>
            <DistanceMeters>1917.655124094</DistanceMeters>
          </Trackpoint>
          <Trackpoint>
            <Time>2021-03-21T14:04:43.000Z</Time>
            <Position>
              <LatitudeDegrees>36.7288611643016338348388671875</LatitudeDegrees>
              <LongitudeDegrees>-5.46657691709697246551513671875</LongitudeDegrees>
            </Position>
            <AltitudeMeters>512.5999755859375</AltitudeMeters>
            <DistanceMeters>1918.2854600072</DistanceMeters>
          </Trackpoint>
          <Trackpoint>
            <Time>2021-03-21T14:05:07.000Z</Time>
            <Position>
              <LatitudeDegrees>36.7289050854742527008056640625</LatitudeDegrees>
              <LongitudeDegrees>-5.4665801860392093658447265625</LongitudeDegrees>
            </Position>
            <AltitudeMeters>513.5999755859375</AltitudeMeters>
            <DistanceMeters>1923.1837161369</DistanceMeters>
          </Trackpoint>
          <Trackpoint>
            <Time>2021-03-21T14:05:18.000Z</Time>
            <Position>
              <LatitudeDegrees>36.72889779321849346160888671875</LatitudeDegrees>
              <LongitudeDegrees>-5.46658613719046115875244140625</LongitudeDegrees>
            </Position>
            <AltitudeMeters>514.20001220703125</AltitudeMeters>
            <DistanceMeters>1924.1528022786</DistanceMeters>
          </Trackpoint>
          <Trackpoint>
            <Time>2021-03-21T14:05:24.000Z</Time>
            <Position>
              <LatitudeDegrees>36.72890014015138149261474609375</LatitudeDegrees>
              <LongitudeDegrees>-5.46657825820147991180419921875</LongitudeDegrees>
            </Position>
            <AltitudeMeters>514.5999755859375</AltitudeMeters>
            <DistanceMeters>1924.9130159936</DistanceMeters>
          </Trackpoint>
          <Trackpoint>
            <Time>2021-03-21T14:05:32.000Z</Time>
            <Position>
              <LatitudeDegrees>36.7289101146161556243896484375</LatitudeDegrees>
              <LongitudeDegrees>-5.46657691709697246551513671875</LongitudeDegrees>
            </Position>
            <AltitudeMeters>515.79998779296875</AltitudeMeters>
            <DistanceMeters>1926.0293271282</DistanceMeters>
          </Trackpoint>
          <Trackpoint>
            <Time>2021-03-21T14:05:39.000Z</Time>
            <Position>
              <LatitudeDegrees>36.7289377748966217041015625</LatitudeDegrees>
              <LongitudeDegrees>-5.4665728099644184112548828125</LongitudeDegrees>
            </Position>
            <AltitudeMeters>516.79998779296875</AltitudeMeters>
            <DistanceMeters>1929.1290047464</DistanceMeters>
          </Trackpoint>
          <Trackpoint>
            <Time>2021-03-21T14:05:46.000Z</Time>
            <Position>
              <LatitudeDegrees>36.7289369367063045501708984375</LatitudeDegrees>
              <LongitudeDegrees>-5.46657088212668895721435546875</LongitudeDegrees>
            </Position>
            <AltitudeMeters>518</AltitudeMeters>
            <DistanceMeters>1929.3190581751</DistanceMeters>
          </Trackpoint>
          <Trackpoint>
            <Time>2021-03-21T14:05:57.000Z</Time>
            <Position>
              <LatitudeDegrees>36.7289476655423641204833984375</LatitudeDegrees>
              <LongitudeDegrees>-5.46658529900014400482177734375</LongitudeDegrees>
            </Position>
            <AltitudeMeters>518.4000244140625</AltitudeMeters>
            <DistanceMeters>1931.0738390923</DistanceMeters>
          </Trackpoint>
          <Trackpoint>
            <Time>2021-03-21T14:06:00.000Z</Time>
            <Position>
              <LatitudeDegrees>36.72895730473101139068603515625</LatitudeDegrees>
              <LongitudeDegrees>-5.46657457016408443450927734375</LongitudeDegrees>
            </Position>
            <AltitudeMeters>519</AltitudeMeters>
            <DistanceMeters>1932.5087110131</DistanceMeters>
          </Trackpoint>
          <Trackpoint>
            <Time>2021-03-21T14:06:05.000Z</Time>
            <Position>
              <LatitudeDegrees>36.7289795167744159698486328125</LatitudeDegrees>
              <LongitudeDegrees>-5.46656853519380092620849609375</LongitudeDegrees>
            </Position>
            <AltitudeMeters>520</AltitudeMeters>
            <DistanceMeters>1935.0372074285</DistanceMeters>
          </Trackpoint>
          <Trackpoint>
            <Time>2021-03-21T14:06:12.000Z</Time>
            <Position>
              <LatitudeDegrees>36.7289808578789234161376953125</LatitudeDegrees>
              <LongitudeDegrees>-5.4665694572031497955322265625</LongitudeDegrees>
            </Position>
            <AltitudeMeters>521</AltitudeMeters>
            <DistanceMeters>1935.2017985258</DistanceMeters>
          </Trackpoint>
          <Trackpoint>
            <Time>2021-03-21T14:06:33.000Z</Time>
            <Position>
              <LatitudeDegrees>36.729029975831508636474609375</LatitudeDegrees>
              <LongitudeDegrees>-5.46656115911900997161865234375</LongitudeDegrees>
            </Position>
            <AltitudeMeters>522</AltitudeMeters>
            <DistanceMeters>1940.7182609445</DistanceMeters>
          </Trackpoint>
          <Trackpoint>
            <Time>2021-03-21T14:06:41.000Z</Time>
            <Position>
              <LatitudeDegrees>36.729051768779754638671875</LatitudeDegrees>
              <LongitudeDegrees>-5.46654355712234973907470703125</LongitudeDegrees>
            </Position>
            <AltitudeMeters>523.20001220703125</AltitudeMeters>
            <DistanceMeters>1943.6068229802</DistanceMeters>
          </Trackpoint>
          <Trackpoint>
            <Time>2021-03-21T14:06:50.000Z</Time>
            <Position>
              <LatitudeDegrees>36.7290559597313404083251953125</LatitudeDegrees>
              <LongitudeDegrees>-5.46655462123453617095947265625</LongitudeDegrees>
            </Position>
            <AltitudeMeters>524.4000244140625</AltitudeMeters>
            <DistanceMeters>1944.6985968078</DistanceMeters>
          </Trackpoint>
          <Trackpoint>
            <Time>2021-03-21T14:07:08.000Z</Time>
            <Position>
              <LatitudeDegrees>36.72906341962516307830810546875</LatitudeDegrees>
              <LongitudeDegrees>-5.466467030346393585205078125</LongitudeDegrees>
            </Position>
            <AltitudeMeters>525.4000244140625</AltitudeMeters>
            <DistanceMeters>1952.5565649118</DistanceMeters>
          </Trackpoint>
          <Trackpoint>
            <Time>2021-03-21T14:07:13.000Z</Time>
            <Position>
              <LatitudeDegrees>36.7290683649480342864990234375</LatitudeDegrees>
              <LongitudeDegrees>-5.46647784300148487091064453125</LongitudeDegrees>
            </Position>
            <AltitudeMeters>526.5999755859375</AltitudeMeters>
            <DistanceMeters>1953.6647573122</DistanceMeters>
          </Trackpoint>
          <Trackpoint>
            <Time>2021-03-21T14:07:19.000Z</Time>
            <Position>
              <LatitudeDegrees>36.72907792031764984130859375</LatitudeDegrees>
              <LongitudeDegrees>-5.46648941002786159515380859375</LongitudeDegrees>
            </Position>
            <AltitudeMeters>527.5999755859375</AltitudeMeters>
            <DistanceMeters>1955.1491220424</DistanceMeters>
          </Trackpoint>
          <Trackpoint>
            <Time>2021-03-21T14:07:33.000Z</Time>
            <Position>
              <LatitudeDegrees>36.729074232280254364013671875</LatitudeDegrees>
              <LongitudeDegrees>-5.4664720594882965087890625</LongitudeDegrees>
            </Position>
            <AltitudeMeters>528.5999755859375</AltitudeMeters>
            <DistanceMeters>1956.7505406979</DistanceMeters>
          </Trackpoint>
          <Trackpoint>
            <Time>2021-03-21T14:07:45.000Z</Time>
            <Position>
              <LatitudeDegrees>36.729005835950374603271484375</LatitudeDegrees>
              <LongitudeDegrees>-5.466450266540050506591796875</LongitudeDegrees>
            </Position>
            <AltitudeMeters>529.5999755859375</AltitudeMeters>
            <DistanceMeters>1964.6073595561</DistanceMeters>
          </Trackpoint>
          <Trackpoint>
            <Time>2021-03-21T14:08:03.000Z</Time>
            <Position>
              <LatitudeDegrees>36.7289939336478710174560546875</LatitudeDegrees>
              <LongitudeDegrees>-5.46633987687528133392333984375</LongitudeDegrees>
            </Position>
            <AltitudeMeters>530.5999755859375</AltitudeMeters>
            <DistanceMeters>1974.5429921825</DistanceMeters>
          </Trackpoint>
          <Trackpoint>
            <Time>2021-03-21T14:08:26.000Z</Time>
            <Position>
              <LatitudeDegrees>36.729027964174747467041015625</LatitudeDegrees>
              <LongitudeDegrees>-5.4662506096065044403076171875</LongitudeDegrees>
            </Position>
            <AltitudeMeters>531.4000244140625</AltitudeMeters>
            <DistanceMeters>1983.3610411877</DistanceMeters>
          </Trackpoint>
          <Trackpoint>
            <Time>2021-03-21T14:08:28.000Z</Time>
            <Position>
              <LatitudeDegrees>36.72903341241180896759033203125</LatitudeDegrees>
              <LongitudeDegrees>-5.46625186689198017120361328125</LongitudeDegrees>
            </Position>
            <AltitudeMeters>531.79998779296875</AltitudeMeters>
            <DistanceMeters>1983.976884683</DistanceMeters>
          </Trackpoint>
          <Trackpoint>
            <Time>2021-03-21T14:08:36.000Z</Time>
            <Position>
              <LatitudeDegrees>36.729049421846866607666015625</LatitudeDegrees>
              <LongitudeDegrees>-5.46626745723187923431396484375</LongitudeDegrees>
            </Position>
            <AltitudeMeters>532.79998779296875</AltitudeMeters>
            <DistanceMeters>1986.2376419161</DistanceMeters>
          </Trackpoint>
          <Trackpoint>
            <Time>2021-03-21T14:08:40.000Z</Time>
            <Position>
              <LatitudeDegrees>36.72904615290462970733642578125</LatitudeDegrees>
              <LongitudeDegrees>-5.46628296375274658203125</LongitudeDegrees>
            </Position>
            <AltitudeMeters>533.79998779296875</AltitudeMeters>
            <DistanceMeters>1987.6662066771</DistanceMeters>
          </Trackpoint>
          <Trackpoint>
            <Time>2021-03-21T14:08:49.000Z</Time>
            <Position>
              <LatitudeDegrees>36.72905487008392810821533203125</LatitudeDegrees>
              <LongitudeDegrees>-5.4663629271090030670166015625</LongitudeDegrees>
            </Position>
            <AltitudeMeters>535</AltitudeMeters>
            <DistanceMeters>1994.8644410881</DistanceMeters>
          </Trackpoint>
          <Trackpoint>
            <Time>2021-03-21T14:08:56.000Z</Time>
            <Position>
              <LatitudeDegrees>36.72907046042382717132568359375</LatitudeDegrees>
              <LongitudeDegrees>-5.46637952327728271484375</LongitudeDegrees>
            </Position>
            <AltitudeMeters>536</AltitudeMeters>
            <DistanceMeters>1997.145082233</DistanceMeters>
          </Trackpoint>
          <Trackpoint>
            <Time>2021-03-21T14:09:04.000Z</Time>
            <Position>
              <LatitudeDegrees>36.72909803688526153564453125</LatitudeDegrees>
              <LongitudeDegrees>-5.4663283936679363250732421875</LongitudeDegrees>
            </Position>
            <AltitudeMeters>537.20001220703125</AltitudeMeters>
            <DistanceMeters>2002.6418663638</DistanceMeters>
          </Trackpoint>
          <Trackpoint>
            <Time>2021-03-21T14:09:09.000Z</Time>
            <Position>
              <LatitudeDegrees>36.729093007743358612060546875</LatitudeDegrees>
              <LongitudeDegrees>-5.466317497193813323974609375</LongitudeDegrees>
            </Position>
            <AltitudeMeters>538.20001220703125</AltitudeMeters>
            <DistanceMeters>2003.7662376113</DistanceMeters>
          </Trackpoint>
          <Trackpoint>
            <Time>2021-03-21T14:09:18.000Z</Time>
            <Position>
              <LatitudeDegrees>36.7290733940899372100830078125</LatitudeDegrees>
              <LongitudeDegrees>-5.466283299028873443603515625</LongitudeDegrees>
            </Position>
            <AltitudeMeters>539.4000244140625</AltitudeMeters>
            <DistanceMeters>2007.5170853954</DistanceMeters>
          </Trackpoint>
          <Trackpoint>
            <Time>2021-03-21T14:09:27.000Z</Time>
            <Position>
              <LatitudeDegrees>36.729062832891941070556640625</LatitudeDegrees>
              <LongitudeDegrees>-5.46623812057077884674072265625</LongitudeDegrees>
            </Position>
            <AltitudeMeters>540.5999755859375</AltitudeMeters>
            <DistanceMeters>2011.7155028614</DistanceMeters>
          </Trackpoint>
          <Trackpoint>
            <Time>2021-03-21T14:09:44.000Z</Time>
            <Position>
              <LatitudeDegrees>36.729059480130672454833984375</LatitudeDegrees>
              <LongitudeDegrees>-5.46617073006927967071533203125</LongitudeDegrees>
            </Position>
            <AltitudeMeters>541.79998779296875</AltitudeMeters>
            <DistanceMeters>2017.7390273406</DistanceMeters>
          </Trackpoint>
          <Trackpoint>
            <Time>2021-03-21T14:09:50.000Z</Time>
            <Position>
              <LatitudeDegrees>36.72908521257340908050537109375</LatitudeDegrees>
              <LongitudeDegrees>-5.46615086495876312255859375</LongitudeDegrees>
            </Position>
            <AltitudeMeters>542.79998779296875</AltitudeMeters>
            <DistanceMeters>2021.1067826782</DistanceMeters>
          </Trackpoint>
          <Trackpoint>
            <Time>2021-03-21T14:09:55.000Z</Time>
            <Position>
              <LatitudeDegrees>36.72909191809594631195068359375</LatitudeDegrees>
              <LongitudeDegrees>-5.46614893712103366851806640625</LongitudeDegrees>
            </Position>
            <AltitudeMeters>543.20001220703125</AltitudeMeters>
            <DistanceMeters>2021.8729125424</DistanceMeters>
          </Trackpoint>
          <Trackpoint>
            <Time>2021-03-21T14:09:59.000Z</Time>
            <Position>
              <LatitudeDegrees>36.7290707118809223175048828125</LatitudeDegrees>
              <LongitudeDegrees>-5.46612177975475788116455078125</LongitudeDegrees>
            </Position>
            <AltitudeMeters>544</AltitudeMeters>
            <DistanceMeters>2025.2553830677</DistanceMeters>
          </Trackpoint>
          <Trackpoint>
            <Time>2021-03-21T14:10:03.000Z</Time>
            <Position>
              <LatitudeDegrees>36.72906450927257537841796875</LatitudeDegrees>
              <LongitudeDegrees>-5.46609713695943355560302734375</LongitudeDegrees>
            </Position>
            <AltitudeMeters>544.5999755859375</AltitudeMeters>
            <DistanceMeters>2027.5596584308</DistanceMeters>
          </Trackpoint>
          <Trackpoint>
            <Time>2021-03-21T14:10:08.000Z</Time>
            <Position>
              <LatitudeDegrees>36.7290764115750789642333984375</LatitudeDegrees>
              <LongitudeDegrees>-5.46606243588030338287353515625</LongitudeDegrees>
            </Position>
            <AltitudeMeters>545</AltitudeMeters>
            <DistanceMeters>2030.9274137684</DistanceMeters>
          </Trackpoint>
          <Trackpoint>
            <Time>2021-03-21T14:10:15.000Z</Time>
            <Position>
              <LatitudeDegrees>36.729072891175746917724609375</LatitudeDegrees>
              <LongitudeDegrees>-5.46601474285125732421875</LongitudeDegrees>
            </Position>
            <AltitudeMeters>545.4000244140625</AltitudeMeters>
            <DistanceMeters>2035.2004471838</DistanceMeters>
          </Trackpoint>
          <Trackpoint>
            <Time>2021-03-21T14:10:21.000Z</Time>
            <Position>
              <LatitudeDegrees>36.729073226451873779296875</LatitudeDegrees>
              <LongitudeDegrees>-5.46600577421486377716064453125</LongitudeDegrees>
            </Position>
            <AltitudeMeters>546</AltitudeMeters>
            <DistanceMeters>2036.0067755933</DistanceMeters>
          </Trackpoint>
          <Trackpoint>
            <Time>2021-03-21T14:10:37.000Z</Time>
            <Position>
              <LatitudeDegrees>36.72904028557240962982177734375</LatitudeDegrees>
              <LongitudeDegrees>-5.46600124798715114593505859375</LongitudeDegrees>
            </Position>
            <AltitudeMeters>545</AltitudeMeters>
            <DistanceMeters>2039.6957219471</DistanceMeters>
          </Trackpoint>
          <Trackpoint>
            <Time>2021-03-21T14:11:03.000Z</Time>
            <Position>
              <LatitudeDegrees>36.72908085398375988006591796875</LatitudeDegrees>
              <LongitudeDegrees>-5.46587593853473663330078125</LongitudeDegrees>
            </Position>
            <AltitudeMeters>546.20001220703125</AltitudeMeters>
            <DistanceMeters>2051.7517623602</DistanceMeters>
          </Trackpoint>
          <Trackpoint>
            <Time>2021-03-21T14:11:07.000Z</Time>
            <Position>
              <LatitudeDegrees>36.72909401357173919677734375</LatitudeDegrees>
              <LongitudeDegrees>-5.46584400348365306854248046875</LongitudeDegrees>
            </Position>
            <AltitudeMeters>547.4000244140625</AltitudeMeters>
            <DistanceMeters>2054.9545996711</DistanceMeters>
          </Trackpoint>
          <Trackpoint>
            <Time>2021-03-21T14:11:18.000Z</Time>
            <Position>
              <LatitudeDegrees>36.72915025614202022552490234375</LatitudeDegrees>
              <LongitudeDegrees>-5.46581382863223552703857421875</LongitudeDegrees>
            </Position>
            <AltitudeMeters>548.20001220703125</AltitudeMeters>
            <DistanceMeters>2061.7687506142</DistanceMeters>
          </Trackpoint>
          <Trackpoint>
            <Time>2021-03-21T14:11:20.000Z</Time>
            <Position>
              <LatitudeDegrees>36.729157380759716033935546875</LatitudeDegrees>
              <LongitudeDegrees>-5.46582497656345367431640625</LongitudeDegrees>
            </Position>
            <AltitudeMeters>548.4000244140625</AltitudeMeters>
            <DistanceMeters>2063.0436677723</DistanceMeters>
          </Trackpoint>
          <Trackpoint>
            <Time>2021-03-21T14:11:21.000Z</Time>
            <Position>
              <LatitudeDegrees>36.729161404073238372802734375</LatitudeDegrees>
              <LongitudeDegrees>-5.46582698822021484375</LongitudeDegrees>
            </Position>
            <AltitudeMeters>548.5999755859375</AltitudeMeters>
            <DistanceMeters>2063.5374410644</DistanceMeters>
          </Trackpoint>
          <Trackpoint>
            <Time>2021-03-21T14:11:23.000Z</Time>
            <Position>
              <LatitudeDegrees>36.72917473129928112030029296875</LatitudeDegrees>
              <LongitudeDegrees>-5.4658305086195468902587890625</LongitudeDegrees>
            </Position>
            <AltitudeMeters>549</AltitudeMeters>
            <DistanceMeters>2065.0519176791</DistanceMeters>
          </Trackpoint>
          <Trackpoint>
            <Time>2021-03-21T14:11:25.000Z</Time>
            <Position>
              <LatitudeDegrees>36.7291857115924358367919921875</LatitudeDegrees>
              <LongitudeDegrees>-5.465833358466625213623046875</LongitudeDegrees>
            </Position>
            <AltitudeMeters>549.20001220703125</AltitudeMeters>
            <DistanceMeters>2066.2981813544</DistanceMeters>
          </Trackpoint>
          <Trackpoint>
            <Time>2021-03-21T14:11:26.000Z</Time>
            <Position>
              <LatitudeDegrees>36.729186214506626129150390625</LatitudeDegrees>
              <LongitudeDegrees>-5.4658355377614498138427734375</LongitudeDegrees>
            </Position>
            <AltitudeMeters>549.4000244140625</AltitudeMeters>
            <DistanceMeters>2066.4882347832</DistanceMeters>
          </Trackpoint>
          <Trackpoint>
            <Time>2021-03-21T14:11:32.000Z</Time>
            <Position>
              <LatitudeDegrees>36.729191243648529052734375</LatitudeDegrees>
              <LongitudeDegrees>-5.465849451720714569091796875</LongitudeDegrees>
            </Position>
            <AltitudeMeters>550.4000244140625</AltitudeMeters>
            <DistanceMeters>2067.8521247155</DistanceMeters>
          </Trackpoint>
          <Trackpoint>
            <Time>2021-03-21T14:11:36.000Z</Time>
            <Position>
              <LatitudeDegrees>36.72919669188559055328369140625</LatitudeDegrees>
              <LongitudeDegrees>-5.46586328186094760894775390625</LongitudeDegrees>
            </Position>
            <AltitudeMeters>551.5999755859375</AltitudeMeters>
            <DistanceMeters>2069.2226194803</DistanceMeters>
          </Trackpoint>
          <Trackpoint>
            <Time>2021-03-21T14:11:38.000Z</Time>
            <Position>
              <LatitudeDegrees>36.72919048927724361419677734375</LatitudeDegrees>
              <LongitudeDegrees>-5.46586445532739162445068359375</LongitudeDegrees>
            </Position>
            <AltitudeMeters>552</AltitudeMeters>
            <DistanceMeters>2069.9144244033</DistanceMeters>
          </Trackpoint>
          <Trackpoint>
            <Time>2021-03-21T14:11:41.000Z</Time>
            <Position>
              <LatitudeDegrees>36.72918747179210186004638671875</LatitudeDegrees>
              <LongitudeDegrees>-5.4658787883818149566650390625</LongitudeDegrees>
            </Position>
            <AltitudeMeters>552.5999755859375</AltitudeMeters>
            <DistanceMeters>2071.2379933778</DistanceMeters>
          </Trackpoint>
          <Trackpoint>
            <Time>2021-03-21T14:11:49.000Z</Time>
            <Position>
              <LatitudeDegrees>36.7291944287717342376708984375</LatitudeDegrees>
              <LongitudeDegrees>-5.4658911935985088348388671875</LongitudeDegrees>
            </Position>
            <AltitudeMeters>553</AltitudeMeters>
            <DistanceMeters>2072.5919156496</DistanceMeters>
          </Trackpoint>
          <Trackpoint>
            <Time>2021-03-21T14:11:53.000Z</Time>
            <Position>
              <LatitudeDegrees>36.7291964404284954071044921875</LatitudeDegrees>
              <LongitudeDegrees>-5.46591089107096195220947265625</LongitudeDegrees>
            </Position>
            <AltitudeMeters>553.79998779296875</AltitudeMeters>
            <DistanceMeters>2074.3646160198</DistanceMeters>
          </Trackpoint>
          <Trackpoint>
            <Time>2021-03-21T14:12:00.000Z</Time>
            <Position>
              <LatitudeDegrees>36.729208342730998992919921875</LatitudeDegrees>
              <LongitudeDegrees>-5.4659361205995082855224609375</LongitudeDegrees>
            </Position>
            <AltitudeMeters>555</AltitudeMeters>
            <DistanceMeters>2076.9774186896</DistanceMeters>
          </Trackpoint>
          <Trackpoint>
            <Time>2021-03-21T14:12:08.000Z</Time>
            <Position>
              <LatitudeDegrees>36.7292390204966068267822265625</LatitudeDegrees>
              <LongitudeDegrees>-5.4659709893167018890380859375</LongitudeDegrees>
            </Position>
            <AltitudeMeters>556</AltitudeMeters>
            <DistanceMeters>2081.5957561135</DistanceMeters>
          </Trackpoint>
          <Trackpoint>
            <Time>2021-03-21T14:12:13.000Z</Time>
            <Position>
              <LatitudeDegrees>36.72925704158842563629150390625</LatitudeDegrees>
              <LongitudeDegrees>-5.4659994877874851226806640625</LongitudeDegrees>
            </Position>
            <AltitudeMeters>557.20001220703125</AltitudeMeters>
            <DistanceMeters>2084.8336441214</DistanceMeters>
          </Trackpoint>
          <Trackpoint>
            <Time>2021-03-21T14:12:17.000Z</Time>
            <Position>
              <LatitudeDegrees>36.729270704090595245361328125</LatitudeDegrees>
              <LongitudeDegrees>-5.4660259746015071868896484375</LongitudeDegrees>
            </Position>
            <AltitudeMeters>557.5999755859375</AltitudeMeters>
            <DistanceMeters>2087.641357913</DistanceMeters>
          </Trackpoint>
          <Trackpoint>
            <Time>2021-03-21T14:12:24.000Z</Time>
            <Position>
              <LatitudeDegrees>36.72929543070495128631591796875</LatitudeDegrees>
              <LongitudeDegrees>-5.46607048250734806060791015625</LongitudeDegrees>
            </Position>
            <AltitudeMeters>558.20001220703125</AltitudeMeters>
            <DistanceMeters>2092.4718565965</DistanceMeters>
          </Trackpoint>
          <Trackpoint>
            <Time>2021-03-21T14:12:33.000Z</Time>
            <Position>
              <LatitudeDegrees>36.7293040640652179718017578125</LatitudeDegrees>
              <LongitudeDegrees>-5.466137789189815521240234375</LongitudeDegrees>
            </Position>
            <AltitudeMeters>559.4000244140625</AltitudeMeters>
            <DistanceMeters>2098.5520813424</DistanceMeters>
          </Trackpoint>
          <Trackpoint>
            <Time>2021-03-21T14:12:39.000Z</Time>
            <Position>
              <LatitudeDegrees>36.72931454144418239593505859375</LatitudeDegrees>
              <LongitudeDegrees>-5.46617307700216770172119140625</LongitudeDegrees>
            </Position>
            <AltitudeMeters>560.4000244140625</AltitudeMeters>
            <DistanceMeters>2101.9077489847</DistanceMeters>
          </Trackpoint>
          <Trackpoint>
            <Time>2021-03-21T14:12:45.000Z</Time>
            <Position>
              <LatitudeDegrees>36.72932795248925685882568359375</LatitudeDegrees>
              <LongitudeDegrees>-5.4662053473293781280517578125</LongitudeDegrees>
            </Position>
            <AltitudeMeters>561.4000244140625</AltitudeMeters>
            <DistanceMeters>2105.1498176115</DistanceMeters>
          </Trackpoint>
          <Trackpoint>
            <Time>2021-03-21T14:12:52.000Z</Time>
            <Position>
              <LatitudeDegrees>36.729347147047519683837890625</LatitudeDegrees>
              <LongitudeDegrees>-5.4662274755537509918212890625</LongitudeDegrees>
            </Position>
            <AltitudeMeters>562.5999755859375</AltitudeMeters>
            <DistanceMeters>2108.0601804247</DistanceMeters>
          </Trackpoint>
          <Trackpoint>
            <Time>2021-03-21T14:12:59.000Z</Time>
            <Position>
              <LatitudeDegrees>36.72934790141880512237548828125</LatitudeDegrees>
              <LongitudeDegrees>-5.46624004840850830078125</LongitudeDegrees>
            </Position>
            <AltitudeMeters>563.5999755859375</AltitudeMeters>
            <DistanceMeters>2109.1845516722</DistanceMeters>
          </Trackpoint>
          <Trackpoint>
            <Time>2021-03-21T14:13:08.000Z</Time>
            <Position>
              <LatitudeDegrees>36.72933407127857208251953125</LatitudeDegrees>
              <LongitudeDegrees>-5.46627852134406566619873046875</LongitudeDegrees>
            </Position>
            <AltitudeMeters>564.79998779296875</AltitudeMeters>
            <DistanceMeters>2112.9474175832</DistanceMeters>
          </Trackpoint>
          <Trackpoint>
            <Time>2021-03-21T14:13:22.000Z</Time>
            <Position>
              <LatitudeDegrees>36.7292918264865875244140625</LatitudeDegrees>
              <LongitudeDegrees>-5.46635747887194156646728515625</LongitudeDegrees>
            </Position>
            <AltitudeMeters>564.5999755859375</AltitudeMeters>
            <DistanceMeters>2121.4159987582</DistanceMeters>
          </Trackpoint>
          <Trackpoint>
            <Time>2021-03-21T14:13:35.000Z</Time>
            <Position>
              <LatitudeDegrees>36.72928981482982635498046875</LatitudeDegrees>
              <LongitudeDegrees>-5.46639536507427692413330078125</LongitudeDegrees>
            </Position>
            <AltitudeMeters>564.20001220703125</AltitudeMeters>
            <DistanceMeters>2124.8024714192</DistanceMeters>
          </Trackpoint>
          <Trackpoint>
            <Time>2021-03-21T14:13:42.000Z</Time>
            <Position>
              <LatitudeDegrees>36.72927967272698879241943359375</LatitudeDegrees>
              <LongitudeDegrees>-5.4664098657667636871337890625</LongitudeDegrees>
            </Position>
            <AltitudeMeters>563.5999755859375</AltitudeMeters>
            <DistanceMeters>2126.5182234178</DistanceMeters>
          </Trackpoint>
          <Trackpoint>
            <Time>2021-03-21T14:13:59.000Z</Time>
            <Position>
              <LatitudeDegrees>36.72934102825820446014404296875</LatitudeDegrees>
              <LongitudeDegrees>-5.4664148949086666107177734375</LongitudeDegrees>
            </Position>
            <AltitudeMeters>562.5999755859375</AltitudeMeters>
            <DistanceMeters>2133.3614665407</DistanceMeters>
          </Trackpoint>
          <Trackpoint>
            <Time>2021-03-21T14:14:05.000Z</Time>
            <Position>
              <LatitudeDegrees>36.72932610847055912017822265625</LatitudeDegrees>
              <LongitudeDegrees>-5.46641866676509380340576171875</LongitudeDegrees>
            </Position>
            <AltitudeMeters>561.5999755859375</AltitudeMeters>
            <DistanceMeters>2135.0560356036</DistanceMeters>
          </Trackpoint>
          <Trackpoint>
            <Time>2021-03-21T14:14:13.000Z</Time>
            <Position>
              <LatitudeDegrees>36.72934169881045818328857421875</LatitudeDegrees>
              <LongitudeDegrees>-5.46642713248729705810546875</LongitudeDegrees>
            </Position>
            <AltitudeMeters>560.5999755859375</AltitudeMeters>
            <DistanceMeters>2136.949429474</DistanceMeters>
          </Trackpoint>
          <Trackpoint>
            <Time>2021-03-21T14:14:27.000Z</Time>
            <Position>
              <LatitudeDegrees>36.7293627373874187469482421875</LatitudeDegrees>
              <LongitudeDegrees>-5.46646141447126865386962890625</LongitudeDegrees>
            </Position>
            <AltitudeMeters>559.4000244140625</AltitudeMeters>
            <DistanceMeters>2140.800063905</DistanceMeters>
          </Trackpoint>
          <Trackpoint>
            <Time>2021-03-21T14:14:40.000Z</Time>
            <Position>
              <LatitudeDegrees>36.72935477457940578460693359375</LatitudeDegrees>
              <LongitudeDegrees>-5.46651975251734256744384765625</LongitudeDegrees>
            </Position>
            <AltitudeMeters>558.4000244140625</AltitudeMeters>
            <DistanceMeters>2146.0789668124</DistanceMeters>
          </Trackpoint>
          <Trackpoint>
            <Time>2021-03-21T14:14:49.000Z</Time>
            <Position>
              <LatitudeDegrees>36.72935913316905498504638671875</LatitudeDegrees>
              <LongitudeDegrees>-5.46654188074171543121337890625</LongitudeDegrees>
            </Position>
            <AltitudeMeters>557.20001220703125</AltitudeMeters>
            <DistanceMeters>2148.112627308</DistanceMeters>
          </Trackpoint>
          <Trackpoint>
            <Time>2021-03-21T14:14:57.000Z</Time>
            <Position>
              <LatitudeDegrees>36.72938369214534759521484375</LatitudeDegrees>
              <LongitudeDegrees>-5.46652277000248432159423828125</LongitudeDegrees>
            </Position>
            <AltitudeMeters>556.79998779296875</AltitudeMeters>
            <DistanceMeters>2151.3337385811</DistanceMeters>
          </Trackpoint>
          <Trackpoint>
            <Time>2021-03-21T14:15:03.000Z</Time>
            <Position>
              <LatitudeDegrees>36.7294177226722240447998046875</LatitudeDegrees>
              <LongitudeDegrees>-5.4665215127170085906982421875</LongitudeDegrees>
            </Position>
            <AltitudeMeters>556.5999755859375</AltitudeMeters>
            <DistanceMeters>2155.1229101985</DistanceMeters>
          </Trackpoint>
          <Trackpoint>
            <Time>2021-03-21T14:15:05.000Z</Time>
            <Position>
              <LatitudeDegrees>36.7294341512024402618408203125</LatitudeDegrees>
              <LongitudeDegrees>-5.46652159653604030609130859375</LongitudeDegrees>
            </Position>
            <AltitudeMeters>556.20001220703125</AltitudeMeters>
            <DistanceMeters>2156.9532539806</DistanceMeters>
          </Trackpoint>
          <Trackpoint>
            <Time>2021-03-21T14:15:23.000Z</Time>
            <Position>
              <LatitudeDegrees>36.72944496385753154754638671875</LatitudeDegrees>
              <LongitudeDegrees>-5.466571636497974395751953125</LongitudeDegrees>
            </Position>
            <AltitudeMeters>555.79998779296875</AltitudeMeters>
            <DistanceMeters>2161.5755002815</DistanceMeters>
          </Trackpoint>
          <Trackpoint>
            <Time>2021-03-21T14:15:32.000Z</Time>
            <Position>
              <LatitudeDegrees>36.72945150174200534820556640625</LatitudeDegrees>
              <LongitudeDegrees>-5.46657389961183071136474609375</LongitudeDegrees>
            </Position>
            <AltitudeMeters>555.4000244140625</AltitudeMeters>
            <DistanceMeters>2162.3357139965</DistanceMeters>
          </Trackpoint>
          <Trackpoint>
            <Time>2021-03-21T14:15:40.000Z</Time>
            <Position>
              <LatitudeDegrees>36.72945099882781505584716796875</LatitudeDegrees>
              <LongitudeDegrees>-5.466585718095302581787109375</LongitudeDegrees>
            </Position>
            <AltitudeMeters>555.20001220703125</AltitudeMeters>
            <DistanceMeters>2163.3938867041</DistanceMeters>
          </Trackpoint>
          <Trackpoint>
            <Time>2021-03-21T14:15:56.000Z</Time>
            <Position>
              <LatitudeDegrees>36.72946759499609470367431640625</LatitudeDegrees>
              <LongitudeDegrees>-5.46662720851600170135498046875</LongitudeDegrees>
            </Position>
            <AltitudeMeters>554</AltitudeMeters>
            <DistanceMeters>2167.5294597943</DistanceMeters>
          </Trackpoint>
          <Trackpoint>
            <Time>2021-03-21T14:16:02.000Z</Time>
            <Position>
              <LatitudeDegrees>36.7294881306588649749755859375</LatitudeDegrees>
              <LongitudeDegrees>-5.46663190238177776336669921875</LongitudeDegrees>
            </Position>
            <AltitudeMeters>553.5999755859375</AltitudeMeters>
            <DistanceMeters>2169.8513029495</DistanceMeters>
          </Trackpoint>
          <Trackpoint>
            <Time>2021-03-21T14:16:03.000Z</Time>
            <Position>
              <LatitudeDegrees>36.7294931598007678985595703125</LatitudeDegrees>
              <LongitudeDegrees>-5.46663357876241207122802734375</LongitudeDegrees>
            </Position>
            <AltitudeMeters>553.5999755859375</AltitudeMeters>
            <DistanceMeters>2170.4370869582</DistanceMeters>
          </Trackpoint>
          <Trackpoint>
            <Time>2021-03-21T14:16:04.000Z</Time>
            <Position>
              <LatitudeDegrees>36.72949860803782939910888671875</LatitudeDegrees>
              <LongitudeDegrees>-5.46663039363920688629150390625</LongitudeDegrees>
            </Position>
            <AltitudeMeters>553.5999755859375</AltitudeMeters>
            <DistanceMeters>2171.1022739588</DistanceMeters>
          </Trackpoint>
          <Trackpoint>
            <Time>2021-03-21T14:16:21.000Z</Time>
            <Position>
              <LatitudeDegrees>36.72958485782146453857421875</LatitudeDegrees>
              <LongitudeDegrees>-5.46657859347760677337646484375</LongitudeDegrees>
            </Position>
            <AltitudeMeters>554.20001220703125</AltitudeMeters>
            <DistanceMeters>2181.7562901452</DistanceMeters>
          </Trackpoint>
          <Trackpoint>
            <Time>2021-03-21T14:16:25.000Z</Time>
            <Position>
              <LatitudeDegrees>36.7295877076685428619384765625</LatitudeDegrees>
              <LongitudeDegrees>-5.46657733619213104248046875</LongitudeDegrees>
            </Position>
            <AltitudeMeters>554.79998779296875</AltitudeMeters>
            <DistanceMeters>2182.0854723399</DistanceMeters>
          </Trackpoint>
          <Trackpoint>
            <Time>2021-03-21T14:16:27.000Z</Time>
            <Position>
              <LatitudeDegrees>36.72958695329725742340087890625</LatitudeDegrees>
              <LongitudeDegrees>-5.4665691219270229339599609375</LongitudeDegrees>
            </Position>
            <AltitudeMeters>555</AltitudeMeters>
            <DistanceMeters>2182.8215461043</DistanceMeters>
          </Trackpoint>
          <Trackpoint>
            <Time>2021-03-21T14:16:31.000Z</Time>
            <Position>
              <LatitudeDegrees>36.7295841872692108154296875</LatitudeDegrees>
              <LongitudeDegrees>-5.4665587283670902252197265625</LongitudeDegrees>
            </Position>
            <AltitudeMeters>555.20001220703125</AltitudeMeters>
            <DistanceMeters>2183.7906322461</DistanceMeters>
          </Trackpoint>
          <Trackpoint>
            <Time>2021-03-21T14:16:36.000Z</Time>
            <Position>
              <LatitudeDegrees>36.729587204754352569580078125</LatitudeDegrees>
              <LongitudeDegrees>-5.466555543243885040283203125</LongitudeDegrees>
            </Position>
            <AltitudeMeters>555.20001220703125</AltitudeMeters>
            <DistanceMeters>2184.2363470448</DistanceMeters>
          </Trackpoint>
          <Trackpoint>
            <Time>2021-03-21T14:16:38.000Z</Time>
            <Position>
              <LatitudeDegrees>36.72958846203982830047607421875</LatitudeDegrees>
              <LongitudeDegrees>-5.4665557108819484710693359375</LongitudeDegrees>
            </Position>
            <AltitudeMeters>555.20001220703125</AltitudeMeters>
            <DistanceMeters>2184.370735113</DistanceMeters>
          </Trackpoint>
          <Trackpoint>
            <Time>2021-03-21T14:16:43.000Z</Time>
            <Position>
              <LatitudeDegrees>36.72958527691662311553955078125</LatitudeDegrees>
              <LongitudeDegrees>-5.4665605723857879638671875</LongitudeDegrees>
            </Position>
            <AltitudeMeters>555.20001220703125</AltitudeMeters>
            <DistanceMeters>2184.9248313132</DistanceMeters>
          </Trackpoint>
          <Trackpoint>
            <Time>2021-03-21T14:17:01.000Z</Time>
            <Position>
              <LatitudeDegrees>36.72956566326320171356201171875</LatitudeDegrees>
              <LongitudeDegrees>-5.46656618826091289520263671875</LongitudeDegrees>
            </Position>
            <AltitudeMeters>555</AltitudeMeters>
            <DistanceMeters>2187.1655281921</DistanceMeters>
          </Trackpoint>
          <Trackpoint>
            <Time>2021-03-21T14:17:04.000Z</Time>
            <Position>
              <LatitudeDegrees>36.72956583090126514434814453125</LatitudeDegrees>
              <LongitudeDegrees>-5.4665624164044857025146484375</LongitudeDegrees>
            </Position>
            <AltitudeMeters>554.79998779296875</AltitudeMeters>
            <DistanceMeters>2187.5210855999</DistanceMeters>
          </Trackpoint>
          <Trackpoint>
            <Time>2021-03-21T14:17:09.000Z</Time>
            <Position>
              <LatitudeDegrees>36.7295618914067745208740234375</LatitudeDegrees>
              <LongitudeDegrees>-5.46656937338411808013916015625</LongitudeDegrees>
            </Position>
            <AltitudeMeters>554.79998779296875</AltitudeMeters>
            <DistanceMeters>2188.2753367622</DistanceMeters>
          </Trackpoint>
          <Trackpoint>
            <Time>2021-03-21T14:17:12.000Z</Time>
            <Position>
              <LatitudeDegrees>36.729559712111949920654296875</LatitudeDegrees>
              <LongitudeDegrees>-5.46658747829496860504150390625</LongitudeDegrees>
            </Position>
            <AltitudeMeters>553.79998779296875</AltitudeMeters>
            <DistanceMeters>2189.9102381744</DistanceMeters>
          </Trackpoint>
          <Trackpoint>
            <Time>2021-03-21T14:17:13.000Z</Time>
            <Position>
              <LatitudeDegrees>36.72955996356904506683349609375</LatitudeDegrees>
              <LongitudeDegrees>-5.46659133397042751312255859375</LongitudeDegrees>
            </Position>
            <AltitudeMeters>552.5999755859375</AltitudeMeters>
            <DistanceMeters>2190.2528618656</DistanceMeters>
          </Trackpoint>
          <Trackpoint>
            <Time>2021-03-21T14:17:17.000Z</Time>
            <Position>
              <LatitudeDegrees>36.72955208458006381988525390625</LatitudeDegrees>
              <LongitudeDegrees>-5.466607846319675445556640625</LongitudeDegrees>
            </Position>
            <AltitudeMeters>553.79998779296875</AltitudeMeters>
            <DistanceMeters>2191.9659803216</DistanceMeters>
          </Trackpoint>
          <Trackpoint>
            <Time>2021-03-21T14:17:19.000Z</Time>
            <Position>
              <LatitudeDegrees>36.72954889945685863494873046875</LatitudeDegrees>
              <LongitudeDegrees>-5.4666056670248508453369140625</LongitudeDegrees>
            </Position>
            <AltitudeMeters>552.79998779296875</AltitudeMeters>
            <DistanceMeters>2192.3691445263</DistanceMeters>
          </Trackpoint>
          <Trackpoint>
            <Time>2021-03-21T14:17:27.000Z</Time>
            <Position>
              <LatitudeDegrees>36.72953314147889614105224609375</LatitudeDegrees>
              <LongitudeDegrees>-5.4666378535330295562744140625</LongitudeDegrees>
            </Position>
            <AltitudeMeters>551.79998779296875</AltitudeMeters>
            <DistanceMeters>2195.7342174618</DistanceMeters>
          </Trackpoint>
          <Trackpoint>
            <Time>2021-03-21T14:17:46.000Z</Time>
            <Position>
              <LatitudeDegrees>36.7294861190021038055419921875</LatitudeDegrees>
              <LongitudeDegrees>-5.466719828546047210693359375</LongitudeDegrees>
            </Position>
            <AltitudeMeters>550.5999755859375</AltitudeMeters>
            <DistanceMeters>2204.7271794116</DistanceMeters>
          </Trackpoint>
          <Trackpoint>
            <Time>2021-03-21T14:17:57.000Z</Time>
            <Position>
              <LatitudeDegrees>36.72947413288056850433349609375</LatitudeDegrees>
              <LongitudeDegrees>-5.4667672701179981231689453125</LongitudeDegrees>
            </Position>
            <AltitudeMeters>549.5999755859375</AltitudeMeters>
            <DistanceMeters>2209.1650388871</DistanceMeters>
          </Trackpoint>
          <Trackpoint>
            <Time>2021-03-21T14:18:08.000Z</Time>
            <Position>
              <LatitudeDegrees>36.72947580926120281219482421875</LatitudeDegrees>
              <LongitudeDegrees>-5.46675570309162139892578125</LongitudeDegrees>
            </Position>
            <AltitudeMeters>548.5999755859375</AltitudeMeters>
            <DistanceMeters>2210.2146432536</DistanceMeters>
          </Trackpoint>
          <Trackpoint>
            <Time>2021-03-21T14:18:20.000Z</Time>
            <Position>
              <LatitudeDegrees>36.72943976707756519317626953125</LatitudeDegrees>
              <LongitudeDegrees>-5.46677992679178714752197265625</LongitudeDegrees>
            </Position>
            <AltitudeMeters>548.5999755859375</AltitudeMeters>
            <DistanceMeters>2214.771964377</DistanceMeters>
          </Trackpoint>
          <Trackpoint>
            <Time>2021-03-21T14:18:39.000Z</Time>
            <Position>
              <LatitudeDegrees>36.72934991307556629180908203125</LatitudeDegrees>
              <LongitudeDegrees>-5.4668420366942882537841796875</LongitudeDegrees>
            </Position>
            <AltitudeMeters>548.4000244140625</AltitudeMeters>
            <DistanceMeters>2226.2052222942</DistanceMeters>
          </Trackpoint>
          <Trackpoint>
            <Time>2021-03-21T14:18:41.000Z</Time>
            <Position>
              <LatitudeDegrees>36.7293496616184711456298828125</LatitudeDegrees>
              <LongitudeDegrees>-5.46684513799846172332763671875</LongitudeDegrees>
            </Position>
            <AltitudeMeters>548.4000244140625</AltitudeMeters>
            <DistanceMeters>2226.4739984307</DistanceMeters>
          </Trackpoint>
          <Trackpoint>
            <Time>2021-03-21T14:18:46.000Z</Time>
            <Position>
              <LatitudeDegrees>36.7293483205139636993408203125</LatitudeDegrees>
              <LongitudeDegrees>-5.4668433777987957000732421875</LongitudeDegrees>
            </Position>
            <AltitudeMeters>548.4000244140625</AltitudeMeters>
            <DistanceMeters>2226.6864846237</DistanceMeters>
          </Trackpoint>
          <Trackpoint>
            <Time>2021-03-21T14:18:49.000Z</Time>
            <Position>
              <LatitudeDegrees>36.72933650203049182891845703125</LatitudeDegrees>
              <LongitudeDegrees>-5.466851927340030670166015625</LongitudeDegrees>
            </Position>
            <AltitudeMeters>548.20001220703125</AltitudeMeters>
            <DistanceMeters>2228.2069120536</DistanceMeters>
          </Trackpoint>
          <Trackpoint>
            <Time>2021-03-21T14:18:57.000Z</Time>
            <Position>
              <LatitudeDegrees>36.72933164052665233612060546875</LatitudeDegrees>
              <LongitudeDegrees>-5.4669023863971233367919921875</LongitudeDegrees>
            </Position>
            <AltitudeMeters>548.20001220703125</AltitudeMeters>
            <DistanceMeters>2232.7403934958</DistanceMeters>
          </Trackpoint>
          <Trackpoint>
            <Time>2021-03-21T14:19:04.000Z</Time>
            <Position>
              <LatitudeDegrees>36.72934748232364654541015625</LatitudeDegrees>
              <LongitudeDegrees>-5.466978661715984344482421875</LongitudeDegrees>
            </Position>
            <AltitudeMeters>548.20001220703125</AltitudeMeters>
            <DistanceMeters>2239.7698016004</DistanceMeters>
          </Trackpoint>
          <Trackpoint>
            <Time>2021-03-21T14:19:08.000Z</Time>
            <Position>
              <LatitudeDegrees>36.7293493263423442840576171875</LatitudeDegrees>
              <LongitudeDegrees>-5.46702300198376178741455078125</LongitudeDegrees>
            </Position>
            <AltitudeMeters>548.20001220703125</AltitudeMeters>
            <DistanceMeters>2243.7314013858</DistanceMeters>
          </Trackpoint>
          <Trackpoint>
            <Time>2021-03-21T14:19:10.000Z</Time>
            <Position>
              <LatitudeDegrees>36.72934840433299541473388671875</LatitudeDegrees>
              <LongitudeDegrees>-5.4670398496091365814208984375</LongitudeDegrees>
            </Position>
            <AltitudeMeters>548</AltitudeMeters>
            <DistanceMeters>2245.2399037106</DistanceMeters>
          </Trackpoint>
          <Trackpoint>
            <Time>2021-03-21T14:19:11.000Z</Time>
            <Position>
              <LatitudeDegrees>36.72934857197105884552001953125</LatitudeDegrees>
              <LongitudeDegrees>-5.467050075531005859375</LongitudeDegrees>
            </Position>
            <AltitudeMeters>548</AltitudeMeters>
            <DistanceMeters>2246.1513679353</DistanceMeters>
          </Trackpoint>
          <Trackpoint>
            <Time>2021-03-21T14:19:12.000Z</Time>
            <Position>
              <LatitudeDegrees>36.7293493263423442840576171875</LatitudeDegrees>
              <LongitudeDegrees>-5.46705669723451137542724609375</LongitudeDegrees>
            </Position>
            <AltitudeMeters>547.79998779296875</AltitudeMeters>
            <DistanceMeters>2246.7523696472</DistanceMeters>
          </Trackpoint>
          <Trackpoint>
            <Time>2021-03-21T14:19:13.000Z</Time>
            <Position>
              <LatitudeDegrees>36.729350499808788299560546875</LatitudeDegrees>
              <LongitudeDegrees>-5.46706390567123889923095703125</LongitudeDegrees>
            </Position>
            <AltitudeMeters>547.5999755859375</AltitudeMeters>
            <DistanceMeters>2247.4107340367</DistanceMeters>
          </Trackpoint>
          <Trackpoint>
            <Time>2021-03-21T14:19:15.000Z</Time>
            <Position>
              <LatitudeDegrees>36.7293520085513591766357421875</LatitudeDegrees>
              <LongitudeDegrees>-5.467080585658550262451171875</LongitudeDegrees>
            </Position>
            <AltitudeMeters>547.5999755859375</AltitudeMeters>
            <DistanceMeters>2248.9072162311</DistanceMeters>
          </Trackpoint>
          <Trackpoint>
            <Time>2021-03-21T14:19:17.000Z</Time>
            <Position>
              <LatitudeDegrees>36.72935108654201030731201171875</LatitudeDegrees>
              <LongitudeDegrees>-5.4670996963977813720703125</LongitudeDegrees>
            </Position>
            <AltitudeMeters>547.4000244140625</AltitudeMeters>
            <DistanceMeters>2250.6176970897</DistanceMeters>
          </Trackpoint>
          <Trackpoint>
            <Time>2021-03-21T14:19:19.000Z</Time>
            <Position>
              <LatitudeDegrees>36.729352511465549468994140625</LatitudeDegrees>
              <LongitudeDegrees>-5.46711511909961700439453125</LongitudeDegrees>
            </Position>
            <AltitudeMeters>547.5999755859375</AltitudeMeters>
            <DistanceMeters>2251.9980398478</DistanceMeters>
          </Trackpoint>
          <Trackpoint>
            <Time>2021-03-21T14:19:20.000Z</Time>
            <Position>
              <LatitudeDegrees>36.72935158945620059967041015625</LatitudeDegrees>
              <LongitudeDegrees>-5.4671209864318370819091796875</LongitudeDegrees>
            </Position>
            <AltitudeMeters>547.5999755859375</AltitudeMeters>
            <DistanceMeters>2252.5355921208</DistanceMeters>
          </Trackpoint>
          <Trackpoint>
            <Time>2021-03-21T14:19:27.000Z</Time>
            <Position>
              <LatitudeDegrees>36.72933935187757015228271484375</LatitudeDegrees>
              <LongitudeDegrees>-5.4671655781567096710205078125</LongitudeDegrees>
            </Position>
            <AltitudeMeters>548.5999755859375</AltitudeMeters>
            <DistanceMeters>2256.7393832194</DistanceMeters>
          </Trackpoint>
          <Trackpoint>
            <Time>2021-03-21T14:19:33.000Z</Time>
            <Position>
              <LatitudeDegrees>36.72932174988090991973876953125</LatitudeDegrees>
              <LongitudeDegrees>-5.46720606274902820587158203125</LongitudeDegrees>
            </Position>
            <AltitudeMeters>549.79998779296875</AltitudeMeters>
            <DistanceMeters>2260.8486706211</DistanceMeters>
          </Trackpoint>
          <Trackpoint>
            <Time>2021-03-21T14:19:34.000Z</Time>
            <Position>
              <LatitudeDegrees>36.729316972196102142333984375</LatitudeDegrees>
              <LongitudeDegrees>-5.46721042133867740631103515625</LongitudeDegrees>
            </Position>
            <AltitudeMeters>550</AltitudeMeters>
            <DistanceMeters>2261.5138576217</DistanceMeters>
          </Trackpoint>
          <Trackpoint>
            <Time>2021-03-21T14:19:35.000Z</Time>
            <Position>
              <LatitudeDegrees>36.7293107695877552032470703125</LatitudeDegrees>
              <LongitudeDegrees>-5.46721209771931171417236328125</LongitudeDegrees>
            </Position>
            <AltitudeMeters>550.4000244140625</AltitudeMeters>
            <DistanceMeters>2262.2185945971</DistanceMeters>
          </Trackpoint>
          <Trackpoint>
            <Time>2021-03-21T14:19:36.000Z</Time>
            <Position>
              <LatitudeDegrees>36.72930850647389888763427734375</LatitudeDegrees>
              <LongitudeDegrees>-5.46721167862415313720703125</LongitudeDegrees>
            </Position>
            <AltitudeMeters>551</AltitudeMeters>
            <DistanceMeters>2262.4513615592</DistanceMeters>
          </Trackpoint>
          <Trackpoint>
            <Time>2021-03-21T14:19:37.000Z</Time>
            <Position>
              <LatitudeDegrees>36.72930766828358173370361328125</LatitudeDegrees>
              <LongitudeDegrees>-5.4672123491764068603515625</LongitudeDegrees>
            </Position>
            <AltitudeMeters>551.20001220703125</AltitudeMeters>
            <DistanceMeters>2262.5463882736</DistanceMeters>
          </Trackpoint>
          <Trackpoint>
            <Time>2021-03-21T14:19:39.000Z</Time>
            <Position>
              <LatitudeDegrees>36.72930045984685420989990234375</LatitudeDegrees>
              <LongitudeDegrees>-5.46721243299543857574462890625</LongitudeDegrees>
            </Position>
            <AltitudeMeters>551.5999755859375</AltitudeMeters>
            <DistanceMeters>2263.3470976013</DistanceMeters>
          </Trackpoint>
          <Trackpoint>
            <Time>2021-03-21T14:19:42.000Z</Time>
            <Position>
              <LatitudeDegrees>36.72928981482982635498046875</LatitudeDegrees>
              <LongitudeDegrees>-5.46720706857740879058837890625</LongitudeDegrees>
            </Position>
            <AltitudeMeters>552.20001220703125</AltitudeMeters>
            <DistanceMeters>2264.6220147594</DistanceMeters>
          </Trackpoint>
          <Trackpoint>
            <Time>2021-03-21T14:20:56.000Z</Time>
            <Position>
              <LatitudeDegrees>36.72927229665219783782958984375</LatitudeDegrees>
              <LongitudeDegrees>-5.46722584404051303863525390625</LongitudeDegrees>
            </Position>
            <AltitudeMeters>552</AltitudeMeters>
            <DistanceMeters>2267.1930098891</DistanceMeters>
          </Trackpoint>
          <Trackpoint>
            <Time>2021-03-21T14:21:25.000Z</Time>
            <Position>
              <LatitudeDegrees>36.72929584980010986328125</LatitudeDegrees>
              <LongitudeDegrees>-5.46723858453333377838134765625</LongitudeDegrees>
            </Position>
            <AltitudeMeters>551.79998779296875</AltitudeMeters>
            <DistanceMeters>2270.050139411</DistanceMeters>
          </Trackpoint>
          <Trackpoint>
            <Time>2021-03-21T14:21:55.000Z</Time>
            <Position>
              <LatitudeDegrees>36.72931353561580181121826171875</LatitudeDegrees>
              <LongitudeDegrees>-5.46728535555303096771240234375</LongitudeDegrees>
            </Position>
            <AltitudeMeters>552.20001220703125</AltitudeMeters>
            <DistanceMeters>2274.6635860812</DistanceMeters>
          </Trackpoint>
          <Trackpoint>
            <Time>2021-03-21T14:22:02.000Z</Time>
            <Position>
              <LatitudeDegrees>36.7293188162147998809814453125</LatitudeDegrees>
              <LongitudeDegrees>-5.46728502027690410614013671875</LongitudeDegrees>
            </Position>
            <AltitudeMeters>553</AltitudeMeters>
            <DistanceMeters>2275.2493700899</DistanceMeters>
          </Trackpoint>
          <Trackpoint>
            <Time>2021-03-21T14:22:15.000Z</Time>
            <Position>
              <LatitudeDegrees>36.72932602465152740478515625</LatitudeDegrees>
              <LongitudeDegrees>-5.46728267334401607513427734375</LongitudeDegrees>
            </Position>
            <AltitudeMeters>552.79998779296875</AltitudeMeters>
            <DistanceMeters>2276.0777937797</DistanceMeters>
          </Trackpoint>
          <Trackpoint>
            <Time>2021-03-21T14:22:31.000Z</Time>
            <Position>
              <LatitudeDegrees>36.7293463088572025299072265625</LatitudeDegrees>
              <LongitudeDegrees>-5.46726456843316555023193359375</LongitudeDegrees>
            </Position>
            <AltitudeMeters>553</AltitudeMeters>
            <DistanceMeters>2278.8531595586</DistanceMeters>
          </Trackpoint>
          <Trackpoint>
            <Time>2021-03-21T14:22:33.000Z</Time>
            <Position>
              <LatitudeDegrees>36.72934656031429767608642578125</LatitudeDegrees>
              <LongitudeDegrees>-5.46726373024284839630126953125</LongitudeDegrees>
            </Position>
            <AltitudeMeters>553.20001220703125</AltitudeMeters>
            <DistanceMeters>2278.8531595586</DistanceMeters>
          </Trackpoint>
          <Trackpoint>
            <Time>2021-03-21T14:23:10.000Z</Time>
            <Position>
              <LatitudeDegrees>36.72935544513165950775146484375</LatitudeDegrees>
              <LongitudeDegrees>-5.46723640523850917816162109375</LongitudeDegrees>
            </Position>
            <AltitudeMeters>553.5999755859375</AltitudeMeters>
            <DistanceMeters>2281.4831858999</DistanceMeters>
          </Trackpoint>
          <Trackpoint>
            <Time>2021-03-21T14:23:12.000Z</Time>
            <Position>
              <LatitudeDegrees>36.72935578040778636932373046875</LatitudeDegrees>
              <LongitudeDegrees>-5.4672296158969402313232421875</LongitudeDegrees>
            </Position>
            <AltitudeMeters>553.5999755859375</AltitudeMeters>
            <DistanceMeters>2282.0841876118</DistanceMeters>
          </Trackpoint>
          <Trackpoint>
            <Time>2021-03-21T14:23:15.000Z</Time>
            <Position>
              <LatitudeDegrees>36.7293546907603740692138671875</LatitudeDegrees>
              <LongitudeDegrees>-5.46722718514502048492431640625</LongitudeDegrees>
            </Position>
            <AltitudeMeters>553.5999755859375</AltitudeMeters>
            <DistanceMeters>2282.3529637483</DistanceMeters>
          </Trackpoint>
          <Trackpoint>
            <Time>2021-03-21T14:23:16.000Z</Time>
            <Position>
              <LatitudeDegrees>36.72935360111296176910400390625</LatitudeDegrees>
              <LongitudeDegrees>-5.46722701750695705413818359375</LongitudeDegrees>
            </Position>
            <AltitudeMeters>553.5999755859375</AltitudeMeters>
            <DistanceMeters>2282.4873518166</DistanceMeters>
          </Trackpoint>
          <Trackpoint>
            <Time>2021-03-21T14:23:19.000Z</Time>
            <Position>
              <LatitudeDegrees>36.72935125418007373809814453125</LatitudeDegrees>
              <LongitudeDegrees>-5.4672296158969402313232421875</LongitudeDegrees>
            </Position>
            <AltitudeMeters>553.5999755859375</AltitudeMeters>
            <DistanceMeters>2282.8429092243</DistanceMeters>
          </Trackpoint>
          <Trackpoint>
            <Time>2021-03-21T14:23:21.000Z</Time>
            <Position>
              <LatitudeDegrees>36.72935091890394687652587890625</LatitudeDegrees>
              <LongitudeDegrees>-5.46723053790628910064697265625</LongitudeDegrees>
            </Position>
            <AltitudeMeters>553.5999755859375</AltitudeMeters>
            <DistanceMeters>2282.9772972926</DistanceMeters>
          </Trackpoint>
          <Trackpoint>
            <Time>2021-03-21T14:23:23.000Z</Time>
            <Position>
              <LatitudeDegrees>36.7293503321707248687744140625</LatitudeDegrees>
              <LongitudeDegrees>-5.467229783535003662109375</LongitudeDegrees>
            </Position>
            <AltitudeMeters>553.5999755859375</AltitudeMeters>
            <DistanceMeters>2283.1116853608</DistanceMeters>
          </Trackpoint>
          <Trackpoint>
            <Time>2021-03-21T14:23:25.000Z</Time>
            <Position>
              <LatitudeDegrees>36.7293481528759002685546875</LatitudeDegrees>
              <LongitudeDegrees>-5.467228107154369354248046875</LongitudeDegrees>
            </Position>
            <AltitudeMeters>553.5999755859375</AltitudeMeters>
            <DistanceMeters>2283.4121862168</DistanceMeters>
          </Trackpoint>
          <Trackpoint>
            <Time>2021-03-21T14:23:32.000Z</Time>
            <Position>
              <LatitudeDegrees>36.72934102825820446014404296875</LatitudeDegrees>
              <LongitudeDegrees>-5.46722467057406902313232421875</LongitudeDegrees>
            </Position>
            <AltitudeMeters>553.5999755859375</AltitudeMeters>
            <DistanceMeters>2284.256802129</DistanceMeters>
          </Trackpoint>
          <Trackpoint>
            <Time>2021-03-21T14:23:38.000Z</Time>
            <Position>
              <LatitudeDegrees>36.72934211790561676025390625</LatitudeDegrees>
              <LongitudeDegrees>-5.4672232456505298614501953125</LongitudeDegrees>
            </Position>
            <AltitudeMeters>553.5999755859375</AltitudeMeters>
            <DistanceMeters>2284.4213932263</DistanceMeters>
          </Trackpoint>
          <Trackpoint>
            <Time>2021-03-21T14:23:51.000Z</Time>
            <Position>
              <LatitudeDegrees>36.729337759315967559814453125</LatitudeDegrees>
              <LongitudeDegrees>-5.4672188870608806610107421875</LongitudeDegrees>
            </Position>
            <AltitudeMeters>553.5999755859375</AltitudeMeters>
            <DistanceMeters>2285.044525064</DistanceMeters>
          </Trackpoint>
          <Trackpoint>
            <Time>2021-03-21T14:23:58.000Z</Time>
            <Position>
              <LatitudeDegrees>36.7293342389166355133056640625</LatitudeDegrees>
              <LongitudeDegrees>-5.46721494756639003753662109375</LongitudeDegrees>
            </Position>
            <AltitudeMeters>553.5999755859375</AltitudeMeters>
            <DistanceMeters>2285.5650078143</DistanceMeters>
          </Trackpoint>
          <Trackpoint>
            <Time>2021-03-21T14:25:41.000Z</Time>
            <Position>
              <LatitudeDegrees>36.72933063469827175140380859375</LatitudeDegrees>
              <LongitudeDegrees>-5.46720631420612335205078125</LongitudeDegrees>
            </Position>
            <AltitudeMeters>553.5999755859375</AltitudeMeters>
            <DistanceMeters>2286.4307423838</DistanceMeters>
          </Trackpoint>
          <Trackpoint>
            <Time>2021-03-21T14:25:42.000Z</Time>
            <Position>
              <LatitudeDegrees>36.7293328978121280670166015625</LatitudeDegrees>
              <LongitudeDegrees>-5.4672071523964405059814453125</LongitudeDegrees>
            </Position>
            <AltitudeMeters>553.5999755859375</AltitudeMeters>
            <DistanceMeters>2286.6995185203</DistanceMeters>
          </Trackpoint>
          <Trackpoint>
            <Time>2021-03-21T14:25:54.000Z</Time>
            <Position>
              <LatitudeDegrees>36.72934002242982387542724609375</LatitudeDegrees>
              <LongitudeDegrees>-5.467155687510967254638671875</LongitudeDegrees>
            </Position>
            <AltitudeMeters>552.20001220703125</AltitudeMeters>
            <DistanceMeters>2291.3587355973</DistanceMeters>
          </Trackpoint>
          <Trackpoint>
            <Time>2021-03-21T14:26:01.000Z</Time>
            <Position>
              <LatitudeDegrees>36.7293402738869190216064453125</LatitudeDegrees>
              <LongitudeDegrees>-5.46708703972399234771728515625</LongitudeDegrees>
            </Position>
            <AltitudeMeters>551.20001220703125</AltitudeMeters>
            <DistanceMeters>2297.4818783684</DistanceMeters>
          </Trackpoint>
          <Trackpoint>
            <Time>2021-03-21T14:26:04.000Z</Time>
            <Position>
              <LatitudeDegrees>36.72934739850461483001708984375</LatitudeDegrees>
              <LongitudeDegrees>-5.46705300919711589813232421875</LongitudeDegrees>
            </Position>
            <AltitudeMeters>550.4000244140625</AltitudeMeters>
            <DistanceMeters>2300.6206382191</DistanceMeters>
          </Trackpoint>
          <Trackpoint>
            <Time>2021-03-21T14:26:05.000Z</Time>
            <Position>
              <LatitudeDegrees>36.72934890724718570709228515625</LatitudeDegrees>
              <LongitudeDegrees>-5.46704093925654888153076171875</LongitudeDegrees>
            </Position>
            <AltitudeMeters>550</AltitudeMeters>
            <DistanceMeters>2301.7082686776</DistanceMeters>
          </Trackpoint>
          <Trackpoint>
            <Time>2021-03-21T14:26:07.000Z</Time>
            <Position>
              <LatitudeDegrees>36.72934639267623424530029296875</LatitudeDegrees>
              <LongitudeDegrees>-5.4670165479183197021484375</LongitudeDegrees>
            </Position>
            <AltitudeMeters>549.5999755859375</AltitudeMeters>
            <DistanceMeters>2303.9041878066</DistanceMeters>
          </Trackpoint>
          <Trackpoint>
            <Time>2021-03-21T14:26:08.000Z</Time>
            <Position>
              <LatitudeDegrees>36.72934622503817081451416015625</LatitudeDegrees>
              <LongitudeDegrees>-5.46700154431164264678955078125</LongitudeDegrees>
            </Position>
            <AltitudeMeters>549.5999755859375</AltitudeMeters>
            <DistanceMeters>2305.2447045772</DistanceMeters>
          </Trackpoint>
          <Trackpoint>
            <Time>2021-03-21T14:26:10.000Z</Time>
            <Position>
              <LatitudeDegrees>36.72934471629559993743896484375</LatitudeDegrees>
              <LongitudeDegrees>-5.46697572804987430572509765625</LongitudeDegrees>
            </Position>
            <AltitudeMeters>549.4000244140625</AltitudeMeters>
            <DistanceMeters>2307.5528954493</DistanceMeters>
          </Trackpoint>
          <Trackpoint>
            <Time>2021-03-21T14:26:15.000Z</Time>
            <Position>
              <LatitudeDegrees>36.72935611568391323089599609375</LatitudeDegrees>
              <LongitudeDegrees>-5.4669164679944515228271484375</LongitudeDegrees>
            </Position>
            <AltitudeMeters>548</AltitudeMeters>
            <DistanceMeters>2312.9893869835</DistanceMeters>
          </Trackpoint>
          <Trackpoint>
            <Time>2021-03-21T14:26:19.000Z</Time>
            <Position>
              <LatitudeDegrees>36.7293711192905902862548828125</LatitudeDegrees>
              <LongitudeDegrees>-5.46688704751431941986083984375</LongitudeDegrees>
            </Position>
            <AltitudeMeters>547.5999755859375</AltitudeMeters>
            <DistanceMeters>2316.0977920077</DistanceMeters>
          </Trackpoint>
          <Trackpoint>
            <Time>2021-03-21T14:26:32.000Z</Time>
            <Position>
              <LatitudeDegrees>36.729385368525981903076171875</LatitudeDegrees>
              <LongitudeDegrees>-5.46682552434504032135009765625</LongitudeDegrees>
            </Position>
            <AltitudeMeters>547.5999755859375</AltitudeMeters>
            <DistanceMeters>2321.8112608617</DistanceMeters>
          </Trackpoint>
          <Trackpoint>
            <Time>2021-03-21T14:26:34.000Z</Time>
            <Position>
              <LatitudeDegrees>36.7293838597834110260009765625</LatitudeDegrees>
              <LongitudeDegrees>-5.46680959872901439666748046875</LongitudeDegrees>
            </Position>
            <AltitudeMeters>547.5999755859375</AltitudeMeters>
            <DistanceMeters>2323.2398256227</DistanceMeters>
          </Trackpoint>
          <Trackpoint>
            <Time>2021-03-21T14:26:36.000Z</Time>
            <Position>
              <LatitudeDegrees>36.72938662581145763397216796875</LatitudeDegrees>
              <LongitudeDegrees>-5.46679886989295482635498046875</LongitudeDegrees>
            </Position>
            <AltitudeMeters>547.5999755859375</AltitudeMeters>
            <DistanceMeters>2324.2454938392</DistanceMeters>
          </Trackpoint>
          <Trackpoint>
            <Time>2021-03-21T14:26:42.000Z</Time>
            <Position>
              <LatitudeDegrees>36.72937707044184207916259765625</LatitudeDegrees>
              <LongitudeDegrees>-5.46675830148160457611083984375</LongitudeDegrees>
            </Position>
            <AltitudeMeters>547.79998779296875</AltitudeMeters>
            <DistanceMeters>2328.015552237</DistanceMeters>
          </Trackpoint>
          <Trackpoint>
            <Time>2021-03-21T14:26:44.000Z</Time>
            <Position>
              <LatitudeDegrees>36.72937539406120777130126953125</LatitudeDegrees>
              <LongitudeDegrees>-5.46674656681716442108154296875</LongitudeDegrees>
            </Position>
            <AltitudeMeters>547.79998779296875</AltitudeMeters>
            <DistanceMeters>2329.077983202</DistanceMeters>
          </Trackpoint>
          <Trackpoint>
            <Time>2021-03-21T14:26:47.000Z</Time>
            <Position>
              <LatitudeDegrees>36.729368269443511962890625</LatitudeDegrees>
              <LongitudeDegrees>-5.46672376804053783416748046875</LongitudeDegrees>
            </Position>
            <AltitudeMeters>548</AltitudeMeters>
            <DistanceMeters>2331.2615308572</DistanceMeters>
          </Trackpoint>
          <Trackpoint>
            <Time>2021-03-21T14:26:59.000Z</Time>
            <Position>
              <LatitudeDegrees>36.72936231829226016998291015625</LatitudeDegrees>
              <LongitudeDegrees>-5.46667347662150859832763671875</LongitudeDegrees>
            </Position>
            <AltitudeMeters>549</AltitudeMeters>
            <DistanceMeters>2335.7970037255</DistanceMeters>
          </Trackpoint>
          <Trackpoint>
            <Time>2021-03-21T14:27:09.000Z</Time>
            <Position>
              <LatitudeDegrees>36.7293362505733966827392578125</LatitudeDegrees>
              <LongitudeDegrees>-5.4666479118168354034423828125</LongitudeDegrees>
            </Position>
            <AltitudeMeters>550.20001220703125</AltitudeMeters>
            <DistanceMeters>2339.4883971418</DistanceMeters>
          </Trackpoint>
          <Trackpoint>
            <Time>2021-03-21T14:27:20.000Z</Time>
            <Position>
              <LatitudeDegrees>36.7293654195964336395263671875</LatitudeDegrees>
              <LongitudeDegrees>-5.46664715744554996490478515625</LongitudeDegrees>
            </Position>
            <AltitudeMeters>551.4000244140625</AltitudeMeters>
            <DistanceMeters>2342.7374215128</DistanceMeters>
          </Trackpoint>
          <Trackpoint>
            <Time>2021-03-21T14:27:27.000Z</Time>
            <Position>
              <LatitudeDegrees>36.72937841154634952545166015625</LatitudeDegrees>
              <LongitudeDegrees>-5.46662754379212856292724609375</LongitudeDegrees>
            </Position>
            <AltitudeMeters>552.4000244140625</AltitudeMeters>
            <DistanceMeters>2345.006153223</DistanceMeters>
          </Trackpoint>
          <Trackpoint>
            <Time>2021-03-21T14:27:37.000Z</Time>
            <Position>
              <LatitudeDegrees>36.72941428609192371368408203125</LatitudeDegrees>
              <LongitudeDegrees>-5.466606505215167999267578125</LongitudeDegrees>
            </Position>
            <AltitudeMeters>553.4000244140625</AltitudeMeters>
            <DistanceMeters>2349.4185046158</DistanceMeters>
          </Trackpoint>
          <Trackpoint>
            <Time>2021-03-21T14:27:47.000Z</Time>
            <Position>
              <LatitudeDegrees>36.72943574376404285430908203125</LatitudeDegrees>
              <LongitudeDegrees>-5.4665697924792766571044921875</LongitudeDegrees>
            </Position>
            <AltitudeMeters>555</AltitudeMeters>
            <DistanceMeters>2353.4724828012</DistanceMeters>
          </Trackpoint>
          <Trackpoint>
            <Time>2021-03-21T14:27:52.000Z</Time>
            <Position>
              <LatitudeDegrees>36.729445718228816986083984375</LatitudeDegrees>
              <LongitudeDegrees>-5.4665506817400455474853515625</LongitudeDegrees>
            </Position>
            <AltitudeMeters>556.20001220703125</AltitudeMeters>
            <DistanceMeters>2355.5083622396</DistanceMeters>
          </Trackpoint>
          <Trackpoint>
            <Time>2021-03-21T14:27:56.000Z</Time>
            <Position>
              <LatitudeDegrees>36.72945074737071990966796875</LatitudeDegrees>
              <LongitudeDegrees>-5.4665372706949710845947265625</LongitudeDegrees>
            </Position>
            <AltitudeMeters>557.5999755859375</AltitudeMeters>
            <DistanceMeters>2356.8319312141</DistanceMeters>
          </Trackpoint>
          <Trackpoint>
            <Time>2021-03-21T14:28:06.000Z</Time>
            <Position>
              <LatitudeDegrees>36.729420237243175506591796875</LatitudeDegrees>
              <LongitudeDegrees>-5.4664988815784454345703125</LongitudeDegrees>
            </Position>
            <AltitudeMeters>559</AltitudeMeters>
            <DistanceMeters>2361.6549465489</DistanceMeters>
          </Trackpoint>
          <Trackpoint>
            <Time>2021-03-21T14:28:27.000Z</Time>
            <Position>
              <LatitudeDegrees>36.72941110096871852874755859375</LatitudeDegrees>
              <LongitudeDegrees>-5.46641732566058635711669921875</LongitudeDegrees>
            </Position>
            <AltitudeMeters>560</AltitudeMeters>
            <DistanceMeters>2369.0003333156</DistanceMeters>
          </Trackpoint>
          <Trackpoint>
            <Time>2021-03-21T14:28:37.000Z</Time>
            <Position>
              <LatitudeDegrees>36.7293935827910900115966796875</LatitudeDegrees>
              <LongitudeDegrees>-5.466408692300319671630859375</LongitudeDegrees>
            </Position>
            <AltitudeMeters>561.20001220703125</AltitudeMeters>
            <DistanceMeters>2371.097390117</DistanceMeters>
          </Trackpoint>
          <Trackpoint>
            <Time>2021-03-21T14:28:45.000Z</Time>
            <Position>
              <LatitudeDegrees>36.72938813455402851104736328125</LatitudeDegrees>
              <LongitudeDegrees>-5.46636812388896942138671875</LongitudeDegrees>
            </Position>
            <AltitudeMeters>562.4000244140625</AltitudeMeters>
            <DistanceMeters>2374.765470528</DistanceMeters>
          </Trackpoint>
          <Trackpoint>
            <Time>2021-03-21T14:28:47.000Z</Time>
            <Position>
              <LatitudeDegrees>36.72938075847923755645751953125</LatitudeDegrees>
              <LongitudeDegrees>-5.46636586077511310577392578125</LongitudeDegrees>
            </Position>
            <AltitudeMeters>564</AltitudeMeters>
            <DistanceMeters>2375.6100864401</DistanceMeters>
          </Trackpoint>
          <Trackpoint>
            <Time>2021-03-21T14:28:50.000Z</Time>
            <Position>
              <LatitudeDegrees>36.72936567105352878570556640625</LatitudeDegrees>
              <LongitudeDegrees>-5.46636703424155712127685546875</LongitudeDegrees>
            </Position>
            <AltitudeMeters>565</AltitudeMeters>
            <DistanceMeters>2377.2939641089</DistanceMeters>
          </Trackpoint>
          <Trackpoint>
            <Time>2021-03-21T14:29:47.000Z</Time>
            <Position>
              <LatitudeDegrees>36.7293382622301578521728515625</LatitudeDegrees>
              <LongitudeDegrees>-5.4662043415009975433349609375</LongitudeDegrees>
            </Position>
            <AltitudeMeters>565</AltitudeMeters>
            <DistanceMeters>2392.1242217556</DistanceMeters>
          </Trackpoint>
          <Trackpoint>
            <Time>2021-03-21T14:30:11.000Z</Time>
            <Position>
              <LatitudeDegrees>36.729314289987087249755859375</LatitudeDegrees>
              <LongitudeDegrees>-5.46608406119048595428466796875</LongitudeDegrees>
            </Position>
            <AltitudeMeters>563.79998779296875</AltitudeMeters>
            <DistanceMeters>2403.1808566369</DistanceMeters>
          </Trackpoint>
          <Trackpoint>
            <Time>2021-03-21T14:30:14.000Z</Time>
            <Position>
              <LatitudeDegrees>36.72932242043316364288330078125</LatitudeDegrees>
              <LongitudeDegrees>-5.46605958603322505950927734375</LongitudeDegrees>
            </Position>
            <AltitudeMeters>562.79998779296875</AltitudeMeters>
            <DistanceMeters>2405.5431832956</DistanceMeters>
          </Trackpoint>
          <Trackpoint>
            <Time>2021-03-21T14:30:22.000Z</Time>
            <Position>
              <LatitudeDegrees>36.72929593361914157867431640625</LatitudeDegrees>
              <LongitudeDegrees>-5.46602773480117321014404296875</LongitudeDegrees>
            </Position>
            <AltitudeMeters>561.5999755859375</AltitudeMeters>
            <DistanceMeters>2409.6370594393</DistanceMeters>
          </Trackpoint>
          <Trackpoint>
            <Time>2021-03-21T14:30:29.000Z</Time>
            <Position>
              <LatitudeDegrees>36.7292705364525318145751953125</LatitudeDegrees>
              <LongitudeDegrees>-5.46600292436778545379638671875</LongitudeDegrees>
            </Position>
            <AltitudeMeters>560.5999755859375</AltitudeMeters>
            <DistanceMeters>2413.226755678</DistanceMeters>
          </Trackpoint>
          <Trackpoint>
            <Time>2021-03-21T14:30:35.000Z</Time>
            <Position>
              <LatitudeDegrees>36.72926031053066253662109375</LatitudeDegrees>
              <LongitudeDegrees>-5.46596587635576725006103515625</LongitudeDegrees>
            </Position>
            <AltitudeMeters>560</AltitudeMeters>
            <DistanceMeters>2416.7234288833</DistanceMeters>
          </Trackpoint>
          <Trackpoint>
            <Time>2021-03-21T14:30:43.000Z</Time>
            <Position>
              <LatitudeDegrees>36.729233153164386749267578125</LatitudeDegrees>
              <LongitudeDegrees>-5.46592413447797298431396484375</LongitudeDegrees>
            </Position>
            <AltitudeMeters>559.4000244140625</AltitudeMeters>
            <DistanceMeters>2421.5201605601</DistanceMeters>
          </Trackpoint>
          <Trackpoint>
            <Time>2021-03-21T14:30:48.000Z</Time>
            <Position>
              <LatitudeDegrees>36.7292209155857563018798828125</LatitudeDegrees>
              <LongitudeDegrees>-5.46590502373874187469482421875</LongitudeDegrees>
            </Position>
            <AltitudeMeters>558.20001220703125</AltitudeMeters>
            <DistanceMeters>2423.7037082153</DistanceMeters>
          </Trackpoint>
          <Trackpoint>
            <Time>2021-03-21T14:30:59.000Z</Time>
            <Position>
              <LatitudeDegrees>36.729216389358043670654296875</LatitudeDegrees>
              <LongitudeDegrees>-5.4658864997327327728271484375</LongitudeDegrees>
            </Position>
            <AltitudeMeters>557.20001220703125</AltitudeMeters>
            <DistanceMeters>2425.4351773543</DistanceMeters>
          </Trackpoint>
          <Trackpoint>
            <Time>2021-03-21T14:31:11.000Z</Time>
            <Position>
              <LatitudeDegrees>36.7292167246341705322265625</LatitudeDegrees>
              <LongitudeDegrees>-5.46587434597313404083251953125</LongitudeDegrees>
            </Position>
            <AltitudeMeters>556.20001220703125</AltitudeMeters>
            <DistanceMeters>2426.5186485988</DistanceMeters>
          </Trackpoint>
          <Trackpoint>
            <Time>2021-03-21T14:31:22.000Z</Time>
            <Position>
              <LatitudeDegrees>36.7292071692645549774169921875</LatitudeDegrees>
              <LongitudeDegrees>-5.46586261130869388580322265625</LongitudeDegrees>
            </Position>
            <AltitudeMeters>555.79998779296875</AltitudeMeters>
            <DistanceMeters>2428.0090843758</DistanceMeters>
          </Trackpoint>
          <Trackpoint>
            <Time>2021-03-21T14:31:29.000Z</Time>
            <Position>
              <LatitudeDegrees>36.7291930876672267913818359375</LatitudeDegrees>
              <LongitudeDegrees>-5.46584735624492168426513671875</LongitudeDegrees>
            </Position>
            <AltitudeMeters>555</AltitudeMeters>
            <DistanceMeters>2430.0844991449</DistanceMeters>
          </Trackpoint>
          <Trackpoint>
            <Time>2021-03-21T14:31:40.000Z</Time>
            <Position>
              <LatitudeDegrees>36.72919300384819507598876953125</LatitudeDegrees>
              <LongitudeDegrees>-5.46582363545894622802734375</LongitudeDegrees>
            </Position>
            <AltitudeMeters>553.79998779296875</AltitudeMeters>
            <DistanceMeters>2432.20084456</DistanceMeters>
          </Trackpoint>
          <Trackpoint>
            <Time>2021-03-21T14:31:55.000Z</Time>
            <Position>
              <LatitudeDegrees>36.72918026335537433624267578125</LatitudeDegrees>
              <LongitudeDegrees>-5.4658181034028530120849609375</LongitudeDegrees>
            </Position>
            <AltitudeMeters>553</AltitudeMeters>
            <DistanceMeters>2433.7033488399</DistanceMeters>
          </Trackpoint>
          <Trackpoint>
            <Time>2021-03-21T14:31:57.000Z</Time>
            <Position>
              <LatitudeDegrees>36.729177497327327728271484375</LatitudeDegrees>
              <LongitudeDegrees>-5.4658137448132038116455078125</LongitudeDegrees>
            </Position>
            <AltitudeMeters>552.79998779296875</AltitudeMeters>
            <DistanceMeters>2434.2061829481</DistanceMeters>
          </Trackpoint>
          <Trackpoint>
            <Time>2021-03-21T14:32:08.000Z</Time>
            <Position>
              <LatitudeDegrees>36.7291370965540409088134765625</LatitudeDegrees>
              <LongitudeDegrees>-5.4657748527824878692626953125</LongitudeDegrees>
            </Position>
            <AltitudeMeters>551.79998779296875</AltitudeMeters>
            <DistanceMeters>2439.8855696279</DistanceMeters>
          </Trackpoint>
          <Trackpoint>
            <Time>2021-03-21T14:32:15.000Z</Time>
            <Position>
              <LatitudeDegrees>36.72910432331264019012451171875</LatitudeDegrees>
              <LongitudeDegrees>-5.46581651084125041961669921875</LongitudeDegrees>
            </Position>
            <AltitudeMeters>550.5999755859375</AltitudeMeters>
            <DistanceMeters>2445.0921317839</DistanceMeters>
          </Trackpoint>
          <Trackpoint>
            <Time>2021-03-21T14:32:22.000Z</Time>
            <Position>
              <LatitudeDegrees>36.7290619947016239166259765625</LatitudeDegrees>
              <LongitudeDegrees>-5.465852133929729461669921875</LongitudeDegrees>
            </Position>
            <AltitudeMeters>549.5999755859375</AltitudeMeters>
            <DistanceMeters>2450.7746975216</DistanceMeters>
          </Trackpoint>
          <Trackpoint>
            <Time>2021-03-21T14:32:34.000Z</Time>
            <Position>
              <LatitudeDegrees>36.7290391959249973297119140625</LatitudeDegrees>
              <LongitudeDegrees>-5.4658965580165386199951171875</LongitudeDegrees>
            </Position>
            <AltitudeMeters>548.4000244140625</AltitudeMeters>
            <DistanceMeters>2455.4801993483</DistanceMeters>
          </Trackpoint>
          <Trackpoint>
            <Time>2021-03-21T14:32:42.000Z</Time>
            <Position>
              <LatitudeDegrees>36.72904263250529766082763671875</LatitudeDegrees>
              <LongitudeDegrees>-5.46593234874308109283447265625</LongitudeDegrees>
            </Position>
            <AltitudeMeters>547.4000244140625</AltitudeMeters>
            <DistanceMeters>2458.6971027669</DistanceMeters>
          </Trackpoint>
          <Trackpoint>
            <Time>2021-03-21T14:32:49.000Z</Time>
            <Position>
              <LatitudeDegrees>36.72906677238643169403076171875</LatitudeDegrees>
              <LongitudeDegrees>-5.46596738509833812713623046875</LongitudeDegrees>
            </Position>
            <AltitudeMeters>546.4000244140625</AltitudeMeters>
            <DistanceMeters>2462.8173629182</DistanceMeters>
          </Trackpoint>
          <Trackpoint>
            <Time>2021-03-21T14:33:23.000Z</Time>
            <Position>
              <LatitudeDegrees>36.7291367612779140472412109375</LatitudeDegrees>
              <LongitudeDegrees>-5.46613351441919803619384765625</LongitudeDegrees>
            </Position>
            <AltitudeMeters>546.5999755859375</AltitudeMeters>
            <DistanceMeters>2479.5593333166</DistanceMeters>
          </Trackpoint>
          <Trackpoint>
            <Time>2021-03-21T14:33:37.000Z</Time>
            <Position>
              <LatitudeDegrees>36.7291297204792499542236328125</LatitudeDegrees>
              <LongitudeDegrees>-5.4661486856639385223388671875</LongitudeDegrees>
            </Position>
            <AltitudeMeters>545.4000244140625</AltitudeMeters>
            <DistanceMeters>2481.1236704658</DistanceMeters>
          </Trackpoint>
          <Trackpoint>
            <Time>2021-03-21T14:33:46.000Z</Time>
            <Position>
              <LatitudeDegrees>36.729137264192104339599609375</LatitudeDegrees>
              <LongitudeDegrees>-5.46618564985692501068115234375</LongitudeDegrees>
            </Position>
            <AltitudeMeters>544.4000244140625</AltitudeMeters>
            <DistanceMeters>2484.5261045947</DistanceMeters>
          </Trackpoint>
          <Trackpoint>
            <Time>2021-03-21T14:33:58.000Z</Time>
            <Position>
              <LatitudeDegrees>36.7291267029941082000732421875</LatitudeDegrees>
              <LongitudeDegrees>-5.4661939479410648345947265625</LongitudeDegrees>
            </Position>
            <AltitudeMeters>543.20001220703125</AltitudeMeters>
            <DistanceMeters>2485.9129738324</DistanceMeters>
          </Trackpoint>
          <Trackpoint>
            <Time>2021-03-21T14:34:20.000Z</Time>
            <Position>
              <LatitudeDegrees>36.72911203466355800628662109375</LatitudeDegrees>
              <LongitudeDegrees>-5.466249771416187286376953125</LongitudeDegrees>
            </Position>
            <AltitudeMeters>542.20001220703125</AltitudeMeters>
            <DistanceMeters>2491.1532469613</DistanceMeters>
          </Trackpoint>
          <Trackpoint>
            <Time>2021-03-21T14:34:36.000Z</Time>
            <Position>
              <LatitudeDegrees>36.7291075922548770904541015625</LatitudeDegrees>
              <LongitudeDegrees>-5.46629679389297962188720703125</LongitudeDegrees>
            </Position>
            <AltitudeMeters>541.20001220703125</AltitudeMeters>
            <DistanceMeters>2495.3763265221</DistanceMeters>
          </Trackpoint>
          <Trackpoint>
            <Time>2021-03-21T14:34:44.000Z</Time>
            <Position>
              <LatitudeDegrees>36.729105748236179351806640625</LatitudeDegrees>
              <LongitudeDegrees>-5.46631406061351299285888671875</LongitudeDegrees>
            </Position>
            <AltitudeMeters>540.20001220703125</AltitudeMeters>
            <DistanceMeters>2496.9319808819</DistanceMeters>
          </Trackpoint>
          <Trackpoint>
            <Time>2021-03-21T14:34:48.000Z</Time>
            <Position>
              <LatitudeDegrees>36.72912418842315673828125</LatitudeDegrees>
              <LongitudeDegrees>-5.4663086123764514923095703125</LongitudeDegrees>
            </Position>
            <AltitudeMeters>539.5999755859375</AltitudeMeters>
            <DistanceMeters>2499.0419163517</DistanceMeters>
          </Trackpoint>
          <Trackpoint>
            <Time>2021-03-21T14:34:49.000Z</Time>
            <Position>
              <LatitudeDegrees>36.72912678681313991546630859375</LatitudeDegrees>
              <LongitudeDegrees>-5.466311462223529815673828125</LongitudeDegrees>
            </Position>
            <AltitudeMeters>539.5999755859375</AltitudeMeters>
            <DistanceMeters>2499.4220232092</DistanceMeters>
          </Trackpoint>
          <Trackpoint>
            <Time>2021-03-21T14:34:50.000Z</Time>
            <Position>
              <LatitudeDegrees>36.72912879846990108489990234375</LatitudeDegrees>
              <LongitudeDegrees>-5.4663133062422275543212890625</LongitudeDegrees>
            </Position>
            <AltitudeMeters>539.5999755859375</AltitudeMeters>
            <DistanceMeters>2499.7225240652</DistanceMeters>
          </Trackpoint>
          <Trackpoint>
            <Time>2021-03-21T14:35:08.000Z</Time>
            <Position>
              <LatitudeDegrees>36.72909158281981945037841796875</LatitudeDegrees>
              <LongitudeDegrees>-5.46626008115708827972412109375</LongitudeDegrees>
            </Position>
            <AltitudeMeters>539.20001220703125</AltitudeMeters>
            <DistanceMeters>2506.0237339588</DistanceMeters>
          </Trackpoint>
          <Trackpoint>
            <Time>2021-03-21T14:35:15.000Z</Time>
            <Position>
              <LatitudeDegrees>36.72908839769661426544189453125</LatitudeDegrees>
              <LongitudeDegrees>-5.466224290430545806884765625</LongitudeDegrees>
            </Position>
            <AltitudeMeters>538.4000244140625</AltitudeMeters>
            <DistanceMeters>2509.2378290806</DistanceMeters>
          </Trackpoint>
          <Trackpoint>
            <Time>2021-03-21T14:35:21.000Z</Time>
            <Position>
              <LatitudeDegrees>36.729084961116313934326171875</LatitudeDegrees>
              <LongitudeDegrees>-5.46620585024356842041015625</LongitudeDegrees>
            </Position>
            <AltitudeMeters>538</AltitudeMeters>
            <DistanceMeters>2510.9270609049</DistanceMeters>
          </Trackpoint>
          <Trackpoint>
            <Time>2021-03-21T14:35:27.000Z</Time>
            <Position>
              <LatitudeDegrees>36.72908236272633075714111328125</LatitudeDegrees>
              <LongitudeDegrees>-5.46616989187896251678466796875</LongitudeDegrees>
            </Position>
            <AltitudeMeters>536.79998779296875</AltitudeMeters>
            <DistanceMeters>2514.1495735753</DistanceMeters>
          </Trackpoint>
          <Trackpoint>
            <Time>2021-03-21T14:35:32.000Z</Time>
            <Position>
              <LatitudeDegrees>36.72905688174068927764892578125</LatitudeDegrees>
              <LongitudeDegrees>-5.4661771841347217559814453125</LongitudeDegrees>
            </Position>
            <AltitudeMeters>535.79998779296875</AltitudeMeters>
            <DistanceMeters>2517.0599363885</DistanceMeters>
          </Trackpoint>
          <Trackpoint>
            <Time>2021-03-21T14:35:45.000Z</Time>
            <Position>
              <LatitudeDegrees>36.7290371842682361602783203125</LatitudeDegrees>
              <LongitudeDegrees>-5.4662816226482391357421875</LongitudeDegrees>
            </Position>
            <AltitudeMeters>534.5999755859375</AltitudeMeters>
            <DistanceMeters>2526.6307825082</DistanceMeters>
          </Trackpoint>
          <Trackpoint>
            <Time>2021-03-21T14:35:51.000Z</Time>
            <Position>
              <LatitudeDegrees>36.7290408723056316375732421875</LatitudeDegrees>
              <LongitudeDegrees>-5.46629427932202816009521484375</LongitudeDegrees>
            </Position>
            <AltitudeMeters>534.20001220703125</AltitudeMeters>
            <DistanceMeters>2527.8327859321</DistanceMeters>
          </Trackpoint>
          <Trackpoint>
            <Time>2021-03-21T14:36:10.000Z</Time>
            <Position>
              <LatitudeDegrees>36.72908169217407703399658203125</LatitudeDegrees>
              <LongitudeDegrees>-5.46636267565190792083740234375</LongitudeDegrees>
            </Position>
            <AltitudeMeters>533.5999755859375</AltitudeMeters>
            <DistanceMeters>2535.4396729335</DistanceMeters>
          </Trackpoint>
          <Trackpoint>
            <Time>2021-03-21T14:36:24.000Z</Time>
            <Position>
              <LatitudeDegrees>36.72908068634569644927978515625</LatitudeDegrees>
              <LongitudeDegrees>-5.46638597734272480010986328125</LongitudeDegrees>
            </Position>
            <AltitudeMeters>532.5999755859375</AltitudeMeters>
            <DistanceMeters>2537.5216039346</DistanceMeters>
          </Trackpoint>
          <Trackpoint>
            <Time>2021-03-21T14:36:33.000Z</Time>
            <Position>
              <LatitudeDegrees>36.729110777378082275390625</LatitudeDegrees>
              <LongitudeDegrees>-5.46638899482786655426025390625</LongitudeDegrees>
            </Position>
            <AltitudeMeters>532</AltitudeMeters>
            <DistanceMeters>2540.8813056408</DistanceMeters>
          </Trackpoint>
          <Trackpoint>
            <Time>2021-03-21T14:36:35.000Z</Time>
            <Position>
              <LatitudeDegrees>36.72911371104419231414794921875</LatitudeDegrees>
              <LongitudeDegrees>-5.46639452688395977020263671875</LongitudeDegrees>
            </Position>
            <AltitudeMeters>532</AltitudeMeters>
            <DistanceMeters>2541.4670896495</DistanceMeters>
          </Trackpoint>
          <Trackpoint>
            <Time>2021-03-21T14:36:39.000Z</Time>
            <Position>
              <LatitudeDegrees>36.7291156388819217681884765625</LatitudeDegrees>
              <LongitudeDegrees>-5.466403327882289886474609375</LongitudeDegrees>
            </Position>
            <AltitudeMeters>531.5999755859375</AltitudeMeters>
            <DistanceMeters>2542.273418059</DistanceMeters>
          </Trackpoint>
          <Trackpoint>
            <Time>2021-03-21T14:36:54.000Z</Time>
            <Position>
              <LatitudeDegrees>36.729135252535343170166015625</LatitudeDegrees>
              <LongitudeDegrees>-5.46647784300148487091064453125</LongitudeDegrees>
            </Position>
            <AltitudeMeters>530.5999755859375</AltitudeMeters>
            <DistanceMeters>2549.2693464696</DistanceMeters>
          </Trackpoint>
          <Trackpoint>
            <Time>2021-03-21T14:37:03.000Z</Time>
            <Position>
              <LatitudeDegrees>36.72912351787090301513671875</LatitudeDegrees>
              <LongitudeDegrees>-5.46649158932268619537353515625</LongitudeDegrees>
            </Position>
            <AltitudeMeters>529.5999755859375</AltitudeMeters>
            <DistanceMeters>2551.0623069305</DistanceMeters>
          </Trackpoint>
          <Trackpoint>
            <Time>2021-03-21T14:37:04.000Z</Time>
            <Position>
              <LatitudeDegrees>36.7291174829006195068359375</LatitudeDegrees>
              <LongitudeDegrees>-5.46649024821817874908447265625</LongitudeDegrees>
            </Position>
            <AltitudeMeters>529.4000244140625</AltitudeMeters>
            <DistanceMeters>2551.7342472717</DistanceMeters>
          </Trackpoint>
          <Trackpoint>
            <Time>2021-03-21T14:37:17.000Z</Time>
            <Position>
              <LatitudeDegrees>36.72912125475704669952392578125</LatitudeDegrees>
              <LongitudeDegrees>-5.4664641804993152618408203125</LongitudeDegrees>
            </Position>
            <AltitudeMeters>528.4000244140625</AltitudeMeters>
            <DistanceMeters>2554.0965739304</DistanceMeters>
          </Trackpoint>
          <Trackpoint>
            <Time>2021-03-21T14:37:37.000Z</Time>
            <Position>
              <LatitudeDegrees>36.7291481606662273406982421875</LatitudeDegrees>
              <LongitudeDegrees>-5.46651899814605712890625</LongitudeDegrees>
            </Position>
            <AltitudeMeters>528</AltitudeMeters>
            <DistanceMeters>2559.831339698</DistanceMeters>
          </Trackpoint>
          <Trackpoint>
            <Time>2021-03-21T14:37:46.000Z</Time>
            <Position>
              <LatitudeDegrees>36.729142963886260986328125</LatitudeDegrees>
              <LongitudeDegrees>-5.466477759182453155517578125</LongitudeDegrees>
            </Position>
            <AltitudeMeters>528</AltitudeMeters>
            <DistanceMeters>2563.5556110922</DistanceMeters>
          </Trackpoint>
          <Trackpoint>
            <Time>2021-03-21T14:37:55.000Z</Time>
            <Position>
              <LatitudeDegrees>36.7291469871997833251953125</LatitudeDegrees>
              <LongitudeDegrees>-5.4664775915443897247314453125</LongitudeDegrees>
            </Position>
            <AltitudeMeters>527.4000244140625</AltitudeMeters>
            <DistanceMeters>2564.0113432045</DistanceMeters>
          </Trackpoint>
          <Trackpoint>
            <Time>2021-03-21T14:38:02.000Z</Time>
            <Position>
              <LatitudeDegrees>36.72912041656672954559326171875</LatitudeDegrees>
              <LongitudeDegrees>-5.46648689545691013336181640625</LongitudeDegrees>
            </Position>
            <AltitudeMeters>527</AltitudeMeters>
            <DistanceMeters>2567.0817503123</DistanceMeters>
          </Trackpoint>
          <Trackpoint>
            <Time>2021-03-21T14:38:11.000Z</Time>
            <Position>
              <LatitudeDegrees>36.7291102744638919830322265625</LatitudeDegrees>
              <LongitudeDegrees>-5.46645672060549259185791015625</LongitudeDegrees>
            </Position>
            <AltitudeMeters>526.4000244140625</AltitudeMeters>
            <DistanceMeters>2570.0014064844</DistanceMeters>
          </Trackpoint>
          <Trackpoint>
            <Time>2021-03-21T14:38:29.000Z</Time>
            <Position>
              <LatitudeDegrees>36.72907113097608089447021484375</LatitudeDegrees>
              <LongitudeDegrees>-5.4664893262088298797607421875</LongitudeDegrees>
            </Position>
            <AltitudeMeters>525.4000244140625</AltitudeMeters>
            <DistanceMeters>2575.2408179389</DistanceMeters>
          </Trackpoint>
          <Trackpoint>
            <Time>2021-03-21T14:38:41.000Z</Time>
            <Position>
              <LatitudeDegrees>36.7290603183209896087646484375</LatitudeDegrees>
              <LongitudeDegrees>-5.46647273004055023193359375</LongitudeDegrees>
            </Position>
            <AltitudeMeters>524.20001220703125</AltitudeMeters>
            <DistanceMeters>2577.1508312591</DistanceMeters>
          </Trackpoint>
          <Trackpoint>
            <Time>2021-03-21T14:38:51.000Z</Time>
            <Position>
              <LatitudeDegrees>36.72903173603117465972900390625</LatitudeDegrees>
              <LongitudeDegrees>-5.46648354269564151763916015625</LongitudeDegrees>
            </Position>
            <AltitudeMeters>523.20001220703125</AltitudeMeters>
            <DistanceMeters>2580.474050104</DistanceMeters>
          </Trackpoint>
          <Trackpoint>
            <Time>2021-03-21T14:39:03.000Z</Time>
            <Position>
              <LatitudeDegrees>36.7290288023650646209716796875</LatitudeDegrees>
              <LongitudeDegrees>-5.466477088630199432373046875</LongitudeDegrees>
            </Position>
            <AltitudeMeters>522.20001220703125</AltitudeMeters>
            <DistanceMeters>2581.1324144934</DistanceMeters>
          </Trackpoint>
          <Trackpoint>
            <Time>2021-03-21T14:39:13.000Z</Time>
            <Position>
              <LatitudeDegrees>36.7290076799690723419189453125</LatitudeDegrees>
              <LongitudeDegrees>-5.466486476361751556396484375</LongitudeDegrees>
            </Position>
            <AltitudeMeters>521</AltitudeMeters>
            <DistanceMeters>2583.6285620745</DistanceMeters>
          </Trackpoint>
          <Trackpoint>
            <Time>2021-03-21T14:39:24.000Z</Time>
            <Position>
              <LatitudeDegrees>36.72899099998176097869873046875</LatitudeDegrees>
              <LongitudeDegrees>-5.46648672781884670257568359375</LongitudeDegrees>
            </Position>
            <AltitudeMeters>520</AltitudeMeters>
            <DistanceMeters>2585.4858421292</DistanceMeters>
          </Trackpoint>
          <Trackpoint>
            <Time>2021-03-21T14:39:35.000Z</Time>
            <Position>
              <LatitudeDegrees>36.72897574491798877716064453125</LatitudeDegrees>
              <LongitudeDegrees>-5.46647851355373859405517578125</LongitudeDegrees>
            </Position>
            <AltitudeMeters>519</AltitudeMeters>
            <DistanceMeters>2587.3358148242</DistanceMeters>
          </Trackpoint>
          <Trackpoint>
            <Time>2021-03-21T14:39:43.000Z</Time>
            <Position>
              <LatitudeDegrees>36.7289604060351848602294921875</LatitudeDegrees>
              <LongitudeDegrees>-5.46647407114505767822265625</LongitudeDegrees>
            </Position>
            <AltitudeMeters>518.79998779296875</AltitudeMeters>
            <DistanceMeters>2589.0880208597</DistanceMeters>
          </Trackpoint>
          <Trackpoint>
            <Time>2021-03-21T14:40:06.000Z</Time>
            <Position>
              <LatitudeDegrees>36.72896551899611949920654296875</LatitudeDegrees>
              <LongitudeDegrees>-5.4664990492165088653564453125</LongitudeDegrees>
            </Position>
            <AltitudeMeters>517.79998779296875</AltitudeMeters>
            <DistanceMeters>2591.3883740491</DistanceMeters>
          </Trackpoint>
          <Trackpoint>
            <Time>2021-03-21T14:40:10.000Z</Time>
            <Position>
              <LatitudeDegrees>36.72897406853735446929931640625</LatitudeDegrees>
              <LongitudeDegrees>-5.46649008058011531829833984375</LongitudeDegrees>
            </Position>
            <AltitudeMeters>517.4000244140625</AltitudeMeters>
            <DistanceMeters>2592.6346377244</DistanceMeters>
          </Trackpoint>
          <Trackpoint>
            <Time>2021-03-21T14:40:16.000Z</Time>
            <Position>
              <LatitudeDegrees>36.72897725366055965423583984375</LatitudeDegrees>
              <LongitudeDegrees>-5.46648857183754444122314453125</LongitudeDegrees>
            </Position>
            <AltitudeMeters>516.79998779296875</AltitudeMeters>
            <DistanceMeters>2593.0147445819</DistanceMeters>
          </Trackpoint>
          <Trackpoint>
            <Time>2021-03-21T14:40:36.000Z</Time>
            <Position>
              <LatitudeDegrees>36.72895663417875766754150390625</LatitudeDegrees>
              <LongitudeDegrees>-5.46646309085190296173095703125</LongitudeDegrees>
            </Position>
            <AltitudeMeters>515.79998779296875</AltitudeMeters>
            <DistanceMeters>2596.2428567572</DistanceMeters>
          </Trackpoint>
          <Trackpoint>
            <Time>2021-03-21T14:40:46.000Z</Time>
            <Position>
              <LatitudeDegrees>36.72894171439111232757568359375</LatitudeDegrees>
              <LongitudeDegrees>-5.46645261347293853759765625</LongitudeDegrees>
            </Position>
            <AltitudeMeters>514.5999755859375</AltitudeMeters>
            <DistanceMeters>2598.148136456</DistanceMeters>
          </Trackpoint>
          <Trackpoint>
            <Time>2021-03-21T14:41:02.000Z</Time>
            <Position>
              <LatitudeDegrees>36.72892662696540355682373046875</LatitudeDegrees>
              <LongitudeDegrees>-5.46643509529531002044677734375</LongitudeDegrees>
            </Position>
            <AltitudeMeters>513.5999755859375</AltitudeMeters>
            <DistanceMeters>2600.440625167</DistanceMeters>
          </Trackpoint>
          <Trackpoint>
            <Time>2021-03-21T14:41:15.000Z</Time>
            <Position>
              <LatitudeDegrees>36.7288977093994617462158203125</LatitudeDegrees>
              <LongitudeDegrees>-5.4664189182221889495849609375</LongitudeDegrees>
            </Position>
            <AltitudeMeters>512.5999755859375</AltitudeMeters>
            <DistanceMeters>2603.9694316815</DistanceMeters>
          </Trackpoint>
          <Trackpoint>
            <Time>2021-03-21T14:41:27.000Z</Time>
            <Position>
              <LatitudeDegrees>36.72887985594570636749267578125</LatitudeDegrees>
              <LongitudeDegrees>-5.46639787964522838592529296875</LongitudeDegrees>
            </Position>
            <AltitudeMeters>511.399993896484375</AltitudeMeters>
            <DistanceMeters>2606.7038243555</DistanceMeters>
          </Trackpoint>
          <Trackpoint>
            <Time>2021-03-21T14:41:37.000Z</Time>
            <Position>
              <LatitudeDegrees>36.72887063585221767425537109375</LatitudeDegrees>
              <LongitudeDegrees>-5.46639452688395977020263671875</LongitudeDegrees>
            </Position>
            <AltitudeMeters>510.399993896484375</AltitudeMeters>
            <DistanceMeters>2607.7704965787</DistanceMeters>
          </Trackpoint>
          <Trackpoint>
            <Time>2021-03-21T14:41:50.000Z</Time>
            <Position>
              <LatitudeDegrees>36.72885521315038204193115234375</LatitudeDegrees>
              <LongitudeDegrees>-5.4663656093180179595947265625</LongitudeDegrees>
            </Position>
            <AltitudeMeters>509.399993896484375</AltitudeMeters>
            <DistanceMeters>2610.868717239</DistanceMeters>
          </Trackpoint>
          <Trackpoint>
            <Time>2021-03-21T14:42:02.000Z</Time>
            <Position>
              <LatitudeDegrees>36.72881850041449069976806640625</LatitudeDegrees>
              <LongitudeDegrees>-5.46633861958980560302734375</LongitudeDegrees>
            </Position>
            <AltitudeMeters>508.20001220703125</AltitudeMeters>
            <DistanceMeters>2615.6114928422</DistanceMeters>
          </Trackpoint>
          <Trackpoint>
            <Time>2021-03-21T14:42:09.000Z</Time>
            <Position>
              <LatitudeDegrees>36.72880743630230426788330078125</LatitudeDegrees>
              <LongitudeDegrees>-5.4663350991904735565185546875</LongitudeDegrees>
            </Position>
            <AltitudeMeters>507.20001220703125</AltitudeMeters>
            <DistanceMeters>2616.8864100003</DistanceMeters>
          </Trackpoint>
          <Trackpoint>
            <Time>2021-03-21T14:42:21.000Z</Time>
            <Position>
              <LatitudeDegrees>36.72879469580948352813720703125</LatitudeDegrees>
              <LongitudeDegrees>-5.4663297347724437713623046875</LongitudeDegrees>
            </Position>
            <AltitudeMeters>506.20001220703125</AltitudeMeters>
            <DistanceMeters>2618.3828921946</DistanceMeters>
          </Trackpoint>
          <Trackpoint>
            <Time>2021-03-21T14:42:38.000Z</Time>
            <Position>
              <LatitudeDegrees>36.72875513322651386260986328125</LatitudeDegrees>
              <LongitudeDegrees>-5.4663371108472347259521484375</LongitudeDegrees>
            </Position>
            <AltitudeMeters>505</AltitudeMeters>
            <DistanceMeters>2622.8359863853</DistanceMeters>
          </Trackpoint>
          <Trackpoint>
            <Time>2021-03-21T14:42:48.000Z</Time>
            <Position>
              <LatitudeDegrees>36.728733591735363006591796875</LatitudeDegrees>
              <LongitudeDegrees>-5.46632210724055767059326171875</LongitudeDegrees>
            </Position>
            <AltitudeMeters>504</AltitudeMeters>
            <DistanceMeters>2625.5819131561</DistanceMeters>
          </Trackpoint>
          <Trackpoint>
            <Time>2021-03-21T14:42:57.000Z</Time>
            <Position>
              <LatitudeDegrees>36.728710792958736419677734375</LatitudeDegrees>
              <LongitudeDegrees>-5.46629008837044239044189453125</LongitudeDegrees>
            </Position>
            <AltitudeMeters>503.20001220703125</AltitudeMeters>
            <DistanceMeters>2629.4019397965</DistanceMeters>
          </Trackpoint>
          <Trackpoint>
            <Time>2021-03-21T14:42:58.000Z</Time>
            <Position>
              <LatitudeDegrees>36.7287076078355312347412109375</LatitudeDegrees>
              <LongitudeDegrees>-5.4662878252565860748291015625</LongitudeDegrees>
            </Position>
            <AltitudeMeters>503</AltitudeMeters>
            <DistanceMeters>2629.8051040013</DistanceMeters>
          </Trackpoint>
          <Trackpoint>
            <Time>2021-03-21T14:43:06.000Z</Time>
            <Position>
              <LatitudeDegrees>36.728699393570423126220703125</LatitudeDegrees>
              <LongitudeDegrees>-5.4662650264799594879150390625</LongitudeDegrees>
            </Position>
            <AltitudeMeters>501.79998779296875</AltitudeMeters>
            <DistanceMeters>2632.0336779947</DistanceMeters>
          </Trackpoint>
          <Trackpoint>
            <Time>2021-03-21T14:43:17.000Z</Time>
            <Position>
              <LatitudeDegrees>36.728691346943378448486328125</LatitudeDegrees>
              <LongitudeDegrees>-5.46624231152236461639404296875</LongitudeDegrees>
            </Position>
            <AltitudeMeters>500.79998779296875</AltitudeMeters>
            <DistanceMeters>2634.2500627956</DistanceMeters>
          </Trackpoint>
          <Trackpoint>
            <Time>2021-03-21T14:43:30.000Z</Time>
            <Position>
              <LatitudeDegrees>36.7286722362041473388671875</LatitudeDegrees>
              <LongitudeDegrees>-5.46622730791568756103515625</LongitudeDegrees>
            </Position>
            <AltitudeMeters>499.79998779296875</AltitudeMeters>
            <DistanceMeters>2636.762436859</DistanceMeters>
          </Trackpoint>
          <Trackpoint>
            <Time>2021-03-21T14:43:44.000Z</Time>
            <Position>
              <LatitudeDegrees>36.7286400496959686279296875</LatitudeDegrees>
              <LongitudeDegrees>-5.466213561594486236572265625</LongitudeDegrees>
            </Position>
            <AltitudeMeters>498.600006103515625</AltitudeMeters>
            <DistanceMeters>2640.5480320984</DistanceMeters>
          </Trackpoint>
          <Trackpoint>
            <Time>2021-03-21T14:43:53.000Z</Time>
            <Position>
              <LatitudeDegrees>36.728618927299976348876953125</LatitudeDegrees>
              <LongitudeDegrees>-5.4662023298442363739013671875</LongitudeDegrees>
            </Position>
            <AltitudeMeters>497.600006103515625</AltitudeMeters>
            <DistanceMeters>2643.1031730473</DistanceMeters>
          </Trackpoint>
          <Trackpoint>
            <Time>2021-03-21T14:44:00.000Z</Time>
            <Position>
              <LatitudeDegrees>36.728612221777439117431640625</LatitudeDegrees>
              <LongitudeDegrees>-5.46618036925792694091796875</LongitudeDegrees>
            </Position>
            <AltitudeMeters>496.600006103515625</AltitudeMeters>
            <DistanceMeters>2645.2023817803</DistanceMeters>
          </Trackpoint>
          <Trackpoint>
            <Time>2021-03-21T14:44:13.000Z</Time>
            <Position>
              <LatitudeDegrees>36.728616915643215179443359375</LatitudeDegrees>
              <LongitudeDegrees>-5.46610199846327304840087890625</LongitudeDegrees>
            </Position>
            <AltitudeMeters>495.600006103515625</AltitudeMeters>
            <DistanceMeters>2652.2137822225</DistanceMeters>
          </Trackpoint>
          <Trackpoint>
            <Time>2021-03-21T14:44:30.000Z</Time>
            <Position>
              <LatitudeDegrees>36.72858464531600475311279296875</LatitudeDegrees>
              <LongitudeDegrees>-5.46606210060417652130126953125</LongitudeDegrees>
            </Position>
            <AltitudeMeters>494.399993896484375</AltitudeMeters>
            <DistanceMeters>2657.2707750531</DistanceMeters>
          </Trackpoint>
          <Trackpoint>
            <Time>2021-03-21T14:44:44.000Z</Time>
            <Position>
              <LatitudeDegrees>36.728521697223186492919921875</LatitudeDegrees>
              <LongitudeDegrees>-5.46601541340351104736328125</LongitudeDegrees>
            </Position>
            <AltitudeMeters>493.399993896484375</AltitudeMeters>
            <DistanceMeters>2665.4214972542</DistanceMeters>
          </Trackpoint>
          <Trackpoint>
            <Time>2021-03-21T14:44:51.000Z</Time>
            <Position>
              <LatitudeDegrees>36.728511638939380645751953125</LatitudeDegrees>
              <LongitudeDegrees>-5.46597509644925594329833984375</LongitudeDegrees>
            </Position>
            <AltitudeMeters>492.20001220703125</AltitudeMeters>
            <DistanceMeters>2669.1867621873</DistanceMeters>
          </Trackpoint>
          <Trackpoint>
            <Time>2021-03-21T14:44:58.000Z</Time>
            <Position>
              <LatitudeDegrees>36.728461347520351409912109375</LatitudeDegrees>
              <LongitudeDegrees>-5.46593151055276393890380859375</LongitudeDegrees>
            </Position>
            <AltitudeMeters>491.600006103515625</AltitudeMeters>
            <DistanceMeters>2676.0009131304</DistanceMeters>
          </Trackpoint>
          <Trackpoint>
            <Time>2021-03-21T14:45:00.000Z</Time>
            <Position>
              <LatitudeDegrees>36.728440560400485992431640625</LatitudeDegrees>
              <LongitudeDegrees>-5.4659180156886577606201171875</LongitudeDegrees>
            </Position>
            <AltitudeMeters>491.20001220703125</AltitudeMeters>
            <DistanceMeters>2678.6102574233</DistanceMeters>
          </Trackpoint>
          <Trackpoint>
            <Time>2021-03-21T14:45:06.000Z</Time>
            <Position>
              <LatitudeDegrees>36.7283793725073337554931640625</LatitudeDegrees>
              <LongitudeDegrees>-5.46589898876845836639404296875</LongitudeDegrees>
            </Position>
            <AltitudeMeters>490.20001220703125</AltitudeMeters>
            <DistanceMeters>2685.6287378145</DistanceMeters>
          </Trackpoint>
          <Trackpoint>
            <Time>2021-03-21T14:45:09.000Z</Time>
            <Position>
              <LatitudeDegrees>36.72835112549364566802978515625</LatitudeDegrees>
              <LongitudeDegrees>-5.465888343751430511474609375</LongitudeDegrees>
            </Position>
            <AltitudeMeters>489.600006103515625</AltitudeMeters>
            <DistanceMeters>2688.9123198942</DistanceMeters>
          </Trackpoint>
          <Trackpoint>
            <Time>2021-03-21T14:45:11.000Z</Time>
            <Position>
              <LatitudeDegrees>36.72832815907895565032958984375</LatitudeDegrees>
              <LongitudeDegrees>-5.4658891819417476654052734375</LongitudeDegrees>
            </Position>
            <AltitudeMeters>489.20001220703125</AltitudeMeters>
            <DistanceMeters>2691.4692272733</DistanceMeters>
          </Trackpoint>
          <Trackpoint>
            <Time>2021-03-21T14:45:15.000Z</Time>
            <Position>
              <LatitudeDegrees>36.72829337418079376220703125</LatitudeDegrees>
              <LongitudeDegrees>-5.46588373370468616485595703125</LongitudeDegrees>
            </Position>
            <AltitudeMeters>488.20001220703125</AltitudeMeters>
            <DistanceMeters>2695.3699552577</DistanceMeters>
          </Trackpoint>
          <Trackpoint>
            <Time>2021-03-21T14:45:20.000Z</Time>
            <Position>
              <LatitudeDegrees>36.72825003974139690399169921875</LatitudeDegrees>
              <LongitudeDegrees>-5.46588205732405185699462890625</LongitudeDegrees>
            </Position>
            <AltitudeMeters>487.399993896484375</AltitudeMeters>
            <DistanceMeters>2700.1967137171</DistanceMeters>
          </Trackpoint>
          <Trackpoint>
            <Time>2021-03-21T14:48:12.000Z</Time>
            <Position>
              <LatitudeDegrees>36.72825020737946033477783203125</LatitudeDegrees>
              <LongitudeDegrees>-5.46595581807196140289306640625</LongitudeDegrees>
            </Position>
            <AltitudeMeters>485.79998779296875</AltitudeMeters>
            <DistanceMeters>2706.777613855</DistanceMeters>
          </Trackpoint>
          <Trackpoint>
            <Time>2021-03-21T14:48:14.000Z</Time>
            <Position>
              <LatitudeDegrees>36.72824316658079624176025390625</LatitudeDegrees>
              <LongitudeDegrees>-5.46596788801252841949462890625</LongitudeDegrees>
            </Position>
            <AltitudeMeters>485.20001220703125</AltitudeMeters>
            <DistanceMeters>2708.1113773496</DistanceMeters>
          </Trackpoint>
          <Trackpoint>
            <Time>2021-03-21T14:48:21.000Z</Time>
            <Position>
              <LatitudeDegrees>36.7282377183437347412109375</LatitudeDegrees>
              <LongitudeDegrees>-5.46603444032371044158935546875</LongitudeDegrees>
            </Position>
            <AltitudeMeters>485.79998779296875</AltitudeMeters>
            <DistanceMeters>2714.0791760639</DistanceMeters>
          </Trackpoint>
          <Trackpoint>
            <Time>2021-03-21T14:48:28.000Z</Time>
            <Position>
              <LatitudeDegrees>36.7282177694141864776611328125</LatitudeDegrees>
              <LongitudeDegrees>-5.4660994000732898712158203125</LongitudeDegrees>
            </Position>
            <AltitudeMeters>485.399993896484375</AltitudeMeters>
            <DistanceMeters>2720.2850826079</DistanceMeters>
          </Trackpoint>
          <Trackpoint>
            <Time>2021-03-21T14:48:29.000Z</Time>
            <Position>
              <LatitudeDegrees>36.7282135784626007080078125</LatitudeDegrees>
              <LongitudeDegrees>-5.46611021272838115692138671875</LongitudeDegrees>
            </Position>
            <AltitudeMeters>485.399993896484375</AltitudeMeters>
            <DistanceMeters>2721.3559792922</DistanceMeters>
          </Trackpoint>
          <Trackpoint>
            <Time>2021-03-21T14:48:30.000Z</Time>
            <Position>
              <LatitudeDegrees>36.728209555149078369140625</LatitudeDegrees>
              <LongitudeDegrees>-5.46611842699348926544189453125</LongitudeDegrees>
            </Position>
            <AltitudeMeters>485.20001220703125</AltitudeMeters>
            <DistanceMeters>2722.2164827893</DistanceMeters>
          </Trackpoint>
          <Trackpoint>
            <Time>2021-03-21T14:48:33.000Z</Time>
            <Position>
              <LatitudeDegrees>36.728200502693653106689453125</LatitudeDegrees>
              <LongitudeDegrees>-5.4661341011524200439453125</LongitudeDegrees>
            </Position>
            <AltitudeMeters>485.20001220703125</AltitudeMeters>
            <DistanceMeters>2723.9374897833</DistanceMeters>
          </Trackpoint>
          <Trackpoint>
            <Time>2021-03-21T14:48:38.000Z</Time>
            <Position>
              <LatitudeDegrees>36.72817359678447246551513671875</LatitudeDegrees>
              <LongitudeDegrees>-5.46616218052804470062255859375</LongitudeDegrees>
            </Position>
            <AltitudeMeters>484.79998779296875</AltitudeMeters>
            <DistanceMeters>2727.8416886816</DistanceMeters>
          </Trackpoint>
          <Trackpoint>
            <Time>2021-03-21T14:48:50.000Z</Time>
            <Position>
              <LatitudeDegrees>36.72813403420150279998779296875</LatitudeDegrees>
              <LongitudeDegrees>-5.4662325046956539154052734375</LongitudeDegrees>
            </Position>
            <AltitudeMeters>483.79998779296875</AltitudeMeters>
            <DistanceMeters>2735.5065224922</DistanceMeters>
          </Trackpoint>
          <Trackpoint>
            <Time>2021-03-21T14:49:07.000Z</Time>
            <Position>
              <LatitudeDegrees>36.72811693511903285980224609375</LatitudeDegrees>
              <LongitudeDegrees>-5.46637214720249176025390625</LongitudeDegrees>
            </Position>
            <AltitudeMeters>482.600006103515625</AltitudeMeters>
            <DistanceMeters>2748.1082257241</DistanceMeters>
          </Trackpoint>
          <Trackpoint>
            <Time>2021-03-21T14:49:19.000Z</Time>
            <Position>
              <LatitudeDegrees>36.72810335643589496612548828125</LatitudeDegrees>
              <LongitudeDegrees>-5.46648605726659297943115234375</LongitudeDegrees>
            </Position>
            <AltitudeMeters>481.399993896484375</AltitudeMeters>
            <DistanceMeters>2758.3816639741</DistanceMeters>
          </Trackpoint>
          <Trackpoint>
            <Time>2021-03-21T14:49:32.000Z</Time>
            <Position>
              <LatitudeDegrees>36.7280870117247104644775390625</LatitudeDegrees>
              <LongitudeDegrees>-5.46663366258144378662109375</LongitudeDegrees>
            </Position>
            <AltitudeMeters>480.399993896484375</AltitudeMeters>
            <DistanceMeters>2771.6738600192</DistanceMeters>
          </Trackpoint>
          <Trackpoint>
            <Time>2021-03-21T14:50:03.000Z</Time>
            <Position>
              <LatitudeDegrees>36.728088855743408203125</LatitudeDegrees>
              <LongitudeDegrees>-5.46683843247592449188232421875</LongitudeDegrees>
            </Position>
            <AltitudeMeters>479.399993896484375</AltitudeMeters>
            <DistanceMeters>2789.9417418084</DistanceMeters>
          </Trackpoint>
          <Trackpoint>
            <Time>2021-03-21T14:50:15.000Z</Time>
            <Position>
              <LatitudeDegrees>36.7280953936278820037841796875</LatitudeDegrees>
              <LongitudeDegrees>-5.466886125504970550537109375</LongitudeDegrees>
            </Position>
            <AltitudeMeters>478.20001220703125</AltitudeMeters>
            <DistanceMeters>2794.2589258189</DistanceMeters>
          </Trackpoint>
          <Trackpoint>
            <Time>2021-03-21T14:50:25.000Z</Time>
            <Position>
              <LatitudeDegrees>36.72812850214540958404541015625</LatitudeDegrees>
              <LongitudeDegrees>-5.46698679216206073760986328125</LongitudeDegrees>
            </Position>
            <AltitudeMeters>476.79998779296875</AltitudeMeters>
            <DistanceMeters>2803.965615142</DistanceMeters>
          </Trackpoint>
          <Trackpoint>
            <Time>2021-03-21T14:50:34.000Z</Time>
            <Position>
              <LatitudeDegrees>36.7281533963978290557861328125</LatitudeDegrees>
              <LongitudeDegrees>-5.4671069048345088958740234375</LongitudeDegrees>
            </Position>
            <AltitudeMeters>475.79998779296875</AltitudeMeters>
            <DistanceMeters>2815.0332701313</DistanceMeters>
          </Trackpoint>
          <Trackpoint>
            <Time>2021-03-21T14:50:45.000Z</Time>
            <Position>
              <LatitudeDegrees>36.728195808827877044677734375</LatitudeDegrees>
              <LongitudeDegrees>-5.467191226780414581298828125</LongitudeDegrees>
            </Position>
            <AltitudeMeters>474.600006103515625</AltitudeMeters>
            <DistanceMeters>2823.9140745803</DistanceMeters>
          </Trackpoint>
          <Trackpoint>
            <Time>2021-03-21T14:50:52.000Z</Time>
            <Position>
              <LatitudeDegrees>36.72821315936744213104248046875</LatitudeDegrees>
              <LongitudeDegrees>-5.46722106635570526123046875</LongitudeDegrees>
            </Position>
            <AltitudeMeters>473.600006103515625</AltitudeMeters>
            <DistanceMeters>2827.2045246493</DistanceMeters>
          </Trackpoint>
          <Trackpoint>
            <Time>2021-03-21T14:51:11.000Z</Time>
            <Position>
              <LatitudeDegrees>36.72826579771935939788818359375</LatitudeDegrees>
              <LongitudeDegrees>-5.4672695137560367584228515625</LongitudeDegrees>
            </Position>
            <AltitudeMeters>473</AltitudeMeters>
            <DistanceMeters>2834.485084293</DistanceMeters>
          </Trackpoint>
          <Trackpoint>
            <Time>2021-03-21T14:51:14.000Z</Time>
            <Position>
              <LatitudeDegrees>36.72826697118580341339111328125</LatitudeDegrees>
              <LongitudeDegrees>-5.4672903008759021759033203125</LongitudeDegrees>
            </Position>
            <AltitudeMeters>472.600006103515625</AltitudeMeters>
            <DistanceMeters>2836.3423643477</DistanceMeters>
          </Trackpoint>
          <Trackpoint>
            <Time>2021-03-21T14:51:23.000Z</Time>
            <Position>
              <LatitudeDegrees>36.72826948575675487518310546875</LatitudeDegrees>
              <LongitudeDegrees>-5.46734872274100780487060546875</LongitudeDegrees>
            </Position>
            <AltitudeMeters>471.79998779296875</AltitudeMeters>
            <DistanceMeters>2841.5610529335</DistanceMeters>
          </Trackpoint>
          <Trackpoint>
            <Time>2021-03-21T14:51:25.000Z</Time>
            <Position>
              <LatitudeDegrees>36.72826780937612056732177734375</LatitudeDegrees>
              <LongitudeDegrees>-5.4673526622354984283447265625</LongitudeDegrees>
            </Position>
            <AltitudeMeters>471.600006103515625</AltitudeMeters>
            <DistanceMeters>2841.941159791</DistanceMeters>
          </Trackpoint>
          <Trackpoint>
            <Time>2021-03-21T14:51:31.000Z</Time>
            <Position>
              <LatitudeDegrees>36.72825892455875873565673828125</LatitudeDegrees>
              <LongitudeDegrees>-5.467377640306949615478515625</LongitudeDegrees>
            </Position>
            <AltitudeMeters>471.20001220703125</AltitudeMeters>
            <DistanceMeters>2844.3787385692</DistanceMeters>
          </Trackpoint>
          <Trackpoint>
            <Time>2021-03-21T14:51:38.000Z</Time>
            <Position>
              <LatitudeDegrees>36.7282591760158538818359375</LatitudeDegrees>
              <LongitudeDegrees>-5.4674143530428409576416015625</LongitudeDegrees>
            </Position>
            <AltitudeMeters>470.600006103515625</AltitudeMeters>
            <DistanceMeters>2847.654060052</DistanceMeters>
          </Trackpoint>
          <Trackpoint>
            <Time>2021-03-21T14:51:40.000Z</Time>
            <Position>
              <LatitudeDegrees>36.72826529480516910552978515625</LatitudeDegrees>
              <LongitudeDegrees>-5.4674274288117885589599609375</LongitudeDegrees>
            </Position>
            <AltitudeMeters>470.399993896484375</AltitudeMeters>
            <DistanceMeters>2849.0046434228</DistanceMeters>
          </Trackpoint>
          <Trackpoint>
            <Time>2021-03-21T14:51:41.000Z</Time>
            <Position>
              <LatitudeDegrees>36.72826780937612056732177734375</LatitudeDegrees>
              <LongitudeDegrees>-5.467435307800769805908203125</LongitudeDegrees>
            </Position>
            <AltitudeMeters>470.20001220703125</AltitudeMeters>
            <DistanceMeters>2849.7648571378</DistanceMeters>
          </Trackpoint>
          <Trackpoint>
            <Time>2021-03-21T14:51:42.000Z</Time>
            <Position>
              <LatitudeDegrees>36.7282704077661037445068359375</LatitudeDegrees>
              <LongitudeDegrees>-5.46744368970394134521484375</LongitudeDegrees>
            </Position>
            <AltitudeMeters>470</AltitudeMeters>
            <DistanceMeters>2850.5711855473</DistanceMeters>
          </Trackpoint>
          <Trackpoint>
            <Time>2021-03-21T14:51:43.000Z</Time>
            <Position>
              <LatitudeDegrees>36.7282740958034992218017578125</LatitudeDegrees>
              <LongitudeDegrees>-5.4674498923122882843017578125</LongitudeDegrees>
            </Position>
            <AltitudeMeters>470</AltitudeMeters>
            <DistanceMeters>2851.2629904703</DistanceMeters>
          </Trackpoint>
          <Trackpoint>
            <Time>2021-03-21T14:51:45.000Z</Time>
            <Position>
              <LatitudeDegrees>36.7282871715724468231201171875</LatitudeDegrees>
              <LongitudeDegrees>-5.4674622975289821624755859375</LongitudeDegrees>
            </Position>
            <AltitudeMeters>469.600006103515625</AltitudeMeters>
            <DistanceMeters>2853.0908658173</DistanceMeters>
          </Trackpoint>
          <Trackpoint>
            <Time>2021-03-21T14:51:47.000Z</Time>
            <Position>
              <LatitudeDegrees>36.72829764895141124725341796875</LatitudeDegrees>
              <LongitudeDegrees>-5.46747528947889804840087890625</LongitudeDegrees>
            </Position>
            <AltitudeMeters>469.600006103515625</AltitudeMeters>
            <DistanceMeters>2854.736776791</DistanceMeters>
          </Trackpoint>
          <Trackpoint>
            <Time>2021-03-21T14:51:51.000Z</Time>
            <Position>
              <LatitudeDegrees>36.7283206991851329803466796875</LatitudeDegrees>
              <LongitudeDegrees>-5.4675062187016010284423828125</LongitudeDegrees>
            </Position>
            <AltitudeMeters>469.20001220703125</AltitudeMeters>
            <DistanceMeters>2858.5044392188</DistanceMeters>
          </Trackpoint>
          <Trackpoint>
            <Time>2021-03-21T14:51:59.000Z</Time>
            <Position>
              <LatitudeDegrees>36.72836713492870330810546875</LatitudeDegrees>
              <LongitudeDegrees>-5.46756765805184841156005859375</LongitudeDegrees>
            </Position>
            <AltitudeMeters>469</AltitudeMeters>
            <DistanceMeters>2866.0385656132</DistanceMeters>
          </Trackpoint>
          <Trackpoint>
            <Time>2021-03-21T14:52:25.000Z</Time>
            <Position>
              <LatitudeDegrees>36.72845036722719669342041015625</LatitudeDegrees>
              <LongitudeDegrees>-5.46776547096669673919677734375</LongitudeDegrees>
            </Position>
            <AltitudeMeters>468.399993896484375</AltitudeMeters>
            <DistanceMeters>2885.9685925209</DistanceMeters>
          </Trackpoint>
          <Trackpoint>
            <Time>2021-03-21T14:52:50.000Z</Time>
            <Position>
              <LatitudeDegrees>36.72845556400716304779052734375</LatitudeDegrees>
              <LongitudeDegrees>-5.46777318231761455535888671875</LongitudeDegrees>
            </Position>
            <AltitudeMeters>467.600006103515625</AltitudeMeters>
            <DistanceMeters>2886.8700950888</DistanceMeters>
          </Trackpoint>
          <Trackpoint>
            <Time>2021-03-21T14:52:57.000Z</Time>
            <Position>
              <LatitudeDegrees>36.7285047657787799835205078125</LatitudeDegrees>
              <LongitudeDegrees>-5.46775893308222293853759765625</LongitudeDegrees>
            </Position>
            <AltitudeMeters>467.20001220703125</AltitudeMeters>
            <DistanceMeters>2892.4919513262</DistanceMeters>
          </Trackpoint>
          <Trackpoint>
            <Time>2021-03-21T14:53:04.000Z</Time>
            <Position>
              <LatitudeDegrees>36.72857810743153095245361328125</LatitudeDegrees>
              <LongitudeDegrees>-5.46779313124716281890869140625</LongitudeDegrees>
            </Position>
            <AltitudeMeters>466.600006103515625</AltitudeMeters>
            <DistanceMeters>2901.2064761493</DistanceMeters>
          </Trackpoint>
          <Trackpoint>
            <Time>2021-03-21T14:53:05.000Z</Time>
            <Position>
              <LatitudeDegrees>36.7285944521427154541015625</LatitudeDegrees>
              <LongitudeDegrees>-5.46779329888522624969482421875</LongitudeDegrees>
            </Position>
            <AltitudeMeters>466.20001220703125</AltitudeMeters>
            <DistanceMeters>2903.0244442399</DistanceMeters>
          </Trackpoint>
          <Trackpoint>
            <Time>2021-03-21T14:53:12.000Z</Time>
            <Position>
              <LatitudeDegrees>36.7286325059831142425537109375</LatitudeDegrees>
              <LongitudeDegrees>-5.4678381420671939849853515625</LongitudeDegrees>
            </Position>
            <AltitudeMeters>465.20001220703125</AltitudeMeters>
            <DistanceMeters>2908.8498221055</DistanceMeters>
          </Trackpoint>
          <Trackpoint>
            <Time>2021-03-21T14:53:27.000Z</Time>
            <Position>
              <LatitudeDegrees>36.72865102998912334442138671875</LatitudeDegrees>
              <LongitudeDegrees>-5.46796747483313083648681640625</LongitudeDegrees>
            </Position>
            <AltitudeMeters>464</AltitudeMeters>
            <DistanceMeters>2920.5693554884</DistanceMeters>
          </Trackpoint>
          <Trackpoint>
            <Time>2021-03-21T14:53:40.000Z</Time>
            <Position>
              <LatitudeDegrees>36.72861113213002681732177734375</LatitudeDegrees>
              <LongitudeDegrees>-5.4680411517620086669921875</LongitudeDegrees>
            </Position>
            <AltitudeMeters>463</AltitudeMeters>
            <DistanceMeters>2928.5022366004</DistanceMeters>
          </Trackpoint>
          <Trackpoint>
            <Time>2021-03-21T14:53:46.000Z</Time>
            <Position>
              <LatitudeDegrees>36.7286150716245174407958984375</LatitudeDegrees>
              <LongitudeDegrees>-5.46808834187686443328857421875</LongitudeDegrees>
            </Position>
            <AltitudeMeters>461.79998779296875</AltitudeMeters>
            <DistanceMeters>2932.7349274307</DistanceMeters>
          </Trackpoint>
          <Trackpoint>
            <Time>2021-03-21T14:53:51.000Z</Time>
            <Position>
              <LatitudeDegrees>36.728624962270259857177734375</LatitudeDegrees>
              <LongitudeDegrees>-5.4681093804538249969482421875</LongitudeDegrees>
            </Position>
            <AltitudeMeters>460.79998779296875</AltitudeMeters>
            <DistanceMeters>2934.9122629889</DistanceMeters>
          </Trackpoint>
          <Trackpoint>
            <Time>2021-03-21T14:54:06.000Z</Time>
            <Position>
              <LatitudeDegrees>36.72863426618278026580810546875</LatitudeDegrees>
              <LongitudeDegrees>-5.4681657068431377410888671875</LongitudeDegrees>
            </Position>
            <AltitudeMeters>459.399993896484375</AltitudeMeters>
            <DistanceMeters>2940.0428256125</DistanceMeters>
          </Trackpoint>
          <Trackpoint>
            <Time>2021-03-21T14:54:15.000Z</Time>
            <Position>
              <LatitudeDegrees>36.72864164225757122039794921875</LatitudeDegrees>
              <LongitudeDegrees>-5.46820987947285175323486328125</LongitudeDegrees>
            </Position>
            <AltitudeMeters>458.600006103515625</AltitudeMeters>
            <DistanceMeters>2944.0677426477</DistanceMeters>
          </Trackpoint>
          <Trackpoint>
            <Time>2021-03-21T14:54:18.000Z</Time>
            <Position>
              <LatitudeDegrees>36.72865974716842174530029296875</LatitudeDegrees>
              <LongitudeDegrees>-5.46821759082376956939697265625</LongitudeDegrees>
            </Position>
            <AltitudeMeters>458.399993896484375</AltitudeMeters>
            <DistanceMeters>2946.1989696303</DistanceMeters>
          </Trackpoint>
          <Trackpoint>
            <Time>2021-03-21T14:54:27.000Z</Time>
            <Position>
              <LatitudeDegrees>36.72869143076241016387939453125</LatitudeDegrees>
              <LongitudeDegrees>-5.46826520003378391265869140625</LongitudeDegrees>
            </Position>
            <AltitudeMeters>457.20001220703125</AltitudeMeters>
            <DistanceMeters>2951.7195228633</DistanceMeters>
          </Trackpoint>
          <Trackpoint>
            <Time>2021-03-21T14:54:30.000Z</Time>
            <Position>
              <LatitudeDegrees>36.72869914211332798004150390625</LatitudeDegrees>
              <LongitudeDegrees>-5.46827240847051143646240234375</LongitudeDegrees>
            </Position>
            <AltitudeMeters>456.20001220703125</AltitudeMeters>
            <DistanceMeters>2952.7946274093</DistanceMeters>
          </Trackpoint>
          <Trackpoint>
            <Time>2021-03-21T14:54:38.000Z</Time>
            <Position>
              <LatitudeDegrees>36.72872764058411121368408203125</LatitudeDegrees>
              <LongitudeDegrees>-5.46829973347485065460205078125</LongitudeDegrees>
            </Position>
            <AltitudeMeters>455</AltitudeMeters>
            <DistanceMeters>2956.795917893</DistanceMeters>
          </Trackpoint>
          <Trackpoint>
            <Time>2021-03-21T14:54:43.000Z</Time>
            <Position>
              <LatitudeDegrees>36.72875110991299152374267578125</LatitudeDegrees>
              <LongitudeDegrees>-5.46830493025481700897216796875</LongitudeDegrees>
            </Position>
            <AltitudeMeters>455</AltitudeMeters>
            <DistanceMeters>2959.4498695931</DistanceMeters>
          </Trackpoint>
          <Trackpoint>
            <Time>2021-03-21T14:54:48.000Z</Time>
            <Position>
              <LatitudeDegrees>36.72875940799713134765625</LatitudeDegrees>
              <LongitudeDegrees>-5.4682994820177555084228515625</LongitudeDegrees>
            </Position>
            <AltitudeMeters>455.20001220703125</AltitudeMeters>
            <DistanceMeters>2960.4908350936</DistanceMeters>
          </Trackpoint>
          <Trackpoint>
            <Time>2021-03-21T14:55:01.000Z</Time>
            <Position>
              <LatitudeDegrees>36.72873199917376041412353515625</LatitudeDegrees>
              <LongitudeDegrees>-5.4683618433773517608642578125</LongitudeDegrees>
            </Position>
            <AltitudeMeters>454.79998779296875</AltitudeMeters>
            <DistanceMeters>2966.8356030789</DistanceMeters>
          </Trackpoint>
          <Trackpoint>
            <Time>2021-03-21T14:55:25.000Z</Time>
            <Position>
              <LatitudeDegrees>36.728789918124675750732421875</LatitudeDegrees>
              <LongitudeDegrees>-5.46845622360706329345703125</LongitudeDegrees>
            </Position>
            <AltitudeMeters>454</AltitudeMeters>
            <DistanceMeters>2977.4394944344</DistanceMeters>
          </Trackpoint>
          <Trackpoint>
            <Time>2021-03-21T14:55:33.000Z</Time>
            <Position>
              <LatitudeDegrees>36.72881246544420719146728515625</LatitudeDegrees>
              <LongitudeDegrees>-5.468492098152637481689453125</LongitudeDegrees>
            </Position>
            <AltitudeMeters>453</AltitudeMeters>
            <DistanceMeters>2981.5057051974</DistanceMeters>
          </Trackpoint>
          <Trackpoint>
            <Time>2021-03-21T14:55:46.000Z</Time>
            <Position>
              <LatitudeDegrees>36.7288397066295146942138671875</LatitudeDegrees>
              <LongitudeDegrees>-5.4685214348137378692626953125</LongitudeDegrees>
            </Position>
            <AltitudeMeters>452</AltitudeMeters>
            <DistanceMeters>2985.5115067203</DistanceMeters>
          </Trackpoint>
          <Trackpoint>
            <Time>2021-03-21T14:56:01.000Z</Time>
            <Position>
              <LatitudeDegrees>36.72886225394904613494873046875</LatitudeDegrees>
              <LongitudeDegrees>-5.46857968904078006744384765625</LongitudeDegrees>
            </Position>
            <AltitudeMeters>451</AltitudeMeters>
            <DistanceMeters>2991.282375106</DistanceMeters>
          </Trackpoint>
          <Trackpoint>
            <Time>2021-03-21T14:56:10.000Z</Time>
            <Position>
              <LatitudeDegrees>36.7288685403764247894287109375</LatitudeDegrees>
              <LongitudeDegrees>-5.4686082713305950164794921875</LongitudeDegrees>
            </Position>
            <AltitudeMeters>450</AltitudeMeters>
            <DistanceMeters>2993.9260995939</DistanceMeters>
          </Trackpoint>
          <Trackpoint>
            <Time>2021-03-21T14:56:17.000Z</Time>
            <Position>
              <LatitudeDegrees>36.7288635112345218658447265625</LatitudeDegrees>
              <LongitudeDegrees>-5.468619503080844879150390625</LongitudeDegrees>
            </Position>
            <AltitudeMeters>449.399993896484375</AltitudeMeters>
            <DistanceMeters>2995.0743117523</DistanceMeters>
          </Trackpoint>
          <Trackpoint>
            <Time>2021-03-21T14:56:26.000Z</Time>
            <Position>
              <LatitudeDegrees>36.728863008320331573486328125</LatitudeDegrees>
              <LongitudeDegrees>-5.46862528659403324127197265625</LongitudeDegrees>
            </Position>
            <AltitudeMeters>449</AltitudeMeters>
            <DistanceMeters>2995.5947945026</DistanceMeters>
          </Trackpoint>
          <Trackpoint>
            <Time>2021-03-21T14:56:32.000Z</Time>
            <Position>
              <LatitudeDegrees>36.72886292450129985809326171875</LatitudeDegrees>
              <LongitudeDegrees>-5.46864741481840610504150390625</LongitudeDegrees>
            </Position>
            <AltitudeMeters>448.399993896484375</AltitudeMeters>
            <DistanceMeters>2997.569887671</DistanceMeters>
          </Trackpoint>
          <Trackpoint>
            <Time>2021-03-21T14:56:36.000Z</Time>
            <Position>
              <LatitudeDegrees>36.72886862419545650482177734375</LatitudeDegrees>
              <LongitudeDegrees>-5.468661077320575714111328125</LongitudeDegrees>
            </Position>
            <AltitudeMeters>448.20001220703125</AltitudeMeters>
            <DistanceMeters>2998.9403824358</DistanceMeters>
          </Trackpoint>
          <Trackpoint>
            <Time>2021-03-21T14:56:41.000Z</Time>
            <Position>
              <LatitudeDegrees>36.7288688756525516510009765625</LatitudeDegrees>
              <LongitudeDegrees>-5.46866786666214466094970703125</LongitudeDegrees>
            </Position>
            <AltitudeMeters>448.20001220703125</AltitudeMeters>
            <DistanceMeters>2999.5413841477</DistanceMeters>
          </Trackpoint>
          <Trackpoint>
            <Time>2021-03-21T14:56:46.000Z</Time>
            <Position>
              <LatitudeDegrees>36.72888019122183322906494140625</LatitudeDegrees>
              <LongitudeDegrees>-5.46866853721439838409423828125</LongitudeDegrees>
            </Position>
            <AltitudeMeters>448</AltitudeMeters>
            <DistanceMeters>3000.8020559742</DistanceMeters>
          </Trackpoint>
          <Trackpoint>
            <Time>2021-03-21T14:57:01.000Z</Time>
            <Position>
              <LatitudeDegrees>36.72888748347759246826171875</LatitudeDegrees>
              <LongitudeDegrees>-5.468675158917903900146484375</LongitudeDegrees>
            </Position>
            <AltitudeMeters>446.79998779296875</AltitudeMeters>
            <DistanceMeters>3001.8077241907</DistanceMeters>
          </Trackpoint>
          <Trackpoint>
            <Time>2021-03-21T14:57:21.000Z</Time>
            <Position>
              <LatitudeDegrees>36.7288993857800960540771484375</LatitudeDegrees>
              <LongitudeDegrees>-5.468745566904544830322265625</LongitudeDegrees>
            </Position>
            <AltitudeMeters>445.79998779296875</AltitudeMeters>
            <DistanceMeters>3008.2274803302</DistanceMeters>
          </Trackpoint>
          <Trackpoint>
            <Time>2021-03-21T14:57:33.000Z</Time>
            <Position>
              <LatitudeDegrees>36.72889729030430316925048828125</LatitudeDegrees>
              <LongitudeDegrees>-5.4687873087823390960693359375</LongitudeDegrees>
            </Position>
            <AltitudeMeters>444.600006103515625</AltitudeMeters>
            <DistanceMeters>3011.9565978831</DistanceMeters>
          </Trackpoint>
          <Trackpoint>
            <Time>2021-03-21T14:57:42.000Z</Time>
            <Position>
              <LatitudeDegrees>36.72890760004520416259765625</LatitudeDegrees>
              <LongitudeDegrees>-5.46881589107215404510498046875</LongitudeDegrees>
            </Position>
            <AltitudeMeters>443.79998779296875</AltitudeMeters>
            <DistanceMeters>3014.7530324346</DistanceMeters>
          </Trackpoint>
          <Trackpoint>
            <Time>2021-03-21T14:57:44.000Z</Time>
            <Position>
              <LatitudeDegrees>36.728911288082599639892578125</LatitudeDegrees>
              <LongitudeDegrees>-5.46882444061338901519775390625</LongitudeDegrees>
            </Position>
            <AltitudeMeters>443.600006103515625</AltitudeMeters>
            <DistanceMeters>3015.6135359316</DistanceMeters>
          </Trackpoint>
          <Trackpoint>
            <Time>2021-03-21T14:57:58.000Z</Time>
            <Position>
              <LatitudeDegrees>36.72892528586089611053466796875</LatitudeDegrees>
              <LongitudeDegrees>-5.4688597284257411956787109375</LongitudeDegrees>
            </Position>
            <AltitudeMeters>442.600006103515625</AltitudeMeters>
            <DistanceMeters>3019.1256698161</DistanceMeters>
          </Trackpoint>
          <Trackpoint>
            <Time>2021-03-21T14:58:07.000Z</Time>
            <Position>
              <LatitudeDegrees>36.72892880626022815704345703125</LatitudeDegrees>
              <LongitudeDegrees>-5.468876659870147705078125</LongitudeDegrees>
            </Position>
            <AltitudeMeters>441.600006103515625</AltitudeMeters>
            <DistanceMeters>3020.6813241758</DistanceMeters>
          </Trackpoint>
          <Trackpoint>
            <Time>2021-03-21T14:58:09.000Z</Time>
            <Position>
              <LatitudeDegrees>36.7289270460605621337890625</LatitudeDegrees>
              <LongitudeDegrees>-5.468889735639095306396484375</LongitudeDegrees>
            </Position>
            <AltitudeMeters>441.399993896484375</AltitudeMeters>
            <DistanceMeters>3021.8682074579</DistanceMeters>
          </Trackpoint>
          <Trackpoint>
            <Time>2021-03-21T14:58:11.000Z</Time>
            <Position>
              <LatitudeDegrees>36.72892143018543720245361328125</LatitudeDegrees>
              <LongitudeDegrees>-5.468898117542266845703125</LongitudeDegrees>
            </Position>
            <AltitudeMeters>441</AltitudeMeters>
            <DistanceMeters>3022.8465673626</DistanceMeters>
          </Trackpoint>
          <Trackpoint>
            <Time>2021-03-21T14:58:16.000Z</Time>
            <Position>
              <LatitudeDegrees>36.72891505993902683258056640625</LatitudeDegrees>
              <LongitudeDegrees>-5.4689083434641361236572265625</LongitudeDegrees>
            </Position>
            <AltitudeMeters>440.79998779296875</AltitudeMeters>
            <DistanceMeters>3024.0026172376</DistanceMeters>
          </Trackpoint>
          <Trackpoint>
            <Time>2021-03-21T14:58:17.000Z</Time>
            <Position>
              <LatitudeDegrees>36.7289151437580585479736328125</LatitudeDegrees>
              <LongitudeDegrees>-5.46890658326447010040283203125</LongitudeDegrees>
            </Position>
            <AltitudeMeters>440.79998779296875</AltitudeMeters>
            <DistanceMeters>3024.167208335</DistanceMeters>
          </Trackpoint>
          <Trackpoint>
            <Time>2021-03-21T14:58:19.000Z</Time>
            <Position>
              <LatitudeDegrees>36.72891187481582164764404296875</LatitudeDegrees>
              <LongitudeDegrees>-5.4689147137105464935302734375</LongitudeDegrees>
            </Position>
            <AltitudeMeters>440.600006103515625</AltitudeMeters>
            <DistanceMeters>3024.9735367445</DistanceMeters>
          </Trackpoint>
          <Trackpoint>
            <Time>2021-03-21T14:58:21.000Z</Time>
            <Position>
              <LatitudeDegrees>36.728913970291614532470703125</LatitudeDegrees>
              <LongitudeDegrees>-5.46891664154827594757080078125</LongitudeDegrees>
            </Position>
            <AltitudeMeters>440.399993896484375</AltitudeMeters>
            <DistanceMeters>3025.242312881</DistanceMeters>
          </Trackpoint>
          <Trackpoint>
            <Time>2021-03-21T14:58:22.000Z</Time>
            <Position>
              <LatitudeDegrees>36.7289117909967899322509765625</LatitudeDegrees>
              <LongitudeDegrees>-5.46892250888049602508544921875</LongitudeDegrees>
            </Position>
            <AltitudeMeters>440.20001220703125</AltitudeMeters>
            <DistanceMeters>3025.8124731672</DistanceMeters>
          </Trackpoint>
          <Trackpoint>
            <Time>2021-03-21T14:58:24.000Z</Time>
            <Position>
              <LatitudeDegrees>36.7289082705974578857421875</LatitudeDegrees>
              <LongitudeDegrees>-5.46892804093658924102783203125</LongitudeDegrees>
            </Position>
            <AltitudeMeters>440.20001220703125</AltitudeMeters>
            <DistanceMeters>3026.4428090805</DistanceMeters>
          </Trackpoint>
          <Trackpoint>
            <Time>2021-03-21T14:58:29.000Z</Time>
            <Position>
              <LatitudeDegrees>36.72889284789562225341796875</LatitudeDegrees>
              <LongitudeDegrees>-5.46894497238099575042724609375</LongitudeDegrees>
            </Position>
            <AltitudeMeters>439.399993896484375</AltitudeMeters>
            <DistanceMeters>3028.7274062407</DistanceMeters>
          </Trackpoint>
          <Trackpoint>
            <Time>2021-03-21T14:58:30.000Z</Time>
            <Position>
              <LatitudeDegrees>36.72889192588627338409423828125</LatitudeDegrees>
              <LongitudeDegrees>-5.4689479060471057891845703125</LongitudeDegrees>
            </Position>
            <AltitudeMeters>439.399993896484375</AltitudeMeters>
            <DistanceMeters>3029.0279070967</DistanceMeters>
          </Trackpoint>
          <Trackpoint>
            <Time>2021-03-21T14:58:31.000Z</Time>
            <Position>
              <LatitudeDegrees>36.7288903333246707916259765625</LatitudeDegrees>
              <LongitudeDegrees>-5.46895109117031097412109375</LongitudeDegrees>
            </Position>
            <AltitudeMeters>439.20001220703125</AltitudeMeters>
            <DistanceMeters>3029.3705307879</DistanceMeters>
          </Trackpoint>
          <Trackpoint>
            <Time>2021-03-21T14:58:33.000Z</Time>
            <Position>
              <LatitudeDegrees>36.72889016568660736083984375</LatitudeDegrees>
              <LongitudeDegrees>-5.46896257437765598297119140625</LongitudeDegrees>
            </Position>
            <AltitudeMeters>439</AltitudeMeters>
            <DistanceMeters>3030.3939998238</DistanceMeters>
          </Trackpoint>
          <Trackpoint>
            <Time>2021-03-21T14:58:40.000Z</Time>
            <Position>
              <LatitudeDegrees>36.72889150679111480712890625</LatitudeDegrees>
              <LongitudeDegrees>-5.4689928330481052398681640625</LongitudeDegrees>
            </Position>
            <AltitudeMeters>438.399993896484375</AltitudeMeters>
            <DistanceMeters>3033.0985075276</DistanceMeters>
          </Trackpoint>
          <Trackpoint>
            <Time>2021-03-21T14:58:41.000Z</Time>
            <Position>
              <LatitudeDegrees>36.728891842067241668701171875</LatitudeDegrees>
              <LongitudeDegrees>-5.4689958505332469940185546875</LongitudeDegrees>
            </Position>
            <AltitudeMeters>438.20001220703125</AltitudeMeters>
            <DistanceMeters>3033.3835876707</DistanceMeters>
          </Trackpoint>
          <Trackpoint>
            <Time>2021-03-21T14:58:48.000Z</Time>
            <Position>
              <LatitudeDegrees>36.72889024950563907623291015625</LatitudeDegrees>
              <LongitudeDegrees>-5.4690106026828289031982421875</LongitudeDegrees>
            </Position>
            <AltitudeMeters>437.600006103515625</AltitudeMeters>
            <DistanceMeters>3034.7139616719</DistanceMeters>
          </Trackpoint>
          <Trackpoint>
            <Time>2021-03-21T14:58:52.000Z</Time>
            <Position>
              <LatitudeDegrees>36.728886477649211883544921875</LatitudeDegrees>
              <LongitudeDegrees>-5.46901051886379718780517578125</LongitudeDegrees>
            </Position>
            <AltitudeMeters>437.600006103515625</AltitudeMeters>
            <DistanceMeters>3035.1389340579</DistanceMeters>
          </Trackpoint>
          <Trackpoint>
            <Time>2021-03-21T14:58:57.000Z</Time>
            <Position>
              <LatitudeDegrees>36.72888706438243389129638671875</LatitudeDegrees>
              <LongitudeDegrees>-5.469018481671810150146484375</LongitudeDegrees>
            </Position>
            <AltitudeMeters>437.399993896484375</AltitudeMeters>
            <DistanceMeters>3035.8500488734</DistanceMeters>
          </Trackpoint>
          <Trackpoint>
            <Time>2021-03-21T14:58:59.000Z</Time>
            <Position>
              <LatitudeDegrees>36.7288899980485439300537109375</LatitudeDegrees>
              <LongitudeDegrees>-5.469019152224063873291015625</LongitudeDegrees>
            </Position>
            <AltitudeMeters>437.399993896484375</AltitudeMeters>
            <DistanceMeters>3036.1792310681</DistanceMeters>
          </Trackpoint>
          <Trackpoint>
            <Time>2021-03-21T14:59:18.000Z</Time>
            <Position>
              <LatitudeDegrees>36.72893249429762363433837890625</LatitudeDegrees>
              <LongitudeDegrees>-5.46904119662940502166748046875</LongitudeDegrees>
            </Position>
            <AltitudeMeters>437.20001220703125</AltitudeMeters>
            <DistanceMeters>3041.3018673178</DistanceMeters>
          </Trackpoint>
          <Trackpoint>
            <Time>2021-03-21T14:59:26.000Z</Time>
            <Position>
              <LatitudeDegrees>36.7289332486689090728759765625</LatitudeDegrees>
              <LongitudeDegrees>-5.4690416157245635986328125</LongitudeDegrees>
            </Position>
            <AltitudeMeters>436.79998779296875</AltitudeMeters>
            <DistanceMeters>3041.3968940321</DistanceMeters>
          </Trackpoint>
          <Trackpoint>
            <Time>2021-03-21T14:59:41.000Z</Time>
            <Position>
              <LatitudeDegrees>36.72893769107758998870849609375</LatitudeDegrees>
              <LongitudeDegrees>-5.4690488241612911224365234375</LongitudeDegrees>
            </Position>
            <AltitudeMeters>436.399993896484375</AltitudeMeters>
            <DistanceMeters>3042.2088026356</DistanceMeters>
          </Trackpoint>
          <Trackpoint>
            <Time>2021-03-21T14:59:48.000Z</Time>
            <Position>
              <LatitudeDegrees>36.7289490066468715667724609375</LatitudeDegrees>
              <LongitudeDegrees>-5.46905879862606525421142578125</LongitudeDegrees>
            </Position>
            <AltitudeMeters>436.20001220703125</AltitudeMeters>
            <DistanceMeters>3043.7528039896</DistanceMeters>
          </Trackpoint>
          <Trackpoint>
            <Time>2021-03-21T15:00:04.000Z</Time>
            <Position>
              <LatitudeDegrees>36.72896266914904117584228515625</LatitudeDegrees>
              <LongitudeDegrees>-5.46908654272556304931640625</LongitudeDegrees>
            </Position>
            <AltitudeMeters>435.79998779296875</AltitudeMeters>
            <DistanceMeters>3046.6585089773</DistanceMeters>
          </Trackpoint>
          <Trackpoint>
            <Time>2021-03-21T15:00:05.000Z</Time>
            <Position>
              <LatitudeDegrees>36.7289630882441997528076171875</LatitudeDegrees>
              <LongitudeDegrees>-5.4690890572965145111083984375</LongitudeDegrees>
            </Position>
            <AltitudeMeters>435.79998779296875</AltitudeMeters>
            <DistanceMeters>3046.9099260314</DistanceMeters>
          </Trackpoint>
          <Trackpoint>
            <Time>2021-03-21T15:00:11.000Z</Time>
            <Position>
              <LatitudeDegrees>36.72897289507091045379638671875</LatitudeDegrees>
              <LongitudeDegrees>-5.4691051505506038665771484375</LongitudeDegrees>
            </Position>
            <AltitudeMeters>435.600006103515625</AltitudeMeters>
            <DistanceMeters>3048.7129311672</DistanceMeters>
          </Trackpoint>
          <Trackpoint>
            <Time>2021-03-21T15:00:14.000Z</Time>
            <Position>
              <LatitudeDegrees>36.72897356562316417694091796875</LatitudeDegrees>
              <LongitudeDegrees>-5.469106994569301605224609375</LongitudeDegrees>
            </Position>
            <AltitudeMeters>435.399993896484375</AltitudeMeters>
            <DistanceMeters>3048.902984596</DistanceMeters>
          </Trackpoint>
          <Trackpoint>
            <Time>2021-03-21T15:00:15.000Z</Time>
            <Position>
              <LatitudeDegrees>36.72897473908960819244384765625</LatitudeDegrees>
              <LongitudeDegrees>-5.46911076642572879791259765625</LongitudeDegrees>
            </Position>
            <AltitudeMeters>435.20001220703125</AltitudeMeters>
            <DistanceMeters>3049.2710214782</DistanceMeters>
          </Trackpoint>
          <Trackpoint>
            <Time>2021-03-21T15:00:16.000Z</Time>
            <Position>
              <LatitudeDegrees>36.72897591255605220794677734375</LatitudeDegrees>
              <LongitudeDegrees>-5.46911361627280712127685546875</LongitudeDegrees>
            </Position>
            <AltitudeMeters>435.20001220703125</AltitudeMeters>
            <DistanceMeters>3049.5561016213</DistanceMeters>
          </Trackpoint>
          <Trackpoint>
            <Time>2021-03-21T15:00:17.000Z</Time>
            <Position>
              <LatitudeDegrees>36.7289754934608936309814453125</LatitudeDegrees>
              <LongitudeDegrees>-5.46911579556763172149658203125</LongitudeDegrees>
            </Position>
            <AltitudeMeters>435.20001220703125</AltitudeMeters>
            <DistanceMeters>3049.74615505</DistanceMeters>
          </Trackpoint>
          <Trackpoint>
            <Time>2021-03-21T15:00:42.000Z</Time>
            <Position>
              <LatitudeDegrees>36.72898429445922374725341796875</LatitudeDegrees>
              <LongitudeDegrees>-5.46914982609450817108154296875</LongitudeDegrees>
            </Position>
            <AltitudeMeters>434</AltitudeMeters>
            <DistanceMeters>3052.9348642051</DistanceMeters>
          </Trackpoint>
          <Trackpoint>
            <Time>2021-03-21T15:00:44.000Z</Time>
            <Position>
              <LatitudeDegrees>36.72898177988827228546142578125</LatitudeDegrees>
              <LongitudeDegrees>-5.46915762126445770263671875</LongitudeDegrees>
            </Position>
            <AltitudeMeters>434</AltitudeMeters>
            <DistanceMeters>3053.6831053023</DistanceMeters>
          </Trackpoint>
          <Trackpoint>
            <Time>2021-03-21T15:00:45.000Z</Time>
            <Position>
              <LatitudeDegrees>36.7289806902408599853515625</LatitudeDegrees>
              <LongitudeDegrees>-5.469162650406360626220703125</LongitudeDegrees>
            </Position>
            <AltitudeMeters>433.600006103515625</AltitudeMeters>
            <DistanceMeters>3054.1486392266</DistanceMeters>
          </Trackpoint>
          <Trackpoint>
            <Time>2021-03-21T15:00:52.000Z</Time>
            <Position>
              <LatitudeDegrees>36.72897859476506710052490234375</LatitudeDegrees>
              <LongitudeDegrees>-5.46918402425944805145263671875</LongitudeDegrees>
            </Position>
            <AltitudeMeters>433</AltitudeMeters>
            <DistanceMeters>3056.0680847687</DistanceMeters>
          </Trackpoint>
          <Trackpoint>
            <Time>2021-03-21T15:00:59.000Z</Time>
            <Position>
              <LatitudeDegrees>36.72898345626890659332275390625</LatitudeDegrees>
              <LongitudeDegrees>-5.46920112334191799163818359375</LongitudeDegrees>
            </Position>
            <AltitudeMeters>431.79998779296875</AltitudeMeters>
            <DistanceMeters>3057.6863314028</DistanceMeters>
          </Trackpoint>
          <Trackpoint>
            <Time>2021-03-21T15:01:01.000Z</Time>
            <Position>
              <LatitudeDegrees>36.7289815284311771392822265625</LatitudeDegrees>
              <LongitudeDegrees>-5.46920531429350376129150390625</LongitudeDegrees>
            </Position>
            <AltitudeMeters>431.600006103515625</AltitudeMeters>
            <DistanceMeters>3058.1113037888</DistanceMeters>
          </Trackpoint>
          <Trackpoint>
            <Time>2021-03-21T15:01:11.000Z</Time>
            <Position>
              <LatitudeDegrees>36.72898270189762115478515625</LatitudeDegrees>
              <LongitudeDegrees>-5.46920749358832836151123046875</LongitudeDegrees>
            </Position>
            <AltitudeMeters>430.79998779296875</AltitudeMeters>
            <DistanceMeters>3058.344070751</DistanceMeters>
          </Trackpoint>
          <Trackpoint>
            <Time>2021-03-21T15:01:13.000Z</Time>
            <Position>
              <LatitudeDegrees>36.72898345626890659332275390625</LatitudeDegrees>
              <LongitudeDegrees>-5.469208918511867523193359375</LongitudeDegrees>
            </Position>
            <AltitudeMeters>430.600006103515625</AltitudeMeters>
            <DistanceMeters>3058.5341241797</DistanceMeters>
          </Trackpoint>
          <Trackpoint>
            <Time>2021-03-21T15:01:26.000Z</Time>
            <Position>
              <LatitudeDegrees>36.7290140502154827117919921875</LatitudeDegrees>
              <LongitudeDegrees>-5.46925761736929416656494140625</LongitudeDegrees>
            </Position>
            <AltitudeMeters>429.79998779296875</AltitudeMeters>
            <DistanceMeters>3064.0546774127</DistanceMeters>
          </Trackpoint>
          <Trackpoint>
            <Time>2021-03-21T15:01:35.000Z</Time>
            <Position>
              <LatitudeDegrees>36.729046404361724853515625</LatitudeDegrees>
              <LongitudeDegrees>-5.46931897290050983428955078125</LongitudeDegrees>
            </Position>
            <AltitudeMeters>429.20001220703125</AltitudeMeters>
            <DistanceMeters>3070.6066987355</DistanceMeters>
          </Trackpoint>
          <Trackpoint>
            <Time>2021-03-21T15:01:39.000Z</Time>
            <Position>
              <LatitudeDegrees>36.72905503772199153900146484375</LatitudeDegrees>
              <LongitudeDegrees>-5.469341017305850982666015625</LongitudeDegrees>
            </Position>
            <AltitudeMeters>428.600006103515625</AltitudeMeters>
            <DistanceMeters>3072.7964408646</DistanceMeters>
          </Trackpoint>
          <Trackpoint>
            <Time>2021-03-21T15:01:45.000Z</Time>
            <Position>
              <LatitudeDegrees>36.72907716594636440277099609375</LatitudeDegrees>
              <LongitudeDegrees>-5.469370186328887939453125</LongitudeDegrees>
            </Position>
            <AltitudeMeters>427.600006103515625</AltitudeMeters>
            <DistanceMeters>3076.3798426985</DistanceMeters>
          </Trackpoint>
          <Trackpoint>
            <Time>2021-03-21T15:01:47.000Z</Time>
            <Position>
              <LatitudeDegrees>36.7290864698588848114013671875</LatitudeDegrees>
              <LongitudeDegrees>-5.469382591545581817626953125</LongitudeDegrees>
            </Position>
            <AltitudeMeters>427.20001220703125</AltitudeMeters>
            <DistanceMeters>3077.9002701284</DistanceMeters>
          </Trackpoint>
          <Trackpoint>
            <Time>2021-03-21T15:01:53.000Z</Time>
            <Position>
              <LatitudeDegrees>36.7291126213967800140380859375</LatitudeDegrees>
              <LongitudeDegrees>-5.469407401978969573974609375</LongitudeDegrees>
            </Position>
            <AltitudeMeters>426.79998779296875</AltitudeMeters>
            <DistanceMeters>3081.5560208224</DistanceMeters>
          </Trackpoint>
          <Trackpoint>
            <Time>2021-03-21T15:01:56.000Z</Time>
            <Position>
              <LatitudeDegrees>36.72912418842315673828125</LatitudeDegrees>
              <LongitudeDegrees>-5.4694236628711223602294921875</LongitudeDegrees>
            </Position>
            <AltitudeMeters>426.600006103515625</AltitudeMeters>
            <DistanceMeters>3083.494193106</DistanceMeters>
          </Trackpoint>
          <Trackpoint>
            <Time>2021-03-21T15:01:57.000Z</Time>
            <Position>
              <LatitudeDegrees>36.72912661917507648468017578125</LatitudeDegrees>
              <LongitudeDegrees>-5.46942374669015407562255859375</LongitudeDegrees>
            </Position>
            <AltitudeMeters>426.600006103515625</AltitudeMeters>
            <DistanceMeters>3083.7629692425</DistanceMeters>
          </Trackpoint>
          <Trackpoint>
            <Time>2021-03-21T15:01:58.000Z</Time>
            <Position>
              <LatitudeDegrees>36.7291317321360111236572265625</LatitudeDegrees>
              <LongitudeDegrees>-5.46942324377596378326416015625</LongitudeDegrees>
            </Position>
            <AltitudeMeters>426.399993896484375</AltitudeMeters>
            <DistanceMeters>3084.3331295287</DistanceMeters>
          </Trackpoint>
          <Trackpoint>
            <Time>2021-03-21T15:02:00.000Z</Time>
            <Position>
              <LatitudeDegrees>36.7291394434869289398193359375</LatitudeDegrees>
              <LongitudeDegrees>-5.469423830509185791015625</LongitudeDegrees>
            </Position>
            <AltitudeMeters>426</AltitudeMeters>
            <DistanceMeters>3085.1936330257</DistanceMeters>
          </Trackpoint>
          <Trackpoint>
            <Time>2021-03-21T15:02:05.000Z</Time>
            <Position>
              <LatitudeDegrees>36.729153357446193695068359375</LatitudeDegrees>
              <LongitudeDegrees>-5.469421483576297760009765625</LongitudeDegrees>
            </Position>
            <AltitudeMeters>425.600006103515625</AltitudeMeters>
            <DistanceMeters>3086.7550812765</DistanceMeters>
          </Trackpoint>
          <Trackpoint>
            <Time>2021-03-21T15:02:06.000Z</Time>
            <Position>
              <LatitudeDegrees>36.7291552014648914337158203125</LatitudeDegrees>
              <LongitudeDegrees>-5.46942315995693206787109375</LongitudeDegrees>
            </Position>
            <AltitudeMeters>425.399993896484375</AltitudeMeters>
            <DistanceMeters>3087.023857413</DistanceMeters>
          </Trackpoint>
          <Trackpoint>
            <Time>2021-03-21T15:02:12.000Z</Time>
            <Position>
              <LatitudeDegrees>36.729183197021484375</LatitudeDegrees>
              <LongitudeDegrees>-5.46944621019065380096435546875</LongitudeDegrees>
            </Position>
            <AltitudeMeters>425</AltitudeMeters>
            <DistanceMeters>3090.757814835</DistanceMeters>
          </Trackpoint>
          <Trackpoint>
            <Time>2021-03-21T15:02:17.000Z</Time>
            <Position>
              <LatitudeDegrees>36.72920624725520610809326171875</LatitudeDegrees>
              <LongitudeDegrees>-5.4694585315883159637451171875</LongitudeDegrees>
            </Position>
            <AltitudeMeters>424.79998779296875</AltitudeMeters>
            <DistanceMeters>3093.5494014755</DistanceMeters>
          </Trackpoint>
          <Trackpoint>
            <Time>2021-03-21T15:02:19.000Z</Time>
            <Position>
              <LatitudeDegrees>36.72921546734869480133056640625</LatitudeDegrees>
              <LongitudeDegrees>-5.4694625549018383026123046875</LongitudeDegrees>
            </Position>
            <AltitudeMeters>424.600006103515625</AltitudeMeters>
            <DistanceMeters>3094.6370319339</DistanceMeters>
          </Trackpoint>
          <Trackpoint>
            <Time>2021-03-21T15:02:21.000Z</Time>
            <Position>
              <LatitudeDegrees>36.7292225919663906097412109375</LatitudeDegrees>
              <LongitudeDegrees>-5.4694628901779651641845703125</LongitudeDegrees>
            </Position>
            <AltitudeMeters>424.399993896484375</AltitudeMeters>
            <DistanceMeters>3095.4263831071</DistanceMeters>
          </Trackpoint>
          <Trackpoint>
            <Time>2021-03-21T15:02:27.000Z</Time>
            <Position>
              <LatitudeDegrees>36.72925134189426898956298828125</LatitudeDegrees>
              <LongitudeDegrees>-5.46947286464273929595947265625</LongitudeDegrees>
            </Position>
            <AltitudeMeters>423.600006103515625</AltitudeMeters>
            <DistanceMeters>3098.7455235473</DistanceMeters>
          </Trackpoint>
          <Trackpoint>
            <Time>2021-03-21T15:02:29.000Z</Time>
            <Position>
              <LatitudeDegrees>36.72926575876772403717041015625</LatitudeDegrees>
              <LongitudeDegrees>-5.4694814980030059814453125</LongitudeDegrees>
            </Position>
            <AltitudeMeters>423.600006103515625</AltitudeMeters>
            <DistanceMeters>3100.5283827421</DistanceMeters>
          </Trackpoint>
          <Trackpoint>
            <Time>2021-03-21T15:02:32.000Z</Time>
            <Position>
              <LatitudeDegrees>36.72928134910762310028076171875</LatitudeDegrees>
              <LongitudeDegrees>-5.469488203525543212890625</LongitudeDegrees>
            </Position>
            <AltitudeMeters>423.399993896484375</AltitudeMeters>
            <DistanceMeters>3102.3636534342</DistanceMeters>
          </Trackpoint>
          <Trackpoint>
            <Time>2021-03-21T15:02:46.000Z</Time>
            <Position>
              <LatitudeDegrees>36.729297526180744171142578125</LatitudeDegrees>
              <LongitudeDegrees>-5.4695413447916507720947265625</LongitudeDegrees>
            </Position>
            <AltitudeMeters>422.20001220703125</AltitudeMeters>
            <DistanceMeters>3107.4349114352</DistanceMeters>
          </Trackpoint>
          <Trackpoint>
            <Time>2021-03-21T15:02:56.000Z</Time>
            <Position>
              <LatitudeDegrees>36.72927732579410076141357421875</LatitudeDegrees>
              <LongitudeDegrees>-5.46958451159298419952392578125</LongitudeDegrees>
            </Position>
            <AltitudeMeters>421.20001220703125</AltitudeMeters>
            <DistanceMeters>3111.8940849382</DistanceMeters>
          </Trackpoint>
          <Trackpoint>
            <Time>2021-03-21T15:03:08.000Z</Time>
            <Position>
              <LatitudeDegrees>36.7292584665119647979736328125</LatitudeDegrees>
              <LongitudeDegrees>-5.4696094058454036712646484375</LongitudeDegrees>
            </Position>
            <AltitudeMeters>420.20001220703125</AltitudeMeters>
            <DistanceMeters>3114.9497516483</DistanceMeters>
          </Trackpoint>
          <Trackpoint>
            <Time>2021-03-21T15:03:18.000Z</Time>
            <Position>
              <LatitudeDegrees>36.7292648367583751678466796875</LatitudeDegrees>
              <LongitudeDegrees>-5.46962625347077846527099609375</LongitudeDegrees>
            </Position>
            <AltitudeMeters>419.20001220703125</AltitudeMeters>
            <DistanceMeters>3116.6093218683</DistanceMeters>
          </Trackpoint>
          <Trackpoint>
            <Time>2021-03-21T15:03:22.000Z</Time>
            <Position>
              <LatitudeDegrees>36.72927715815603733062744140625</LatitudeDegrees>
              <LongitudeDegrees>-5.46963865868747234344482421875</LongitudeDegrees>
            </Position>
            <AltitudeMeters>418.600006103515625</AltitudeMeters>
            <DistanceMeters>3118.3718048602</DistanceMeters>
          </Trackpoint>
          <Trackpoint>
            <Time>2021-03-21T15:03:25.000Z</Time>
            <Position>
              <LatitudeDegrees>36.72928302548825740814208984375</LatitudeDegrees>
              <LongitudeDegrees>-5.469650141894817352294921875</LongitudeDegrees>
            </Position>
            <AltitudeMeters>418.20001220703125</AltitudeMeters>
            <DistanceMeters>3119.5887405762</DistanceMeters>
          </Trackpoint>
          <Trackpoint>
            <Time>2021-03-21T15:03:29.000Z</Time>
            <Position>
              <LatitudeDegrees>36.72928637824952602386474609375</LatitudeDegrees>
              <LongitudeDegrees>-5.4696586914360523223876953125</LongitudeDegrees>
            </Position>
            <AltitudeMeters>417.600006103515625</AltitudeMeters>
            <DistanceMeters>3120.4386853483</DistanceMeters>
          </Trackpoint>
          <Trackpoint>
            <Time>2021-03-21T15:03:32.000Z</Time>
            <Position>
              <LatitudeDegrees>36.7292919941246509552001953125</LatitudeDegrees>
              <LongitudeDegrees>-5.46966263093054294586181640625</LongitudeDegrees>
            </Position>
            <AltitudeMeters>417</AltitudeMeters>
            <DistanceMeters>3121.1498001638</DistanceMeters>
          </Trackpoint>
          <Trackpoint>
            <Time>2021-03-21T15:03:38.000Z</Time>
            <Position>
              <LatitudeDegrees>36.7293121106922626495361328125</LatitudeDegrees>
              <LongitudeDegrees>-5.4696640558540821075439453125</LongitudeDegrees>
            </Position>
            <AltitudeMeters>416</AltitudeMeters>
            <DistanceMeters>3123.3925111526</DistanceMeters>
          </Trackpoint>
          <Trackpoint>
            <Time>2021-03-21T15:03:42.000Z</Time>
            <Position>
              <LatitudeDegrees>36.7293292097747325897216796875</LatitudeDegrees>
              <LongitudeDegrees>-5.46966950409114360809326171875</LongitudeDegrees>
            </Position>
            <AltitudeMeters>415.600006103515625</AltitudeMeters>
            <DistanceMeters>3125.358439106</DistanceMeters>
          </Trackpoint>
          <Trackpoint>
            <Time>2021-03-21T15:03:47.000Z</Time>
            <Position>
              <LatitudeDegrees>36.72935829497873783111572265625</LatitudeDegrees>
              <LongitudeDegrees>-5.46967721544206142425537109375</LongitudeDegrees>
            </Position>
            <AltitudeMeters>415</AltitudeMeters>
            <DistanceMeters>3128.6694076656</DistanceMeters>
          </Trackpoint>
          <Trackpoint>
            <Time>2021-03-21T15:03:55.000Z</Time>
            <Position>
              <LatitudeDegrees>36.72940841875970363616943359375</LatitudeDegrees>
              <LongitudeDegrees>-5.46968677081167697906494140625</LongitudeDegrees>
            </Position>
            <AltitudeMeters>414.399993896484375</AltitudeMeters>
            <DistanceMeters>3134.3121064474</DistanceMeters>
          </Trackpoint>
          <Trackpoint>
            <Time>2021-03-21T15:03:59.000Z</Time>
            <Position>
              <LatitudeDegrees>36.72943406738340854644775390625</LatitudeDegrees>
              <LongitudeDegrees>-5.46967252157628536224365234375</LongitudeDegrees>
            </Position>
            <AltitudeMeters>414</AltitudeMeters>
            <DistanceMeters>3137.4378931823</DistanceMeters>
          </Trackpoint>
          <Trackpoint>
            <Time>2021-03-21T15:04:04.000Z</Time>
            <Position>
              <LatitudeDegrees>36.72946776263415813446044921875</LatitudeDegrees>
              <LongitudeDegrees>-5.469653494656085968017578125</LongitudeDegrees>
            </Position>
            <AltitudeMeters>413</AltitudeMeters>
            <DistanceMeters>3141.5548645795</DistanceMeters>
          </Trackpoint>
          <Trackpoint>
            <Time>2021-03-21T15:04:25.000Z</Time>
            <Position>
              <LatitudeDegrees>36.72964763827621936798095703125</LatitudeDegrees>
              <LongitudeDegrees>-5.469597838819026947021484375</LongitudeDegrees>
            </Position>
            <AltitudeMeters>412.20001220703125</AltitudeMeters>
            <DistanceMeters>3162.1817914425</DistanceMeters>
          </Trackpoint>
          <Trackpoint>
            <Time>2021-03-21T15:04:39.000Z</Time>
            <Position>
              <LatitudeDegrees>36.729719974100589752197265625</LatitudeDegrees>
              <LongitudeDegrees>-5.4695959948003292083740234375</LongitudeDegrees>
            </Position>
            <AltitudeMeters>412</AltitudeMeters>
            <DistanceMeters>3170.234990125</DistanceMeters>
          </Trackpoint>
          <Trackpoint>
            <Time>2021-03-21T15:04:51.000Z</Time>
            <Position>
              <LatitudeDegrees>36.729787699878215789794921875</LatitudeDegrees>
              <LongitudeDegrees>-5.469595156610012054443359375</LongitudeDegrees>
            </Position>
            <AltitudeMeters>411.20001220703125</AltitudeMeters>
            <DistanceMeters>3177.7739092212</DistanceMeters>
          </Trackpoint>
          <Trackpoint>
            <Time>2021-03-21T15:04:55.000Z</Time>
            <Position>
              <LatitudeDegrees>36.7298022843897342681884765625</LatitudeDegrees>
              <LongitudeDegrees>-5.4696053825318813323974609375</LongitudeDegrees>
            </Position>
            <AltitudeMeters>411</AltitudeMeters>
            <DistanceMeters>3179.6360449183</DistanceMeters>
          </Trackpoint>
          <Trackpoint>
            <Time>2021-03-21T15:05:14.000Z</Time>
            <Position>
              <LatitudeDegrees>36.7299551703035831451416015625</LatitudeDegrees>
              <LongitudeDegrees>-5.4696826636791229248046875</LongitudeDegrees>
            </Position>
            <AltitudeMeters>410</AltitudeMeters>
            <DistanceMeters>3197.9961308019</DistanceMeters>
          </Trackpoint>
          <Trackpoint>
            <Time>2021-03-21T15:05:38.000Z</Time>
            <Position>
              <LatitudeDegrees>36.73007947392761707305908203125</LatitudeDegrees>
              <LongitudeDegrees>-5.4697193764150142669677734375</LongitudeDegrees>
            </Position>
            <AltitudeMeters>408.79998779296875</AltitudeMeters>
            <DistanceMeters>3212.2136643854</DistanceMeters>
          </Trackpoint>
          <Trackpoint>
            <Time>2021-03-21T15:06:01.000Z</Time>
            <Position>
              <LatitudeDegrees>36.7302324436604976654052734375</LatitudeDegrees>
              <LongitudeDegrees>-5.4697743616998195648193359375</LongitudeDegrees>
            </Position>
            <AltitudeMeters>407.79998779296875</AltitudeMeters>
            <DistanceMeters>3229.932006228</DistanceMeters>
          </Trackpoint>
          <Trackpoint>
            <Time>2021-03-21T15:06:25.000Z</Time>
            <Position>
              <LatitudeDegrees>36.730305366218090057373046875</LatitudeDegrees>
              <LongitudeDegrees>-5.469804704189300537109375</LongitudeDegrees>
            </Position>
            <AltitudeMeters>406.79998779296875</AltitudeMeters>
            <DistanceMeters>3238.4881052065</DistanceMeters>
          </Trackpoint>
          <Trackpoint>
            <Time>2021-03-21T15:06:44.000Z</Time>
            <Position>
              <LatitudeDegrees>36.73033260740339756011962890625</LatitudeDegrees>
              <LongitudeDegrees>-5.46987184323370456695556640625</LongitudeDegrees>
            </Position>
            <AltitudeMeters>405.79998779296875</AltitudeMeters>
            <DistanceMeters>3245.2007858525</DistanceMeters>
          </Trackpoint>
          <Trackpoint>
            <Time>2021-03-21T15:06:50.000Z</Time>
            <Position>
              <LatitudeDegrees>36.7303424142301082611083984375</LatitudeDegrees>
              <LongitudeDegrees>-5.46989397145807743072509765625</LongitudeDegrees>
            </Position>
            <AltitudeMeters>405.399993896484375</AltitudeMeters>
            <DistanceMeters>3247.4575452802</DistanceMeters>
          </Trackpoint>
          <Trackpoint>
            <Time>2021-03-21T15:06:58.000Z</Time>
            <Position>
              <LatitudeDegrees>36.730359680950641632080078125</LatitudeDegrees>
              <LongitudeDegrees>-5.4699269123375415802001953125</LongitudeDegrees>
            </Position>
            <AltitudeMeters>404.600006103515625</AltitudeMeters>
            <DistanceMeters>3250.9683933752</DistanceMeters>
          </Trackpoint>
          <Trackpoint>
            <Time>2021-03-21T15:07:09.000Z</Time>
            <Position>
              <LatitudeDegrees>36.730371415615081787109375</LatitudeDegrees>
              <LongitudeDegrees>-5.4699490405619144439697265625</LongitudeDegrees>
            </Position>
            <AltitudeMeters>403.399993896484375</AltitudeMeters>
            <DistanceMeters>3253.3345394813</DistanceMeters>
          </Trackpoint>
          <Trackpoint>
            <Time>2021-03-21T15:07:20.000Z</Time>
            <Position>
              <LatitudeDegrees>36.73039278946816921234130859375</LatitudeDegrees>
              <LongitudeDegrees>-5.4699879325926303863525390625</LongitudeDegrees>
            </Position>
            <AltitudeMeters>402.399993896484375</AltitudeMeters>
            <DistanceMeters>3257.5415514649</DistanceMeters>
          </Trackpoint>
          <Trackpoint>
            <Time>2021-03-21T15:07:40.000Z</Time>
            <Position>
              <LatitudeDegrees>36.73042078502476215362548828125</LatitudeDegrees>
              <LongitudeDegrees>-5.47003269195556640625</LongitudeDegrees>
            </Position>
            <AltitudeMeters>401.399993896484375</AltitudeMeters>
            <DistanceMeters>3262.6065733974</DistanceMeters>
          </Trackpoint>
          <Trackpoint>
            <Time>2021-03-21T15:07:57.000Z</Time>
            <Position>
              <LatitudeDegrees>36.7304500378668308258056640625</LatitudeDegrees>
              <LongitudeDegrees>-5.4700496233999729156494140625</LongitudeDegrees>
            </Position>
            <AltitudeMeters>400.399993896484375</AltitudeMeters>
            <DistanceMeters>3266.196269636</DistanceMeters>
          </Trackpoint>
          <Trackpoint>
            <Time>2021-03-21T15:08:08.000Z</Time>
            <Position>
              <LatitudeDegrees>36.73048029653728008270263671875</LatitudeDegrees>
              <LongitudeDegrees>-5.47008164227008819580078125</LongitudeDegrees>
            </Position>
            <AltitudeMeters>399.600006103515625</AltitudeMeters>
            <DistanceMeters>3270.6116897794</DistanceMeters>
          </Trackpoint>
          <Trackpoint>
            <Time>2021-03-21T15:08:14.000Z</Time>
            <Position>
              <LatitudeDegrees>36.73048482276499271392822265625</LatitudeDegrees>
              <LongitudeDegrees>-5.47009446658194065093994140625</LongitudeDegrees>
            </Position>
            <AltitudeMeters>399.20001220703125</AltitudeMeters>
            <DistanceMeters>3271.8651782322</DistanceMeters>
          </Trackpoint>
          <Trackpoint>
            <Time>2021-03-21T15:08:20.000Z</Time>
            <Position>
              <LatitudeDegrees>36.7304922826588153839111328125</LatitudeDegrees>
              <LongitudeDegrees>-5.470116175711154937744140625</LongitudeDegrees>
            </Position>
            <AltitudeMeters>398</AltitudeMeters>
            <DistanceMeters>3273.9729727218</DistanceMeters>
          </Trackpoint>
          <Trackpoint>
            <Time>2021-03-21T15:08:31.000Z</Time>
            <Position>
              <LatitudeDegrees>36.73050024546682834625244140625</LatitudeDegrees>
              <LongitudeDegrees>-5.47012782655656337738037109375</LongitudeDegrees>
            </Position>
            <AltitudeMeters>397.399993896484375</AltitudeMeters>
            <DistanceMeters>3275.3368626541</DistanceMeters>
          </Trackpoint>
          <Trackpoint>
            <Time>2021-03-21T15:08:35.000Z</Time>
            <Position>
              <LatitudeDegrees>36.730520613491535186767578125</LatitudeDegrees>
              <LongitudeDegrees>-5.4701250605285167694091796875</LongitudeDegrees>
            </Position>
            <AltitudeMeters>397</AltitudeMeters>
            <DistanceMeters>3277.6155232158</DistanceMeters>
          </Trackpoint>
          <Trackpoint>
            <Time>2021-03-21T15:08:46.000Z</Time>
            <Position>
              <LatitudeDegrees>36.7305533029139041900634765625</LatitudeDegrees>
              <LongitudeDegrees>-5.4701190255582332611083984375</LongitudeDegrees>
            </Position>
            <AltitudeMeters>396</AltitudeMeters>
            <DistanceMeters>3281.2934376401</DistanceMeters>
          </Trackpoint>
          <Trackpoint>
            <Time>2021-03-21T15:08:51.000Z</Time>
            <Position>
              <LatitudeDegrees>36.73057182691991329193115234375</LatitudeDegrees>
              <LongitudeDegrees>-5.47011642716825008392333984375</LongitudeDegrees>
            </Position>
            <AltitudeMeters>395</AltitudeMeters>
            <DistanceMeters>3283.3688524092</DistanceMeters>
          </Trackpoint>
          <Trackpoint>
            <Time>2021-03-21T15:08:58.000Z</Time>
            <Position>
              <LatitudeDegrees>36.73059663735330104827880859375</LatitudeDegrees>
              <LongitudeDegrees>-5.47012195922434329986572265625</LongitudeDegrees>
            </Position>
            <AltitudeMeters>394</AltitudeMeters>
            <DistanceMeters>3286.1733481897</DistanceMeters>
          </Trackpoint>
          <Trackpoint>
            <Time>2021-03-21T15:09:08.000Z</Time>
            <Position>
              <LatitudeDegrees>36.73063368536531925201416015625</LatitudeDegrees>
              <LongitudeDegrees>-5.47013126313686370849609375</LongitudeDegrees>
            </Position>
            <AltitudeMeters>393</AltitudeMeters>
            <DistanceMeters>3290.3782131908</DistanceMeters>
          </Trackpoint>
          <Trackpoint>
            <Time>2021-03-21T15:09:16.000Z</Time>
            <Position>
              <LatitudeDegrees>36.7306696437299251556396484375</LatitudeDegrees>
              <LongitudeDegrees>-5.470111481845378875732421875</LongitudeDegrees>
            </Position>
            <AltitudeMeters>391.79998779296875</AltitudeMeters>
            <DistanceMeters>3294.751507362</DistanceMeters>
          </Trackpoint>
          <Trackpoint>
            <Time>2021-03-21T15:09:21.000Z</Time>
            <Position>
              <LatitudeDegrees>36.73068196512758731842041015625</LatitudeDegrees>
              <LongitudeDegrees>-5.47010368667542934417724609375</LongitudeDegrees>
            </Position>
            <AltitudeMeters>390.600006103515625</AltitudeMeters>
            <DistanceMeters>3296.2837670905</DistanceMeters>
          </Trackpoint>
          <Trackpoint>
            <Time>2021-03-21T15:09:27.000Z</Time>
            <Position>
              <LatitudeDegrees>36.7306887544691562652587890625</LatitudeDegrees>
              <LongitudeDegrees>-5.47009228728711605072021484375</LongitudeDegrees>
            </Position>
            <AltitudeMeters>390.20001220703125</AltitudeMeters>
            <DistanceMeters>3297.5515815907</DistanceMeters>
          </Trackpoint>
          <Trackpoint>
            <Time>2021-03-21T15:09:30.000Z</Time>
            <Position>
              <LatitudeDegrees>36.73069587908685207366943359375</LatitudeDegrees>
              <LongitudeDegrees>-5.47009161673486232757568359375</LongitudeDegrees>
            </Position>
            <AltitudeMeters>390</AltitudeMeters>
            <DistanceMeters>3298.3466321244</DistanceMeters>
          </Trackpoint>
          <Trackpoint>
            <Time>2021-03-21T15:09:31.000Z</Time>
            <Position>
              <LatitudeDegrees>36.7306978069245815277099609375</LatitudeDegrees>
              <LongitudeDegrees>-5.47008977271616458892822265625</LongitudeDegrees>
            </Position>
            <AltitudeMeters>390</AltitudeMeters>
            <DistanceMeters>3298.6154082609</DistanceMeters>
          </Trackpoint>
          <Trackpoint>
            <Time>2021-03-21T15:09:34.000Z</Time>
            <Position>
              <LatitudeDegrees>36.73070426099002361297607421875</LatitudeDegrees>
              <LongitudeDegrees>-5.47008566558361053466796875</LongitudeDegrees>
            </Position>
            <AltitudeMeters>389.600006103515625</AltitudeMeters>
            <DistanceMeters>3299.4217366704</DistanceMeters>
          </Trackpoint>
          <Trackpoint>
            <Time>2021-03-21T15:09:37.000Z</Time>
            <Position>
              <LatitudeDegrees>36.73072035424411296844482421875</LatitudeDegrees>
              <LongitudeDegrees>-5.47008038498461246490478515625</LongitudeDegrees>
            </Position>
            <AltitudeMeters>389.399993896484375</AltitudeMeters>
            <DistanceMeters>3301.2741483548</DistanceMeters>
          </Trackpoint>
          <Trackpoint>
            <Time>2021-03-21T15:09:41.000Z</Time>
            <Position>
              <LatitudeDegrees>36.7307447455823421478271484375</LatitudeDegrees>
              <LongitudeDegrees>-5.4700787924230098724365234375</LongitudeDegrees>
            </Position>
            <AltitudeMeters>389.20001220703125</AltitudeMeters>
            <DistanceMeters>3303.9919788373</DistanceMeters>
          </Trackpoint>
          <Trackpoint>
            <Time>2021-03-21T15:09:50.000Z</Time>
            <Position>
              <LatitudeDegrees>36.73080836422741413116455078125</LatitudeDegrees>
              <LongitudeDegrees>-5.47013394534587860107421875</LongitudeDegrees>
            </Position>
            <AltitudeMeters>388.399993896484375</AltitudeMeters>
            <DistanceMeters>3312.6148350601</DistanceMeters>
          </Trackpoint>
          <Trackpoint>
            <Time>2021-03-21T15:09:56.000Z</Time>
            <Position>
              <LatitudeDegrees>36.73082278110086917877197265625</LatitudeDegrees>
              <LongitudeDegrees>-5.4701783694326877593994140625</LongitudeDegrees>
            </Position>
            <AltitudeMeters>387.399993896484375</AltitudeMeters>
            <DistanceMeters>3316.889981224</DistanceMeters>
          </Trackpoint>
          <Trackpoint>
            <Time>2021-03-21T15:10:03.000Z</Time>
            <Position>
              <LatitudeDegrees>36.73083904199302196502685546875</LatitudeDegrees>
              <LongitudeDegrees>-5.470206700265407562255859375</LongitudeDegrees>
            </Position>
            <AltitudeMeters>386.600006103515625</AltitudeMeters>
            <DistanceMeters>3319.996933383</DistanceMeters>
          </Trackpoint>
          <Trackpoint>
            <Time>2021-03-21T15:10:06.000Z</Time>
            <Position>
              <LatitudeDegrees>36.73084960319101810455322265625</LatitudeDegrees>
              <LongitudeDegrees>-5.4702085442841053009033203125</LongitudeDegrees>
            </Position>
            <AltitudeMeters>386.399993896484375</AltitudeMeters>
            <DistanceMeters>3321.1838166651</DistanceMeters>
          </Trackpoint>
          <Trackpoint>
            <Time>2021-03-21T15:10:13.000Z</Time>
            <Position>
              <LatitudeDegrees>36.73087122850120067596435546875</LatitudeDegrees>
              <LongitudeDegrees>-5.470204688608646392822265625</LongitudeDegrees>
            </Position>
            <AltitudeMeters>385.399993896484375</AltitudeMeters>
            <DistanceMeters>3323.613975095</DistanceMeters>
          </Trackpoint>
          <Trackpoint>
            <Time>2021-03-21T15:10:20.000Z</Time>
            <Position>
              <LatitudeDegrees>36.73090442083775997161865234375</LatitudeDegrees>
              <LongitudeDegrees>-5.4702055267989635467529296875</LongitudeDegrees>
            </Position>
            <AltitudeMeters>384.600006103515625</AltitudeMeters>
            <DistanceMeters>3327.3102577762</DistanceMeters>
          </Trackpoint>
          <Trackpoint>
            <Time>2021-03-21T15:10:28.000Z</Time>
            <Position>
              <LatitudeDegrees>36.73095622099936008453369140625</LatitudeDegrees>
              <LongitudeDegrees>-5.47021684236824512481689453125</LongitudeDegrees>
            </Position>
            <AltitudeMeters>384.20001220703125</AltitudeMeters>
            <DistanceMeters>3333.1634714259</DistanceMeters>
          </Trackpoint>
          <Trackpoint>
            <Time>2021-03-21T15:10:56.000Z</Time>
            <Position>
              <LatitudeDegrees>36.73113609664142131805419921875</LatitudeDegrees>
              <LongitudeDegrees>-5.470231510698795318603515625</LongitudeDegrees>
            </Position>
            <AltitudeMeters>383.20001220703125</AltitudeMeters>
            <DistanceMeters>3353.2264893336</DistanceMeters>
          </Trackpoint>
          <Trackpoint>
            <Time>2021-03-21T15:11:00.000Z</Time>
            <Position>
              <LatitudeDegrees>36.73116342164576053619384765625</LatitudeDegrees>
              <LongitudeDegrees>-5.4702276550233364105224609375</LongitudeDegrees>
            </Position>
            <AltitudeMeters>383.20001220703125</AltitudeMeters>
            <DistanceMeters>3356.2865856184</DistanceMeters>
          </Trackpoint>
          <Trackpoint>
            <Time>2021-03-21T15:11:17.000Z</Time>
            <Position>
              <LatitudeDegrees>36.73128546215593814849853515625</LatitudeDegrees>
              <LongitudeDegrees>-5.47016956843435764312744140625</LongitudeDegrees>
            </Position>
            <AltitudeMeters>383.600006103515625</AltitudeMeters>
            <DistanceMeters>3370.8244306847</DistanceMeters>
          </Trackpoint>
          <Trackpoint>
            <Time>2021-03-21T15:11:23.000Z</Time>
            <Position>
              <LatitudeDegrees>36.73132561147212982177734375</LatitudeDegrees>
              <LongitudeDegrees>-5.47016118653118610382080078125</LongitudeDegrees>
            </Position>
            <AltitudeMeters>384</AltitudeMeters>
            <DistanceMeters>3375.3559198255</DistanceMeters>
          </Trackpoint>
          <Trackpoint>
            <Time>2021-03-21T15:11:24.000Z</Time>
            <Position>
              <LatitudeDegrees>36.73133742995560169219970703125</LatitudeDegrees>
              <LongitudeDegrees>-5.470158755779266357421875</LongitudeDegrees>
            </Position>
            <AltitudeMeters>384.20001220703125</AltitudeMeters>
            <DistanceMeters>3376.6896833201</DistanceMeters>
          </Trackpoint>
          <Trackpoint>
            <Time>2021-03-21T15:11:27.000Z</Time>
            <Position>
              <LatitudeDegrees>36.7313542775809764862060546875</LatitudeDegrees>
              <LongitudeDegrees>-5.47015666030347347259521484375</LongitudeDegrees>
            </Position>
            <AltitudeMeters>384.399993896484375</AltitudeMeters>
            <DistanceMeters>3378.5759097431</DistanceMeters>
          </Trackpoint>
          <Trackpoint>
            <Time>2021-03-21T15:11:28.000Z</Time>
            <Position>
              <LatitudeDegrees>36.731358803808689117431640625</LatitudeDegrees>
              <LongitudeDegrees>-5.4701542295515537261962890625</LongitudeDegrees>
            </Position>
            <AltitudeMeters>384.399993896484375</AltitudeMeters>
            <DistanceMeters>3379.1300059433</DistanceMeters>
          </Trackpoint>
          <Trackpoint>
            <Time>2021-03-21T15:11:29.000Z</Time>
            <Position>
              <LatitudeDegrees>36.7313663475215435028076171875</LatitudeDegrees>
              <LongitudeDegrees>-5.4701518826186656951904296875</LongitudeDegrees>
            </Position>
            <AltitudeMeters>384.399993896484375</AltitudeMeters>
            <DistanceMeters>3379.9957405128</DistanceMeters>
          </Trackpoint>
          <Trackpoint>
            <Time>2021-03-21T15:11:36.000Z</Time>
            <Position>
              <LatitudeDegrees>36.73141269944608211517333984375</LatitudeDegrees>
              <LongitudeDegrees>-5.47014090232551097869873046875</LongitudeDegrees>
            </Position>
            <AltitudeMeters>384.399993896484375</AltitudeMeters>
            <DistanceMeters>3385.2463427053</DistanceMeters>
          </Trackpoint>
          <Trackpoint>
            <Time>2021-03-21T15:11:40.000Z</Time>
            <Position>
              <LatitudeDegrees>36.731449998915195465087890625</LatitudeDegrees>
              <LongitudeDegrees>-5.470128245651721954345703125</LongitudeDegrees>
            </Position>
            <AltitudeMeters>384.399993896484375</AltitudeMeters>
            <DistanceMeters>3389.5488601905</DistanceMeters>
          </Trackpoint>
          <Trackpoint>
            <Time>2021-03-21T15:11:43.000Z</Time>
            <Position>
              <LatitudeDegrees>36.73147338442504405975341796875</LatitudeDegrees>
              <LongitudeDegrees>-5.470116846263408660888671875</LongitudeDegrees>
            </Position>
            <AltitudeMeters>384.20001220703125</AltitudeMeters>
            <DistanceMeters>3392.3420637361</DistanceMeters>
          </Trackpoint>
          <Trackpoint>
            <Time>2021-03-21T15:11:45.000Z</Time>
            <Position>
              <LatitudeDegrees>36.73148243688046932220458984375</LatitudeDegrees>
              <LongitudeDegrees>-5.4701118171215057373046875</LongitudeDegrees>
            </Position>
            <AltitudeMeters>384</AltitudeMeters>
            <DistanceMeters>3393.4420774831</DistanceMeters>
          </Trackpoint>
          <Trackpoint>
            <Time>2021-03-21T15:12:26.000Z</Time>
            <Position>
              <LatitudeDegrees>36.7315996997058391571044921875</LatitudeDegrees>
              <LongitudeDegrees>-5.46995348297059535980224609375</LongitudeDegrees>
            </Position>
            <AltitudeMeters>383.399993896484375</AltitudeMeters>
            <DistanceMeters>3412.672958398</DistanceMeters>
          </Trackpoint>
          <Trackpoint>
            <Time>2021-03-21T15:12:28.000Z</Time>
            <Position>
              <LatitudeDegrees>36.73160430975258350372314453125</LatitudeDegrees>
              <LongitudeDegrees>-5.46994476579129695892333984375</LongitudeDegrees>
            </Position>
            <AltitudeMeters>383.20001220703125</AltitudeMeters>
            <DistanceMeters>3413.6040262465</DistanceMeters>
          </Trackpoint>
          <Trackpoint>
            <Time>2021-03-21T15:12:38.000Z</Time>
            <Position>
              <LatitudeDegrees>36.7316214926540851593017578125</LatitudeDegrees>
              <LongitudeDegrees>-5.4698953963816165924072265625</LongitudeDegrees>
            </Position>
            <AltitudeMeters>382.79998779296875</AltitudeMeters>
            <DistanceMeters>3418.4064022458</DistanceMeters>
          </Trackpoint>
          <Trackpoint>
            <Time>2021-03-21T15:12:44.000Z</Time>
            <Position>
              <LatitudeDegrees>36.7316379211843013763427734375</LatitudeDegrees>
              <LongitudeDegrees>-5.46986647881567478179931640625</LongitudeDegrees>
            </Position>
            <AltitudeMeters>382.79998779296875</AltitudeMeters>
            <DistanceMeters>3421.5695217029</DistanceMeters>
          </Trackpoint>
          <Trackpoint>
            <Time>2021-03-21T15:12:53.000Z</Time>
            <Position>
              <LatitudeDegrees>36.73166415654122829437255859375</LatitudeDegrees>
              <LongitudeDegrees>-5.46982741914689540863037109375</LongitudeDegrees>
            </Position>
            <AltitudeMeters>382.600006103515625</AltitudeMeters>
            <DistanceMeters>3426.115931823</DistanceMeters>
          </Trackpoint>
          <Trackpoint>
            <Time>2021-03-21T15:13:03.000Z</Time>
            <Position>
              <LatitudeDegrees>36.73170405440032482147216796875</LatitudeDegrees>
              <LongitudeDegrees>-5.46978014521300792694091796875</LongitudeDegrees>
            </Position>
            <AltitudeMeters>382.600006103515625</AltitudeMeters>
            <DistanceMeters>3432.2405491619</DistanceMeters>
          </Trackpoint>
          <Trackpoint>
            <Time>2021-03-21T15:13:31.000Z</Time>
            <Position>
              <LatitudeDegrees>36.73180262558162212371826171875</LatitudeDegrees>
              <LongitudeDegrees>-5.469649136066436767578125</LongitudeDegrees>
            </Position>
            <AltitudeMeters>384.20001220703125</AltitudeMeters>
            <DistanceMeters>3448.2699532411</DistanceMeters>
          </Trackpoint>
          <Trackpoint>
            <Time>2021-03-21T15:14:02.000Z</Time>
            <Position>
              <LatitudeDegrees>36.7319064773619174957275390625</LatitudeDegrees>
              <LongitudeDegrees>-5.469515025615692138671875</LongitudeDegrees>
            </Position>
            <AltitudeMeters>385</AltitudeMeters>
            <DistanceMeters>3464.9047860491</DistanceMeters>
          </Trackpoint>
          <Trackpoint>
            <Time>2021-03-21T15:14:13.000Z</Time>
            <Position>
              <LatitudeDegrees>36.731959283351898193359375</LatitudeDegrees>
              <LongitudeDegrees>-5.46944998204708099365234375</LongitudeDegrees>
            </Position>
            <AltitudeMeters>384.600006103515625</AltitudeMeters>
            <DistanceMeters>3473.1639141785</DistanceMeters>
          </Trackpoint>
          <Trackpoint>
            <Time>2021-03-21T15:14:22.000Z</Time>
            <Position>
              <LatitudeDegrees>36.73200152814388275146484375</LatitudeDegrees>
              <LongitudeDegrees>-5.469389967620372772216796875</LongitudeDegrees>
            </Position>
            <AltitudeMeters>384.399993896484375</AltitudeMeters>
            <DistanceMeters>3480.2896506207</DistanceMeters>
          </Trackpoint>
          <Trackpoint>
            <Time>2021-03-21T15:14:29.000Z</Time>
            <Position>
              <LatitudeDegrees>36.7320469580590724945068359375</LatitudeDegrees>
              <LongitudeDegrees>-5.46934898011386394500732421875</LongitudeDegrees>
            </Position>
            <AltitudeMeters>384.399993896484375</AltitudeMeters>
            <DistanceMeters>3486.5296578023</DistanceMeters>
          </Trackpoint>
          <Trackpoint>
            <Time>2021-03-21T15:14:35.000Z</Time>
            <Position>
              <LatitudeDegrees>36.73207461833953857421875</LatitudeDegrees>
              <LongitudeDegrees>-5.469330959022045135498046875</LongitudeDegrees>
            </Position>
            <AltitudeMeters>384.399993896484375</AltitudeMeters>
            <DistanceMeters>3490.0030109559</DistanceMeters>
          </Trackpoint>
          <Trackpoint>
            <Time>2021-03-21T15:14:36.000Z</Time>
            <Position>
              <LatitudeDegrees>36.7320778034627437591552734375</LatitudeDegrees>
              <LongitudeDegrees>-5.469330288469791412353515625</LongitudeDegrees>
            </Position>
            <AltitudeMeters>384.399993896484375</AltitudeMeters>
            <DistanceMeters>3490.3585683636</DistanceMeters>
          </Trackpoint>
          <Trackpoint>
            <Time>2021-03-21T15:14:37.000Z</Time>
            <Position>
              <LatitudeDegrees>36.73207872547209262847900390625</LatitudeDegrees>
              <LongitudeDegrees>-5.4693281091749668121337890625</LongitudeDegrees>
            </Position>
            <AltitudeMeters>384.399993896484375</AltitudeMeters>
            <DistanceMeters>3490.5710545566</DistanceMeters>
          </Trackpoint>
          <Trackpoint>
            <Time>2021-03-21T15:14:39.000Z</Time>
            <Position>
              <LatitudeDegrees>36.73207931220531463623046875</LatitudeDegrees>
              <LongitudeDegrees>-5.469324253499507904052734375</LongitudeDegrees>
            </Position>
            <AltitudeMeters>384.399993896484375</AltitudeMeters>
            <DistanceMeters>3490.9266119644</DistanceMeters>
          </Trackpoint>
          <Trackpoint>
            <Time>2021-03-21T15:14:42.000Z</Time>
            <Position>
              <LatitudeDegrees>36.73207797110080718994140625</LatitudeDegrees>
              <LongitudeDegrees>-5.4693026281893253326416015625</LongitudeDegrees>
            </Position>
            <AltitudeMeters>384.399993896484375</AltitudeMeters>
            <DistanceMeters>3492.8647842479</DistanceMeters>
          </Trackpoint>
          <Trackpoint>
            <Time>2021-03-21T15:15:11.000Z</Time>
            <Position>
              <LatitudeDegrees>36.73214812763035297393798828125</LatitudeDegrees>
              <LongitudeDegrees>-5.469215624034404754638671875</LongitudeDegrees>
            </Position>
            <AltitudeMeters>384.399993896484375</AltitudeMeters>
            <DistanceMeters>3503.8739479778</DistanceMeters>
          </Trackpoint>
          <Trackpoint>
            <Time>2021-03-21T15:15:22.000Z</Time>
            <Position>
              <LatitudeDegrees>36.73214661888778209686279296875</LatitudeDegrees>
              <LongitudeDegrees>-5.469204224646091461181640625</LongitudeDegrees>
            </Position>
            <AltitudeMeters>384.399993896484375</AltitudeMeters>
            <DistanceMeters>3504.8974170137</DistanceMeters>
          </Trackpoint>
          <Trackpoint>
            <Time>2021-03-21T15:15:32.000Z</Time>
            <Position>
              <LatitudeDegrees>36.73214661888778209686279296875</LatitudeDegrees>
              <LongitudeDegrees>-5.46919978223741054534912109375</LongitudeDegrees>
            </Position>
            <AltitudeMeters>384.399993896484375</AltitudeMeters>
            <DistanceMeters>3505.2775238712</DistanceMeters>
          </Trackpoint>
          <Trackpoint>
            <Time>2021-03-21T15:15:39.000Z</Time>
            <Position>
              <LatitudeDegrees>36.73214695416390895843505859375</LatitudeDegrees>
              <LongitudeDegrees>-5.4692000336945056915283203125</LongitudeDegrees>
            </Position>
            <AltitudeMeters>384.399993896484375</AltitudeMeters>
            <DistanceMeters>3505.2775238712</DistanceMeters>
          </Trackpoint>
          <Trackpoint>
            <Time>2021-03-21T15:15:52.000Z</Time>
            <Position>
              <LatitudeDegrees>36.73214712180197238922119140625</LatitudeDegrees>
              <LongitudeDegrees>-5.46920112334191799163818359375</LongitudeDegrees>
            </Position>
            <AltitudeMeters>384.399993896484375</AltitudeMeters>
            <DistanceMeters>3505.4119119394</DistanceMeters>
          </Trackpoint>
          <Trackpoint>
            <Time>2021-03-21T15:16:03.000Z</Time>
            <Position>
              <LatitudeDegrees>36.732147037982940673828125</LatitudeDegrees>
              <LongitudeDegrees>-5.4692020453512668609619140625</LongitudeDegrees>
            </Position>
            <AltitudeMeters>384.399993896484375</AltitudeMeters>
            <DistanceMeters>3505.5463000077</DistanceMeters>
          </Trackpoint>
          <Trackpoint>
            <Time>2021-03-21T15:16:10.000Z</Time>
            <Position>
              <LatitudeDegrees>36.732141673564910888671875</LatitudeDegrees>
              <LongitudeDegrees>-5.46919508837163448333740234375</LongitudeDegrees>
            </Position>
            <AltitudeMeters>384.399993896484375</AltitudeMeters>
            <DistanceMeters>3506.4068035047</DistanceMeters>
          </Trackpoint>
          <Trackpoint>
            <Time>2021-03-21T15:16:17.000Z</Time>
            <Position>
              <LatitudeDegrees>36.7321166954934597015380859375</LatitudeDegrees>
              <LongitudeDegrees>-5.46915703453123569488525390625</LongitudeDegrees>
            </Position>
            <AltitudeMeters>384.399993896484375</AltitudeMeters>
            <DistanceMeters>3510.7945276276</DistanceMeters>
          </Trackpoint>
          <Trackpoint>
            <Time>2021-03-21T15:16:38.000Z</Time>
            <Position>
              <LatitudeDegrees>36.7321669869124889373779296875</LatitudeDegrees>
              <LongitudeDegrees>-5.46902024187147617340087890625</LongitudeDegrees>
            </Position>
            <AltitudeMeters>384.399993896484375</AltitudeMeters>
            <DistanceMeters>3524.2198889196</DistanceMeters>
          </Trackpoint>
          <Trackpoint>
            <Time>2021-03-21T15:16:42.000Z</Time>
            <Position>
              <LatitudeDegrees>36.73218232579529285430908203125</LatitudeDegrees>
              <LongitudeDegrees>-5.46901185996830463409423828125</LongitudeDegrees>
            </Position>
            <AltitudeMeters>384.399993896484375</AltitudeMeters>
            <DistanceMeters>3526.0820246168</DistanceMeters>
          </Trackpoint>
          <Trackpoint>
            <Time>2021-03-21T15:16:44.000Z</Time>
            <Position>
              <LatitudeDegrees>36.7321924678981304168701171875</LatitudeDegrees>
              <LongitudeDegrees>-5.46901336871087551116943359375</LongitudeDegrees>
            </Position>
            <AltitudeMeters>384.399993896484375</AltitudeMeters>
            <DistanceMeters>3527.2223451892</DistanceMeters>
          </Trackpoint>
          <Trackpoint>
            <Time>2021-03-21T15:16:45.000Z</Time>
            <Position>
              <LatitudeDegrees>36.73219640739262104034423828125</LatitudeDegrees>
              <LongitudeDegrees>-5.46901269815862178802490234375</LongitudeDegrees>
            </Position>
            <AltitudeMeters>384.399993896484375</AltitudeMeters>
            <DistanceMeters>3527.6680599879</DistanceMeters>
          </Trackpoint>
          <Trackpoint>
            <Time>2021-03-21T15:16:48.000Z</Time>
            <Position>
              <LatitudeDegrees>36.7322115786373615264892578125</LatitudeDegrees>
              <LongitudeDegrees>-5.46901437453925609588623046875</LongitudeDegrees>
            </Position>
            <AltitudeMeters>384.399993896484375</AltitudeMeters>
            <DistanceMeters>3529.3626290508</DistanceMeters>
          </Trackpoint>
          <Trackpoint>
            <Time>2021-03-21T15:16:58.000Z</Time>
            <Position>
              <LatitudeDegrees>36.73229380510747432708740234375</LatitudeDegrees>
              <LongitudeDegrees>-5.46901538036763668060302734375</LongitudeDegrees>
            </Position>
            <AltitudeMeters>384.399993896484375</AltitudeMeters>
            <DistanceMeters>3538.5148413022</DistanceMeters>
          </Trackpoint>
          <Trackpoint>
            <Time>2021-03-21T15:17:01.000Z</Time>
            <Position>
              <LatitudeDegrees>36.7323181964457035064697265625</LatitudeDegrees>
              <LongitudeDegrees>-5.46901990659534931182861328125</LongitudeDegrees>
            </Position>
            <AltitudeMeters>384.399993896484375</AltitudeMeters>
            <DistanceMeters>3541.260768073</DistanceMeters>
          </Trackpoint>
          <Trackpoint>
            <Time>2021-03-21T15:17:02.000Z</Time>
            <Position>
              <LatitudeDegrees>36.73232465051114559173583984375</LatitudeDegrees>
              <LongitudeDegrees>-5.469021834433078765869140625</LongitudeDegrees>
            </Position>
            <AltitudeMeters>384.399993896484375</AltitudeMeters>
            <DistanceMeters>3541.9968418374</DistanceMeters>
          </Trackpoint>
          <Trackpoint>
            <Time>2021-03-21T15:17:03.000Z</Time>
            <Position>
              <LatitudeDegrees>36.73233169130980968475341796875</LatitudeDegrees>
              <LongitudeDegrees>-5.46902426518499851226806640625</LongitudeDegrees>
            </Position>
            <AltitudeMeters>384.399993896484375</AltitudeMeters>
            <DistanceMeters>3542.8087504409</DistanceMeters>
          </Trackpoint>
          <Trackpoint>
            <Time>2021-03-21T15:17:04.000Z</Time>
            <Position>
              <LatitudeDegrees>36.732337474822998046875</LatitudeDegrees>
              <LongitudeDegrees>-5.46902610920369625091552734375</LongitudeDegrees>
            </Position>
            <AltitudeMeters>384.399993896484375</AltitudeMeters>
            <DistanceMeters>3543.4739374415</DistanceMeters>
          </Trackpoint>
          <Trackpoint>
            <Time>2021-03-21T15:17:06.000Z</Time>
            <Position>
              <LatitudeDegrees>36.73235356807708740234375</LatitudeDegrees>
              <LongitudeDegrees>-5.46903516165912151336669921875</LongitudeDegrees>
            </Position>
            <AltitudeMeters>384.399993896484375</AltitudeMeters>
            <DistanceMeters>3545.4398653949</DistanceMeters>
          </Trackpoint>
          <Trackpoint>
            <Time>2021-03-21T15:17:08.000Z</Time>
            <Position>
              <LatitudeDegrees>36.73236429691314697265625</LatitudeDegrees>
              <LongitudeDegrees>-5.4690442979335784912109375</LongitudeDegrees>
            </Position>
            <AltitudeMeters>384.399993896484375</AltitudeMeters>
            <DistanceMeters>3546.8872691862</DistanceMeters>
          </Trackpoint>
          <Trackpoint>
            <Time>2021-03-21T15:17:15.000Z</Time>
            <Position>
              <LatitudeDegrees>36.7324137501418590545654296875</LatitudeDegrees>
              <LongitudeDegrees>-5.46904454939067363739013671875</LongitudeDegrees>
            </Position>
            <AltitudeMeters>384.399993896484375</AltitudeMeters>
            <DistanceMeters>3552.3914409195</DistanceMeters>
          </Trackpoint>
          <Trackpoint>
            <Time>2021-03-21T15:17:24.000Z</Time>
            <Position>
              <LatitudeDegrees>36.73247971571981906890869140625</LatitudeDegrees>
              <LongitudeDegrees>-5.46897347085177898406982421875</LongitudeDegrees>
            </Position>
            <AltitudeMeters>384.399993896484375</AltitudeMeters>
            <DistanceMeters>3562.0925468718</DistanceMeters>
          </Trackpoint>
          <Trackpoint>
            <Time>2021-03-21T15:17:33.000Z</Time>
            <Position>
              <LatitudeDegrees>36.732508130371570587158203125</LatitudeDegrees>
              <LongitudeDegrees>-5.46893491409718990325927734375</LongitudeDegrees>
            </Position>
            <AltitudeMeters>380.399993896484375</AltitudeMeters>
            <DistanceMeters>3566.7653110261</DistanceMeters>
          </Trackpoint>
          <Trackpoint>
            <Time>2021-03-21T15:17:40.000Z</Time>
            <Position>
              <LatitudeDegrees>36.73251776956021785736083984375</LatitudeDegrees>
              <LongitudeDegrees>-5.4689063318073749542236328125</LongitudeDegrees>
            </Position>
            <AltitudeMeters>379.399993896484375</AltitudeMeters>
            <DistanceMeters>3569.5325307182</DistanceMeters>
          </Trackpoint>
          <Trackpoint>
            <Time>2021-03-21T15:18:02.000Z</Time>
            <Position>
              <LatitudeDegrees>36.732569821178913116455078125</LatitudeDegrees>
              <LongitudeDegrees>-5.468813292682170867919921875</LongitudeDegrees>
            </Position>
            <AltitudeMeters>378.399993896484375</AltitudeMeters>
            <DistanceMeters>3579.6532103942</DistanceMeters>
          </Trackpoint>
          <Trackpoint>
            <Time>2021-03-21T15:18:10.000Z</Time>
            <Position>
              <LatitudeDegrees>36.73257476650178432464599609375</LatitudeDegrees>
              <LongitudeDegrees>-5.46878672204911708831787109375</LongitudeDegrees>
            </Position>
            <AltitudeMeters>377.20001220703125</AltitudeMeters>
            <DistanceMeters>3582.0870818262</DistanceMeters>
          </Trackpoint>
          <Trackpoint>
            <Time>2021-03-21T15:18:16.000Z</Time>
            <Position>
              <LatitudeDegrees>36.7325627803802490234375</LatitudeDegrees>
              <LongitudeDegrees>-5.46874766238033771514892578125</LongitudeDegrees>
            </Position>
            <AltitudeMeters>376.399993896484375</AltitudeMeters>
            <DistanceMeters>3585.8174099351</DistanceMeters>
          </Trackpoint>
          <Trackpoint>
            <Time>2021-03-21T15:18:21.000Z</Time>
            <Position>
              <LatitudeDegrees>36.73256169073283672332763671875</LatitudeDegrees>
              <LongitudeDegrees>-5.46872084029018878936767578125</LongitudeDegrees>
            </Position>
            <AltitudeMeters>376.20001220703125</AltitudeMeters>
            <DistanceMeters>3588.2138924863</DistanceMeters>
          </Trackpoint>
          <Trackpoint>
            <Time>2021-03-21T15:18:40.000Z</Time>
            <Position>
              <LatitudeDegrees>36.73258733935654163360595703125</LatitudeDegrees>
              <LongitudeDegrees>-5.46863785944879055023193359375</LongitudeDegrees>
            </Position>
            <AltitudeMeters>375.20001220703125</AltitudeMeters>
            <DistanceMeters>3596.1473427328</DistanceMeters>
          </Trackpoint>
          <Trackpoint>
            <Time>2021-03-21T15:18:41.000Z</Time>
            <Position>
              <LatitudeDegrees>36.73259538598358631134033203125</LatitudeDegrees>
              <LongitudeDegrees>-5.46863400377333164215087890625</LongitudeDegrees>
            </Position>
            <AltitudeMeters>375.20001220703125</AltitudeMeters>
            <DistanceMeters>3597.102349393</DistanceMeters>
          </Trackpoint>
          <Trackpoint>
            <Time>2021-03-21T15:18:50.000Z</Time>
            <Position>
              <LatitudeDegrees>36.73261986114084720611572265625</LatitudeDegrees>
              <LongitudeDegrees>-5.468594022095203399658203125</LongitudeDegrees>
            </Position>
            <AltitudeMeters>374</AltitudeMeters>
            <DistanceMeters>3601.5897841245</DistanceMeters>
          </Trackpoint>
          <Trackpoint>
            <Time>2021-03-21T15:19:02.000Z</Time>
            <Position>
              <LatitudeDegrees>36.732659675180912017822265625</LatitudeDegrees>
              <LongitudeDegrees>-5.4685405455529689788818359375</LongitudeDegrees>
            </Position>
            <AltitudeMeters>373</AltitudeMeters>
            <DistanceMeters>3608.1003277906</DistanceMeters>
          </Trackpoint>
          <Trackpoint>
            <Time>2021-03-21T15:19:11.000Z</Time>
            <Position>
              <LatitudeDegrees>36.7326588369905948638916015625</LatitudeDegrees>
              <LongitudeDegrees>-5.46847240068018436431884765625</LongitudeDegrees>
            </Position>
            <AltitudeMeters>372</AltitudeMeters>
            <DistanceMeters>3614.1790672001</DistanceMeters>
          </Trackpoint>
          <Trackpoint>
            <Time>2021-03-21T15:19:20.000Z</Time>
            <Position>
              <LatitudeDegrees>36.7326796241104602813720703125</LatitudeDegrees>
              <LongitudeDegrees>-5.4684071056544780731201171875</LongitudeDegrees>
            </Position>
            <AltitudeMeters>371.399993896484375</AltitudeMeters>
            <DistanceMeters>3620.446509464</DistanceMeters>
          </Trackpoint>
          <Trackpoint>
            <Time>2021-03-21T15:19:25.000Z</Time>
            <Position>
              <LatitudeDegrees>36.7326799593865871429443359375</LatitudeDegrees>
              <LongitudeDegrees>-5.46837885864078998565673828125</LongitudeDegrees>
            </Position>
            <AltitudeMeters>370.79998779296875</AltitudeMeters>
            <DistanceMeters>3622.967853117</DistanceMeters>
          </Trackpoint>
          <Trackpoint>
            <Time>2021-03-21T15:19:32.000Z</Time>
            <Position>
              <LatitudeDegrees>36.73269831575453281402587890625</LatitudeDegrees>
              <LongitudeDegrees>-5.468324460089206695556640625</LongitudeDegrees>
            </Position>
            <AltitudeMeters>369.79998779296875</AltitudeMeters>
            <DistanceMeters>3628.2330534629</DistanceMeters>
          </Trackpoint>
          <Trackpoint>
            <Time>2021-03-21T15:19:53.000Z</Time>
            <Position>
              <LatitudeDegrees>36.73269496299326419830322265625</LatitudeDegrees>
              <LongitudeDegrees>-5.46826184727251529693603515625</LongitudeDegrees>
            </Position>
            <AltitudeMeters>368.79998779296875</AltitudeMeters>
            <DistanceMeters>3633.8291507734</DistanceMeters>
          </Trackpoint>
          <Trackpoint>
            <Time>2021-03-21T15:20:05.000Z</Time>
            <Position>
              <LatitudeDegrees>36.73273670487105846405029296875</LatitudeDegrees>
              <LongitudeDegrees>-5.468233264982700347900390625</LongitudeDegrees>
            </Position>
            <AltitudeMeters>367.600006103515625</AltitudeMeters>
            <DistanceMeters>3639.1285410912</DistanceMeters>
          </Trackpoint>
          <Trackpoint>
            <Time>2021-03-21T15:20:22.000Z</Time>
            <Position>
              <LatitudeDegrees>36.73276034183800220489501953125</LatitudeDegrees>
              <LongitudeDegrees>-5.4681533016264438629150390625</LongitudeDegrees>
            </Position>
            <AltitudeMeters>366.600006103515625</AltitudeMeters>
            <DistanceMeters>3646.7306782408</DistanceMeters>
          </Trackpoint>
          <Trackpoint>
            <Time>2021-03-21T15:20:32.000Z</Time>
            <Position>
              <LatitudeDegrees>36.732801496982574462890625</LatitudeDegrees>
              <LongitudeDegrees>-5.46812371350824832916259765625</LongitudeDegrees>
            </Position>
            <AltitudeMeters>365.600006103515625</AltitudeMeters>
            <DistanceMeters>3652.0164191082</DistanceMeters>
          </Trackpoint>
          <Trackpoint>
            <Time>2021-03-21T15:20:38.000Z</Time>
            <Position>
              <LatitudeDegrees>36.73282471485435962677001953125</LatitudeDegrees>
              <LongitudeDegrees>-5.4681055247783660888671875</LongitudeDegrees>
            </Position>
            <AltitudeMeters>364.399993896484375</AltitudeMeters>
            <DistanceMeters>3655.0661697107</DistanceMeters>
          </Trackpoint>
          <Trackpoint>
            <Time>2021-03-21T15:20:45.000Z</Time>
            <Position>
              <LatitudeDegrees>36.7328377068042755126953125</LatitudeDegrees>
              <LongitudeDegrees>-5.46809923835098743438720703125</LongitudeDegrees>
            </Position>
            <AltitudeMeters>363.399993896484375</AltitudeMeters>
            <DistanceMeters>3656.6189190177</DistanceMeters>
          </Trackpoint>
          <Trackpoint>
            <Time>2021-03-21T15:20:53.000Z</Time>
            <Position>
              <LatitudeDegrees>36.7328472621738910675048828125</LatitudeDegrees>
              <LongitudeDegrees>-5.46806403435766696929931640625</LongitudeDegrees>
            </Position>
            <AltitudeMeters>362.399993896484375</AltitudeMeters>
            <DistanceMeters>3659.9353377351</DistanceMeters>
          </Trackpoint>
          <Trackpoint>
            <Time>2021-03-21T15:21:04.000Z</Time>
            <Position>
              <LatitudeDegrees>36.73289529047906398773193359375</LatitudeDegrees>
              <LongitudeDegrees>-5.468039810657501220703125</LongitudeDegrees>
            </Position>
            <AltitudeMeters>361</AltitudeMeters>
            <DistanceMeters>3665.7015099027</DistanceMeters>
          </Trackpoint>
          <Trackpoint>
            <Time>2021-03-21T15:21:13.000Z</Time>
            <Position>
              <LatitudeDegrees>36.73291389830410480499267578125</LatitudeDegrees>
              <LongitudeDegrees>-5.468012988567352294921875</LongitudeDegrees>
            </Position>
            <AltitudeMeters>360</AltitudeMeters>
            <DistanceMeters>3668.8646293598</DistanceMeters>
          </Trackpoint>
          <Trackpoint>
            <Time>2021-03-21T15:21:25.000Z</Time>
            <Position>
              <LatitudeDegrees>36.7329438216984272003173828125</LatitudeDegrees>
              <LongitudeDegrees>-5.46798440627753734588623046875</LongitudeDegrees>
            </Position>
            <AltitudeMeters>359</AltitudeMeters>
            <DistanceMeters>3673.0587429625</DistanceMeters>
          </Trackpoint>
          <Trackpoint>
            <Time>2021-03-21T15:21:45.000Z</Time>
            <Position>
              <LatitudeDegrees>36.7329934425652027130126953125</LatitudeDegrees>
              <LongitudeDegrees>-5.467956326901912689208984375</LongitudeDegrees>
            </Position>
            <AltitudeMeters>358</AltitudeMeters>
            <DistanceMeters>3679.1240979755</DistanceMeters>
          </Trackpoint>
          <Trackpoint>
            <Time>2021-03-21T15:21:55.000Z</Time>
            <Position>
              <LatitudeDegrees>36.73301431350409984588623046875</LatitudeDegrees>
              <LongitudeDegrees>-5.46794584952294826507568359375</LongitudeDegrees>
            </Position>
            <AltitudeMeters>357.20001220703125</AltitudeMeters>
            <DistanceMeters>3681.6274703114</DistanceMeters>
          </Trackpoint>
          <Trackpoint>
            <Time>2021-03-21T15:22:05.000Z</Time>
            <Position>
              <LatitudeDegrees>36.73303258605301380157470703125</LatitudeDegrees>
              <LongitudeDegrees>-5.46791500411927700042724609375</LongitudeDegrees>
            </Position>
            <AltitudeMeters>356.79998779296875</AltitudeMeters>
            <DistanceMeters>3685.0484320287</DistanceMeters>
          </Trackpoint>
          <Trackpoint>
            <Time>2021-03-21T15:22:18.000Z</Time>
            <Position>
              <LatitudeDegrees>36.73307030461728572845458984375</LatitudeDegrees>
              <LongitudeDegrees>-5.46787611208856105804443359375</LongitudeDegrees>
            </Position>
            <AltitudeMeters>355.79998779296875</AltitudeMeters>
            <DistanceMeters>3690.4948805154</DistanceMeters>
          </Trackpoint>
          <Trackpoint>
            <Time>2021-03-21T15:22:30.000Z</Time>
            <Position>
              <LatitudeDegrees>36.73309050500392913818359375</LatitudeDegrees>
              <LongitudeDegrees>-5.4678408242762088775634765625</LongitudeDegrees>
            </Position>
            <AltitudeMeters>354.79998779296875</AltitudeMeters>
            <DistanceMeters>3694.3630631206</DistanceMeters>
          </Trackpoint>
          <Trackpoint>
            <Time>2021-03-21T15:22:34.000Z</Time>
            <Position>
              <LatitudeDegrees>36.73309176228940486907958984375</LatitudeDegrees>
              <LongitudeDegrees>-5.46784224919974803924560546875</LongitudeDegrees>
            </Position>
            <AltitudeMeters>354.399993896484375</AltitudeMeters>
            <DistanceMeters>3694.5531165494</DistanceMeters>
          </Trackpoint>
          <Trackpoint>
            <Time>2021-03-21T15:22:35.000Z</Time>
            <Position>
              <LatitudeDegrees>36.7330926842987537384033203125</LatitudeDegrees>
              <LongitudeDegrees>-5.46784065663814544677734375</LongitudeDegrees>
            </Position>
            <AltitudeMeters>354.399993896484375</AltitudeMeters>
            <DistanceMeters>3694.6875046176</DistanceMeters>
          </Trackpoint>
          <Trackpoint>
            <Time>2021-03-21T15:22:36.000Z</Time>
            <Position>
              <LatitudeDegrees>36.73309327103197574615478515625</LatitudeDegrees>
              <LongitudeDegrees>-5.4678378067910671234130859375</LongitudeDegrees>
            </Position>
            <AltitudeMeters>354.20001220703125</AltitudeMeters>
            <DistanceMeters>3694.9202715798</DistanceMeters>
          </Trackpoint>
          <Trackpoint>
            <Time>2021-03-21T15:22:38.000Z</Time>
            <Position>
              <LatitudeDegrees>36.733102239668369293212890625</LatitudeDegrees>
              <LongitudeDegrees>-5.46783386729657649993896484375</LongitudeDegrees>
            </Position>
            <AltitudeMeters>354</AltitudeMeters>
            <DistanceMeters>3695.9784442873</DistanceMeters>
          </Trackpoint>
          <Trackpoint>
            <Time>2021-03-21T15:22:39.000Z</Time>
            <Position>
              <LatitudeDegrees>36.73310517333447933197021484375</LatitudeDegrees>
              <LongitudeDegrees>-5.46782967634499073028564453125</LongitudeDegrees>
            </Position>
            <AltitudeMeters>354</AltitudeMeters>
            <DistanceMeters>3696.4722175794</DistanceMeters>
          </Trackpoint>
          <Trackpoint>
            <Time>2021-03-21T15:22:41.000Z</Time>
            <Position>
              <LatitudeDegrees>36.73311305232346057891845703125</LatitudeDegrees>
              <LongitudeDegrees>-5.4678220488131046295166015625</LongitudeDegrees>
            </Position>
            <AltitudeMeters>353.79998779296875</AltitudeMeters>
            <DistanceMeters>3697.5844767546</DistanceMeters>
          </Trackpoint>
          <Trackpoint>
            <Time>2021-03-21T15:22:45.000Z</Time>
            <Position>
              <LatitudeDegrees>36.73312813974916934967041015625</LatitudeDegrees>
              <LongitudeDegrees>-5.46780955977737903594970703125</LongitudeDegrees>
            </Position>
            <AltitudeMeters>353.600006103515625</AltitudeMeters>
            <DistanceMeters>3699.6002977784</DistanceMeters>
          </Trackpoint>
          <Trackpoint>
            <Time>2021-03-21T15:22:53.000Z</Time>
            <Position>
              <LatitudeDegrees>36.733143813908100128173828125</LatitudeDegrees>
              <LongitudeDegrees>-5.4677684046328067779541015625</LongitudeDegrees>
            </Position>
            <AltitudeMeters>353</AltitudeMeters>
            <DistanceMeters>3703.6653980099</DistanceMeters>
          </Trackpoint>
          <Trackpoint>
            <Time>2021-03-21T15:23:00.000Z</Time>
            <Position>
              <LatitudeDegrees>36.7331580631434917449951171875</LatitudeDegrees>
              <LongitudeDegrees>-5.4677405767142772674560546875</LongitudeDegrees>
            </Position>
            <AltitudeMeters>353</AltitudeMeters>
            <DistanceMeters>3706.6112261554</DistanceMeters>
          </Trackpoint>
          <Trackpoint>
            <Time>2021-03-21T15:23:10.000Z</Time>
            <Position>
              <LatitudeDegrees>36.73315496183931827545166015625</LatitudeDegrees>
              <LongitudeDegrees>-5.46772532165050506591796875</LongitudeDegrees>
            </Position>
            <AltitudeMeters>352.79998779296875</AltitudeMeters>
            <DistanceMeters>3708.0142787791</DistanceMeters>
          </Trackpoint>
          <Trackpoint>
            <Time>2021-03-21T15:23:22.000Z</Time>
            <Position>
              <LatitudeDegrees>36.7331718094646930694580078125</LatitudeDegrees>
              <LongitudeDegrees>-5.4676865972578525543212890625</LongitudeDegrees>
            </Position>
            <AltitudeMeters>352.399993896484375</AltitudeMeters>
            <DistanceMeters>3711.9438373699</DistanceMeters>
          </Trackpoint>
          <Trackpoint>
            <Time>2021-03-21T15:23:25.000Z</Time>
            <Position>
              <LatitudeDegrees>36.7331744916737079620361328125</LatitudeDegrees>
              <LongitudeDegrees>-5.4676886089146137237548828125</LongitudeDegrees>
            </Position>
            <AltitudeMeters>352.20001220703125</AltitudeMeters>
            <DistanceMeters>3712.2993947777</DistanceMeters>
          </Trackpoint>
          <Trackpoint>
            <Time>2021-03-21T15:23:32.000Z</Time>
            <Position>
              <LatitudeDegrees>36.7331771738827228546142578125</LatitudeDegrees>
              <LongitudeDegrees>-5.46768634580075740814208984375</LongitudeDegrees>
            </Position>
            <AltitudeMeters>351.79998779296875</AltitudeMeters>
            <DistanceMeters>3712.6549521855</DistanceMeters>
          </Trackpoint>
          <Trackpoint>
            <Time>2021-03-21T15:23:33.000Z</Time>
            <Position>
              <LatitudeDegrees>36.73317826353013515472412109375</LatitudeDegrees>
              <LongitudeDegrees>-5.467685759067535400390625</LongitudeDegrees>
            </Position>
            <AltitudeMeters>351.79998779296875</AltitudeMeters>
            <DistanceMeters>3712.7893402537</DistanceMeters>
          </Trackpoint>
          <Trackpoint>
            <Time>2021-03-21T15:23:39.000Z</Time>
            <Position>
              <LatitudeDegrees>36.7331949435174465179443359375</LatitudeDegrees>
              <LongitudeDegrees>-5.4676755331456661224365234375</LongitudeDegrees>
            </Position>
            <AltitudeMeters>351.600006103515625</AltitudeMeters>
            <DistanceMeters>3714.8582182671</DistanceMeters>
          </Trackpoint>
          <Trackpoint>
            <Time>2021-03-21T15:23:43.000Z</Time>
            <Position>
              <LatitudeDegrees>36.733215562999248504638671875</LatitudeDegrees>
              <LongitudeDegrees>-5.46765030361711978912353515625</LongitudeDegrees>
            </Position>
            <AltitudeMeters>351.600006103515625</AltitudeMeters>
            <DistanceMeters>3718.0737178439</DistanceMeters>
          </Trackpoint>
          <Trackpoint>
            <Time>2021-03-21T15:23:48.000Z</Time>
            <Position>
              <LatitudeDegrees>36.7332381941378116607666015625</LatitudeDegrees>
              <LongitudeDegrees>-5.46763219870626926422119140625</LongitudeDegrees>
            </Position>
            <AltitudeMeters>351.20001220703125</AltitudeMeters>
            <DistanceMeters>3721.0666822327</DistanceMeters>
          </Trackpoint>
          <Trackpoint>
            <Time>2021-03-21T15:23:52.000Z</Time>
            <Position>
              <LatitudeDegrees>36.7332623340189456939697265625</LatitudeDegrees>
              <LongitudeDegrees>-5.46760554425418376922607421875</LongitudeDegrees>
            </Position>
            <AltitudeMeters>351</AltitudeMeters>
            <DistanceMeters>3724.6551204736</DistanceMeters>
          </Trackpoint>
          <Trackpoint>
            <Time>2021-03-21T15:23:55.000Z</Time>
            <Position>
              <LatitudeDegrees>36.7332841269671916961669921875</LatitudeDegrees>
              <LongitudeDegrees>-5.4675927199423313140869140625</LongitudeDegrees>
            </Position>
            <AltitudeMeters>350.79998779296875</AltitudeMeters>
            <DistanceMeters>3727.3361540149</DistanceMeters>
          </Trackpoint>
          <Trackpoint>
            <Time>2021-03-21T15:24:07.000Z</Time>
            <Position>
              <LatitudeDegrees>36.73332117497920989990234375</LatitudeDegrees>
              <LongitudeDegrees>-5.4675430990755558013916015625</LongitudeDegrees>
            </Position>
            <AltitudeMeters>349.79998779296875</AltitudeMeters>
            <DistanceMeters>3733.3858564727</DistanceMeters>
          </Trackpoint>
          <Trackpoint>
            <Time>2021-03-21T15:24:17.000Z</Time>
            <Position>
              <LatitudeDegrees>36.73335009254515171051025390625</LatitudeDegrees>
              <LongitudeDegrees>-5.46751468442380428314208984375</LongitudeDegrees>
            </Position>
            <AltitudeMeters>348.600006103515625</AltitudeMeters>
            <DistanceMeters>3737.4830399088</DistanceMeters>
          </Trackpoint>
          <Trackpoint>
            <Time>2021-03-21T15:24:25.000Z</Time>
            <Position>
              <LatitudeDegrees>36.73338261432945728302001953125</LatitudeDegrees>
              <LongitudeDegrees>-5.467485599219799041748046875</LongitudeDegrees>
            </Position>
            <AltitudeMeters>347.600006103515625</AltitudeMeters>
            <DistanceMeters>3741.9381614586</DistanceMeters>
          </Trackpoint>
          <Trackpoint>
            <Time>2021-03-21T15:24:43.000Z</Time>
            <Position>
              <LatitudeDegrees>36.7334262840449810028076171875</LatitudeDegrees>
              <LongitudeDegrees>-5.46746087260544300079345703125</LongitudeDegrees>
            </Position>
            <AltitudeMeters>346.399993896484375</AltitudeMeters>
            <DistanceMeters>3747.2765995502</DistanceMeters>
          </Trackpoint>
          <Trackpoint>
            <Time>2021-03-21T15:24:57.000Z</Time>
            <Position>
              <LatitudeDegrees>36.733465678989887237548828125</LatitudeDegrees>
              <LongitudeDegrees>-5.4674679972231388092041015625</LongitudeDegrees>
            </Position>
            <AltitudeMeters>345.399993896484375</AltitudeMeters>
            <DistanceMeters>3751.7073315652</DistanceMeters>
          </Trackpoint>
          <Trackpoint>
            <Time>2021-03-21T15:25:02.000Z</Time>
            <Position>
              <LatitudeDegrees>36.733469031751155853271484375</LatitudeDegrees>
              <LongitudeDegrees>-5.46746824868023395538330078125</LongitudeDegrees>
            </Position>
            <AltitudeMeters>345</AltitudeMeters>
            <DistanceMeters>3752.0874384227</DistanceMeters>
          </Trackpoint>
          <Trackpoint>
            <Time>2021-03-21T15:25:06.000Z</Time>
            <Position>
              <LatitudeDegrees>36.73346626572310924530029296875</LatitudeDegrees>
              <LongitudeDegrees>-5.4674653150141239166259765625</LongitudeDegrees>
            </Position>
            <AltitudeMeters>344.600006103515625</AltitudeMeters>
            <DistanceMeters>3752.5124108087</DistanceMeters>
          </Trackpoint>
          <Trackpoint>
            <Time>2021-03-21T15:25:07.000Z</Time>
            <Position>
              <LatitudeDegrees>36.73346643336117267608642578125</LatitudeDegrees>
              <LongitudeDegrees>-5.467464812099933624267578125</LongitudeDegrees>
            </Position>
            <AltitudeMeters>344.600006103515625</AltitudeMeters>
            <DistanceMeters>3752.5124108087</DistanceMeters>
          </Trackpoint>
          <Trackpoint>
            <Time>2021-03-21T15:25:09.000Z</Time>
            <Position>
              <LatitudeDegrees>36.73346978612244129180908203125</LatitudeDegrees>
              <LongitudeDegrees>-5.46746053732931613922119140625</LongitudeDegrees>
            </Position>
            <AltitudeMeters>344.600006103515625</AltitudeMeters>
            <DistanceMeters>3753.0499630817</DistanceMeters>
          </Trackpoint>
          <Trackpoint>
            <Time>2021-03-21T15:25:15.000Z</Time>
            <Position>
              <LatitudeDegrees>36.73348185606300830841064453125</LatitudeDegrees>
              <LongitudeDegrees>-5.46745215542614459991455078125</LongitudeDegrees>
            </Position>
            <AltitudeMeters>344.399993896484375</AltitudeMeters>
            <DistanceMeters>3754.5881048269</DistanceMeters>
          </Trackpoint>
          <Trackpoint>
            <Time>2021-03-21T15:25:22.000Z</Time>
            <Position>
              <LatitudeDegrees>36.73350549302995204925537109375</LatitudeDegrees>
              <LongitudeDegrees>-5.46744125895202159881591796875</LongitudeDegrees>
            </Position>
            <AltitudeMeters>343.600006103515625</AltitudeMeters>
            <DistanceMeters>3757.3942100742</DistanceMeters>
          </Trackpoint>
          <Trackpoint>
            <Time>2021-03-21T15:25:26.000Z</Time>
            <Position>
              <LatitudeDegrees>36.73351907171308994293212890625</LatitudeDegrees>
              <LongitudeDegrees>-5.467446707189083099365234375</LongitudeDegrees>
            </Position>
            <AltitudeMeters>343.399993896484375</AltitudeMeters>
            <DistanceMeters>3758.9814691356</DistanceMeters>
          </Trackpoint>
          <Trackpoint>
            <Time>2021-03-21T15:25:42.000Z</Time>
            <Position>
              <LatitudeDegrees>36.733519323170185089111328125</LatitudeDegrees>
              <LongitudeDegrees>-5.4675062187016010284423828125</LongitudeDegrees>
            </Position>
            <AltitudeMeters>342.399993896484375</AltitudeMeters>
            <DistanceMeters>3764.2902230931</DistanceMeters>
          </Trackpoint>
          <Trackpoint>
            <Time>2021-03-21T15:25:45.000Z</Time>
            <Position>
              <LatitudeDegrees>36.73351697623729705810546875</LatitudeDegrees>
              <LongitudeDegrees>-5.46750797890126705169677734375</LongitudeDegrees>
            </Position>
            <AltitudeMeters>342.399993896484375</AltitudeMeters>
            <DistanceMeters>3764.5907239491</DistanceMeters>
          </Trackpoint>
          <Trackpoint>
            <Time>2021-03-21T15:25:51.000Z</Time>
            <Position>
              <LatitudeDegrees>36.7335181497037410736083984375</LatitudeDegrees>
              <LongitudeDegrees>-5.4675179533660411834716796875</LongitudeDegrees>
            </Position>
            <AltitudeMeters>341.79998779296875</AltitudeMeters>
            <DistanceMeters>3765.4872041795</DistanceMeters>
          </Trackpoint>
          <Trackpoint>
            <Time>2021-03-21T15:25:58.000Z</Time>
            <Position>
              <LatitudeDegrees>36.7335000447928905487060546875</LatitudeDegrees>
              <LongitudeDegrees>-5.4675347171723842620849609375</LongitudeDegrees>
            </Position>
            <AltitudeMeters>341.600006103515625</AltitudeMeters>
            <DistanceMeters>3767.9977804795</DistanceMeters>
          </Trackpoint>
          <Trackpoint>
            <Time>2021-03-21T15:26:06.000Z</Time>
            <Position>
              <LatitudeDegrees>36.73349560238420963287353515625</LatitudeDegrees>
              <LongitudeDegrees>-5.46756497584283351898193359375</LongitudeDegrees>
            </Position>
            <AltitudeMeters>341.20001220703125</AltitudeMeters>
            <DistanceMeters>3770.7420624902</DistanceMeters>
          </Trackpoint>
          <Trackpoint>
            <Time>2021-03-21T15:26:10.000Z</Time>
            <Position>
              <LatitudeDegrees>36.73349895514547824859619140625</LatitudeDegrees>
              <LongitudeDegrees>-5.4675878584384918212890625</LongitudeDegrees>
            </Position>
            <AltitudeMeters>340.600006103515625</AltitudeMeters>
            <DistanceMeters>3772.8174772592</DistanceMeters>
          </Trackpoint>
          <Trackpoint>
            <Time>2021-03-21T15:26:12.000Z</Time>
            <Position>
              <LatitudeDegrees>36.733503229916095733642578125</LatitudeDegrees>
              <LongitudeDegrees>-5.46758584678173065185546875</LongitudeDegrees>
            </Position>
            <AltitudeMeters>340.399993896484375</AltitudeMeters>
            <DistanceMeters>3773.3379600095</DistanceMeters>
          </Trackpoint>
          <Trackpoint>
            <Time>2021-03-21T15:26:14.000Z</Time>
            <Position>
              <LatitudeDegrees>36.73350532539188861846923828125</LatitudeDegrees>
              <LongitudeDegrees>-5.46758827753365039825439453125</LongitudeDegrees>
            </Position>
            <AltitudeMeters>340.20001220703125</AltitudeMeters>
            <DistanceMeters>3773.6671422042</DistanceMeters>
          </Trackpoint>
          <Trackpoint>
            <Time>2021-03-21T15:26:25.000Z</Time>
            <Position>
              <LatitudeDegrees>36.7334702052175998687744140625</LatitudeDegrees>
              <LongitudeDegrees>-5.46766287647187709808349609375</LongitudeDegrees>
            </Position>
            <AltitudeMeters>339.20001220703125</AltitudeMeters>
            <DistanceMeters>3781.3842241753</DistanceMeters>
          </Trackpoint>
          <Trackpoint>
            <Time>2021-03-21T15:26:35.000Z</Time>
            <Position>
              <LatitudeDegrees>36.73346375115215778350830078125</LatitudeDegrees>
              <LongitudeDegrees>-5.46770830638706684112548828125</LongitudeDegrees>
            </Position>
            <AltitudeMeters>338.20001220703125</AltitudeMeters>
            <DistanceMeters>3785.4990016094</DistanceMeters>
          </Trackpoint>
          <Trackpoint>
            <Time>2021-03-21T15:26:36.000Z</Time>
            <Position>
              <LatitudeDegrees>36.7334648407995700836181640625</LatitudeDegrees>
              <LongitudeDegrees>-5.4677110724151134490966796875</LongitudeDegrees>
            </Position>
            <AltitudeMeters>338</AltitudeMeters>
            <DistanceMeters>3785.7317685716</DistanceMeters>
          </Trackpoint>
          <Trackpoint>
            <Time>2021-03-21T15:26:40.000Z</Time>
            <Position>
              <LatitudeDegrees>36.73345151357352733612060546875</LatitudeDegrees>
              <LongitudeDegrees>-5.4677228070795536041259765625</LongitudeDegrees>
            </Position>
            <AltitudeMeters>337.600006103515625</AltitudeMeters>
            <DistanceMeters>3787.5447627319</DistanceMeters>
          </Trackpoint>
          <Trackpoint>
            <Time>2021-03-21T15:26:44.000Z</Time>
            <Position>
              <LatitudeDegrees>36.73343458212912082672119140625</LatitudeDegrees>
              <LongitudeDegrees>-5.46773596666753292083740234375</LongitudeDegrees>
            </Position>
            <AltitudeMeters>337.399993896484375</AltitudeMeters>
            <DistanceMeters>3789.7652180317</DistanceMeters>
          </Trackpoint>
          <Trackpoint>
            <Time>2021-03-21T15:26:59.000Z</Time>
            <Position>
              <LatitudeDegrees>36.73333751969039440155029296875</LatitudeDegrees>
              <LongitudeDegrees>-5.4677841626107692718505859375</LongitudeDegrees>
            </Position>
            <AltitudeMeters>339.20001220703125</AltitudeMeters>
            <DistanceMeters>3801.3923102926</DistanceMeters>
          </Trackpoint>
          <Trackpoint>
            <Time>2021-03-21T15:27:09.000Z</Time>
            <Position>
              <LatitudeDegrees>36.73330315388739109039306640625</LatitudeDegrees>
              <LongitudeDegrees>-5.467819534242153167724609375</LongitudeDegrees>
            </Position>
            <AltitudeMeters>340.399993896484375</AltitudeMeters>
            <DistanceMeters>3806.3501190909</DistanceMeters>
          </Trackpoint>
          <Trackpoint>
            <Time>2021-03-21T15:27:20.000Z</Time>
            <Position>
              <LatitudeDegrees>36.73326996155083179473876953125</LatitudeDegrees>
              <LongitudeDegrees>-5.46787728555500507354736328125</LongitudeDegrees>
            </Position>
            <AltitudeMeters>341.399993896484375</AltitudeMeters>
            <DistanceMeters>3812.6884792967</DistanceMeters>
          </Trackpoint>
          <Trackpoint>
            <Time>2021-03-21T15:27:26.000Z</Time>
            <Position>
              <LatitudeDegrees>36.733258478343486785888671875</LatitudeDegrees>
              <LongitudeDegrees>-5.46791064552962779998779296875</LongitudeDegrees>
            </Position>
            <AltitudeMeters>342.399993896484375</AltitudeMeters>
            <DistanceMeters>3815.9277614437</DistanceMeters>
          </Trackpoint>
          <Trackpoint>
            <Time>2021-03-21T15:27:45.000Z</Time>
            <Position>
              <LatitudeDegrees>36.7332301475107669830322265625</LatitudeDegrees>
              <LongitudeDegrees>-5.468030087649822235107421875</LongitudeDegrees>
            </Position>
            <AltitudeMeters>343.399993896484375</AltitudeMeters>
            <DistanceMeters>3827.0389812302</DistanceMeters>
          </Trackpoint>
          <Trackpoint>
            <Time>2021-03-21T15:28:01.000Z</Time>
            <Position>
              <LatitudeDegrees>36.73318262211978435516357421875</LatitudeDegrees>
              <LongitudeDegrees>-5.46814517118036746978759765625</LongitudeDegrees>
            </Position>
            <AltitudeMeters>342.399993896484375</AltitudeMeters>
            <DistanceMeters>3838.5869753817</DistanceMeters>
          </Trackpoint>
          <Trackpoint>
            <Time>2021-03-21T15:28:08.000Z</Time>
            <Position>
              <LatitudeDegrees>36.7331567220389842987060546875</LatitudeDegrees>
              <LongitudeDegrees>-5.46819646842777729034423828125</LongitudeDegrees>
            </Position>
            <AltitudeMeters>341.399993896484375</AltitudeMeters>
            <DistanceMeters>3843.9951560002</DistanceMeters>
          </Trackpoint>
          <Trackpoint>
            <Time>2021-03-21T15:28:43.000Z</Time>
            <Position>
              <LatitudeDegrees>36.73307985998690128326416015625</LatitudeDegrees>
              <LongitudeDegrees>-5.4683710634708404541015625</LongitudeDegrees>
            </Position>
            <AltitudeMeters>341.600006103515625</AltitudeMeters>
            <DistanceMeters>3861.7638811313</DistanceMeters>
          </Trackpoint>
          <Trackpoint>
            <Time>2021-03-21T15:29:10.000Z</Time>
            <Position>
              <LatitudeDegrees>36.73306770622730255126953125</LatitudeDegrees>
              <LongitudeDegrees>-5.468553118407726287841796875</LongitudeDegrees>
            </Position>
            <AltitudeMeters>340.20001220703125</AltitudeMeters>
            <DistanceMeters>3878.0595080903</DistanceMeters>
          </Trackpoint>
          <Trackpoint>
            <Time>2021-03-21T15:29:17.000Z</Time>
            <Position>
              <LatitudeDegrees>36.7330752499401569366455078125</LatitudeDegrees>
              <LongitudeDegrees>-5.468599386513233184814453125</LongitudeDegrees>
            </Position>
            <AltitudeMeters>339.20001220703125</AltitudeMeters>
            <DistanceMeters>3882.2718827428</DistanceMeters>
          </Trackpoint>
          <Trackpoint>
            <Time>2021-03-21T15:30:10.000Z</Time>
            <Position>
              <LatitudeDegrees>36.7330802790820598602294921875</LatitudeDegrees>
              <LongitudeDegrees>-5.46872184611856937408447265625</LongitudeDegrees>
            </Position>
            <AltitudeMeters>338</AltitudeMeters>
            <DistanceMeters>3893.2102790092</DistanceMeters>
          </Trackpoint>
          <Trackpoint>
            <Time>2021-03-21T15:30:16.000Z</Time>
            <Position>
              <LatitudeDegrees>36.7330846376717090606689453125</LatitudeDegrees>
              <LongitudeDegrees>-5.46873408369719982147216796875</LongitudeDegrees>
            </Position>
            <AltitudeMeters>337.79998779296875</AltitudeMeters>
            <DistanceMeters>3894.4047462872</DistanceMeters>
          </Trackpoint>
          <Trackpoint>
            <Time>2021-03-21T15:30:30.000Z</Time>
            <Position>
              <LatitudeDegrees>36.73309260047972202301025390625</LatitudeDegrees>
              <LongitudeDegrees>-5.46876342035830020904541015625</LongitudeDegrees>
            </Position>
            <AltitudeMeters>337.399993896484375</AltitudeMeters>
            <DistanceMeters>3897.1670667963</DistanceMeters>
          </Trackpoint>
          <Trackpoint>
            <Time>2021-03-21T15:30:35.000Z</Time>
            <Position>
              <LatitudeDegrees>36.733091175556182861328125</LatitudeDegrees>
              <LongitudeDegrees>-5.46876543201506137847900390625</LongitudeDegrees>
            </Position>
            <AltitudeMeters>337.600006103515625</AltitudeMeters>
            <DistanceMeters>3897.3998337585</DistanceMeters>
          </Trackpoint>
          <Trackpoint>
            <Time>2021-03-21T15:30:50.000Z</Time>
            <Position>
              <LatitudeDegrees>36.73309746198356151580810546875</LatitudeDegrees>
              <LongitudeDegrees>-5.4687742330133914947509765625</LongitudeDegrees>
            </Position>
            <AltitudeMeters>337.79998779296875</AltitudeMeters>
            <DistanceMeters>3898.449438125</DistanceMeters>
          </Trackpoint>
          <Trackpoint>
            <Time>2021-03-21T15:30:51.000Z</Time>
            <Position>
              <LatitudeDegrees>36.7330950312316417694091796875</LatitudeDegrees>
              <LongitudeDegrees>-5.468773730099201202392578125</LongitudeDegrees>
            </Position>
            <AltitudeMeters>337.79998779296875</AltitudeMeters>
            <DistanceMeters>3898.7182142615</DistanceMeters>
          </Trackpoint>
          <Trackpoint>
            <Time>2021-03-21T15:30:53.000Z</Time>
            <Position>
              <LatitudeDegrees>36.7330925166606903076171875</LatitudeDegrees>
              <LongitudeDegrees>-5.46877565793693065643310546875</LongitudeDegrees>
            </Position>
            <AltitudeMeters>337.79998779296875</AltitudeMeters>
            <DistanceMeters>3899.0473964562</DistanceMeters>
          </Trackpoint>
          <Trackpoint>
            <Time>2021-03-21T15:31:03.000Z</Time>
            <Position>
              <LatitudeDegrees>36.733080446720123291015625</LatitudeDegrees>
              <LongitudeDegrees>-5.46879510395228862762451171875</LongitudeDegrees>
            </Position>
            <AltitudeMeters>337.79998779296875</AltitudeMeters>
            <DistanceMeters>3901.2433155852</DistanceMeters>
          </Trackpoint>
          <Trackpoint>
            <Time>2021-03-21T15:31:07.000Z</Time>
            <Position>
              <LatitudeDegrees>36.73307147808372974395751953125</LatitudeDegrees>
              <LongitudeDegrees>-5.46881522051990032196044921875</LongitudeDegrees>
            </Position>
            <AltitudeMeters>337.79998779296875</AltitudeMeters>
            <DistanceMeters>3903.2968602522</DistanceMeters>
          </Trackpoint>
          <Trackpoint>
            <Time>2021-03-21T15:31:09.000Z</Time>
            <Position>
              <LatitudeDegrees>36.73306913115084171295166015625</LatitudeDegrees>
              <LongitudeDegrees>-5.46881773509085178375244140625</LongitudeDegrees>
            </Position>
            <AltitudeMeters>337.79998779296875</AltitudeMeters>
            <DistanceMeters>3903.65241766</DistanceMeters>
          </Trackpoint>
          <Trackpoint>
            <Time>2021-03-21T15:31:11.000Z</Time>
            <Position>
              <LatitudeDegrees>36.73306577838957309722900390625</LatitudeDegrees>
              <LongitudeDegrees>-5.468823015689849853515625</LongitudeDegrees>
            </Position>
            <AltitudeMeters>337.79998779296875</AltitudeMeters>
            <DistanceMeters>3904.245859301</DistanceMeters>
          </Trackpoint>
          <Trackpoint>
            <Time>2021-03-21T15:31:18.000Z</Time>
            <Position>
              <LatitudeDegrees>36.73306661657989025115966796875</LatitudeDegrees>
              <LongitudeDegrees>-5.4688238538801670074462890625</LongitudeDegrees>
            </Position>
            <AltitudeMeters>337.79998779296875</AltitudeMeters>
            <DistanceMeters>3904.3802473692</DistanceMeters>
          </Trackpoint>
          <Trackpoint>
            <Time>2021-03-21T15:31:26.000Z</Time>
            <Position>
              <LatitudeDegrees>36.7330648563802242279052734375</LatitudeDegrees>
              <LongitudeDegrees>-5.46881756745278835296630859375</LongitudeDegrees>
            </Position>
            <AltitudeMeters>337.79998779296875</AltitudeMeters>
            <DistanceMeters>3904.9736890103</DistanceMeters>
          </Trackpoint>
          <Trackpoint>
            <Time>2021-03-21T15:31:47.000Z</Time>
            <Position>
              <LatitudeDegrees>36.733067370951175689697265625</LatitudeDegrees>
              <LongitudeDegrees>-5.46879376284778118133544921875</LongitudeDegrees>
            </Position>
            <AltitudeMeters>337.79998779296875</AltitudeMeters>
            <DistanceMeters>3907.1154823788</DistanceMeters>
          </Trackpoint>
          <Trackpoint>
            <Time>2021-03-21T15:32:24.000Z</Time>
            <Position>
              <LatitudeDegrees>36.73306695185601711273193359375</LatitudeDegrees>
              <LongitudeDegrees>-5.46879208646714687347412109375</LongitudeDegrees>
            </Position>
            <AltitudeMeters>337.79998779296875</AltitudeMeters>
            <DistanceMeters>3907.2800734762</DistanceMeters>
          </Trackpoint>
          <Trackpoint>
            <Time>2021-03-21T15:36:14.000Z</Time>
            <Position>
              <LatitudeDegrees>36.73313115723431110382080078125</LatitudeDegrees>
              <LongitudeDegrees>-5.46878202818334102630615234375</LongitudeDegrees>
            </Position>
            <AltitudeMeters>337.79998779296875</AltitudeMeters>
            <DistanceMeters>3914.4820703586</DistanceMeters>
          </Trackpoint>
          <Trackpoint>
            <Time>2021-03-21T15:36:15.000Z</Time>
            <Position>
              <LatitudeDegrees>36.7331366054713726043701171875</LatitudeDegrees>
              <LongitudeDegrees>-5.468785129487514495849609375</LongitudeDegrees>
            </Position>
            <AltitudeMeters>337.79998779296875</AltitudeMeters>
            <DistanceMeters>3915.140434748</DistanceMeters>
          </Trackpoint>
          <Trackpoint>
            <Time>2021-03-21T15:36:29.000Z</Time>
            <Position>
              <LatitudeDegrees>36.73312746919691562652587890625</LatitudeDegrees>
              <LongitudeDegrees>-5.46880583278834819793701171875</LongitudeDegrees>
            </Position>
            <AltitudeMeters>336.79998779296875</AltitudeMeters>
            <DistanceMeters>3917.2482292376</DistanceMeters>
          </Trackpoint>
          <Trackpoint>
            <Time>2021-03-21T15:36:36.000Z</Time>
            <Position>
              <LatitudeDegrees>36.733121685683727264404296875</LatitudeDegrees>
              <LongitudeDegrees>-5.46885008923709392547607421875</LongitudeDegrees>
            </Position>
            <AltitudeMeters>335.79998779296875</AltitudeMeters>
            <DistanceMeters>3921.2483911667</DistanceMeters>
          </Trackpoint>
          <Trackpoint>
            <Time>2021-03-21T15:36:44.000Z</Time>
            <Position>
              <LatitudeDegrees>36.733133085072040557861328125</LatitudeDegrees>
              <LongitudeDegrees>-5.4689355008304119110107421875</LongitudeDegrees>
            </Position>
            <AltitudeMeters>334.600006103515625</AltitudeMeters>
            <DistanceMeters>3928.9719062336</DistanceMeters>
          </Trackpoint>
          <Trackpoint>
            <Time>2021-03-21T15:36:51.000Z</Time>
            <Position>
              <LatitudeDegrees>36.733136437833309173583984375</LatitudeDegrees>
              <LongitudeDegrees>-5.46902175061404705047607421875</LongitudeDegrees>
            </Position>
            <AltitudeMeters>333.600006103515625</AltitudeMeters>
            <DistanceMeters>3936.6743475503</DistanceMeters>
          </Trackpoint>
          <Trackpoint>
            <Time>2021-03-21T15:37:02.000Z</Time>
            <Position>
              <LatitudeDegrees>36.733157895505428314208984375</LatitudeDegrees>
              <LongitudeDegrees>-5.4691158793866634368896484375</LongitudeDegrees>
            </Position>
            <AltitudeMeters>332.399993896484375</AltitudeMeters>
            <DistanceMeters>3945.4033672567</DistanceMeters>
          </Trackpoint>
          <Trackpoint>
            <Time>2021-03-21T15:37:07.000Z</Time>
            <Position>
              <LatitudeDegrees>36.73315412364900112152099609375</LatitudeDegrees>
              <LongitudeDegrees>-5.4691614769399166107177734375</LongitudeDegrees>
            </Position>
            <AltitudeMeters>331.20001220703125</AltitudeMeters>
            <DistanceMeters>3949.4928295164</DistanceMeters>
          </Trackpoint>
          <Trackpoint>
            <Time>2021-03-21T15:37:15.000Z</Time>
            <Position>
              <LatitudeDegrees>36.73315412364900112152099609375</LatitudeDegrees>
              <LongitudeDegrees>-5.46920062042772769927978515625</LongitudeDegrees>
            </Position>
            <AltitudeMeters>330.20001220703125</AltitudeMeters>
            <DistanceMeters>3952.9830405592</DistanceMeters>
          </Trackpoint>
          <Trackpoint>
            <Time>2021-03-21T15:37:23.000Z</Time>
            <Position>
              <LatitudeDegrees>36.73317524604499340057373046875</LatitudeDegrees>
              <LongitudeDegrees>-5.469217635691165924072265625</LongitudeDegrees>
            </Position>
            <AltitudeMeters>329</AltitudeMeters>
            <DistanceMeters>3955.7794751106</DistanceMeters>
          </Trackpoint>
          <Trackpoint>
            <Time>2021-03-21T15:37:35.000Z</Time>
            <Position>
              <LatitudeDegrees>36.73321112059056758880615234375</LatitudeDegrees>
              <LongitudeDegrees>-5.46925485134124755859375</LongitudeDegrees>
            </Position>
            <AltitudeMeters>328.20001220703125</AltitudeMeters>
            <DistanceMeters>3960.9721438139</DistanceMeters>
          </Trackpoint>
          <Trackpoint>
            <Time>2021-03-21T15:37:38.000Z</Time>
            <Position>
              <LatitudeDegrees>36.73321296460926532745361328125</LatitudeDegrees>
              <LongitudeDegrees>-5.46926281414926052093505859375</LongitudeDegrees>
            </Position>
            <AltitudeMeters>328</AltitudeMeters>
            <DistanceMeters>3961.7082175783</DistanceMeters>
          </Trackpoint>
          <Trackpoint>
            <Time>2021-03-21T15:38:41.000Z</Time>
            <Position>
              <LatitudeDegrees>36.73324749805033206939697265625</LatitudeDegrees>
              <LongitudeDegrees>-5.469465069472789764404296875</LongitudeDegrees>
            </Position>
            <AltitudeMeters>327.20001220703125</AltitudeMeters>
            <DistanceMeters>3980.1544180132</DistanceMeters>
          </Trackpoint>
          <Trackpoint>
            <Time>2021-03-21T15:39:08.000Z</Time>
            <Position>
              <LatitudeDegrees>36.73330985940992832183837890625</LatitudeDegrees>
              <LongitudeDegrees>-5.4695225693285465240478515625</LongitudeDegrees>
            </Position>
            <AltitudeMeters>327.20001220703125</AltitudeMeters>
            <DistanceMeters>3988.7851248548</DistanceMeters>
          </Trackpoint>
          <Trackpoint>
            <Time>2021-03-21T15:39:11.000Z</Time>
            <Position>
              <LatitudeDegrees>36.73331220634281635284423828125</LatitudeDegrees>
              <LongitudeDegrees>-5.46952868811786174774169921875</LongitudeDegrees>
            </Position>
            <AltitudeMeters>327</AltitudeMeters>
            <DistanceMeters>3989.4009683501</DistanceMeters>
          </Trackpoint>
          <Trackpoint>
            <Time>2021-03-21T15:39:18.000Z</Time>
            <Position>
              <LatitudeDegrees>36.7333044111728668212890625</LatitudeDegrees>
              <LongitudeDegrees>-5.46954981051385402679443359375</LongitudeDegrees>
            </Position>
            <AltitudeMeters>326.600006103515625</AltitudeMeters>
            <DistanceMeters>3991.4763831191</DistanceMeters>
          </Trackpoint>
          <Trackpoint>
            <Time>2021-03-21T15:39:37.000Z</Time>
            <Position>
              <LatitudeDegrees>36.7332854680716991424560546875</LatitudeDegrees>
              <LongitudeDegrees>-5.469568669795989990234375</LongitudeDegrees>
            </Position>
            <AltitudeMeters>326.600006103515625</AltitudeMeters>
            <DistanceMeters>3994.1725306554</DistanceMeters>
          </Trackpoint>
          <Trackpoint>
            <Time>2021-03-21T15:39:52.000Z</Time>
            <Position>
              <LatitudeDegrees>36.733318157494068145751953125</LatitudeDegrees>
              <LongitudeDegrees>-5.46956657432019710540771484375</LongitudeDegrees>
            </Position>
            <AltitudeMeters>326.399993896484375</AltitudeMeters>
            <DistanceMeters>3997.8159099072</DistanceMeters>
          </Trackpoint>
          <Trackpoint>
            <Time>2021-03-21T15:39:58.000Z</Time>
            <Position>
              <LatitudeDegrees>36.7333263717591762542724609375</LatitudeDegrees>
              <LongitudeDegrees>-5.4695738665759563446044921875</LongitudeDegrees>
            </Position>
            <AltitudeMeters>326.399993896484375</AltitudeMeters>
            <DistanceMeters>3998.9362583467</DistanceMeters>
          </Trackpoint>
          <Trackpoint>
            <Time>2021-03-21T15:40:05.000Z</Time>
            <Position>
              <LatitudeDegrees>36.7333231866359710693359375</LatitudeDegrees>
              <LongitudeDegrees>-5.46957747079432010650634765625</LongitudeDegrees>
            </Position>
            <AltitudeMeters>326.20001220703125</AltitudeMeters>
            <DistanceMeters>3999.4208014176</DistanceMeters>
          </Trackpoint>
          <Trackpoint>
            <Time>2021-03-21T15:40:08.000Z</Time>
            <Position>
              <LatitudeDegrees>36.733323521912097930908203125</LatitudeDegrees>
              <LongitudeDegrees>-5.46957763843238353729248046875</LongitudeDegrees>
            </Position>
            <AltitudeMeters>326.20001220703125</AltitudeMeters>
            <DistanceMeters>3999.4208014176</DistanceMeters>
          </Trackpoint>
          <Trackpoint>
            <Time>2021-03-21T15:40:16.000Z</Time>
            <Position>
              <LatitudeDegrees>36.7333528585731983184814453125</LatitudeDegrees>
              <LongitudeDegrees>-5.46959926374256610870361328125</LongitudeDegrees>
            </Position>
            <AltitudeMeters>326</AltitudeMeters>
            <DistanceMeters>4003.2123554128</DistanceMeters>
          </Trackpoint>
          <Trackpoint>
            <Time>2021-03-21T15:40:22.000Z</Time>
            <Position>
              <LatitudeDegrees>36.73338378779590129852294921875</LatitudeDegrees>
              <LongitudeDegrees>-5.4696094058454036712646484375</LongitudeDegrees>
            </Position>
            <AltitudeMeters>326.20001220703125</AltitudeMeters>
            <DistanceMeters>4006.773005259</DistanceMeters>
          </Trackpoint>
          <Trackpoint>
            <Time>2021-03-21T15:40:23.000Z</Time>
            <Position>
              <LatitudeDegrees>36.73339049331843852996826171875</LatitudeDegrees>
              <LongitudeDegrees>-5.46961552463471889495849609375</LongitudeDegrees>
            </Position>
            <AltitudeMeters>326.20001220703125</AltitudeMeters>
            <DistanceMeters>4007.6992111012</DistanceMeters>
          </Trackpoint>
          <Trackpoint>
            <Time>2021-03-21T15:40:27.000Z</Time>
            <Position>
              <LatitudeDegrees>36.733423769474029541015625</LatitudeDegrees>
              <LongitudeDegrees>-5.4696343839168548583984375</LongitudeDegrees>
            </Position>
            <AltitudeMeters>326.20001220703125</AltitudeMeters>
            <DistanceMeters>4011.7665320924</DistanceMeters>
          </Trackpoint>
          <Trackpoint>
            <Time>2021-03-21T15:40:28.000Z</Time>
            <Position>
              <LatitudeDegrees>36.73342687077820301055908203125</LatitudeDegrees>
              <LongitudeDegrees>-5.46964167617261409759521484375</LongitudeDegrees>
            </Position>
            <AltitudeMeters>326.20001220703125</AltitudeMeters>
            <DistanceMeters>4012.5026058568</DistanceMeters>
          </Trackpoint>
          <Trackpoint>
            <Time>2021-03-21T15:40:29.000Z</Time>
            <Position>
              <LatitudeDegrees>36.73342837952077388763427734375</LatitudeDegrees>
              <LongitudeDegrees>-5.46964955516159534454345703125</LongitudeDegrees>
            </Position>
            <AltitudeMeters>326.20001220703125</AltitudeMeters>
            <DistanceMeters>4013.2263077524</DistanceMeters>
          </Trackpoint>
          <Trackpoint>
            <Time>2021-03-21T15:40:32.000Z</Time>
            <Position>
              <LatitudeDegrees>36.73343257047235965728759765625</LatitudeDegrees>
              <LongitudeDegrees>-5.46969280578196048736572265625</LongitudeDegrees>
            </Position>
            <AltitudeMeters>326.20001220703125</AltitudeMeters>
            <DistanceMeters>4017.1119592827</DistanceMeters>
          </Trackpoint>
          <Trackpoint>
            <Time>2021-03-21T15:40:41.000Z</Time>
            <Position>
              <LatitudeDegrees>36.73347146250307559967041015625</LatitudeDegrees>
              <LongitudeDegrees>-5.46975709497928619384765625</LongitudeDegrees>
            </Position>
            <AltitudeMeters>326.20001220703125</AltitudeMeters>
            <DistanceMeters>4024.2963811073</DistanceMeters>
          </Trackpoint>
          <Trackpoint>
            <Time>2021-03-21T15:40:42.000Z</Time>
            <Position>
              <LatitudeDegrees>36.73348085023462772369384765625</LatitudeDegrees>
              <LongitudeDegrees>-5.46976472251117229461669921875</LongitudeDegrees>
            </Position>
            <AltitudeMeters>326.20001220703125</AltitudeMeters>
            <DistanceMeters>4025.5426447825</DistanceMeters>
          </Trackpoint>
        </Track>
      </Lap>
    </Activity>
  </Activities>
</TrainingCenterDatabase>
